<?xml version="1.0" encoding="UTF-8" standalone="no" ?>
<gpx xmlns="http://www.topografix.com/GPX/1/1" xmlns:xsi="http://www.w3.org/2001/XMLSchema-instance" xsi:schemaLocation="http://www.topografix.com/GPX/1/1 http://www.topografix.com/GPX/1/1/gpx.xsd" version="1.1" creator="VisuGPX - https://www.visugpx.com">
  <metadata>
    <name>De Pelleautier au domaine de Charance</name>
    <desc><![CDATA[Parcours VTT au départ de Pelleautier (05) effectué le 25 avril 2021.]]></desc>
  </metadata>
  <trk>
    <name><![CDATA[domaine du lac charance]]></name>
    <extensions>
      <line xmlns="http://www.topografix.com/GPX/gpx_style/0/2">
        <color>0000FF</color>
        <width>4</width>
      </line>
    </extensions>
    <trkseg>
      <trkpt lat="44.51758" lon="6.01549">
        <ele>995.336859</ele>
        <time>2021-04-25T07:17:57.000Z</time>
      </trkpt>
      <trkpt lat="44.51758" lon="6.01549">
        <ele>995.336859</ele>
        <time>2021-04-25T07:17:57.000Z</time>
      </trkpt>
      <trkpt lat="44.5176" lon="6.01549">
        <ele>995.336859</ele>
        <time>2021-04-25T07:18:00.000Z</time>
      </trkpt>
      <trkpt lat="44.5176" lon="6.01549">
        <ele>995.336859</ele>
        <time>2021-04-25T07:18:01.000Z</time>
      </trkpt>
      <trkpt lat="44.51764" lon="6.01558">
        <ele>995.336859</ele>
        <time>2021-04-25T07:18:05.000Z</time>
      </trkpt>
      <trkpt lat="44.51767" lon="6.01567">
        <ele>995.336859</ele>
        <time>2021-04-25T07:18:09.000Z</time>
      </trkpt>
      <trkpt lat="44.5177" lon="6.01577">
        <ele>995.336859</ele>
        <time>2021-04-25T07:18:14.000Z</time>
      </trkpt>
      <trkpt lat="44.5177" lon="6.01577">
        <ele>995.336859</ele>
        <time>2021-04-25T07:18:18.000Z</time>
      </trkpt>
      <trkpt lat="44.51779" lon="6.01573">
        <ele>995.336859</ele>
        <time>2021-04-25T07:18:20.000Z</time>
      </trkpt>
      <trkpt lat="44.51785" lon="6.01568">
        <ele>995.336859</ele>
        <time>2021-04-25T07:18:24.000Z</time>
      </trkpt>
      <trkpt lat="44.51789" lon="6.01564">
        <ele>995.336859</ele>
        <time>2021-04-25T07:18:28.000Z</time>
      </trkpt>
      <trkpt lat="44.51794" lon="6.0156">
        <ele>995.336859</ele>
        <time>2021-04-25T07:18:31.000Z</time>
      </trkpt>
      <trkpt lat="44.51798" lon="6.01556">
        <ele>995.336859</ele>
        <time>2021-04-25T07:18:34.000Z</time>
      </trkpt>
      <trkpt lat="44.51798" lon="6.01556">
        <ele>995.336859</ele>
        <time>2021-04-25T07:18:35.000Z</time>
      </trkpt>
      <trkpt lat="44.51801" lon="6.01552">
        <ele>995.336859</ele>
        <time>2021-04-25T07:18:37.000Z</time>
      </trkpt>
      <trkpt lat="44.51805" lon="6.01549">
        <ele>995.336859</ele>
        <time>2021-04-25T07:18:40.000Z</time>
      </trkpt>
      <trkpt lat="44.51809" lon="6.01544">
        <ele>995.336859</ele>
        <time>2021-04-25T07:18:44.000Z</time>
      </trkpt>
      <trkpt lat="44.51812" lon="6.0154">
        <ele>995.336859</ele>
        <time>2021-04-25T07:18:47.000Z</time>
      </trkpt>
      <trkpt lat="44.51815" lon="6.01535">
        <ele>995.336859</ele>
        <time>2021-04-25T07:18:50.000Z</time>
      </trkpt>
      <trkpt lat="44.51817" lon="6.0153">
        <ele>995.336859</ele>
        <time>2021-04-25T07:18:53.000Z</time>
      </trkpt>
      <trkpt lat="44.51819" lon="6.01525">
        <ele>995.336859</ele>
        <time>2021-04-25T07:18:56.000Z</time>
      </trkpt>
      <trkpt lat="44.51821" lon="6.0152">
        <ele>995.314419</ele>
        <time>2021-04-25T07:18:59.000Z</time>
      </trkpt>
      <trkpt lat="44.51822" lon="6.01514">
        <ele>995.234641</ele>
        <time>2021-04-25T07:19:03.000Z</time>
      </trkpt>
      <trkpt lat="44.51824" lon="6.01507">
        <ele>995.141184</ele>
        <time>2021-04-25T07:19:07.000Z</time>
      </trkpt>
      <trkpt lat="44.51825" lon="6.01498">
        <ele>995.03753</ele>
        <time>2021-04-25T07:19:11.000Z</time>
      </trkpt>
      <trkpt lat="44.51826" lon="6.01491">
        <ele>994.950278</ele>
        <time>2021-04-25T07:19:15.000Z</time>
      </trkpt>
      <trkpt lat="44.51828" lon="6.01484">
        <ele>994.856475</ele>
        <time>2021-04-25T07:19:19.000Z</time>
      </trkpt>
      <trkpt lat="44.51828" lon="6.01477">
        <ele>994.773763</ele>
        <time>2021-04-25T07:19:22.000Z</time>
      </trkpt>
      <trkpt lat="44.5183" lon="6.0147">
        <ele>994.6858</ele>
        <time>2021-04-25T07:19:25.000Z</time>
      </trkpt>
      <trkpt lat="44.5183" lon="6.01461">
        <ele>994.578236</ele>
        <time>2021-04-25T07:19:28.000Z</time>
      </trkpt>
      <trkpt lat="44.51831" lon="6.01455">
        <ele>994.498699</ele>
        <time>2021-04-25T07:19:30.000Z</time>
      </trkpt>
      <trkpt lat="44.51833" lon="6.01447">
        <ele>994.404078</ele>
        <time>2021-04-25T07:19:32.000Z</time>
      </trkpt>
      <trkpt lat="44.51836" lon="6.01437">
        <ele>994.268338</ele>
        <time>2021-04-25T07:19:34.000Z</time>
      </trkpt>
      <trkpt lat="44.51839" lon="6.01425">
        <ele>994.108198</ele>
        <time>2021-04-25T07:19:36.000Z</time>
      </trkpt>
      <trkpt lat="44.51841" lon="6.01418">
        <ele>994.01987</ele>
        <time>2021-04-25T07:19:37.000Z</time>
      </trkpt>
      <trkpt lat="44.51843" lon="6.0141">
        <ele>993.925844</ele>
        <time>2021-04-25T07:19:38.000Z</time>
      </trkpt>
      <trkpt lat="44.51845" lon="6.01403">
        <ele>993.828839</ele>
        <time>2021-04-25T07:19:39.000Z</time>
      </trkpt>
      <trkpt lat="44.51848" lon="6.01395">
        <ele>993.726713</ele>
        <time>2021-04-25T07:19:40.000Z</time>
      </trkpt>
      <trkpt lat="44.5185" lon="6.01387">
        <ele>993.616099</ele>
        <time>2021-04-25T07:19:41.000Z</time>
      </trkpt>
      <trkpt lat="44.51852" lon="6.01378">
        <ele>993.49757</ele>
        <time>2021-04-25T07:19:42.000Z</time>
      </trkpt>
      <trkpt lat="44.51855" lon="6.01368">
        <ele>993.372189</ele>
        <time>2021-04-25T07:19:43.000Z</time>
      </trkpt>
      <trkpt lat="44.51858" lon="6.01358">
        <ele>993.242266</ele>
        <time>2021-04-25T07:19:44.000Z</time>
      </trkpt>
      <trkpt lat="44.5186" lon="6.01347">
        <ele>993.110621</ele>
        <time>2021-04-25T07:19:45.000Z</time>
      </trkpt>
      <trkpt lat="44.51863" lon="6.01337">
        <ele>992.975536</ele>
        <time>2021-04-25T07:19:46.000Z</time>
      </trkpt>
      <trkpt lat="44.51865" lon="6.01326">
        <ele>992.842745</ele>
        <time>2021-04-25T07:19:47.000Z</time>
      </trkpt>
      <trkpt lat="44.51868" lon="6.01316">
        <ele>992.709955</ele>
        <time>2021-04-25T07:19:48.000Z</time>
      </trkpt>
      <trkpt lat="44.5187" lon="6.01306">
        <ele>992.577754</ele>
        <time>2021-04-25T07:19:49.000Z</time>
      </trkpt>
      <trkpt lat="44.51873" lon="6.01295">
        <ele>992.443269</ele>
        <time>2021-04-25T07:19:50.000Z</time>
      </trkpt>
      <trkpt lat="44.51875" lon="6.01285">
        <ele>992.308785</ele>
        <time>2021-04-25T07:19:51.000Z</time>
      </trkpt>
      <trkpt lat="44.51878" lon="6.01274">
        <ele>991.833157</ele>
        <time>2021-04-25T07:19:52.000Z</time>
      </trkpt>
      <trkpt lat="44.5188" lon="6.01263">
        <ele>991.287079</ele>
        <time>2021-04-25T07:19:53.000Z</time>
      </trkpt>
      <trkpt lat="44.51882" lon="6.01252">
        <ele>990.76451</ele>
        <time>2021-04-25T07:19:54.000Z</time>
      </trkpt>
      <trkpt lat="44.51884" lon="6.01241">
        <ele>990.248026</ele>
        <time>2021-04-25T07:19:55.000Z</time>
      </trkpt>
      <trkpt lat="44.51885" lon="6.0123">
        <ele>989.728845</ele>
        <time>2021-04-25T07:19:56.000Z</time>
      </trkpt>
      <trkpt lat="44.51885" lon="6.0122">
        <ele>989.21859</ele>
        <time>2021-04-25T07:19:57.000Z</time>
      </trkpt>
      <trkpt lat="44.51884" lon="6.01209">
        <ele>988.711542</ele>
        <time>2021-04-25T07:19:58.000Z</time>
      </trkpt>
      <trkpt lat="44.51883" lon="6.01198">
        <ele>988.194111</ele>
        <time>2021-04-25T07:19:59.000Z</time>
      </trkpt>
      <trkpt lat="44.51881" lon="6.01187">
        <ele>987.678946</ele>
        <time>2021-04-25T07:20:00.000Z</time>
      </trkpt>
      <trkpt lat="44.5188" lon="6.01177">
        <ele>987.177679</ele>
        <time>2021-04-25T07:20:01.000Z</time>
      </trkpt>
      <trkpt lat="44.51878" lon="6.01167">
        <ele>986.679674</ele>
        <time>2021-04-25T07:20:02.000Z</time>
      </trkpt>
      <trkpt lat="44.51877" lon="6.01157">
        <ele>986.198235</ele>
        <time>2021-04-25T07:20:03.000Z</time>
      </trkpt>
      <trkpt lat="44.51876" lon="6.01147">
        <ele>985.726063</ele>
        <time>2021-04-25T07:20:04.000Z</time>
      </trkpt>
      <trkpt lat="44.51874" lon="6.01137">
        <ele>985.266722</ele>
        <time>2021-04-25T07:20:05.000Z</time>
      </trkpt>
      <trkpt lat="44.51874" lon="6.01128">
        <ele>984.815534</ele>
        <time>2021-04-25T07:20:06.000Z</time>
      </trkpt>
      <trkpt lat="44.51874" lon="6.01118">
        <ele>984.366687</ele>
        <time>2021-04-25T07:20:07.000Z</time>
      </trkpt>
      <trkpt lat="44.51874" lon="6.01109">
        <ele>983.929594</ele>
        <time>2021-04-25T07:20:08.000Z</time>
      </trkpt>
      <trkpt lat="44.51876" lon="6.011">
        <ele>983.503642</ele>
        <time>2021-04-25T07:20:09.000Z</time>
      </trkpt>
      <trkpt lat="44.51878" lon="6.01092">
        <ele>983.107373</ele>
        <time>2021-04-25T07:20:10.000Z</time>
      </trkpt>
      <trkpt lat="44.51881" lon="6.01086">
        <ele>982.740492</ele>
        <time>2021-04-25T07:20:11.000Z</time>
      </trkpt>
      <trkpt lat="44.51884" lon="6.01081">
        <ele>982.407184</ele>
        <time>2021-04-25T07:20:12.000Z</time>
      </trkpt>
      <trkpt lat="44.51888" lon="6.01076">
        <ele>982.105038</ele>
        <time>2021-04-25T07:20:13.000Z</time>
      </trkpt>
      <trkpt lat="44.51892" lon="6.01073">
        <ele>981.808024</ele>
        <time>2021-04-25T07:20:14.000Z</time>
      </trkpt>
      <trkpt lat="44.51896" lon="6.01072">
        <ele>981.524752</ele>
        <time>2021-04-25T07:20:15.000Z</time>
      </trkpt>
      <trkpt lat="44.51904" lon="6.0107">
        <ele>980.96595</ele>
        <time>2021-04-25T07:20:17.000Z</time>
      </trkpt>
      <trkpt lat="44.51908" lon="6.01068">
        <ele>980.661539</ele>
        <time>2021-04-25T07:20:18.000Z</time>
      </trkpt>
      <trkpt lat="44.51913" lon="6.01068">
        <ele>980.368637</ele>
        <time>2021-04-25T07:20:19.000Z</time>
      </trkpt>
      <trkpt lat="44.51917" lon="6.01068">
        <ele>980.284938</ele>
        <time>2021-04-25T07:20:20.000Z</time>
      </trkpt>
      <trkpt lat="44.51926" lon="6.01068">
        <ele>980.113313</ele>
        <time>2021-04-25T07:20:21.000Z</time>
      </trkpt>
      <trkpt lat="44.51931" lon="6.01068">
        <ele>980.026373</ele>
        <time>2021-04-25T07:20:23.000Z</time>
      </trkpt>
      <trkpt lat="44.51935" lon="6.01067">
        <ele>979.937158</ele>
        <time>2021-04-25T07:20:24.000Z</time>
      </trkpt>
      <trkpt lat="44.5194" lon="6.01066">
        <ele>979.849514</ele>
        <time>2021-04-25T07:20:25.000Z</time>
      </trkpt>
      <trkpt lat="44.51944" lon="6.01065">
        <ele>979.759761</ele>
        <time>2021-04-25T07:20:26.000Z</time>
      </trkpt>
      <trkpt lat="44.51949" lon="6.01064">
        <ele>979.669546</ele>
        <time>2021-04-25T07:20:27.000Z</time>
      </trkpt>
      <trkpt lat="44.51953" lon="6.01063">
        <ele>979.578787</ele>
        <time>2021-04-25T07:20:28.000Z</time>
      </trkpt>
      <trkpt lat="44.51958" lon="6.01061">
        <ele>979.487728</ele>
        <time>2021-04-25T07:20:29.000Z</time>
      </trkpt>
      <trkpt lat="44.51963" lon="6.01059">
        <ele>979.396006</ele>
        <time>2021-04-25T07:20:30.000Z</time>
      </trkpt>
      <trkpt lat="44.51967" lon="6.01057">
        <ele>979.305394</ele>
        <time>2021-04-25T07:20:31.000Z</time>
      </trkpt>
      <trkpt lat="44.51972" lon="6.01055">
        <ele>979.212119</ele>
        <time>2021-04-25T07:20:32.000Z</time>
      </trkpt>
      <trkpt lat="44.51976" lon="6.01053">
        <ele>979.117487</ele>
        <time>2021-04-25T07:20:33.000Z</time>
      </trkpt>
      <trkpt lat="44.51981" lon="6.0105">
        <ele>979.025427</ele>
        <time>2021-04-25T07:20:34.000Z</time>
      </trkpt>
      <trkpt lat="44.51985" lon="6.01048">
        <ele>978.930505</ele>
        <time>2021-04-25T07:20:35.000Z</time>
      </trkpt>
      <trkpt lat="44.5199" lon="6.01045">
        <ele>978.834436</ele>
        <time>2021-04-25T07:20:36.000Z</time>
      </trkpt>
      <trkpt lat="44.51994" lon="6.01041">
        <ele>978.73887</ele>
        <time>2021-04-25T07:20:37.000Z</time>
      </trkpt>
      <trkpt lat="44.51999" lon="6.01038">
        <ele>978.641589</ele>
        <time>2021-04-25T07:20:38.000Z</time>
      </trkpt>
      <trkpt lat="44.52003" lon="6.01035">
        <ele>978.545382</ele>
        <time>2021-04-25T07:20:39.000Z</time>
      </trkpt>
      <trkpt lat="44.52007" lon="6.01032">
        <ele>978.450872</ele>
        <time>2021-04-25T07:20:40.000Z</time>
      </trkpt>
      <trkpt lat="44.52012" lon="6.01028">
        <ele>978.358049</ele>
        <time>2021-04-25T07:20:41.000Z</time>
      </trkpt>
      <trkpt lat="44.52016" lon="6.01025">
        <ele>978.263851</ele>
        <time>2021-04-25T07:20:42.000Z</time>
      </trkpt>
      <trkpt lat="44.5202" lon="6.01021">
        <ele>978.16799</ele>
        <time>2021-04-25T07:20:43.000Z</time>
      </trkpt>
      <trkpt lat="44.52024" lon="6.01018">
        <ele>978.074487</ele>
        <time>2021-04-25T07:20:44.000Z</time>
      </trkpt>
      <trkpt lat="44.52029" lon="6.01014">
        <ele>977.977625</ele>
        <time>2021-04-25T07:20:45.000Z</time>
      </trkpt>
      <trkpt lat="44.52033" lon="6.01011">
        <ele>977.880092</ele>
        <time>2021-04-25T07:20:46.000Z</time>
      </trkpt>
      <trkpt lat="44.52037" lon="6.01007">
        <ele>977.781874</ele>
        <time>2021-04-25T07:20:47.000Z</time>
      </trkpt>
      <trkpt lat="44.52042" lon="6.01004">
        <ele>977.681986</ele>
        <time>2021-04-25T07:20:48.000Z</time>
      </trkpt>
      <trkpt lat="44.52046" lon="6.01">
        <ele>977.583067</ele>
        <time>2021-04-25T07:20:49.000Z</time>
      </trkpt>
      <trkpt lat="44.52051" lon="6.00996">
        <ele>977.481073</ele>
        <time>2021-04-25T07:20:50.000Z</time>
      </trkpt>
      <trkpt lat="44.52055" lon="6.00992">
        <ele>977.379794</ele>
        <time>2021-04-25T07:20:51.000Z</time>
      </trkpt>
      <trkpt lat="44.5206" lon="6.00989">
        <ele>977.278515</ele>
        <time>2021-04-25T07:20:52.000Z</time>
      </trkpt>
      <trkpt lat="44.52064" lon="6.00985">
        <ele>977.177938</ele>
        <time>2021-04-25T07:20:53.000Z</time>
      </trkpt>
      <trkpt lat="44.52069" lon="6.00981">
        <ele>977.076659</ele>
        <time>2021-04-25T07:20:54.000Z</time>
      </trkpt>
      <trkpt lat="44.52073" lon="6.00977">
        <ele>976.977027</ele>
        <time>2021-04-25T07:20:55.000Z</time>
      </trkpt>
      <trkpt lat="44.52078" lon="6.00973">
        <ele>976.885808</ele>
        <time>2021-04-25T07:20:56.000Z</time>
      </trkpt>
      <trkpt lat="44.52082" lon="6.00969">
        <ele>976.827315</ele>
        <time>2021-04-25T07:20:57.000Z</time>
      </trkpt>
      <trkpt lat="44.52086" lon="6.00965">
        <ele>976.768328</ele>
        <time>2021-04-25T07:20:58.000Z</time>
      </trkpt>
      <trkpt lat="44.52091" lon="6.00961">
        <ele>976.70938</ele>
        <time>2021-04-25T07:20:59.000Z</time>
      </trkpt>
      <trkpt lat="44.52095" lon="6.00957">
        <ele>976.64997</ele>
        <time>2021-04-25T07:21:00.000Z</time>
      </trkpt>
      <trkpt lat="44.52099" lon="6.00952">
        <ele>976.589614</ele>
        <time>2021-04-25T07:21:01.000Z</time>
      </trkpt>
      <trkpt lat="44.52103" lon="6.00947">
        <ele>976.529016</ele>
        <time>2021-04-25T07:21:02.000Z</time>
      </trkpt>
      <trkpt lat="44.52107" lon="6.00942">
        <ele>976.467926</ele>
        <time>2021-04-25T07:21:03.000Z</time>
      </trkpt>
      <trkpt lat="44.52111" lon="6.00936">
        <ele>976.405918</ele>
        <time>2021-04-25T07:21:04.000Z</time>
      </trkpt>
      <trkpt lat="44.52115" lon="6.00931">
        <ele>976.344841</ele>
        <time>2021-04-25T07:21:05.000Z</time>
      </trkpt>
      <trkpt lat="44.52118" lon="6.00925">
        <ele>976.282554</ele>
        <time>2021-04-25T07:21:06.000Z</time>
      </trkpt>
      <trkpt lat="44.52122" lon="6.00919">
        <ele>976.220374</ele>
        <time>2021-04-25T07:21:07.000Z</time>
      </trkpt>
      <trkpt lat="44.52125" lon="6.00913">
        <ele>976.1589</ele>
        <time>2021-04-25T07:21:08.000Z</time>
      </trkpt>
      <trkpt lat="44.52129" lon="6.00907">
        <ele>976.096163</ele>
        <time>2021-04-25T07:21:09.000Z</time>
      </trkpt>
      <trkpt lat="44.52132" lon="6.009">
        <ele>976.033426</ele>
        <time>2021-04-25T07:21:10.000Z</time>
      </trkpt>
      <trkpt lat="44.52135" lon="6.00894">
        <ele>975.969365</ele>
        <time>2021-04-25T07:21:11.000Z</time>
      </trkpt>
      <trkpt lat="44.52139" lon="6.00888">
        <ele>975.904704</ele>
        <time>2021-04-25T07:21:12.000Z</time>
      </trkpt>
      <trkpt lat="44.52142" lon="6.00881">
        <ele>975.839318</ele>
        <time>2021-04-25T07:21:13.000Z</time>
      </trkpt>
      <trkpt lat="44.52146" lon="6.00875">
        <ele>975.772666</ele>
        <time>2021-04-25T07:21:14.000Z</time>
      </trkpt>
      <trkpt lat="44.5215" lon="6.00868">
        <ele>975.706649</ele>
        <time>2021-04-25T07:21:15.000Z</time>
      </trkpt>
      <trkpt lat="44.52153" lon="6.00861">
        <ele>975.639996</ele>
        <time>2021-04-25T07:21:16.000Z</time>
      </trkpt>
      <trkpt lat="44.52157" lon="6.00855">
        <ele>975.571953</ele>
        <time>2021-04-25T07:21:17.000Z</time>
      </trkpt>
      <trkpt lat="44.52161" lon="6.00848">
        <ele>975.505151</ele>
        <time>2021-04-25T07:21:18.000Z</time>
      </trkpt>
      <trkpt lat="44.52165" lon="6.00842">
        <ele>975.437488</ele>
        <time>2021-04-25T07:21:19.000Z</time>
      </trkpt>
      <trkpt lat="44.52169" lon="6.00836">
        <ele>975.369253</ele>
        <time>2021-04-25T07:21:20.000Z</time>
      </trkpt>
      <trkpt lat="44.52174" lon="6.0083">
        <ele>975.300773</ele>
        <time>2021-04-25T07:21:21.000Z</time>
      </trkpt>
      <trkpt lat="44.52178" lon="6.00825">
        <ele>975.232773</ele>
        <time>2021-04-25T07:21:22.000Z</time>
      </trkpt>
      <trkpt lat="44.52183" lon="6.0082">
        <ele>975.16503</ele>
        <time>2021-04-25T07:21:23.000Z</time>
      </trkpt>
      <trkpt lat="44.52188" lon="6.00815">
        <ele>975.096867</ele>
        <time>2021-04-25T07:21:24.000Z</time>
      </trkpt>
      <trkpt lat="44.52193" lon="6.0081">
        <ele>975.029509</ele>
        <time>2021-04-25T07:21:25.000Z</time>
      </trkpt>
      <trkpt lat="44.52198" lon="6.00806">
        <ele>974.962977</ele>
        <time>2021-04-25T07:21:26.000Z</time>
      </trkpt>
      <trkpt lat="44.52204" lon="6.00802">
        <ele>974.895011</ele>
        <time>2021-04-25T07:21:27.000Z</time>
      </trkpt>
      <trkpt lat="44.52209" lon="6.00799">
        <ele>974.817979</ele>
        <time>2021-04-25T07:21:28.000Z</time>
      </trkpt>
      <trkpt lat="44.52215" lon="6.00796">
        <ele>974.737013</ele>
        <time>2021-04-25T07:21:29.000Z</time>
      </trkpt>
      <trkpt lat="44.5222" lon="6.00794">
        <ele>974.65734</ele>
        <time>2021-04-25T07:21:30.000Z</time>
      </trkpt>
      <trkpt lat="44.52226" lon="6.00791">
        <ele>974.576958</ele>
        <time>2021-04-25T07:21:31.000Z</time>
      </trkpt>
      <trkpt lat="44.52232" lon="6.00789">
        <ele>974.496511</ele>
        <time>2021-04-25T07:21:32.000Z</time>
      </trkpt>
      <trkpt lat="44.52238" lon="6.00788">
        <ele>974.415347</ele>
        <time>2021-04-25T07:21:33.000Z</time>
      </trkpt>
      <trkpt lat="44.52244" lon="6.00786">
        <ele>974.334681</ele>
        <time>2021-04-25T07:21:34.000Z</time>
      </trkpt>
      <trkpt lat="44.52249" lon="6.00785">
        <ele>974.255495</ele>
        <time>2021-04-25T07:21:35.000Z</time>
      </trkpt>
      <trkpt lat="44.52255" lon="6.00784">
        <ele>974.175105</ele>
        <time>2021-04-25T07:21:36.000Z</time>
      </trkpt>
      <trkpt lat="44.52261" lon="6.00783">
        <ele>974.096054</ele>
        <time>2021-04-25T07:21:37.000Z</time>
      </trkpt>
      <trkpt lat="44.52267" lon="6.00782">
        <ele>974.017003</ele>
        <time>2021-04-25T07:21:38.000Z</time>
      </trkpt>
      <trkpt lat="44.52273" lon="6.00781">
        <ele>973.936942</ele>
        <time>2021-04-25T07:21:39.000Z</time>
      </trkpt>
      <trkpt lat="44.52279" lon="6.00781">
        <ele>973.857108</ele>
        <time>2021-04-25T07:21:40.000Z</time>
      </trkpt>
      <trkpt lat="44.52285" lon="6.0078">
        <ele>973.77721</ele>
        <time>2021-04-25T07:21:41.000Z</time>
      </trkpt>
      <trkpt lat="44.5229" lon="6.00779">
        <ele>973.698724</ele>
        <time>2021-04-25T07:21:42.000Z</time>
      </trkpt>
      <trkpt lat="44.52296" lon="6.00779">
        <ele>973.621442</ele>
        <time>2021-04-25T07:21:43.000Z</time>
      </trkpt>
      <trkpt lat="44.52302" lon="6.00777">
        <ele>973.544613</ele>
        <time>2021-04-25T07:21:44.000Z</time>
      </trkpt>
      <trkpt lat="44.52307" lon="6.00776">
        <ele>973.465904</ele>
        <time>2021-04-25T07:21:45.000Z</time>
      </trkpt>
      <trkpt lat="44.52313" lon="6.00774">
        <ele>973.388307</ele>
        <time>2021-04-25T07:21:46.000Z</time>
      </trkpt>
      <trkpt lat="44.52319" lon="6.00772">
        <ele>973.308947</ele>
        <time>2021-04-25T07:21:47.000Z</time>
      </trkpt>
      <trkpt lat="44.52324" lon="6.0077">
        <ele>973.230134</ele>
        <time>2021-04-25T07:21:48.000Z</time>
      </trkpt>
      <trkpt lat="44.5233" lon="6.00767">
        <ele>973.152335</ele>
        <time>2021-04-25T07:21:49.000Z</time>
      </trkpt>
      <trkpt lat="44.52335" lon="6.00765">
        <ele>973.074537</ele>
        <time>2021-04-25T07:21:50.000Z</time>
      </trkpt>
      <trkpt lat="44.52341" lon="6.00763">
        <ele>972.997289</ele>
        <time>2021-04-25T07:21:51.000Z</time>
      </trkpt>
      <trkpt lat="44.52346" lon="6.0076">
        <ele>972.919199</ele>
        <time>2021-04-25T07:21:52.000Z</time>
      </trkpt>
      <trkpt lat="44.52358" lon="6.00756">
        <ele>972.759501</ele>
        <time>2021-04-25T07:21:54.000Z</time>
      </trkpt>
      <trkpt lat="44.52363" lon="6.00753">
        <ele>972.679651</ele>
        <time>2021-04-25T07:21:55.000Z</time>
      </trkpt>
      <trkpt lat="44.52369" lon="6.00751">
        <ele>972.600838</ele>
        <time>2021-04-25T07:21:56.000Z</time>
      </trkpt>
      <trkpt lat="44.52375" lon="6.00749">
        <ele>972.520457</ele>
        <time>2021-04-25T07:21:57.000Z</time>
      </trkpt>
      <trkpt lat="44.5238" lon="6.00746">
        <ele>972.45098</ele>
        <time>2021-04-25T07:21:58.000Z</time>
      </trkpt>
      <trkpt lat="44.52386" lon="6.00744">
        <ele>972.508886</ele>
        <time>2021-04-25T07:21:59.000Z</time>
      </trkpt>
      <trkpt lat="44.52391" lon="6.00742">
        <ele>972.567563</ele>
        <time>2021-04-25T07:22:00.000Z</time>
      </trkpt>
      <trkpt lat="44.52397" lon="6.0074">
        <ele>972.623716</ele>
        <time>2021-04-25T07:22:01.000Z</time>
      </trkpt>
      <trkpt lat="44.52402" lon="6.00737">
        <ele>972.680479</ele>
        <time>2021-04-25T07:22:02.000Z</time>
      </trkpt>
      <trkpt lat="44.52408" lon="6.00735">
        <ele>972.737243</ele>
        <time>2021-04-25T07:22:03.000Z</time>
      </trkpt>
      <trkpt lat="44.52413" lon="6.00733">
        <ele>972.792629</ele>
        <time>2021-04-25T07:22:04.000Z</time>
      </trkpt>
      <trkpt lat="44.52418" lon="6.00731">
        <ele>972.848782</ele>
        <time>2021-04-25T07:22:05.000Z</time>
      </trkpt>
      <trkpt lat="44.52423" lon="6.00729">
        <ele>972.900173</ele>
        <time>2021-04-25T07:22:06.000Z</time>
      </trkpt>
      <trkpt lat="44.52428" lon="6.00727">
        <ele>972.953238</ele>
        <time>2021-04-25T07:22:07.000Z</time>
      </trkpt>
      <trkpt lat="44.52434" lon="6.00725">
        <ele>973.007665</ele>
        <time>2021-04-25T07:22:08.000Z</time>
      </trkpt>
      <trkpt lat="44.52439" lon="6.00723">
        <ele>973.06199</ele>
        <time>2021-04-25T07:22:09.000Z</time>
      </trkpt>
      <trkpt lat="44.52444" lon="6.00722">
        <ele>973.117153</ele>
        <time>2021-04-25T07:22:10.000Z</time>
      </trkpt>
      <trkpt lat="44.5245" lon="6.0072">
        <ele>973.177115</ele>
        <time>2021-04-25T07:22:11.000Z</time>
      </trkpt>
      <trkpt lat="44.52456" lon="6.00719">
        <ele>973.238943</ele>
        <time>2021-04-25T07:22:12.000Z</time>
      </trkpt>
      <trkpt lat="44.52463" lon="6.00718">
        <ele>973.304468</ele>
        <time>2021-04-25T07:22:13.000Z</time>
      </trkpt>
      <trkpt lat="44.52469" lon="6.00717">
        <ele>973.369852</ele>
        <time>2021-04-25T07:22:14.000Z</time>
      </trkpt>
      <trkpt lat="44.52476" lon="6.00717">
        <ele>973.435049</ele>
        <time>2021-04-25T07:22:15.000Z</time>
      </trkpt>
      <trkpt lat="44.52483" lon="6.00717">
        <ele>973.502188</ele>
        <time>2021-04-25T07:22:16.000Z</time>
      </trkpt>
      <trkpt lat="44.52489" lon="6.00717">
        <ele>973.571423</ele>
        <time>2021-04-25T07:22:17.000Z</time>
      </trkpt>
      <trkpt lat="44.52496" lon="6.00719">
        <ele>973.640015</ele>
        <time>2021-04-25T07:22:18.000Z</time>
      </trkpt>
      <trkpt lat="44.52503" lon="6.00719">
        <ele>973.704402</ele>
        <time>2021-04-25T07:22:19.000Z</time>
      </trkpt>
      <trkpt lat="44.52509" lon="6.0072">
        <ele>973.765865</ele>
        <time>2021-04-25T07:22:20.000Z</time>
      </trkpt>
      <trkpt lat="44.52515" lon="6.00721">
        <ele>973.824422</ele>
        <time>2021-04-25T07:22:21.000Z</time>
      </trkpt>
      <trkpt lat="44.5252" lon="6.00722">
        <ele>973.876242</ele>
        <time>2021-04-25T07:22:22.000Z</time>
      </trkpt>
      <trkpt lat="44.52524" lon="6.00723">
        <ele>973.921897</ele>
        <time>2021-04-25T07:22:23.000Z</time>
      </trkpt>
      <trkpt lat="44.52532" lon="6.00725">
        <ele>974.00459</ele>
        <time>2021-04-25T07:22:25.000Z</time>
      </trkpt>
      <trkpt lat="44.5254" lon="6.00726">
        <ele>974.078242</ele>
        <time>2021-04-25T07:22:27.000Z</time>
      </trkpt>
      <trkpt lat="44.52548" lon="6.00727">
        <ele>974.157794</ele>
        <time>2021-04-25T07:22:30.000Z</time>
      </trkpt>
      <trkpt lat="44.52548" lon="6.00727">
        <ele>974.157794</ele>
        <time>2021-04-25T07:22:31.000Z</time>
      </trkpt>
      <trkpt lat="44.52548" lon="6.00727">
        <ele>974.157794</ele>
        <time>2021-04-25T07:22:32.000Z</time>
      </trkpt>
      <trkpt lat="44.52554" lon="6.00728">
        <ele>974.227305</ele>
        <time>2021-04-25T07:22:33.000Z</time>
      </trkpt>
      <trkpt lat="44.52554" lon="6.00728">
        <ele>974.227305</ele>
        <time>2021-04-25T07:22:35.000Z</time>
      </trkpt>
      <trkpt lat="44.52561" lon="6.00729">
        <ele>974.79422</ele>
        <time>2021-04-25T07:22:36.000Z</time>
      </trkpt>
      <trkpt lat="44.52561" lon="6.00729">
        <ele>974.79422</ele>
        <time>2021-04-25T07:22:38.000Z</time>
      </trkpt>
      <trkpt lat="44.52569" lon="6.00731">
        <ele>975.730398</ele>
        <time>2021-04-25T07:22:40.000Z</time>
      </trkpt>
      <trkpt lat="44.52576" lon="6.00733">
        <ele>976.529245</ele>
        <time>2021-04-25T07:22:44.000Z</time>
      </trkpt>
      <trkpt lat="44.52576" lon="6.00733">
        <ele>976.529245</ele>
        <time>2021-04-25T07:22:46.000Z</time>
      </trkpt>
      <trkpt lat="44.52582" lon="6.00735">
        <ele>977.285956</ele>
        <time>2021-04-25T07:22:47.000Z</time>
      </trkpt>
      <trkpt lat="44.52582" lon="6.00735">
        <ele>977.285956</ele>
        <time>2021-04-25T07:22:49.000Z</time>
      </trkpt>
      <trkpt lat="44.52588" lon="6.00737">
        <ele>978.011239</ele>
        <time>2021-04-25T07:22:50.000Z</time>
      </trkpt>
      <trkpt lat="44.52594" lon="6.00739">
        <ele>978.67184</ele>
        <time>2021-04-25T07:22:53.000Z</time>
      </trkpt>
      <trkpt lat="44.52594" lon="6.00739">
        <ele>978.67184</ele>
        <time>2021-04-25T07:22:54.000Z</time>
      </trkpt>
      <trkpt lat="44.526" lon="6.0074">
        <ele>979.384964</ele>
        <time>2021-04-25T07:22:56.000Z</time>
      </trkpt>
      <trkpt lat="44.526" lon="6.0074">
        <ele>979.384964</ele>
        <time>2021-04-25T07:22:58.000Z</time>
      </trkpt>
      <trkpt lat="44.52605" lon="6.0074">
        <ele>979.991897</ele>
        <time>2021-04-25T07:22:59.000Z</time>
      </trkpt>
      <trkpt lat="44.52605" lon="6.0074">
        <ele>979.991897</ele>
        <time>2021-04-25T07:23:01.000Z</time>
      </trkpt>
      <trkpt lat="44.5261" lon="6.00739">
        <ele>980.587584</ele>
        <time>2021-04-25T07:23:02.000Z</time>
      </trkpt>
      <trkpt lat="44.52615" lon="6.0074">
        <ele>981.163897</ele>
        <time>2021-04-25T07:23:05.000Z</time>
      </trkpt>
      <trkpt lat="44.52615" lon="6.0074">
        <ele>981.163897</ele>
        <time>2021-04-25T07:23:07.000Z</time>
      </trkpt>
      <trkpt lat="44.52621" lon="6.00741">
        <ele>981.911</ele>
        <time>2021-04-25T07:23:09.000Z</time>
      </trkpt>
      <trkpt lat="44.52621" lon="6.00741">
        <ele>981.911</ele>
        <time>2021-04-25T07:23:11.000Z</time>
      </trkpt>
      <trkpt lat="44.52629" lon="6.00741">
        <ele>982.844287</ele>
        <time>2021-04-25T07:23:13.000Z</time>
      </trkpt>
      <trkpt lat="44.52629" lon="6.00741">
        <ele>982.844287</ele>
        <time>2021-04-25T07:23:14.000Z</time>
      </trkpt>
      <trkpt lat="44.52637" lon="6.00741">
        <ele>983.719287</ele>
        <time>2021-04-25T07:23:17.000Z</time>
      </trkpt>
      <trkpt lat="44.52637" lon="6.00741">
        <ele>983.719287</ele>
        <time>2021-04-25T07:23:19.000Z</time>
      </trkpt>
      <trkpt lat="44.52643" lon="6.00741">
        <ele>984.408595</ele>
        <time>2021-04-25T07:23:20.000Z</time>
      </trkpt>
      <trkpt lat="44.52643" lon="6.00741">
        <ele>984.408595</ele>
        <time>2021-04-25T07:23:24.000Z</time>
      </trkpt>
      <trkpt lat="44.5265" lon="6.00741">
        <ele>985.271618</ele>
        <time>2021-04-25T07:23:25.000Z</time>
      </trkpt>
      <trkpt lat="44.52657" lon="6.00742">
        <ele>986.079035</ele>
        <time>2021-04-25T07:23:30.000Z</time>
      </trkpt>
      <trkpt lat="44.52665" lon="6.00742">
        <ele>986.943018</ele>
        <time>2021-04-25T07:23:34.000Z</time>
      </trkpt>
      <trkpt lat="44.52665" lon="6.00742">
        <ele>986.943018</ele>
        <time>2021-04-25T07:23:36.000Z</time>
      </trkpt>
      <trkpt lat="44.52672" lon="6.00742">
        <ele>987.806361</ele>
        <time>2021-04-25T07:23:38.000Z</time>
      </trkpt>
      <trkpt lat="44.52678" lon="6.00743">
        <ele>988.520841</ele>
        <time>2021-04-25T07:23:42.000Z</time>
      </trkpt>
      <trkpt lat="44.52678" lon="6.00743">
        <ele>988.520841</ele>
        <time>2021-04-25T07:23:43.000Z</time>
      </trkpt>
      <trkpt lat="44.52678" lon="6.00743">
        <ele>988.520841</ele>
        <time>2021-04-25T07:23:46.000Z</time>
      </trkpt>
      <trkpt lat="44.52685" lon="6.00742">
        <ele>989.294156</ele>
        <time>2021-04-25T07:23:47.000Z</time>
      </trkpt>
      <trkpt lat="44.52691" lon="6.0074">
        <ele>989.99342</ele>
        <time>2021-04-25T07:23:51.000Z</time>
      </trkpt>
      <trkpt lat="44.52696" lon="6.0074">
        <ele>990.659449</ele>
        <time>2021-04-25T07:23:55.000Z</time>
      </trkpt>
      <trkpt lat="44.52702" lon="6.00739">
        <ele>991.314419</ele>
        <time>2021-04-25T07:23:59.000Z</time>
      </trkpt>
      <trkpt lat="44.52702" lon="6.00739">
        <ele>991.314419</ele>
        <time>2021-04-25T07:24:00.000Z</time>
      </trkpt>
      <trkpt lat="44.52706" lon="6.00738">
        <ele>991.854015</ele>
        <time>2021-04-25T07:24:03.000Z</time>
      </trkpt>
      <trkpt lat="44.52706" lon="6.00738">
        <ele>991.854015</ele>
        <time>2021-04-25T07:24:05.000Z</time>
      </trkpt>
      <trkpt lat="44.52712" lon="6.00738">
        <ele>992.464071</ele>
        <time>2021-04-25T07:24:07.000Z</time>
      </trkpt>
      <trkpt lat="44.52712" lon="6.00738">
        <ele>992.464071</ele>
        <time>2021-04-25T07:24:09.000Z</time>
      </trkpt>
      <trkpt lat="44.52716" lon="6.00737">
        <ele>992.966636</ele>
        <time>2021-04-25T07:24:10.000Z</time>
      </trkpt>
      <trkpt lat="44.52716" lon="6.00737">
        <ele>992.966636</ele>
        <time>2021-04-25T07:24:12.000Z</time>
      </trkpt>
      <trkpt lat="44.52721" lon="6.00737">
        <ele>993.574479</ele>
        <time>2021-04-25T07:24:13.000Z</time>
      </trkpt>
      <trkpt lat="44.52721" lon="6.00737">
        <ele>993.574479</ele>
        <time>2021-04-25T07:24:15.000Z</time>
      </trkpt>
      <trkpt lat="44.52726" lon="6.00737">
        <ele>994.16976</ele>
        <time>2021-04-25T07:24:16.000Z</time>
      </trkpt>
      <trkpt lat="44.52726" lon="6.00737">
        <ele>994.16976</ele>
        <time>2021-04-25T07:24:18.000Z</time>
      </trkpt>
      <trkpt lat="44.52732" lon="6.00736">
        <ele>994.841935</ele>
        <time>2021-04-25T07:24:19.000Z</time>
      </trkpt>
      <trkpt lat="44.52738" lon="6.00735">
        <ele>995.412269</ele>
        <time>2021-04-25T07:24:23.000Z</time>
      </trkpt>
      <trkpt lat="44.52738" lon="6.00735">
        <ele>995.412269</ele>
        <time>2021-04-25T07:24:24.000Z</time>
      </trkpt>
      <trkpt lat="44.52744" lon="6.00735">
        <ele>995.83602</ele>
        <time>2021-04-25T07:24:27.000Z</time>
      </trkpt>
      <trkpt lat="44.52744" lon="6.00735">
        <ele>995.83602</ele>
        <time>2021-04-25T07:24:30.000Z</time>
      </trkpt>
      <trkpt lat="44.52749" lon="6.00734">
        <ele>996.160732</ele>
        <time>2021-04-25T07:24:31.000Z</time>
      </trkpt>
      <trkpt lat="44.52754" lon="6.00732">
        <ele>996.537725</ele>
        <time>2021-04-25T07:24:35.000Z</time>
      </trkpt>
      <trkpt lat="44.52754" lon="6.00732">
        <ele>996.537725</ele>
        <time>2021-04-25T07:24:36.000Z</time>
      </trkpt>
      <trkpt lat="44.5276" lon="6.0073">
        <ele>996.910208</ele>
        <time>2021-04-25T07:24:39.000Z</time>
      </trkpt>
      <trkpt lat="44.5276" lon="6.0073">
        <ele>996.910208</ele>
        <time>2021-04-25T07:24:40.000Z</time>
      </trkpt>
      <trkpt lat="44.52764" lon="6.00728">
        <ele>997.258791</ele>
        <time>2021-04-25T07:24:43.000Z</time>
      </trkpt>
      <trkpt lat="44.52769" lon="6.00725">
        <ele>997.634388</ele>
        <time>2021-04-25T07:24:47.000Z</time>
      </trkpt>
      <trkpt lat="44.52769" lon="6.00725">
        <ele>997.634388</ele>
        <time>2021-04-25T07:24:50.000Z</time>
      </trkpt>
      <trkpt lat="44.52776" lon="6.00723">
        <ele>998.069349</ele>
        <time>2021-04-25T07:24:53.000Z</time>
      </trkpt>
      <trkpt lat="44.52776" lon="6.00723">
        <ele>998.069349</ele>
        <time>2021-04-25T07:24:56.000Z</time>
      </trkpt>
      <trkpt lat="44.52782" lon="6.00721">
        <ele>998.490342</ele>
        <time>2021-04-25T07:24:58.000Z</time>
      </trkpt>
      <trkpt lat="44.52782" lon="6.00721">
        <ele>998.490342</ele>
        <time>2021-04-25T07:25:00.000Z</time>
      </trkpt>
      <trkpt lat="44.52788" lon="6.0072">
        <ele>998.90504</ele>
        <time>2021-04-25T07:25:03.000Z</time>
      </trkpt>
      <trkpt lat="44.52793" lon="6.00718">
        <ele>999.268677</ele>
        <time>2021-04-25T07:25:07.000Z</time>
      </trkpt>
      <trkpt lat="44.52798" lon="6.00717">
        <ele>999.633344</ele>
        <time>2021-04-25T07:25:11.000Z</time>
      </trkpt>
      <trkpt lat="44.52803" lon="6.00715">
        <ele>1000.004341</ele>
        <time>2021-04-25T07:25:15.000Z</time>
      </trkpt>
      <trkpt lat="44.52803" lon="6.00715">
        <ele>1000.004341</ele>
        <time>2021-04-25T07:25:17.000Z</time>
      </trkpt>
      <trkpt lat="44.52808" lon="6.00712">
        <ele>1000.359101</ele>
        <time>2021-04-25T07:25:19.000Z</time>
      </trkpt>
      <trkpt lat="44.52812" lon="6.00706">
        <ele>1000.722694</ele>
        <time>2021-04-25T07:25:23.000Z</time>
      </trkpt>
      <trkpt lat="44.52814" lon="6.007">
        <ele>1001.073078</ele>
        <time>2021-04-25T07:25:27.000Z</time>
      </trkpt>
      <trkpt lat="44.52815" lon="6.00693">
        <ele>1001.401822</ele>
        <time>2021-04-25T07:25:31.000Z</time>
      </trkpt>
      <trkpt lat="44.52815" lon="6.00688">
        <ele>1001.684341</ele>
        <time>2021-04-25T07:25:34.000Z</time>
      </trkpt>
      <trkpt lat="44.52815" lon="6.00688">
        <ele>1001.684341</ele>
        <time>2021-04-25T07:25:36.000Z</time>
      </trkpt>
      <trkpt lat="44.52815" lon="6.00681">
        <ele>1002.010675</ele>
        <time>2021-04-25T07:25:37.000Z</time>
      </trkpt>
      <trkpt lat="44.52815" lon="6.00675">
        <ele>1002.315359</ele>
        <time>2021-04-25T07:25:40.000Z</time>
      </trkpt>
      <trkpt lat="44.52815" lon="6.00668">
        <ele>1002.632177</ele>
        <time>2021-04-25T07:25:43.000Z</time>
      </trkpt>
      <trkpt lat="44.52816" lon="6.00662">
        <ele>1002.933046</ele>
        <time>2021-04-25T07:25:46.000Z</time>
      </trkpt>
      <trkpt lat="44.5282" lon="6.00652">
        <ele>1003.509435</ele>
        <time>2021-04-25T07:25:51.000Z</time>
      </trkpt>
      <trkpt lat="44.52827" lon="6.00644">
        <ele>1004.108686</ele>
        <time>2021-04-25T07:25:55.000Z</time>
      </trkpt>
      <trkpt lat="44.52833" lon="6.00642">
        <ele>1004.534133</ele>
        <time>2021-04-25T07:25:58.000Z</time>
      </trkpt>
      <trkpt lat="44.52842" lon="6.00637">
        <ele>1005.188428</ele>
        <time>2021-04-25T07:26:02.000Z</time>
      </trkpt>
      <trkpt lat="44.52848" lon="6.00631">
        <ele>1005.712804</ele>
        <time>2021-04-25T07:26:05.000Z</time>
      </trkpt>
      <trkpt lat="44.52854" lon="6.00627">
        <ele>1006.166923</ele>
        <time>2021-04-25T07:26:08.000Z</time>
      </trkpt>
      <trkpt lat="44.5286" lon="6.00624">
        <ele>1006.568272</ele>
        <time>2021-04-25T07:26:11.000Z</time>
      </trkpt>
      <trkpt lat="44.52867" lon="6.00619">
        <ele>1007.125165</ele>
        <time>2021-04-25T07:26:14.000Z</time>
      </trkpt>
      <trkpt lat="44.52875" lon="6.00615">
        <ele>1007.516572</ele>
        <time>2021-04-25T07:26:18.000Z</time>
      </trkpt>
      <trkpt lat="44.52882" lon="6.00609">
        <ele>1007.534791</ele>
        <time>2021-04-25T07:26:21.000Z</time>
      </trkpt>
      <trkpt lat="44.52889" lon="6.00602">
        <ele>1007.555243</ele>
        <time>2021-04-25T07:26:24.000Z</time>
      </trkpt>
      <trkpt lat="44.52889" lon="6.00602">
        <ele>1007.555243</ele>
        <time>2021-04-25T07:26:25.000Z</time>
      </trkpt>
      <trkpt lat="44.52889" lon="6.00602">
        <ele>1007.555243</ele>
        <time>2021-04-25T07:26:26.000Z</time>
      </trkpt>
      <trkpt lat="44.52898" lon="6.00593">
        <ele>1007.579504</ele>
        <time>2021-04-25T07:26:28.000Z</time>
      </trkpt>
      <trkpt lat="44.52905" lon="6.00586">
        <ele>1007.600977</ele>
        <time>2021-04-25T07:26:31.000Z</time>
      </trkpt>
      <trkpt lat="44.52914" lon="6.00576">
        <ele>1007.625833</ele>
        <time>2021-04-25T07:26:35.000Z</time>
      </trkpt>
      <trkpt lat="44.52914" lon="6.00576">
        <ele>1007.625833</ele>
        <time>2021-04-25T07:26:37.000Z</time>
      </trkpt>
      <trkpt lat="44.52921" lon="6.00569">
        <ele>1007.645912</ele>
        <time>2021-04-25T07:26:38.000Z</time>
      </trkpt>
      <trkpt lat="44.52921" lon="6.00569">
        <ele>1007.645912</ele>
        <time>2021-04-25T07:26:40.000Z</time>
      </trkpt>
      <trkpt lat="44.52928" lon="6.00562">
        <ele>1007.665344</ele>
        <time>2021-04-25T07:26:41.000Z</time>
      </trkpt>
      <trkpt lat="44.52936" lon="6.00557">
        <ele>1007.684636</ele>
        <time>2021-04-25T07:26:44.000Z</time>
      </trkpt>
      <trkpt lat="44.5294" lon="6.00553">
        <ele>1007.696955</ele>
        <time>2021-04-25T07:26:46.000Z</time>
      </trkpt>
      <trkpt lat="44.52945" lon="6.00549">
        <ele>1007.708949</ele>
        <time>2021-04-25T07:26:48.000Z</time>
      </trkpt>
      <trkpt lat="44.52949" lon="6.00545">
        <ele>1007.720104</ele>
        <time>2021-04-25T07:26:50.000Z</time>
      </trkpt>
      <trkpt lat="44.52953" lon="6.00541">
        <ele>1007.731541</ele>
        <time>2021-04-25T07:26:52.000Z</time>
      </trkpt>
      <trkpt lat="44.52953" lon="6.00541">
        <ele>1007.731541</ele>
        <time>2021-04-25T07:26:54.000Z</time>
      </trkpt>
      <trkpt lat="44.5296" lon="6.00535">
        <ele>1007.749668</ele>
        <time>2021-04-25T07:26:55.000Z</time>
      </trkpt>
      <trkpt lat="44.52966" lon="6.00528">
        <ele>1007.767639</ele>
        <time>2021-04-25T07:26:58.000Z</time>
      </trkpt>
      <trkpt lat="44.5297" lon="6.00522">
        <ele>1007.780531</ele>
        <time>2021-04-25T07:27:00.000Z</time>
      </trkpt>
      <trkpt lat="44.52974" lon="6.00517">
        <ele>1007.793745</ele>
        <time>2021-04-25T07:27:02.000Z</time>
      </trkpt>
      <trkpt lat="44.52979" lon="6.00512">
        <ele>1007.807237</ele>
        <time>2021-04-25T07:27:04.000Z</time>
      </trkpt>
      <trkpt lat="44.52983" lon="6.00507">
        <ele>1007.818628</ele>
        <time>2021-04-25T07:27:06.000Z</time>
      </trkpt>
      <trkpt lat="44.52988" lon="6.00499">
        <ele>1007.835761</ele>
        <time>2021-04-25T07:27:09.000Z</time>
      </trkpt>
      <trkpt lat="44.52992" lon="6.00495">
        <ele>1007.847303</ele>
        <time>2021-04-25T07:27:11.000Z</time>
      </trkpt>
      <trkpt lat="44.52997" lon="6.00491">
        <ele>1007.859716</ele>
        <time>2021-04-25T07:27:13.000Z</time>
      </trkpt>
      <trkpt lat="44.53003" lon="6.00487">
        <ele>1007.874966</ele>
        <time>2021-04-25T07:27:15.000Z</time>
      </trkpt>
      <trkpt lat="44.53009" lon="6.00482">
        <ele>1007.891497</ele>
        <time>2021-04-25T07:27:17.000Z</time>
      </trkpt>
      <trkpt lat="44.53016" lon="6.00478">
        <ele>1007.908849</ele>
        <time>2021-04-25T07:27:19.000Z</time>
      </trkpt>
      <trkpt lat="44.53016" lon="6.00478">
        <ele>1007.908849</ele>
        <time>2021-04-25T07:27:20.000Z</time>
      </trkpt>
      <trkpt lat="44.53023" lon="6.00473">
        <ele>1007.577204</ele>
        <time>2021-04-25T07:27:21.000Z</time>
      </trkpt>
      <trkpt lat="44.53031" lon="6.00468">
        <ele>1006.796284</ele>
        <time>2021-04-25T07:27:23.000Z</time>
      </trkpt>
      <trkpt lat="44.53031" lon="6.00468">
        <ele>1006.796284</ele>
        <time>2021-04-25T07:27:24.000Z</time>
      </trkpt>
      <trkpt lat="44.53039" lon="6.00466">
        <ele>1005.975076</ele>
        <time>2021-04-25T07:27:25.000Z</time>
      </trkpt>
      <trkpt lat="44.53048" lon="6.00467">
        <ele>1005.178444</ele>
        <time>2021-04-25T07:27:27.000Z</time>
      </trkpt>
      <trkpt lat="44.53055" lon="6.00474">
        <ele>1004.316222</ele>
        <time>2021-04-25T07:27:29.000Z</time>
      </trkpt>
      <trkpt lat="44.53055" lon="6.00474">
        <ele>1004.316222</ele>
        <time>2021-04-25T07:27:30.000Z</time>
      </trkpt>
      <trkpt lat="44.53061" lon="6.00483">
        <ele>1003.526292</ele>
        <time>2021-04-25T07:27:31.000Z</time>
      </trkpt>
      <trkpt lat="44.53061" lon="6.00483">
        <ele>1003.526292</ele>
        <time>2021-04-25T07:27:32.000Z</time>
      </trkpt>
      <trkpt lat="44.53067" lon="6.00494">
        <ele>1002.58355</ele>
        <time>2021-04-25T07:27:33.000Z</time>
      </trkpt>
      <trkpt lat="44.5307" lon="6.005">
        <ele>1002.057536</ele>
        <time>2021-04-25T07:27:34.000Z</time>
      </trkpt>
      <trkpt lat="44.53074" lon="6.00506">
        <ele>1001.467941</ele>
        <time>2021-04-25T07:27:35.000Z</time>
      </trkpt>
      <trkpt lat="44.5308" lon="6.00512">
        <ele>1000.829265</ele>
        <time>2021-04-25T07:27:36.000Z</time>
      </trkpt>
      <trkpt lat="44.53085" lon="6.00518">
        <ele>1000.15777</ele>
        <time>2021-04-25T07:27:37.000Z</time>
      </trkpt>
      <trkpt lat="44.53091" lon="6.00525">
        <ele>999.476804</ele>
        <time>2021-04-25T07:27:38.000Z</time>
      </trkpt>
      <trkpt lat="44.53097" lon="6.0053">
        <ele>998.805486</ele>
        <time>2021-04-25T07:27:39.000Z</time>
      </trkpt>
      <trkpt lat="44.53103" lon="6.00536">
        <ele>998.065734</ele>
        <time>2021-04-25T07:27:40.000Z</time>
      </trkpt>
      <trkpt lat="44.53111" lon="6.00541">
        <ele>997.257957</ele>
        <time>2021-04-25T07:27:41.000Z</time>
      </trkpt>
      <trkpt lat="44.53119" lon="6.00547">
        <ele>996.388932</ele>
        <time>2021-04-25T07:27:42.000Z</time>
      </trkpt>
      <trkpt lat="44.53128" lon="6.00552">
        <ele>995.496521</ele>
        <time>2021-04-25T07:27:43.000Z</time>
      </trkpt>
      <trkpt lat="44.53137" lon="6.00557">
        <ele>994.539951</ele>
        <time>2021-04-25T07:27:44.000Z</time>
      </trkpt>
      <trkpt lat="44.53146" lon="6.00563">
        <ele>993.578186</ele>
        <time>2021-04-25T07:27:45.000Z</time>
      </trkpt>
      <trkpt lat="44.53155" lon="6.00569">
        <ele>992.619698</ele>
        <time>2021-04-25T07:27:46.000Z</time>
      </trkpt>
      <trkpt lat="44.53163" lon="6.00576">
        <ele>991.678873</ele>
        <time>2021-04-25T07:27:47.000Z</time>
      </trkpt>
      <trkpt lat="44.53171" lon="6.00585">
        <ele>990.759474</ele>
        <time>2021-04-25T07:27:48.000Z</time>
      </trkpt>
      <trkpt lat="44.53178" lon="6.00594">
        <ele>989.986639</ele>
        <time>2021-04-25T07:27:49.000Z</time>
      </trkpt>
      <trkpt lat="44.53185" lon="6.00604">
        <ele>989.225251</ele>
        <time>2021-04-25T07:27:50.000Z</time>
      </trkpt>
      <trkpt lat="44.53191" lon="6.00613">
        <ele>988.459802</ele>
        <time>2021-04-25T07:27:51.000Z</time>
      </trkpt>
      <trkpt lat="44.53198" lon="6.00623">
        <ele>987.694906</ele>
        <time>2021-04-25T07:27:52.000Z</time>
      </trkpt>
      <trkpt lat="44.53205" lon="6.00631">
        <ele>986.941746</ele>
        <time>2021-04-25T07:27:53.000Z</time>
      </trkpt>
      <trkpt lat="44.53212" lon="6.00641">
        <ele>986.192412</ele>
        <time>2021-04-25T07:27:54.000Z</time>
      </trkpt>
      <trkpt lat="44.53218" lon="6.0065">
        <ele>985.458882</ele>
        <time>2021-04-25T07:27:55.000Z</time>
      </trkpt>
      <trkpt lat="44.53224" lon="6.0066">
        <ele>984.743932</ele>
        <time>2021-04-25T07:27:56.000Z</time>
      </trkpt>
      <trkpt lat="44.53229" lon="6.0067">
        <ele>984.039604</ele>
        <time>2021-04-25T07:27:57.000Z</time>
      </trkpt>
      <trkpt lat="44.53233" lon="6.0068">
        <ele>983.342764</ele>
        <time>2021-04-25T07:27:58.000Z</time>
      </trkpt>
      <trkpt lat="44.53237" lon="6.0069">
        <ele>982.659074</ele>
        <time>2021-04-25T07:27:59.000Z</time>
      </trkpt>
      <trkpt lat="44.53242" lon="6.007">
        <ele>981.977393</ele>
        <time>2021-04-25T07:28:00.000Z</time>
      </trkpt>
      <trkpt lat="44.53247" lon="6.0071">
        <ele>981.301011</ele>
        <time>2021-04-25T07:28:01.000Z</time>
      </trkpt>
      <trkpt lat="44.53252" lon="6.00719">
        <ele>980.628942</ele>
        <time>2021-04-25T07:28:02.000Z</time>
      </trkpt>
      <trkpt lat="44.53257" lon="6.00728">
        <ele>979.959516</ele>
        <time>2021-04-25T07:28:03.000Z</time>
      </trkpt>
      <trkpt lat="44.53263" lon="6.00737">
        <ele>979.273043</ele>
        <time>2021-04-25T07:28:04.000Z</time>
      </trkpt>
      <trkpt lat="44.53269" lon="6.00746">
        <ele>978.587749</ele>
        <time>2021-04-25T07:28:05.000Z</time>
      </trkpt>
      <trkpt lat="44.53275" lon="6.00755">
        <ele>977.889578</ele>
        <time>2021-04-25T07:28:06.000Z</time>
      </trkpt>
      <trkpt lat="44.5328" lon="6.00764">
        <ele>977.206222</ele>
        <time>2021-04-25T07:28:07.000Z</time>
      </trkpt>
      <trkpt lat="44.53285" lon="6.00773">
        <ele>976.557569</ele>
        <time>2021-04-25T07:28:08.000Z</time>
      </trkpt>
      <trkpt lat="44.5329" lon="6.00782">
        <ele>975.865664</ele>
        <time>2021-04-25T07:28:09.000Z</time>
      </trkpt>
      <trkpt lat="44.53294" lon="6.00791">
        <ele>975.153909</ele>
        <time>2021-04-25T07:28:10.000Z</time>
      </trkpt>
      <trkpt lat="44.53298" lon="6.008">
        <ele>974.453172</ele>
        <time>2021-04-25T07:28:11.000Z</time>
      </trkpt>
      <trkpt lat="44.53303" lon="6.00809">
        <ele>973.762915</ele>
        <time>2021-04-25T07:28:12.000Z</time>
      </trkpt>
      <trkpt lat="44.53307" lon="6.00817">
        <ele>973.099087</ele>
        <time>2021-04-25T07:28:13.000Z</time>
      </trkpt>
      <trkpt lat="44.53312" lon="6.00825">
        <ele>972.436102</ele>
        <time>2021-04-25T07:28:14.000Z</time>
      </trkpt>
      <trkpt lat="44.53318" lon="6.00832">
        <ele>971.741692</ele>
        <time>2021-04-25T07:28:15.000Z</time>
      </trkpt>
      <trkpt lat="44.53324" lon="6.00839">
        <ele>971.009104</ele>
        <time>2021-04-25T07:28:16.000Z</time>
      </trkpt>
      <trkpt lat="44.53331" lon="6.00845">
        <ele>970.269765</ele>
        <time>2021-04-25T07:28:17.000Z</time>
      </trkpt>
      <trkpt lat="44.53338" lon="6.00851">
        <ele>969.532971</ele>
        <time>2021-04-25T07:28:18.000Z</time>
      </trkpt>
      <trkpt lat="44.53345" lon="6.00858">
        <ele>968.782221</ele>
        <time>2021-04-25T07:28:19.000Z</time>
      </trkpt>
      <trkpt lat="44.53351" lon="6.00865">
        <ele>968.027356</ele>
        <time>2021-04-25T07:28:20.000Z</time>
      </trkpt>
      <trkpt lat="44.53357" lon="6.00873">
        <ele>967.282624</ele>
        <time>2021-04-25T07:28:21.000Z</time>
      </trkpt>
      <trkpt lat="44.53363" lon="6.00882">
        <ele>966.535125</ele>
        <time>2021-04-25T07:28:22.000Z</time>
      </trkpt>
      <trkpt lat="44.53368" lon="6.0089">
        <ele>965.801372</ele>
        <time>2021-04-25T07:28:23.000Z</time>
      </trkpt>
      <trkpt lat="44.53373" lon="6.00899">
        <ele>965.073311</ele>
        <time>2021-04-25T07:28:24.000Z</time>
      </trkpt>
      <trkpt lat="44.53378" lon="6.00907">
        <ele>964.363253</ele>
        <time>2021-04-25T07:28:25.000Z</time>
      </trkpt>
      <trkpt lat="44.53383" lon="6.00915">
        <ele>963.678119</ele>
        <time>2021-04-25T07:28:26.000Z</time>
      </trkpt>
      <trkpt lat="44.53389" lon="6.0092">
        <ele>963.04633</ele>
        <time>2021-04-25T07:28:27.000Z</time>
      </trkpt>
      <trkpt lat="44.53396" lon="6.00924">
        <ele>962.414427</ele>
        <time>2021-04-25T07:28:28.000Z</time>
      </trkpt>
      <trkpt lat="44.53403" lon="6.00925">
        <ele>961.763699</ele>
        <time>2021-04-25T07:28:29.000Z</time>
      </trkpt>
      <trkpt lat="44.53418" lon="6.00922">
        <ele>960.338817</ele>
        <time>2021-04-25T07:28:31.000Z</time>
      </trkpt>
      <trkpt lat="44.53426" lon="6.00918">
        <ele>960.009729</ele>
        <time>2021-04-25T07:28:32.000Z</time>
      </trkpt>
      <trkpt lat="44.53434" lon="6.00915">
        <ele>960.022657</ele>
        <time>2021-04-25T07:28:33.000Z</time>
      </trkpt>
      <trkpt lat="44.53442" lon="6.00914">
        <ele>960.035924</ele>
        <time>2021-04-25T07:28:34.000Z</time>
      </trkpt>
      <trkpt lat="44.5345" lon="6.00914">
        <ele>960.048416</ele>
        <time>2021-04-25T07:28:35.000Z</time>
      </trkpt>
      <trkpt lat="44.5345" lon="6.00914">
        <ele>960.048416</ele>
        <time>2021-04-25T07:28:36.000Z</time>
      </trkpt>
      <trkpt lat="44.53464" lon="6.00921">
        <ele>960.071487</ele>
        <time>2021-04-25T07:28:37.000Z</time>
      </trkpt>
      <trkpt lat="44.53473" lon="6.00934">
        <ele>960.092835</ele>
        <time>2021-04-25T07:28:38.000Z</time>
      </trkpt>
      <trkpt lat="44.53478" lon="6.00941">
        <ele>960.10295</ele>
        <time>2021-04-25T07:28:40.000Z</time>
      </trkpt>
      <trkpt lat="44.53481" lon="6.00947">
        <ele>960.112072</ele>
        <time>2021-04-25T07:28:41.000Z</time>
      </trkpt>
      <trkpt lat="44.53481" lon="6.00947">
        <ele>960.112072</ele>
        <time>2021-04-25T07:28:42.000Z</time>
      </trkpt>
      <trkpt lat="44.53488" lon="6.00958">
        <ele>960.127543</ele>
        <time>2021-04-25T07:28:43.000Z</time>
      </trkpt>
      <trkpt lat="44.53488" lon="6.00958">
        <ele>960.127543</ele>
        <time>2021-04-25T07:28:44.000Z</time>
      </trkpt>
      <trkpt lat="44.53492" lon="6.00965">
        <ele>960.138581</ele>
        <time>2021-04-25T07:28:45.000Z</time>
      </trkpt>
      <trkpt lat="44.53496" lon="6.0097">
        <ele>960.146945</ele>
        <time>2021-04-25T07:28:47.000Z</time>
      </trkpt>
      <trkpt lat="44.53501" lon="6.00974">
        <ele>960.155597</ele>
        <time>2021-04-25T07:28:49.000Z</time>
      </trkpt>
      <trkpt lat="44.53509" lon="6.0098">
        <ele>960.169871</ele>
        <time>2021-04-25T07:28:52.000Z</time>
      </trkpt>
      <trkpt lat="44.53515" lon="6.00987">
        <ele>960.182165</ele>
        <time>2021-04-25T07:28:55.000Z</time>
      </trkpt>
      <trkpt lat="44.53515" lon="6.00987">
        <ele>960.182165</ele>
        <time>2021-04-25T07:28:56.000Z</time>
      </trkpt>
      <trkpt lat="44.53519" lon="6.00993">
        <ele>960.191476</ele>
        <time>2021-04-25T07:28:57.000Z</time>
      </trkpt>
      <trkpt lat="44.53521" lon="6.01">
        <ele>960.200549</ele>
        <time>2021-04-25T07:28:59.000Z</time>
      </trkpt>
      <trkpt lat="44.53522" lon="6.01008">
        <ele>960.209865</ele>
        <time>2021-04-25T07:29:01.000Z</time>
      </trkpt>
      <trkpt lat="44.53523" lon="6.01017">
        <ele>960.21912</ele>
        <time>2021-04-25T07:29:03.000Z</time>
      </trkpt>
      <trkpt lat="44.53522" lon="6.01024">
        <ele>960.228105</ele>
        <time>2021-04-25T07:29:05.000Z</time>
      </trkpt>
      <trkpt lat="44.53521" lon="6.01032">
        <ele>960.236475</ele>
        <time>2021-04-25T07:29:07.000Z</time>
      </trkpt>
      <trkpt lat="44.53522" lon="6.01039">
        <ele>960.245015</ele>
        <time>2021-04-25T07:29:09.000Z</time>
      </trkpt>
      <trkpt lat="44.53527" lon="6.01044">
        <ele>960.25345</ele>
        <time>2021-04-25T07:29:11.000Z</time>
      </trkpt>
      <trkpt lat="44.53527" lon="6.01044">
        <ele>960.25345</ele>
        <time>2021-04-25T07:29:12.000Z</time>
      </trkpt>
      <trkpt lat="44.53532" lon="6.01047">
        <ele>960.262469</ele>
        <time>2021-04-25T07:29:13.000Z</time>
      </trkpt>
      <trkpt lat="44.53537" lon="6.01051">
        <ele>960.272298</ele>
        <time>2021-04-25T07:29:15.000Z</time>
      </trkpt>
      <trkpt lat="44.53543" lon="6.01055">
        <ele>960.282124</ele>
        <time>2021-04-25T07:29:17.000Z</time>
      </trkpt>
      <trkpt lat="44.53548" lon="6.0106">
        <ele>960.289467</ele>
        <time>2021-04-25T07:29:19.000Z</time>
      </trkpt>
      <trkpt lat="44.53551" lon="6.01062">
        <ele>960.291984</ele>
        <time>2021-04-25T07:29:20.000Z</time>
      </trkpt>
      <trkpt lat="44.53553" lon="6.01065">
        <ele>960.294442</ele>
        <time>2021-04-25T07:29:21.000Z</time>
      </trkpt>
      <trkpt lat="44.53556" lon="6.01068">
        <ele>960.296935</ele>
        <time>2021-04-25T07:29:22.000Z</time>
      </trkpt>
      <trkpt lat="44.53558" lon="6.01071">
        <ele>960.299463</ele>
        <time>2021-04-25T07:29:23.000Z</time>
      </trkpt>
      <trkpt lat="44.53561" lon="6.01074">
        <ele>960.30205</ele>
        <time>2021-04-25T07:29:24.000Z</time>
      </trkpt>
      <trkpt lat="44.53564" lon="6.01077">
        <ele>960.304614</ele>
        <time>2021-04-25T07:29:25.000Z</time>
      </trkpt>
      <trkpt lat="44.53566" lon="6.0108">
        <ele>960.307197</ele>
        <time>2021-04-25T07:29:26.000Z</time>
      </trkpt>
      <trkpt lat="44.53568" lon="6.01084">
        <ele>960.309753</ele>
        <time>2021-04-25T07:29:27.000Z</time>
      </trkpt>
      <trkpt lat="44.5357" lon="6.01087">
        <ele>960.312401</ele>
        <time>2021-04-25T07:29:28.000Z</time>
      </trkpt>
      <trkpt lat="44.53573" lon="6.01091">
        <ele>960.31504</ele>
        <time>2021-04-25T07:29:29.000Z</time>
      </trkpt>
      <trkpt lat="44.53575" lon="6.01095">
        <ele>960.317808</ele>
        <time>2021-04-25T07:29:30.000Z</time>
      </trkpt>
      <trkpt lat="44.53577" lon="6.011">
        <ele>960.320754</ele>
        <time>2021-04-25T07:29:31.000Z</time>
      </trkpt>
      <trkpt lat="44.53579" lon="6.01104">
        <ele>960.323753</ele>
        <time>2021-04-25T07:29:32.000Z</time>
      </trkpt>
      <trkpt lat="44.53581" lon="6.01109">
        <ele>960.326772</ele>
        <time>2021-04-25T07:29:33.000Z</time>
      </trkpt>
      <trkpt lat="44.53583" lon="6.01114">
        <ele>960.329939</ele>
        <time>2021-04-25T07:29:34.000Z</time>
      </trkpt>
      <trkpt lat="44.53584" lon="6.0112">
        <ele>960.333091</ele>
        <time>2021-04-25T07:29:35.000Z</time>
      </trkpt>
      <trkpt lat="44.53585" lon="6.01125">
        <ele>960.336318</ele>
        <time>2021-04-25T07:29:36.000Z</time>
      </trkpt>
      <trkpt lat="44.53587" lon="6.01131">
        <ele>960.339724</ele>
        <time>2021-04-25T07:29:37.000Z</time>
      </trkpt>
      <trkpt lat="44.53588" lon="6.01137">
        <ele>960.343137</ele>
        <time>2021-04-25T07:29:38.000Z</time>
      </trkpt>
      <trkpt lat="44.53589" lon="6.01143">
        <ele>960.346604</ele>
        <time>2021-04-25T07:29:39.000Z</time>
      </trkpt>
      <trkpt lat="44.5359" lon="6.0115">
        <ele>960.350163</ele>
        <time>2021-04-25T07:29:40.000Z</time>
      </trkpt>
      <trkpt lat="44.53591" lon="6.01156">
        <ele>960.353764</ele>
        <time>2021-04-25T07:29:41.000Z</time>
      </trkpt>
      <trkpt lat="44.53591" lon="6.01163">
        <ele>960.3574</ele>
        <time>2021-04-25T07:29:42.000Z</time>
      </trkpt>
      <trkpt lat="44.53591" lon="6.01169">
        <ele>960.361073</ele>
        <time>2021-04-25T07:29:43.000Z</time>
      </trkpt>
      <trkpt lat="44.53591" lon="6.01176">
        <ele>960.364907</ele>
        <time>2021-04-25T07:29:44.000Z</time>
      </trkpt>
      <trkpt lat="44.53592" lon="6.01183">
        <ele>960.368688</ele>
        <time>2021-04-25T07:29:45.000Z</time>
      </trkpt>
      <trkpt lat="44.53592" lon="6.0119">
        <ele>960.372416</ele>
        <time>2021-04-25T07:29:46.000Z</time>
      </trkpt>
      <trkpt lat="44.53592" lon="6.01197">
        <ele>960.376093</ele>
        <time>2021-04-25T07:29:47.000Z</time>
      </trkpt>
      <trkpt lat="44.53592" lon="6.01204">
        <ele>960.379766</ele>
        <time>2021-04-25T07:29:48.000Z</time>
      </trkpt>
      <trkpt lat="44.53592" lon="6.0121">
        <ele>960.383436</ele>
        <time>2021-04-25T07:29:49.000Z</time>
      </trkpt>
      <trkpt lat="44.53592" lon="6.01217">
        <ele>960.387217</ele>
        <time>2021-04-25T07:29:50.000Z</time>
      </trkpt>
      <trkpt lat="44.53592" lon="6.01224">
        <ele>960.390997</ele>
        <time>2021-04-25T07:29:51.000Z</time>
      </trkpt>
      <trkpt lat="44.53593" lon="6.01231">
        <ele>960.394725</ele>
        <time>2021-04-25T07:29:52.000Z</time>
      </trkpt>
      <trkpt lat="44.53593" lon="6.01238">
        <ele>960.398451</ele>
        <time>2021-04-25T07:29:53.000Z</time>
      </trkpt>
      <trkpt lat="44.53593" lon="6.01244">
        <ele>960.402121</ele>
        <time>2021-04-25T07:29:54.000Z</time>
      </trkpt>
      <trkpt lat="44.53593" lon="6.01251">
        <ele>960.405737</ele>
        <time>2021-04-25T07:29:55.000Z</time>
      </trkpt>
      <trkpt lat="44.53593" lon="6.01258">
        <ele>960.409462</ele>
        <time>2021-04-25T07:29:56.000Z</time>
      </trkpt>
      <trkpt lat="44.53593" lon="6.01265">
        <ele>960.413297</ele>
        <time>2021-04-25T07:29:57.000Z</time>
      </trkpt>
      <trkpt lat="44.53593" lon="6.01272">
        <ele>960.417187</ele>
        <time>2021-04-25T07:29:58.000Z</time>
      </trkpt>
      <trkpt lat="44.53593" lon="6.01279">
        <ele>960.421138</ele>
        <time>2021-04-25T07:29:59.000Z</time>
      </trkpt>
      <trkpt lat="44.53594" lon="6.01286">
        <ele>960.425064</ele>
        <time>2021-04-25T07:30:00.000Z</time>
      </trkpt>
      <trkpt lat="44.53595" lon="6.01293">
        <ele>960.295558</ele>
        <time>2021-04-25T07:30:01.000Z</time>
      </trkpt>
      <trkpt lat="44.53596" lon="6.01301">
        <ele>960.159628</ele>
        <time>2021-04-25T07:30:02.000Z</time>
      </trkpt>
      <trkpt lat="44.53598" lon="6.01308">
        <ele>960.023318</ele>
        <time>2021-04-25T07:30:03.000Z</time>
      </trkpt>
      <trkpt lat="44.536" lon="6.01315">
        <ele>959.88647</ele>
        <time>2021-04-25T07:30:04.000Z</time>
      </trkpt>
      <trkpt lat="44.53603" lon="6.01322">
        <ele>959.748274</ele>
        <time>2021-04-25T07:30:05.000Z</time>
      </trkpt>
      <trkpt lat="44.53606" lon="6.01328">
        <ele>959.609299</ele>
        <time>2021-04-25T07:30:06.000Z</time>
      </trkpt>
      <trkpt lat="44.53609" lon="6.01335">
        <ele>959.467585</ele>
        <time>2021-04-25T07:30:07.000Z</time>
      </trkpt>
      <trkpt lat="44.53613" lon="6.01341">
        <ele>959.328557</ele>
        <time>2021-04-25T07:30:08.000Z</time>
      </trkpt>
      <trkpt lat="44.53616" lon="6.01347">
        <ele>959.192014</ele>
        <time>2021-04-25T07:30:09.000Z</time>
      </trkpt>
      <trkpt lat="44.53619" lon="6.01353">
        <ele>959.063201</ele>
        <time>2021-04-25T07:30:10.000Z</time>
      </trkpt>
      <trkpt lat="44.5362" lon="6.01359">
        <ele>958.951488</ele>
        <time>2021-04-25T07:30:11.000Z</time>
      </trkpt>
      <trkpt lat="44.5362" lon="6.01365">
        <ele>958.8498</ele>
        <time>2021-04-25T07:30:12.000Z</time>
      </trkpt>
      <trkpt lat="44.53613" lon="6.01371">
        <ele>958.650858</ele>
        <time>2021-04-25T07:30:14.000Z</time>
      </trkpt>
      <trkpt lat="44.53608" lon="6.01371">
        <ele>958.528605</ele>
        <time>2021-04-25T07:30:15.000Z</time>
      </trkpt>
      <trkpt lat="44.53603" lon="6.0137">
        <ele>958.403449</ele>
        <time>2021-04-25T07:30:16.000Z</time>
      </trkpt>
      <trkpt lat="44.53598" lon="6.0137">
        <ele>958.270678</ele>
        <time>2021-04-25T07:30:17.000Z</time>
      </trkpt>
      <trkpt lat="44.53592" lon="6.01369">
        <ele>958.128528</ele>
        <time>2021-04-25T07:30:18.000Z</time>
      </trkpt>
      <trkpt lat="44.53587" lon="6.01369">
        <ele>957.986278</ele>
        <time>2021-04-25T07:30:19.000Z</time>
      </trkpt>
      <trkpt lat="44.53581" lon="6.01368">
        <ele>957.839152</ele>
        <time>2021-04-25T07:30:20.000Z</time>
      </trkpt>
      <trkpt lat="44.53575" lon="6.01368">
        <ele>957.687217</ele>
        <time>2021-04-25T07:30:21.000Z</time>
      </trkpt>
      <trkpt lat="44.53568" lon="6.01368">
        <ele>957.530139</ele>
        <time>2021-04-25T07:30:22.000Z</time>
      </trkpt>
      <trkpt lat="44.53562" lon="6.01367">
        <ele>957.370376</ele>
        <time>2021-04-25T07:30:23.000Z</time>
      </trkpt>
      <trkpt lat="44.53555" lon="6.01367">
        <ele>957.205517</ele>
        <time>2021-04-25T07:30:24.000Z</time>
      </trkpt>
      <trkpt lat="44.53549" lon="6.01366">
        <ele>957.038298</ele>
        <time>2021-04-25T07:30:25.000Z</time>
      </trkpt>
      <trkpt lat="44.53542" lon="6.01365">
        <ele>956.868472</ele>
        <time>2021-04-25T07:30:26.000Z</time>
      </trkpt>
      <trkpt lat="44.53535" lon="6.01365">
        <ele>956.694083</ele>
        <time>2021-04-25T07:30:27.000Z</time>
      </trkpt>
      <trkpt lat="44.53528" lon="6.01365">
        <ele>956.51225</ele>
        <time>2021-04-25T07:30:28.000Z</time>
      </trkpt>
      <trkpt lat="44.5352" lon="6.01365">
        <ele>956.330426</ele>
        <time>2021-04-25T07:30:29.000Z</time>
      </trkpt>
      <trkpt lat="44.53513" lon="6.01365">
        <ele>956.146102</ele>
        <time>2021-04-25T07:30:30.000Z</time>
      </trkpt>
      <trkpt lat="44.53505" lon="6.01365">
        <ele>955.96171</ele>
        <time>2021-04-25T07:30:31.000Z</time>
      </trkpt>
      <trkpt lat="44.53498" lon="6.01367">
        <ele>956.310222</ele>
        <time>2021-04-25T07:30:32.000Z</time>
      </trkpt>
      <trkpt lat="44.53491" lon="6.01369">
        <ele>956.695907</ele>
        <time>2021-04-25T07:30:33.000Z</time>
      </trkpt>
      <trkpt lat="44.53485" lon="6.01372">
        <ele>957.050787</ele>
        <time>2021-04-25T07:30:34.000Z</time>
      </trkpt>
      <trkpt lat="44.53479" lon="6.01375">
        <ele>957.361425</ele>
        <time>2021-04-25T07:30:35.000Z</time>
      </trkpt>
      <trkpt lat="44.53475" lon="6.01378">
        <ele>957.631347</ele>
        <time>2021-04-25T07:30:36.000Z</time>
      </trkpt>
      <trkpt lat="44.53471" lon="6.01381">
        <ele>957.84891</ele>
        <time>2021-04-25T07:30:37.000Z</time>
      </trkpt>
      <trkpt lat="44.53471" lon="6.01381">
        <ele>957.84891</ele>
        <time>2021-04-25T07:30:38.000Z</time>
      </trkpt>
      <trkpt lat="44.53467" lon="6.01386">
        <ele>958.143397</ele>
        <time>2021-04-25T07:30:39.000Z</time>
      </trkpt>
      <trkpt lat="44.53465" lon="6.0139">
        <ele>958.317376</ele>
        <time>2021-04-25T07:30:41.000Z</time>
      </trkpt>
      <trkpt lat="44.53464" lon="6.01394">
        <ele>958.485098</ele>
        <time>2021-04-25T07:30:43.000Z</time>
      </trkpt>
      <trkpt lat="44.53464" lon="6.01394">
        <ele>958.485098</ele>
        <time>2021-04-25T07:30:44.000Z</time>
      </trkpt>
      <trkpt lat="44.53463" lon="6.01398">
        <ele>958.665456</ele>
        <time>2021-04-25T07:30:45.000Z</time>
      </trkpt>
      <trkpt lat="44.53461" lon="6.01402">
        <ele>958.847175</ele>
        <time>2021-04-25T07:30:47.000Z</time>
      </trkpt>
      <trkpt lat="44.5346" lon="6.01407">
        <ele>959.034059</ele>
        <time>2021-04-25T07:30:49.000Z</time>
      </trkpt>
      <trkpt lat="44.5346" lon="6.01407">
        <ele>959.034059</ele>
        <time>2021-04-25T07:30:50.000Z</time>
      </trkpt>
      <trkpt lat="44.53459" lon="6.01411">
        <ele>959.220139</ele>
        <time>2021-04-25T07:30:51.000Z</time>
      </trkpt>
      <trkpt lat="44.53457" lon="6.01416">
        <ele>959.410611</ele>
        <time>2021-04-25T07:30:53.000Z</time>
      </trkpt>
      <trkpt lat="44.53456" lon="6.01421">
        <ele>959.625411</ele>
        <time>2021-04-25T07:30:55.000Z</time>
      </trkpt>
      <trkpt lat="44.53454" lon="6.01429">
        <ele>959.92859</ele>
        <time>2021-04-25T07:30:58.000Z</time>
      </trkpt>
      <trkpt lat="44.53454" lon="6.01429">
        <ele>959.92859</ele>
        <time>2021-04-25T07:31:00.000Z</time>
      </trkpt>
      <trkpt lat="44.53452" lon="6.01438">
        <ele>960.309533</ele>
        <time>2021-04-25T07:31:02.000Z</time>
      </trkpt>
      <trkpt lat="44.5345" lon="6.01445">
        <ele>960.597254</ele>
        <time>2021-04-25T07:31:05.000Z</time>
      </trkpt>
      <trkpt lat="44.53448" lon="6.0145">
        <ele>960.788083</ele>
        <time>2021-04-25T07:31:07.000Z</time>
      </trkpt>
      <trkpt lat="44.53446" lon="6.01456">
        <ele>961.08111</ele>
        <time>2021-04-25T07:31:10.000Z</time>
      </trkpt>
      <trkpt lat="44.53442" lon="6.01463">
        <ele>961.391983</ele>
        <time>2021-04-25T07:31:13.000Z</time>
      </trkpt>
      <trkpt lat="44.5344" lon="6.0147">
        <ele>961.684543</ele>
        <time>2021-04-25T07:31:16.000Z</time>
      </trkpt>
      <trkpt lat="44.53436" lon="6.01475">
        <ele>961.960188</ele>
        <time>2021-04-25T07:31:19.000Z</time>
      </trkpt>
      <trkpt lat="44.53431" lon="6.01481">
        <ele>962.30941</ele>
        <time>2021-04-25T07:31:23.000Z</time>
      </trkpt>
      <trkpt lat="44.53431" lon="6.01481">
        <ele>962.30941</ele>
        <time>2021-04-25T07:31:24.000Z</time>
      </trkpt>
      <trkpt lat="44.53427" lon="6.01488">
        <ele>962.669041</ele>
        <time>2021-04-25T07:31:27.000Z</time>
      </trkpt>
      <trkpt lat="44.53427" lon="6.01488">
        <ele>962.669041</ele>
        <time>2021-04-25T07:31:29.000Z</time>
      </trkpt>
      <trkpt lat="44.53424" lon="6.01495">
        <ele>962.964476</ele>
        <time>2021-04-25T07:31:31.000Z</time>
      </trkpt>
      <trkpt lat="44.53421" lon="6.015">
        <ele>963.197489</ele>
        <time>2021-04-25T07:31:34.000Z</time>
      </trkpt>
      <trkpt lat="44.53418" lon="6.01504">
        <ele>963.453041</ele>
        <time>2021-04-25T07:31:37.000Z</time>
      </trkpt>
      <trkpt lat="44.53413" lon="6.01508">
        <ele>963.729102</ele>
        <time>2021-04-25T07:31:40.000Z</time>
      </trkpt>
      <trkpt lat="44.53413" lon="6.01508">
        <ele>963.729102</ele>
        <time>2021-04-25T07:31:41.000Z</time>
      </trkpt>
      <trkpt lat="44.53409" lon="6.01512">
        <ele>964.019447</ele>
        <time>2021-04-25T07:31:43.000Z</time>
      </trkpt>
      <trkpt lat="44.53404" lon="6.01515">
        <ele>964.284712</ele>
        <time>2021-04-25T07:31:45.000Z</time>
      </trkpt>
      <trkpt lat="44.534" lon="6.01519">
        <ele>964.562998</ele>
        <time>2021-04-25T07:31:47.000Z</time>
      </trkpt>
      <trkpt lat="44.53395" lon="6.01521">
        <ele>964.818537</ele>
        <time>2021-04-25T07:31:49.000Z</time>
      </trkpt>
      <trkpt lat="44.5339" lon="6.01524">
        <ele>965.116653</ele>
        <time>2021-04-25T07:31:51.000Z</time>
      </trkpt>
      <trkpt lat="44.53384" lon="6.01528">
        <ele>965.491637</ele>
        <time>2021-04-25T07:31:53.000Z</time>
      </trkpt>
      <trkpt lat="44.5338" lon="6.01531">
        <ele>965.552675</ele>
        <time>2021-04-25T07:31:54.000Z</time>
      </trkpt>
      <trkpt lat="44.53377" lon="6.01533">
        <ele>965.522416</ele>
        <time>2021-04-25T07:31:55.000Z</time>
      </trkpt>
      <trkpt lat="44.53373" lon="6.01535">
        <ele>965.49097</ele>
        <time>2021-04-25T07:31:56.000Z</time>
      </trkpt>
      <trkpt lat="44.53369" lon="6.01538">
        <ele>965.461852</ele>
        <time>2021-04-25T07:31:57.000Z</time>
      </trkpt>
      <trkpt lat="44.53366" lon="6.0154">
        <ele>965.433834</ele>
        <time>2021-04-25T07:31:58.000Z</time>
      </trkpt>
      <trkpt lat="44.53363" lon="6.01543">
        <ele>965.406206</ele>
        <time>2021-04-25T07:31:59.000Z</time>
      </trkpt>
      <trkpt lat="44.5336" lon="6.01545">
        <ele>965.379903</ele>
        <time>2021-04-25T07:32:00.000Z</time>
      </trkpt>
      <trkpt lat="44.53358" lon="6.01548">
        <ele>965.357181</ele>
        <time>2021-04-25T07:32:01.000Z</time>
      </trkpt>
      <trkpt lat="44.53354" lon="6.01555">
        <ele>965.311432</ele>
        <time>2021-04-25T07:32:03.000Z</time>
      </trkpt>
      <trkpt lat="44.53351" lon="6.01563">
        <ele>965.260249</ele>
        <time>2021-04-25T07:32:05.000Z</time>
      </trkpt>
      <trkpt lat="44.53347" lon="6.01574">
        <ele>965.191842</ele>
        <time>2021-04-25T07:32:08.000Z</time>
      </trkpt>
      <trkpt lat="44.53344" lon="6.01582">
        <ele>965.145383</ele>
        <time>2021-04-25T07:32:10.000Z</time>
      </trkpt>
      <trkpt lat="44.53341" lon="6.0159">
        <ele>965.095064</ele>
        <time>2021-04-25T07:32:12.000Z</time>
      </trkpt>
      <trkpt lat="44.53337" lon="6.01597">
        <ele>965.044429</ele>
        <time>2021-04-25T07:32:14.000Z</time>
      </trkpt>
      <trkpt lat="44.53333" lon="6.01604">
        <ele>964.995121</ele>
        <time>2021-04-25T07:32:16.000Z</time>
      </trkpt>
      <trkpt lat="44.53329" lon="6.01612">
        <ele>964.94315</ele>
        <time>2021-04-25T07:32:18.000Z</time>
      </trkpt>
      <trkpt lat="44.53323" lon="6.01623">
        <ele>964.870329</ele>
        <time>2021-04-25T07:32:21.000Z</time>
      </trkpt>
      <trkpt lat="44.53319" lon="6.0163">
        <ele>964.821833</ele>
        <time>2021-04-25T07:32:23.000Z</time>
      </trkpt>
      <trkpt lat="44.53313" lon="6.01639">
        <ele>964.750694</ele>
        <time>2021-04-25T07:32:26.000Z</time>
      </trkpt>
      <trkpt lat="44.53308" lon="6.01644">
        <ele>964.705505</ele>
        <time>2021-04-25T07:32:28.000Z</time>
      </trkpt>
      <trkpt lat="44.53304" lon="6.0165">
        <ele>964.658989</ele>
        <time>2021-04-25T07:32:30.000Z</time>
      </trkpt>
      <trkpt lat="44.533" lon="6.01659">
        <ele>964.600814</ele>
        <time>2021-04-25T07:32:32.000Z</time>
      </trkpt>
      <trkpt lat="44.53297" lon="6.01663">
        <ele>964.573265</ele>
        <time>2021-04-25T07:32:33.000Z</time>
      </trkpt>
      <trkpt lat="44.53295" lon="6.01667">
        <ele>964.544544</ele>
        <time>2021-04-25T07:32:34.000Z</time>
      </trkpt>
      <trkpt lat="44.53291" lon="6.01671">
        <ele>964.508411</ele>
        <time>2021-04-25T07:32:35.000Z</time>
      </trkpt>
      <trkpt lat="44.53287" lon="6.01676">
        <ele>964.4645</ele>
        <time>2021-04-25T07:32:36.000Z</time>
      </trkpt>
      <trkpt lat="44.53282" lon="6.01681">
        <ele>964.419987</ele>
        <time>2021-04-25T07:32:37.000Z</time>
      </trkpt>
      <trkpt lat="44.53278" lon="6.01686">
        <ele>964.377683</ele>
        <time>2021-04-25T07:32:38.000Z</time>
      </trkpt>
      <trkpt lat="44.53274" lon="6.0169">
        <ele>964.337586</ele>
        <time>2021-04-25T07:32:39.000Z</time>
      </trkpt>
      <trkpt lat="44.5327" lon="6.01694">
        <ele>964.303109</ele>
        <time>2021-04-25T07:32:40.000Z</time>
      </trkpt>
      <trkpt lat="44.53266" lon="6.01697">
        <ele>964.270143</ele>
        <time>2021-04-25T07:32:41.000Z</time>
      </trkpt>
      <trkpt lat="44.53262" lon="6.017">
        <ele>964.23612</ele>
        <time>2021-04-25T07:32:42.000Z</time>
      </trkpt>
      <trkpt lat="44.53258" lon="6.01703">
        <ele>964.201003</ele>
        <time>2021-04-25T07:32:43.000Z</time>
      </trkpt>
      <trkpt lat="44.53254" lon="6.01704">
        <ele>963.923215</ele>
        <time>2021-04-25T07:32:44.000Z</time>
      </trkpt>
      <trkpt lat="44.53249" lon="6.01706">
        <ele>963.598924</ele>
        <time>2021-04-25T07:32:45.000Z</time>
      </trkpt>
      <trkpt lat="44.53244" lon="6.01707">
        <ele>963.252737</ele>
        <time>2021-04-25T07:32:46.000Z</time>
      </trkpt>
      <trkpt lat="44.53239" lon="6.01707">
        <ele>962.907702</ele>
        <time>2021-04-25T07:32:47.000Z</time>
      </trkpt>
      <trkpt lat="44.53234" lon="6.01707">
        <ele>962.562352</ele>
        <time>2021-04-25T07:32:48.000Z</time>
      </trkpt>
      <trkpt lat="44.53229" lon="6.01708">
        <ele>962.208218</ele>
        <time>2021-04-25T07:32:49.000Z</time>
      </trkpt>
      <trkpt lat="44.53229" lon="6.01708">
        <ele>962.208218</ele>
        <time>2021-04-25T07:32:50.000Z</time>
      </trkpt>
      <trkpt lat="44.53219" lon="6.0171">
        <ele>961.536407</ele>
        <time>2021-04-25T07:32:51.000Z</time>
      </trkpt>
      <trkpt lat="44.53211" lon="6.01711">
        <ele>960.962031</ele>
        <time>2021-04-25T07:32:53.000Z</time>
      </trkpt>
      <trkpt lat="44.53204" lon="6.01718">
        <ele>960.355558</ele>
        <time>2021-04-25T07:32:56.000Z</time>
      </trkpt>
      <trkpt lat="44.53203" lon="6.01728">
        <ele>959.888176</ele>
        <time>2021-04-25T07:32:58.000Z</time>
      </trkpt>
      <trkpt lat="44.53208" lon="6.01741">
        <ele>959.144162</ele>
        <time>2021-04-25T07:33:01.000Z</time>
      </trkpt>
      <trkpt lat="44.53211" lon="6.0175">
        <ele>958.654612</ele>
        <time>2021-04-25T07:33:03.000Z</time>
      </trkpt>
      <trkpt lat="44.53213" lon="6.0176">
        <ele>958.174756</ele>
        <time>2021-04-25T07:33:05.000Z</time>
      </trkpt>
      <trkpt lat="44.53215" lon="6.0177">
        <ele>957.653638</ele>
        <time>2021-04-25T07:33:07.000Z</time>
      </trkpt>
      <trkpt lat="44.53216" lon="6.0178">
        <ele>957.141069</ele>
        <time>2021-04-25T07:33:09.000Z</time>
      </trkpt>
      <trkpt lat="44.53217" lon="6.01789">
        <ele>956.687767</ele>
        <time>2021-04-25T07:33:11.000Z</time>
      </trkpt>
      <trkpt lat="44.53219" lon="6.01798">
        <ele>956.236981</ele>
        <time>2021-04-25T07:33:13.000Z</time>
      </trkpt>
      <trkpt lat="44.53221" lon="6.0181">
        <ele>955.631444</ele>
        <time>2021-04-25T07:33:16.000Z</time>
      </trkpt>
      <trkpt lat="44.53222" lon="6.01816">
        <ele>955.346129</ele>
        <time>2021-04-25T07:33:18.000Z</time>
      </trkpt>
      <trkpt lat="44.53222" lon="6.01816">
        <ele>955.346129</ele>
        <time>2021-04-25T07:33:19.000Z</time>
      </trkpt>
      <trkpt lat="44.53219" lon="6.01823">
        <ele>954.956195</ele>
        <time>2021-04-25T07:33:56.000Z</time>
      </trkpt>
      <trkpt lat="44.53219" lon="6.01823">
        <ele>954.956195</ele>
        <time>2021-04-25T07:33:57.000Z</time>
      </trkpt>
      <trkpt lat="44.53213" lon="6.01828">
        <ele>954.515761</ele>
        <time>2021-04-25T07:33:58.000Z</time>
      </trkpt>
      <trkpt lat="44.53205" lon="6.01835">
        <ele>953.831672</ele>
        <time>2021-04-25T07:34:00.000Z</time>
      </trkpt>
      <trkpt lat="44.532" lon="6.01839">
        <ele>953.41658</ele>
        <time>2021-04-25T07:34:01.000Z</time>
      </trkpt>
      <trkpt lat="44.53194" lon="6.01844">
        <ele>952.964447</ele>
        <time>2021-04-25T07:34:02.000Z</time>
      </trkpt>
      <trkpt lat="44.53189" lon="6.01849">
        <ele>952.546995</ele>
        <time>2021-04-25T07:34:03.000Z</time>
      </trkpt>
      <trkpt lat="44.53186" lon="6.01856">
        <ele>952.142738</ele>
        <time>2021-04-25T07:34:04.000Z</time>
      </trkpt>
      <trkpt lat="44.53184" lon="6.01864">
        <ele>951.672541</ele>
        <time>2021-04-25T07:34:05.000Z</time>
      </trkpt>
      <trkpt lat="44.53183" lon="6.01873">
        <ele>950.919416</ele>
        <time>2021-04-25T07:34:06.000Z</time>
      </trkpt>
      <trkpt lat="44.53184" lon="6.01883">
        <ele>950.12714</ele>
        <time>2021-04-25T07:34:07.000Z</time>
      </trkpt>
      <trkpt lat="44.53184" lon="6.01893">
        <ele>949.341463</ele>
        <time>2021-04-25T07:34:08.000Z</time>
      </trkpt>
      <trkpt lat="44.53185" lon="6.01903">
        <ele>948.564303</ele>
        <time>2021-04-25T07:34:09.000Z</time>
      </trkpt>
      <trkpt lat="44.53185" lon="6.01913">
        <ele>947.772409</ele>
        <time>2021-04-25T07:34:10.000Z</time>
      </trkpt>
      <trkpt lat="44.53185" lon="6.01923">
        <ele>946.98858</ele>
        <time>2021-04-25T07:34:11.000Z</time>
      </trkpt>
      <trkpt lat="44.53185" lon="6.01933">
        <ele>946.209867</ele>
        <time>2021-04-25T07:34:12.000Z</time>
      </trkpt>
      <trkpt lat="44.53186" lon="6.01943">
        <ele>945.436771</ele>
        <time>2021-04-25T07:34:13.000Z</time>
      </trkpt>
      <trkpt lat="44.53186" lon="6.01953">
        <ele>944.644877</ele>
        <time>2021-04-25T07:34:14.000Z</time>
      </trkpt>
      <trkpt lat="44.53187" lon="6.01963">
        <ele>943.872954</ele>
        <time>2021-04-25T07:34:15.000Z</time>
      </trkpt>
      <trkpt lat="44.53188" lon="6.01972">
        <ele>943.1341</ele>
        <time>2021-04-25T07:34:16.000Z</time>
      </trkpt>
      <trkpt lat="44.53189" lon="6.01981">
        <ele>942.417843</ele>
        <time>2021-04-25T07:34:17.000Z</time>
      </trkpt>
      <trkpt lat="44.53189" lon="6.0199">
        <ele>941.720304</ele>
        <time>2021-04-25T07:34:18.000Z</time>
      </trkpt>
      <trkpt lat="44.53188" lon="6.01999">
        <ele>941.025017</ele>
        <time>2021-04-25T07:34:19.000Z</time>
      </trkpt>
      <trkpt lat="44.53186" lon="6.02008">
        <ele>940.302872</ele>
        <time>2021-04-25T07:34:20.000Z</time>
      </trkpt>
      <trkpt lat="44.53184" lon="6.02017">
        <ele>939.593885</ele>
        <time>2021-04-25T07:34:21.000Z</time>
      </trkpt>
      <trkpt lat="44.53182" lon="6.02026">
        <ele>938.846168</ele>
        <time>2021-04-25T07:34:22.000Z</time>
      </trkpt>
      <trkpt lat="44.53181" lon="6.02036">
        <ele>938.059117</ele>
        <time>2021-04-25T07:34:23.000Z</time>
      </trkpt>
      <trkpt lat="44.53181" lon="6.02046">
        <ele>937.272594</ele>
        <time>2021-04-25T07:34:24.000Z</time>
      </trkpt>
      <trkpt lat="44.5318" lon="6.02056">
        <ele>936.456306</ele>
        <time>2021-04-25T07:34:25.000Z</time>
      </trkpt>
      <trkpt lat="44.5318" lon="6.02066">
        <ele>935.668784</ele>
        <time>2021-04-25T07:34:26.000Z</time>
      </trkpt>
      <trkpt lat="44.53178" lon="6.02076">
        <ele>934.902927</ele>
        <time>2021-04-25T07:34:27.000Z</time>
      </trkpt>
      <trkpt lat="44.53176" lon="6.02086">
        <ele>934.096456</ele>
        <time>2021-04-25T07:34:28.000Z</time>
      </trkpt>
      <trkpt lat="44.53173" lon="6.02096">
        <ele>933.199274</ele>
        <time>2021-04-25T07:34:29.000Z</time>
      </trkpt>
      <trkpt lat="44.5317" lon="6.02107">
        <ele>932.275373</ele>
        <time>2021-04-25T07:34:30.000Z</time>
      </trkpt>
      <trkpt lat="44.53167" lon="6.02118">
        <ele>931.324096</ele>
        <time>2021-04-25T07:34:31.000Z</time>
      </trkpt>
      <trkpt lat="44.53165" lon="6.02129">
        <ele>930.368738</ele>
        <time>2021-04-25T07:34:32.000Z</time>
      </trkpt>
      <trkpt lat="44.53164" lon="6.02141">
        <ele>929.40716</ele>
        <time>2021-04-25T07:34:33.000Z</time>
      </trkpt>
      <trkpt lat="44.53163" lon="6.02152">
        <ele>928.437439</ele>
        <time>2021-04-25T07:34:34.000Z</time>
      </trkpt>
      <trkpt lat="44.53163" lon="6.02164">
        <ele>927.460862</ele>
        <time>2021-04-25T07:34:35.000Z</time>
      </trkpt>
      <trkpt lat="44.53163" lon="6.02176">
        <ele>926.476151</ele>
        <time>2021-04-25T07:34:36.000Z</time>
      </trkpt>
      <trkpt lat="44.53163" lon="6.02187">
        <ele>925.49144</ele>
        <time>2021-04-25T07:34:37.000Z</time>
      </trkpt>
      <trkpt lat="44.53164" lon="6.02199">
        <ele>924.496731</ele>
        <time>2021-04-25T07:34:38.000Z</time>
      </trkpt>
      <trkpt lat="44.53164" lon="6.02211">
        <ele>923.520154</ele>
        <time>2021-04-25T07:34:39.000Z</time>
      </trkpt>
      <trkpt lat="44.53164" lon="6.02223">
        <ele>922.526893</ele>
        <time>2021-04-25T07:34:40.000Z</time>
      </trkpt>
      <trkpt lat="44.53164" lon="6.02234">
        <ele>921.575341</ele>
        <time>2021-04-25T07:34:41.000Z</time>
      </trkpt>
      <trkpt lat="44.53163" lon="6.02246">
        <ele>920.640473</ele>
        <time>2021-04-25T07:34:42.000Z</time>
      </trkpt>
      <trkpt lat="44.53163" lon="6.02257">
        <ele>919.694</ele>
        <time>2021-04-25T07:34:43.000Z</time>
      </trkpt>
      <trkpt lat="44.53162" lon="6.02268">
        <ele>918.743843</ele>
        <time>2021-04-25T07:34:44.000Z</time>
      </trkpt>
      <trkpt lat="44.5316" lon="6.02279">
        <ele>917.836076</ele>
        <time>2021-04-25T07:34:45.000Z</time>
      </trkpt>
      <trkpt lat="44.53158" lon="6.02289">
        <ele>916.959253</ele>
        <time>2021-04-25T07:34:46.000Z</time>
      </trkpt>
      <trkpt lat="44.53157" lon="6.02299">
        <ele>916.111049</ele>
        <time>2021-04-25T07:34:47.000Z</time>
      </trkpt>
      <trkpt lat="44.53157" lon="6.02309">
        <ele>915.26818</ele>
        <time>2021-04-25T07:34:48.000Z</time>
      </trkpt>
      <trkpt lat="44.53158" lon="6.02319">
        <ele>914.405536</ele>
        <time>2021-04-25T07:34:49.000Z</time>
      </trkpt>
      <trkpt lat="44.5316" lon="6.02331">
        <ele>913.414916</ele>
        <time>2021-04-25T07:34:50.000Z</time>
      </trkpt>
      <trkpt lat="44.53162" lon="6.02343">
        <ele>912.405227</ele>
        <time>2021-04-25T07:34:51.000Z</time>
      </trkpt>
      <trkpt lat="44.53162" lon="6.02343">
        <ele>912.405227</ele>
        <time>2021-04-25T07:34:52.000Z</time>
      </trkpt>
      <trkpt lat="44.53167" lon="6.02364">
        <ele>910.966235</ele>
        <time>2021-04-25T07:34:53.000Z</time>
      </trkpt>
      <trkpt lat="44.53171" lon="6.02374">
        <ele>910.949207</ele>
        <time>2021-04-25T07:34:54.000Z</time>
      </trkpt>
      <trkpt lat="44.53175" lon="6.02383">
        <ele>910.932327</ele>
        <time>2021-04-25T07:34:55.000Z</time>
      </trkpt>
      <trkpt lat="44.53179" lon="6.02391">
        <ele>910.916096</ele>
        <time>2021-04-25T07:34:56.000Z</time>
      </trkpt>
      <trkpt lat="44.53185" lon="6.02408">
        <ele>910.886042</ele>
        <time>2021-04-25T07:34:58.000Z</time>
      </trkpt>
      <trkpt lat="44.5319" lon="6.02426">
        <ele>910.854054</ele>
        <time>2021-04-25T07:35:00.000Z</time>
      </trkpt>
      <trkpt lat="44.53196" lon="6.02445">
        <ele>910.820837</ele>
        <time>2021-04-25T07:35:02.000Z</time>
      </trkpt>
      <trkpt lat="44.53202" lon="6.0246">
        <ele>910.792658</ele>
        <time>2021-04-25T07:35:04.000Z</time>
      </trkpt>
      <trkpt lat="44.53206" lon="6.02474">
        <ele>910.768684</ele>
        <time>2021-04-25T07:35:06.000Z</time>
      </trkpt>
      <trkpt lat="44.53206" lon="6.02474">
        <ele>910.768684</ele>
        <time>2021-04-25T07:35:07.000Z</time>
      </trkpt>
      <trkpt lat="44.53207" lon="6.02491">
        <ele>910.742075</ele>
        <time>2021-04-25T07:35:09.000Z</time>
      </trkpt>
      <trkpt lat="44.53215" lon="6.02507">
        <ele>910.710565</ele>
        <time>2021-04-25T07:35:13.000Z</time>
      </trkpt>
      <trkpt lat="44.53215" lon="6.02507">
        <ele>910.710565</ele>
        <time>2021-04-25T07:35:14.000Z</time>
      </trkpt>
      <trkpt lat="44.53218" lon="6.02524">
        <ele>910.682648</ele>
        <time>2021-04-25T07:35:16.000Z</time>
      </trkpt>
      <trkpt lat="44.53219" lon="6.02537">
        <ele>910.661466</ele>
        <time>2021-04-25T07:35:19.000Z</time>
      </trkpt>
      <trkpt lat="44.53219" lon="6.02537">
        <ele>910.661466</ele>
        <time>2021-04-25T07:35:21.000Z</time>
      </trkpt>
      <trkpt lat="44.53223" lon="6.02549">
        <ele>910.639612</ele>
        <time>2021-04-25T07:35:23.000Z</time>
      </trkpt>
      <trkpt lat="44.53225" lon="6.02563">
        <ele>910.617426</ele>
        <time>2021-04-25T07:35:28.000Z</time>
      </trkpt>
      <trkpt lat="44.53225" lon="6.02563">
        <ele>910.617426</ele>
        <time>2021-04-25T07:35:32.000Z</time>
      </trkpt>
      <trkpt lat="44.5323" lon="6.02575">
        <ele>910.594942</ele>
        <time>2021-04-25T07:35:34.000Z</time>
      </trkpt>
      <trkpt lat="44.5323" lon="6.02575">
        <ele>910.594942</ele>
        <time>2021-04-25T07:35:36.000Z</time>
      </trkpt>
      <trkpt lat="44.53234" lon="6.02588">
        <ele>910.572076</ele>
        <time>2021-04-25T07:35:41.000Z</time>
      </trkpt>
      <trkpt lat="44.53234" lon="6.02588">
        <ele>910.572076</ele>
        <time>2021-04-25T07:35:44.000Z</time>
      </trkpt>
      <trkpt lat="44.53239" lon="6.02602">
        <ele>910.529471</ele>
        <time>2021-04-25T07:35:48.000Z</time>
      </trkpt>
      <trkpt lat="44.53239" lon="6.02602">
        <ele>910.529471</ele>
        <time>2021-04-25T07:35:51.000Z</time>
      </trkpt>
      <trkpt lat="44.53243" lon="6.0261">
        <ele>910.502084</ele>
        <time>2021-04-25T07:35:53.000Z</time>
      </trkpt>
      <trkpt lat="44.53248" lon="6.0262">
        <ele>910.468429</ele>
        <time>2021-04-25T07:35:58.000Z</time>
      </trkpt>
      <trkpt lat="44.53252" lon="6.02629">
        <ele>910.437533</ele>
        <time>2021-04-25T07:36:02.000Z</time>
      </trkpt>
      <trkpt lat="44.53256" lon="6.02639">
        <ele>910.407072</ele>
        <time>2021-04-25T07:36:06.000Z</time>
      </trkpt>
      <trkpt lat="44.53256" lon="6.02639">
        <ele>910.407072</ele>
        <time>2021-04-25T07:36:09.000Z</time>
      </trkpt>
      <trkpt lat="44.5326" lon="6.02647">
        <ele>910.378012</ele>
        <time>2021-04-25T07:36:10.000Z</time>
      </trkpt>
      <trkpt lat="44.5326" lon="6.02647">
        <ele>910.378012</ele>
        <time>2021-04-25T07:36:11.000Z</time>
      </trkpt>
      <trkpt lat="44.53264" lon="6.02656">
        <ele>910.348823</ele>
        <time>2021-04-25T07:36:14.000Z</time>
      </trkpt>
      <trkpt lat="44.53264" lon="6.02656">
        <ele>910.348823</ele>
        <time>2021-04-25T07:36:15.000Z</time>
      </trkpt>
      <trkpt lat="44.53264" lon="6.02667">
        <ele>910.319015</ele>
        <time>2021-04-25T07:36:17.000Z</time>
      </trkpt>
      <trkpt lat="44.53266" lon="6.02678">
        <ele>910.288398</ele>
        <time>2021-04-25T07:36:20.000Z</time>
      </trkpt>
      <trkpt lat="44.53266" lon="6.02678">
        <ele>910.288398</ele>
        <time>2021-04-25T07:36:23.000Z</time>
      </trkpt>
      <trkpt lat="44.5327" lon="6.02689">
        <ele>910.251783</ele>
        <time>2021-04-25T07:36:24.000Z</time>
      </trkpt>
      <trkpt lat="44.53275" lon="6.02702">
        <ele>910.210924</ele>
        <time>2021-04-25T07:36:28.000Z</time>
      </trkpt>
      <trkpt lat="44.53277" lon="6.02713">
        <ele>910.179553</ele>
        <time>2021-04-25T07:36:31.000Z</time>
      </trkpt>
      <trkpt lat="44.53282" lon="6.02724">
        <ele>910.143127</ele>
        <time>2021-04-25T07:36:34.000Z</time>
      </trkpt>
      <trkpt lat="44.53282" lon="6.02724">
        <ele>910.143127</ele>
        <time>2021-04-25T07:36:35.000Z</time>
      </trkpt>
      <trkpt lat="44.53289" lon="6.02731">
        <ele>910.107444</ele>
        <time>2021-04-25T07:36:36.000Z</time>
      </trkpt>
      <trkpt lat="44.53294" lon="6.02738">
        <ele>910.078523</ele>
        <time>2021-04-25T07:36:38.000Z</time>
      </trkpt>
      <trkpt lat="44.53301" lon="6.02749">
        <ele>910.037353</ele>
        <time>2021-04-25T07:36:41.000Z</time>
      </trkpt>
      <trkpt lat="44.53301" lon="6.02749">
        <ele>910.037353</ele>
        <time>2021-04-25T07:36:43.000Z</time>
      </trkpt>
      <trkpt lat="44.53309" lon="6.02763">
        <ele>909.987842</ele>
        <time>2021-04-25T07:36:45.000Z</time>
      </trkpt>
      <trkpt lat="44.53309" lon="6.02763">
        <ele>909.987842</ele>
        <time>2021-04-25T07:36:46.000Z</time>
      </trkpt>
      <trkpt lat="44.53318" lon="6.02776">
        <ele>909.936915</ele>
        <time>2021-04-25T07:36:48.000Z</time>
      </trkpt>
      <trkpt lat="44.53318" lon="6.02776">
        <ele>909.936915</ele>
        <time>2021-04-25T07:36:50.000Z</time>
      </trkpt>
      <trkpt lat="44.53325" lon="6.0279">
        <ele>909.889239</ele>
        <time>2021-04-25T07:36:51.000Z</time>
      </trkpt>
      <trkpt lat="44.53334" lon="6.02803">
        <ele>909.578297</ele>
        <time>2021-04-25T07:36:54.000Z</time>
      </trkpt>
      <trkpt lat="44.53339" lon="6.02811">
        <ele>909.138398</ele>
        <time>2021-04-25T07:36:56.000Z</time>
      </trkpt>
      <trkpt lat="44.53339" lon="6.02811">
        <ele>909.138398</ele>
        <time>2021-04-25T07:36:57.000Z</time>
      </trkpt>
      <trkpt lat="44.53339" lon="6.02811">
        <ele>909.138398</ele>
        <time>2021-04-25T07:36:58.000Z</time>
      </trkpt>
      <trkpt lat="44.53346" lon="6.02823">
        <ele>908.585291</ele>
        <time>2021-04-25T07:36:59.000Z</time>
      </trkpt>
      <trkpt lat="44.53355" lon="6.02835">
        <ele>907.925214</ele>
        <time>2021-04-25T07:37:02.000Z</time>
      </trkpt>
      <trkpt lat="44.53355" lon="6.02835">
        <ele>907.925214</ele>
        <time>2021-04-25T07:37:03.000Z</time>
      </trkpt>
      <trkpt lat="44.53362" lon="6.02845">
        <ele>907.421471</ele>
        <time>2021-04-25T07:37:04.000Z</time>
      </trkpt>
      <trkpt lat="44.53362" lon="6.02845">
        <ele>907.421471</ele>
        <time>2021-04-25T07:37:05.000Z</time>
      </trkpt>
      <trkpt lat="44.5337" lon="6.02855">
        <ele>906.823722</ele>
        <time>2021-04-25T07:37:07.000Z</time>
      </trkpt>
      <trkpt lat="44.5337" lon="6.02855">
        <ele>906.823722</ele>
        <time>2021-04-25T07:37:08.000Z</time>
      </trkpt>
      <trkpt lat="44.53378" lon="6.0287">
        <ele>906.126851</ele>
        <time>2021-04-25T07:37:10.000Z</time>
      </trkpt>
      <trkpt lat="44.53388" lon="6.02884">
        <ele>905.395135</ele>
        <time>2021-04-25T07:37:13.000Z</time>
      </trkpt>
      <trkpt lat="44.53397" lon="6.02893">
        <ele>904.804666</ele>
        <time>2021-04-25T07:37:15.000Z</time>
      </trkpt>
      <trkpt lat="44.53397" lon="6.02893">
        <ele>904.804666</ele>
        <time>2021-04-25T07:37:16.000Z</time>
      </trkpt>
      <trkpt lat="44.53413" lon="6.029">
        <ele>903.902207</ele>
        <time>2021-04-25T07:37:17.000Z</time>
      </trkpt>
      <trkpt lat="44.53413" lon="6.029">
        <ele>903.902207</ele>
        <time>2021-04-25T07:37:18.000Z</time>
      </trkpt>
      <trkpt lat="44.53428" lon="6.02907">
        <ele>903.097405</ele>
        <time>2021-04-25T07:37:19.000Z</time>
      </trkpt>
      <trkpt lat="44.53441" lon="6.02915">
        <ele>902.363698</ele>
        <time>2021-04-25T07:37:21.000Z</time>
      </trkpt>
      <trkpt lat="44.53441" lon="6.02915">
        <ele>902.363698</ele>
        <time>2021-04-25T07:37:22.000Z</time>
      </trkpt>
      <trkpt lat="44.53452" lon="6.02924">
        <ele>901.667649</ele>
        <time>2021-04-25T07:37:23.000Z</time>
      </trkpt>
      <trkpt lat="44.53452" lon="6.02924">
        <ele>901.667649</ele>
        <time>2021-04-25T07:37:24.000Z</time>
      </trkpt>
      <trkpt lat="44.53462" lon="6.02934">
        <ele>901.037851</ele>
        <time>2021-04-25T07:37:25.000Z</time>
      </trkpt>
      <trkpt lat="44.5347" lon="6.02945">
        <ele>900.435799</ele>
        <time>2021-04-25T07:37:27.000Z</time>
      </trkpt>
      <trkpt lat="44.53478" lon="6.02956">
        <ele>899.855266</ele>
        <time>2021-04-25T07:37:29.000Z</time>
      </trkpt>
      <trkpt lat="44.53478" lon="6.02956">
        <ele>899.855266</ele>
        <time>2021-04-25T07:37:30.000Z</time>
      </trkpt>
      <trkpt lat="44.53487" lon="6.02968">
        <ele>899.185831</ele>
        <time>2021-04-25T07:37:31.000Z</time>
      </trkpt>
      <trkpt lat="44.53495" lon="6.0298">
        <ele>898.533673</ele>
        <time>2021-04-25T07:37:33.000Z</time>
      </trkpt>
      <trkpt lat="44.53495" lon="6.0298">
        <ele>898.533673</ele>
        <time>2021-04-25T07:37:34.000Z</time>
      </trkpt>
      <trkpt lat="44.53503" lon="6.02993">
        <ele>897.884398</ele>
        <time>2021-04-25T07:37:35.000Z</time>
      </trkpt>
      <trkpt lat="44.53503" lon="6.02993">
        <ele>897.884398</ele>
        <time>2021-04-25T07:37:36.000Z</time>
      </trkpt>
      <trkpt lat="44.53509" lon="6.03006">
        <ele>897.295904</ele>
        <time>2021-04-25T07:37:37.000Z</time>
      </trkpt>
      <trkpt lat="44.53514" lon="6.03018">
        <ele>896.770704</ele>
        <time>2021-04-25T07:37:39.000Z</time>
      </trkpt>
      <trkpt lat="44.53514" lon="6.03018">
        <ele>896.770704</ele>
        <time>2021-04-25T07:37:40.000Z</time>
      </trkpt>
      <trkpt lat="44.53518" lon="6.03028">
        <ele>896.314236</ele>
        <time>2021-04-25T07:37:41.000Z</time>
      </trkpt>
      <trkpt lat="44.53518" lon="6.03028">
        <ele>896.314236</ele>
        <time>2021-04-25T07:37:42.000Z</time>
      </trkpt>
      <trkpt lat="44.53522" lon="6.03037">
        <ele>895.942222</ele>
        <time>2021-04-25T07:37:43.000Z</time>
      </trkpt>
      <trkpt lat="44.53526" lon="6.03046">
        <ele>895.533548</ele>
        <time>2021-04-25T07:37:46.000Z</time>
      </trkpt>
      <trkpt lat="44.53529" lon="6.03056">
        <ele>895.114843</ele>
        <time>2021-04-25T07:37:49.000Z</time>
      </trkpt>
      <trkpt lat="44.53531" lon="6.03063">
        <ele>894.804728</ele>
        <time>2021-04-25T07:37:51.000Z</time>
      </trkpt>
      <trkpt lat="44.53533" lon="6.03071">
        <ele>894.506777</ele>
        <time>2021-04-25T07:37:53.000Z</time>
      </trkpt>
      <trkpt lat="44.53535" lon="6.03078">
        <ele>894.23611</ele>
        <time>2021-04-25T07:37:55.000Z</time>
      </trkpt>
      <trkpt lat="44.53536" lon="6.03086">
        <ele>893.923244</ele>
        <time>2021-04-25T07:37:57.000Z</time>
      </trkpt>
      <trkpt lat="44.53535" lon="6.03096">
        <ele>893.529931</ele>
        <time>2021-04-25T07:37:59.000Z</time>
      </trkpt>
      <trkpt lat="44.53533" lon="6.03108">
        <ele>893.062507</ele>
        <time>2021-04-25T07:38:01.000Z</time>
      </trkpt>
      <trkpt lat="44.53535" lon="6.03121">
        <ele>892.580934</ele>
        <time>2021-04-25T07:38:03.000Z</time>
      </trkpt>
      <trkpt lat="44.53539" lon="6.03133">
        <ele>892.046857</ele>
        <time>2021-04-25T07:38:05.000Z</time>
      </trkpt>
      <trkpt lat="44.53543" lon="6.03146">
        <ele>891.506017</ele>
        <time>2021-04-25T07:38:07.000Z</time>
      </trkpt>
      <trkpt lat="44.53548" lon="6.03158">
        <ele>890.964458</ele>
        <time>2021-04-25T07:38:09.000Z</time>
      </trkpt>
      <trkpt lat="44.53549" lon="6.03173">
        <ele>890.697893</ele>
        <time>2021-04-25T07:38:11.000Z</time>
      </trkpt>
      <trkpt lat="44.5355" lon="6.03186">
        <ele>890.576475</ele>
        <time>2021-04-25T07:38:13.000Z</time>
      </trkpt>
      <trkpt lat="44.53553" lon="6.03199">
        <ele>890.452534</ele>
        <time>2021-04-25T07:38:15.000Z</time>
      </trkpt>
      <trkpt lat="44.53556" lon="6.03212">
        <ele>890.324678</ele>
        <time>2021-04-25T07:38:17.000Z</time>
      </trkpt>
      <trkpt lat="44.53561" lon="6.03231">
        <ele>890.141856</ele>
        <time>2021-04-25T07:38:20.000Z</time>
      </trkpt>
      <trkpt lat="44.5357" lon="6.03248">
        <ele>889.944766</ele>
        <time>2021-04-25T07:38:23.000Z</time>
      </trkpt>
      <trkpt lat="44.53576" lon="6.0326">
        <ele>889.809449</ele>
        <time>2021-04-25T07:38:25.000Z</time>
      </trkpt>
      <trkpt lat="44.53584" lon="6.03271">
        <ele>889.668475</ele>
        <time>2021-04-25T07:38:27.000Z</time>
      </trkpt>
      <trkpt lat="44.53584" lon="6.03271">
        <ele>889.668475</ele>
        <time>2021-04-25T07:38:29.000Z</time>
      </trkpt>
      <trkpt lat="44.53589" lon="6.03288">
        <ele>889.503716</ele>
        <time>2021-04-25T07:38:30.000Z</time>
      </trkpt>
      <trkpt lat="44.53589" lon="6.03288">
        <ele>889.503716</ele>
        <time>2021-04-25T07:38:34.000Z</time>
      </trkpt>
      <trkpt lat="44.536" lon="6.03297">
        <ele>889.342965</ele>
        <time>2021-04-25T07:38:35.000Z</time>
      </trkpt>
      <trkpt lat="44.536" lon="6.03297">
        <ele>889.342965</ele>
        <time>2021-04-25T07:38:36.000Z</time>
      </trkpt>
      <trkpt lat="44.536" lon="6.03297">
        <ele>889.342965</ele>
        <time>2021-04-25T07:38:37.000Z</time>
      </trkpt>
      <trkpt lat="44.53609" lon="6.03304">
        <ele>889.211046</ele>
        <time>2021-04-25T07:38:38.000Z</time>
      </trkpt>
      <trkpt lat="44.53609" lon="6.03304">
        <ele>889.211046</ele>
        <time>2021-04-25T07:38:40.000Z</time>
      </trkpt>
      <trkpt lat="44.53616" lon="6.03316">
        <ele>889.070407</ele>
        <time>2021-04-25T07:38:42.000Z</time>
      </trkpt>
      <trkpt lat="44.53621" lon="6.03325">
        <ele>888.960471</ele>
        <time>2021-04-25T07:38:45.000Z</time>
      </trkpt>
      <trkpt lat="44.53629" lon="6.0333">
        <ele>888.859133</ele>
        <time>2021-04-25T07:38:48.000Z</time>
      </trkpt>
      <trkpt lat="44.53629" lon="6.0333">
        <ele>888.859133</ele>
        <time>2021-04-25T07:38:49.000Z</time>
      </trkpt>
      <trkpt lat="44.53634" lon="6.03333">
        <ele>888.779543</ele>
        <time>2021-04-25T07:38:51.000Z</time>
      </trkpt>
      <trkpt lat="44.53641" lon="6.03337">
        <ele>888.68824</ele>
        <time>2021-04-25T07:38:55.000Z</time>
      </trkpt>
      <trkpt lat="44.53646" lon="6.03339">
        <ele>888.617671</ele>
        <time>2021-04-25T07:38:58.000Z</time>
      </trkpt>
      <trkpt lat="44.5365" lon="6.03345">
        <ele>888.540598</ele>
        <time>2021-04-25T07:39:02.000Z</time>
      </trkpt>
      <trkpt lat="44.53653" lon="6.0335">
        <ele>888.476506</ele>
        <time>2021-04-25T07:39:05.000Z</time>
      </trkpt>
      <trkpt lat="44.53653" lon="6.0335">
        <ele>888.476506</ele>
        <time>2021-04-25T07:39:06.000Z</time>
      </trkpt>
      <trkpt lat="44.53657" lon="6.03356">
        <ele>888.526513</ele>
        <time>2021-04-25T07:39:08.000Z</time>
      </trkpt>
      <trkpt lat="44.53657" lon="6.03356">
        <ele>888.526513</ele>
        <time>2021-04-25T07:39:10.000Z</time>
      </trkpt>
      <trkpt lat="44.5366" lon="6.03362">
        <ele>888.578834</ele>
        <time>2021-04-25T07:39:11.000Z</time>
      </trkpt>
      <trkpt lat="44.53663" lon="6.0337">
        <ele>888.64449</ele>
        <time>2021-04-25T07:39:15.000Z</time>
      </trkpt>
      <trkpt lat="44.53663" lon="6.0337">
        <ele>888.64449</ele>
        <time>2021-04-25T07:39:16.000Z</time>
      </trkpt>
      <trkpt lat="44.53663" lon="6.0337">
        <ele>888.64449</ele>
        <time>2021-04-25T07:39:19.000Z</time>
      </trkpt>
      <trkpt lat="44.53669" lon="6.03377">
        <ele>888.71957</ele>
        <time>2021-04-25T07:39:20.000Z</time>
      </trkpt>
      <trkpt lat="44.53669" lon="6.03377">
        <ele>888.71957</ele>
        <time>2021-04-25T07:39:22.000Z</time>
      </trkpt>
      <trkpt lat="44.53675" lon="6.03376">
        <ele>888.775809</ele>
        <time>2021-04-25T07:39:25.000Z</time>
      </trkpt>
      <trkpt lat="44.53675" lon="6.03376">
        <ele>888.775809</ele>
        <time>2021-04-25T07:39:28.000Z</time>
      </trkpt>
      <trkpt lat="44.5368" lon="6.03375">
        <ele>888.830113</ele>
        <time>2021-04-25T07:39:30.000Z</time>
      </trkpt>
      <trkpt lat="44.5368" lon="6.03375">
        <ele>888.830113</ele>
        <time>2021-04-25T07:39:31.000Z</time>
      </trkpt>
      <trkpt lat="44.5368" lon="6.03375">
        <ele>888.830113</ele>
        <time>2021-04-25T07:39:34.000Z</time>
      </trkpt>
      <trkpt lat="44.53685" lon="6.03375">
        <ele>888.879006</ele>
        <time>2021-04-25T07:39:35.000Z</time>
      </trkpt>
      <trkpt lat="44.53691" lon="6.03376">
        <ele>888.934277</ele>
        <time>2021-04-25T07:39:39.000Z</time>
      </trkpt>
      <trkpt lat="44.53691" lon="6.03376">
        <ele>888.934277</ele>
        <time>2021-04-25T07:39:40.000Z</time>
      </trkpt>
      <trkpt lat="44.53691" lon="6.03376">
        <ele>888.934277</ele>
        <time>2021-04-25T07:39:42.000Z</time>
      </trkpt>
      <trkpt lat="44.53695" lon="6.03383">
        <ele>888.99909</ele>
        <time>2021-04-25T07:39:44.000Z</time>
      </trkpt>
      <trkpt lat="44.53695" lon="6.03383">
        <ele>888.99909</ele>
        <time>2021-04-25T07:39:45.000Z</time>
      </trkpt>
      <trkpt lat="44.53694" lon="6.03391">
        <ele>889.054971</ele>
        <time>2021-04-25T07:39:48.000Z</time>
      </trkpt>
      <trkpt lat="44.53694" lon="6.03391">
        <ele>889.054971</ele>
        <time>2021-04-25T07:39:49.000Z</time>
      </trkpt>
      <trkpt lat="44.53694" lon="6.03391">
        <ele>889.054971</ele>
        <time>2021-04-25T07:39:50.000Z</time>
      </trkpt>
      <trkpt lat="44.5369" lon="6.03394">
        <ele>889.100329</ele>
        <time>2021-04-25T07:39:51.000Z</time>
      </trkpt>
      <trkpt lat="44.53685" lon="6.03395">
        <ele>889.146195</ele>
        <time>2021-04-25T07:39:54.000Z</time>
      </trkpt>
      <trkpt lat="44.53685" lon="6.03395">
        <ele>889.146195</ele>
        <time>2021-04-25T07:39:56.000Z</time>
      </trkpt>
      <trkpt lat="44.53681" lon="6.03397">
        <ele>889.189678</ele>
        <time>2021-04-25T07:39:57.000Z</time>
      </trkpt>
      <trkpt lat="44.53677" lon="6.034">
        <ele>889.234111</ele>
        <time>2021-04-25T07:40:00.000Z</time>
      </trkpt>
      <trkpt lat="44.53677" lon="6.034">
        <ele>889.234111</ele>
        <time>2021-04-25T07:40:02.000Z</time>
      </trkpt>
      <trkpt lat="44.53673" lon="6.03403">
        <ele>889.274688</ele>
        <time>2021-04-25T07:40:03.000Z</time>
      </trkpt>
      <trkpt lat="44.53673" lon="6.03403">
        <ele>889.274688</ele>
        <time>2021-04-25T07:40:04.000Z</time>
      </trkpt>
      <trkpt lat="44.5367" lon="6.03405">
        <ele>889.311125</ele>
        <time>2021-04-25T07:40:05.000Z</time>
      </trkpt>
      <trkpt lat="44.53666" lon="6.03409">
        <ele>889.360356</ele>
        <time>2021-04-25T07:40:07.000Z</time>
      </trkpt>
      <trkpt lat="44.53662" lon="6.03416">
        <ele>889.422943</ele>
        <time>2021-04-25T07:40:09.000Z</time>
      </trkpt>
      <trkpt lat="44.53659" lon="6.03422">
        <ele>889.473946</ele>
        <time>2021-04-25T07:40:11.000Z</time>
      </trkpt>
      <trkpt lat="44.53657" lon="6.03427">
        <ele>889.511965</ele>
        <time>2021-04-25T07:40:13.000Z</time>
      </trkpt>
      <trkpt lat="44.53657" lon="6.03427">
        <ele>889.511965</ele>
        <time>2021-04-25T07:40:14.000Z</time>
      </trkpt>
      <trkpt lat="44.53655" lon="6.03431">
        <ele>889.548859</ele>
        <time>2021-04-25T07:40:22.000Z</time>
      </trkpt>
      <trkpt lat="44.53655" lon="6.03431">
        <ele>889.548859</ele>
        <time>2021-04-25T07:40:23.000Z</time>
      </trkpt>
      <trkpt lat="44.53653" lon="6.03436">
        <ele>889.590193</ele>
        <time>2021-04-25T07:40:24.000Z</time>
      </trkpt>
      <trkpt lat="44.53653" lon="6.03436">
        <ele>889.590193</ele>
        <time>2021-04-25T07:40:25.000Z</time>
      </trkpt>
      <trkpt lat="44.5365" lon="6.03442">
        <ele>889.639559</ele>
        <time>2021-04-25T07:40:26.000Z</time>
      </trkpt>
      <trkpt lat="44.53647" lon="6.03449">
        <ele>889.697431</ele>
        <time>2021-04-25T07:40:28.000Z</time>
      </trkpt>
      <trkpt lat="44.53645" lon="6.0346">
        <ele>889.776533</ele>
        <time>2021-04-25T07:40:30.000Z</time>
      </trkpt>
      <trkpt lat="44.53646" lon="6.03473">
        <ele>889.866225</ele>
        <time>2021-04-25T07:40:32.000Z</time>
      </trkpt>
      <trkpt lat="44.5365" lon="6.03488">
        <ele>889.974268</ele>
        <time>2021-04-25T07:40:35.000Z</time>
      </trkpt>
      <trkpt lat="44.53656" lon="6.03501">
        <ele>890.084371</ele>
        <time>2021-04-25T07:40:38.000Z</time>
      </trkpt>
      <trkpt lat="44.53663" lon="6.03513">
        <ele>890.196422</ele>
        <time>2021-04-25T07:40:41.000Z</time>
      </trkpt>
      <trkpt lat="44.53669" lon="6.03521">
        <ele>889.76238</ele>
        <time>2021-04-25T07:40:43.000Z</time>
      </trkpt>
      <trkpt lat="44.53675" lon="6.03532">
        <ele>888.701092</ele>
        <time>2021-04-25T07:40:46.000Z</time>
      </trkpt>
      <trkpt lat="44.53675" lon="6.03532">
        <ele>888.701092</ele>
        <time>2021-04-25T07:40:48.000Z</time>
      </trkpt>
      <trkpt lat="44.53672" lon="6.03542">
        <ele>887.89744</ele>
        <time>2021-04-25T07:40:50.000Z</time>
      </trkpt>
      <trkpt lat="44.53672" lon="6.03542">
        <ele>887.89744</ele>
        <time>2021-04-25T07:40:51.000Z</time>
      </trkpt>
      <trkpt lat="44.53665" lon="6.03548">
        <ele>886.961498</ele>
        <time>2021-04-25T07:40:53.000Z</time>
      </trkpt>
      <trkpt lat="44.53657" lon="6.0355">
        <ele>886.117793</ele>
        <time>2021-04-25T07:40:55.000Z</time>
      </trkpt>
      <trkpt lat="44.53649" lon="6.03551">
        <ele>885.229495</ele>
        <time>2021-04-25T07:40:57.000Z</time>
      </trkpt>
      <trkpt lat="44.53649" lon="6.03551">
        <ele>885.229495</ele>
        <time>2021-04-25T07:40:58.000Z</time>
      </trkpt>
      <trkpt lat="44.5364" lon="6.03552">
        <ele>884.250494</ele>
        <time>2021-04-25T07:40:59.000Z</time>
      </trkpt>
      <trkpt lat="44.53632" lon="6.03553">
        <ele>883.323717</ele>
        <time>2021-04-25T07:41:01.000Z</time>
      </trkpt>
      <trkpt lat="44.53632" lon="6.03553">
        <ele>883.323717</ele>
        <time>2021-04-25T07:41:02.000Z</time>
      </trkpt>
      <trkpt lat="44.53622" lon="6.03553">
        <ele>882.322381</ele>
        <time>2021-04-25T07:41:03.000Z</time>
      </trkpt>
      <trkpt lat="44.53613" lon="6.03554">
        <ele>881.338698</ele>
        <time>2021-04-25T07:41:05.000Z</time>
      </trkpt>
      <trkpt lat="44.53604" lon="6.03555">
        <ele>880.347375</ele>
        <time>2021-04-25T07:41:07.000Z</time>
      </trkpt>
      <trkpt lat="44.53604" lon="6.03555">
        <ele>880.347375</ele>
        <time>2021-04-25T07:41:08.000Z</time>
      </trkpt>
      <trkpt lat="44.53595" lon="6.03556">
        <ele>879.390327</ele>
        <time>2021-04-25T07:41:09.000Z</time>
      </trkpt>
      <trkpt lat="44.53586" lon="6.03556">
        <ele>878.411326</ele>
        <time>2021-04-25T07:41:11.000Z</time>
      </trkpt>
      <trkpt lat="44.53586" lon="6.03556">
        <ele>878.411326</ele>
        <time>2021-04-25T07:41:12.000Z</time>
      </trkpt>
      <trkpt lat="44.53578" lon="6.03555">
        <ele>877.46429</ele>
        <time>2021-04-25T07:41:13.000Z</time>
      </trkpt>
      <trkpt lat="44.53569" lon="6.03554">
        <ele>876.477954</ele>
        <time>2021-04-25T07:41:15.000Z</time>
      </trkpt>
      <trkpt lat="44.53569" lon="6.03554">
        <ele>876.477954</ele>
        <time>2021-04-25T07:41:16.000Z</time>
      </trkpt>
      <trkpt lat="44.5356" lon="6.0355">
        <ele>875.498096</ele>
        <time>2021-04-25T07:41:17.000Z</time>
      </trkpt>
      <trkpt lat="44.5356" lon="6.0355">
        <ele>875.498096</ele>
        <time>2021-04-25T07:41:18.000Z</time>
      </trkpt>
      <trkpt lat="44.53552" lon="6.03546">
        <ele>874.595171</ele>
        <time>2021-04-25T07:41:19.000Z</time>
      </trkpt>
      <trkpt lat="44.53552" lon="6.03546">
        <ele>874.595171</ele>
        <time>2021-04-25T07:41:20.000Z</time>
      </trkpt>
      <trkpt lat="44.53544" lon="6.03544">
        <ele>873.723518</ele>
        <time>2021-04-25T07:41:21.000Z</time>
      </trkpt>
      <trkpt lat="44.53544" lon="6.03544">
        <ele>873.723518</ele>
        <time>2021-04-25T07:41:22.000Z</time>
      </trkpt>
      <trkpt lat="44.53535" lon="6.0354">
        <ele>872.69342</ele>
        <time>2021-04-25T07:41:23.000Z</time>
      </trkpt>
      <trkpt lat="44.53535" lon="6.0354">
        <ele>872.69342</ele>
        <time>2021-04-25T07:41:24.000Z</time>
      </trkpt>
      <trkpt lat="44.53527" lon="6.03538">
        <ele>871.768349</ele>
        <time>2021-04-25T07:41:25.000Z</time>
      </trkpt>
      <trkpt lat="44.53527" lon="6.03538">
        <ele>871.768349</ele>
        <time>2021-04-25T07:41:26.000Z</time>
      </trkpt>
      <trkpt lat="44.53518" lon="6.03536">
        <ele>870.813465</ele>
        <time>2021-04-25T07:41:27.000Z</time>
      </trkpt>
      <trkpt lat="44.53518" lon="6.03536">
        <ele>870.813465</ele>
        <time>2021-04-25T07:41:28.000Z</time>
      </trkpt>
      <trkpt lat="44.53509" lon="6.03534">
        <ele>869.784406</ele>
        <time>2021-04-25T07:41:29.000Z</time>
      </trkpt>
      <trkpt lat="44.53509" lon="6.03534">
        <ele>869.784406</ele>
        <time>2021-04-25T07:41:30.000Z</time>
      </trkpt>
      <trkpt lat="44.535" lon="6.03532">
        <ele>868.791835</ele>
        <time>2021-04-25T07:41:31.000Z</time>
      </trkpt>
      <trkpt lat="44.535" lon="6.03532">
        <ele>868.791835</ele>
        <time>2021-04-25T07:41:32.000Z</time>
      </trkpt>
      <trkpt lat="44.53492" lon="6.03531">
        <ele>867.875487</ele>
        <time>2021-04-25T07:41:33.000Z</time>
      </trkpt>
      <trkpt lat="44.53492" lon="6.03531">
        <ele>867.875487</ele>
        <time>2021-04-25T07:41:34.000Z</time>
      </trkpt>
      <trkpt lat="44.53485" lon="6.03531">
        <ele>867.096601</ele>
        <time>2021-04-25T07:41:35.000Z</time>
      </trkpt>
      <trkpt lat="44.53485" lon="6.03531">
        <ele>867.096601</ele>
        <time>2021-04-25T07:41:36.000Z</time>
      </trkpt>
      <trkpt lat="44.53479" lon="6.0353">
        <ele>866.425723</ele>
        <time>2021-04-25T07:41:37.000Z</time>
      </trkpt>
      <trkpt lat="44.53479" lon="6.0353">
        <ele>866.425723</ele>
        <time>2021-04-25T07:41:39.000Z</time>
      </trkpt>
      <trkpt lat="44.53479" lon="6.0353">
        <ele>866.425723</ele>
        <time>2021-04-25T07:41:41.000Z</time>
      </trkpt>
      <trkpt lat="44.53479" lon="6.0353">
        <ele>866.425723</ele>
        <time>2021-04-25T07:41:43.000Z</time>
      </trkpt>
      <trkpt lat="44.53479" lon="6.0353">
        <ele>866.425723</ele>
        <time>2021-04-25T07:41:46.000Z</time>
      </trkpt>
      <trkpt lat="44.53481" lon="6.0354">
        <ele>865.630369</ele>
        <time>2021-04-25T07:41:49.000Z</time>
      </trkpt>
      <trkpt lat="44.53481" lon="6.0354">
        <ele>865.630369</ele>
        <time>2021-04-25T07:41:50.000Z</time>
      </trkpt>
      <trkpt lat="44.53491" lon="6.03543">
        <ele>864.519936</ele>
        <time>2021-04-25T07:41:52.000Z</time>
      </trkpt>
      <trkpt lat="44.53502" lon="6.0355">
        <ele>863.16274</ele>
        <time>2021-04-25T07:41:55.000Z</time>
      </trkpt>
      <trkpt lat="44.53502" lon="6.0355">
        <ele>863.16274</ele>
        <time>2021-04-25T07:41:56.000Z</time>
      </trkpt>
      <trkpt lat="44.53511" lon="6.03557">
        <ele>862.004292</ele>
        <time>2021-04-25T07:41:57.000Z</time>
      </trkpt>
      <trkpt lat="44.53521" lon="6.03564">
        <ele>860.832324</ele>
        <time>2021-04-25T07:41:59.000Z</time>
      </trkpt>
      <trkpt lat="44.53521" lon="6.03564">
        <ele>860.832324</ele>
        <time>2021-04-25T07:42:00.000Z</time>
      </trkpt>
      <trkpt lat="44.53527" lon="6.03572">
        <ele>859.87296</ele>
        <time>2021-04-25T07:42:01.000Z</time>
      </trkpt>
      <trkpt lat="44.53534" lon="6.03581">
        <ele>858.919453</ele>
        <time>2021-04-25T07:42:03.000Z</time>
      </trkpt>
      <trkpt lat="44.53542" lon="6.0359">
        <ele>857.780595</ele>
        <time>2021-04-25T07:42:06.000Z</time>
      </trkpt>
      <trkpt lat="44.53551" lon="6.03599">
        <ele>856.510697</ele>
        <time>2021-04-25T07:42:10.000Z</time>
      </trkpt>
      <trkpt lat="44.53551" lon="6.03599">
        <ele>856.510697</ele>
        <time>2021-04-25T07:42:13.000Z</time>
      </trkpt>
      <trkpt lat="44.53564" lon="6.03604">
        <ele>855.089284</ele>
        <time>2021-04-25T07:42:14.000Z</time>
      </trkpt>
      <trkpt lat="44.53564" lon="6.03604">
        <ele>855.089284</ele>
        <time>2021-04-25T07:42:15.000Z</time>
      </trkpt>
      <trkpt lat="44.53573" lon="6.03614">
        <ele>853.811182</ele>
        <time>2021-04-25T07:42:17.000Z</time>
      </trkpt>
      <trkpt lat="44.53573" lon="6.03614">
        <ele>853.811182</ele>
        <time>2021-04-25T07:42:18.000Z</time>
      </trkpt>
      <trkpt lat="44.53583" lon="6.03624">
        <ele>852.397539</ele>
        <time>2021-04-25T07:42:20.000Z</time>
      </trkpt>
      <trkpt lat="44.53583" lon="6.03624">
        <ele>852.397539</ele>
        <time>2021-04-25T07:42:21.000Z</time>
      </trkpt>
      <trkpt lat="44.53589" lon="6.03635">
        <ele>851.296591</ele>
        <time>2021-04-25T07:42:23.000Z</time>
      </trkpt>
      <trkpt lat="44.53589" lon="6.03635">
        <ele>851.296591</ele>
        <time>2021-04-25T07:42:24.000Z</time>
      </trkpt>
      <trkpt lat="44.53595" lon="6.03648">
        <ele>849.596614</ele>
        <time>2021-04-25T07:42:26.000Z</time>
      </trkpt>
      <trkpt lat="44.53595" lon="6.03648">
        <ele>849.596614</ele>
        <time>2021-04-25T07:42:28.000Z</time>
      </trkpt>
      <trkpt lat="44.53602" lon="6.03659">
        <ele>847.872833</ele>
        <time>2021-04-25T07:42:29.000Z</time>
      </trkpt>
      <trkpt lat="44.53602" lon="6.03659">
        <ele>847.872833</ele>
        <time>2021-04-25T07:42:30.000Z</time>
      </trkpt>
      <trkpt lat="44.53611" lon="6.0367">
        <ele>845.872515</ele>
        <time>2021-04-25T07:42:33.000Z</time>
      </trkpt>
      <trkpt lat="44.53619" lon="6.03678">
        <ele>844.067451</ele>
        <time>2021-04-25T07:42:37.000Z</time>
      </trkpt>
      <trkpt lat="44.53619" lon="6.03678">
        <ele>844.067451</ele>
        <time>2021-04-25T07:42:39.000Z</time>
      </trkpt>
      <trkpt lat="44.53628" lon="6.03686">
        <ele>842.269375</ele>
        <time>2021-04-25T07:42:41.000Z</time>
      </trkpt>
      <trkpt lat="44.53628" lon="6.03686">
        <ele>842.269375</ele>
        <time>2021-04-25T07:42:42.000Z</time>
      </trkpt>
      <trkpt lat="44.53639" lon="6.03691">
        <ele>840.199105</ele>
        <time>2021-04-25T07:42:44.000Z</time>
      </trkpt>
      <trkpt lat="44.53639" lon="6.03691">
        <ele>840.199105</ele>
        <time>2021-04-25T07:42:48.000Z</time>
      </trkpt>
      <trkpt lat="44.53639" lon="6.03691">
        <ele>840.199105</ele>
        <time>2021-04-25T07:42:54.000Z</time>
      </trkpt>
      <trkpt lat="44.53639" lon="6.03691">
        <ele>840.199105</ele>
        <time>2021-04-25T07:42:59.000Z</time>
      </trkpt>
      <trkpt lat="44.53649" lon="6.037">
        <ele>838.16573</ele>
        <time>2021-04-25T07:43:00.000Z</time>
      </trkpt>
      <trkpt lat="44.53649" lon="6.037">
        <ele>838.16573</ele>
        <time>2021-04-25T07:43:03.000Z</time>
      </trkpt>
      <trkpt lat="44.53657" lon="6.0371">
        <ele>836.404373</ele>
        <time>2021-04-25T07:43:04.000Z</time>
      </trkpt>
      <trkpt lat="44.53657" lon="6.0371">
        <ele>836.404373</ele>
        <time>2021-04-25T07:43:05.000Z</time>
      </trkpt>
      <trkpt lat="44.53666" lon="6.03717">
        <ele>834.655064</ele>
        <time>2021-04-25T07:43:07.000Z</time>
      </trkpt>
      <trkpt lat="44.53666" lon="6.03717">
        <ele>834.655064</ele>
        <time>2021-04-25T07:43:08.000Z</time>
      </trkpt>
      <trkpt lat="44.53675" lon="6.03729">
        <ele>832.473561</ele>
        <time>2021-04-25T07:43:11.000Z</time>
      </trkpt>
      <trkpt lat="44.53675" lon="6.03729">
        <ele>832.473561</ele>
        <time>2021-04-25T07:43:12.000Z</time>
      </trkpt>
      <trkpt lat="44.53675" lon="6.03729">
        <ele>832.473561</ele>
        <time>2021-04-25T07:43:13.000Z</time>
      </trkpt>
      <trkpt lat="44.53682" lon="6.03742">
        <ele>830.410519</ele>
        <time>2021-04-25T07:43:15.000Z</time>
      </trkpt>
      <trkpt lat="44.53682" lon="6.03742">
        <ele>830.410519</ele>
        <time>2021-04-25T07:43:18.000Z</time>
      </trkpt>
      <trkpt lat="44.53687" lon="6.03754">
        <ele>828.68455</ele>
        <time>2021-04-25T07:43:19.000Z</time>
      </trkpt>
      <trkpt lat="44.53687" lon="6.03754">
        <ele>828.68455</ele>
        <time>2021-04-25T07:43:20.000Z</time>
      </trkpt>
      <trkpt lat="44.53687" lon="6.03754">
        <ele>828.68455</ele>
        <time>2021-04-25T07:43:22.000Z</time>
      </trkpt>
      <trkpt lat="44.53695" lon="6.03764">
        <ele>826.88131</ele>
        <time>2021-04-25T07:43:23.000Z</time>
      </trkpt>
      <trkpt lat="44.53701" lon="6.03777">
        <ele>825.079978</ele>
        <time>2021-04-25T07:43:28.000Z</time>
      </trkpt>
      <trkpt lat="44.53701" lon="6.03777">
        <ele>825.079978</ele>
        <time>2021-04-25T07:43:32.000Z</time>
      </trkpt>
      <trkpt lat="44.53706" lon="6.03788">
        <ele>823.467764</ele>
        <time>2021-04-25T07:43:34.000Z</time>
      </trkpt>
      <trkpt lat="44.53706" lon="6.03788">
        <ele>823.467764</ele>
        <time>2021-04-25T07:43:35.000Z</time>
      </trkpt>
      <trkpt lat="44.53706" lon="6.03788">
        <ele>823.467764</ele>
        <time>2021-04-25T07:43:39.000Z</time>
      </trkpt>
      <trkpt lat="44.53706" lon="6.03788">
        <ele>823.467764</ele>
        <time>2021-04-25T07:43:40.000Z</time>
      </trkpt>
      <trkpt lat="44.53715" lon="6.03796">
        <ele>821.625894</ele>
        <time>2021-04-25T07:43:41.000Z</time>
      </trkpt>
      <trkpt lat="44.53715" lon="6.03796">
        <ele>821.625894</ele>
        <time>2021-04-25T07:43:44.000Z</time>
      </trkpt>
      <trkpt lat="44.53715" lon="6.03796">
        <ele>821.625894</ele>
        <time>2021-04-25T07:43:48.000Z</time>
      </trkpt>
      <trkpt lat="44.53715" lon="6.03796">
        <ele>821.625894</ele>
        <time>2021-04-25T07:43:52.000Z</time>
      </trkpt>
      <trkpt lat="44.53715" lon="6.03796">
        <ele>821.625894</ele>
        <time>2021-04-25T07:43:54.000Z</time>
      </trkpt>
      <trkpt lat="44.53716" lon="6.03807">
        <ele>820.274224</ele>
        <time>2021-04-25T07:43:55.000Z</time>
      </trkpt>
      <trkpt lat="44.53716" lon="6.03807">
        <ele>820.274224</ele>
        <time>2021-04-25T07:43:57.000Z</time>
      </trkpt>
      <trkpt lat="44.53716" lon="6.03807">
        <ele>820.274224</ele>
        <time>2021-04-25T07:44:00.000Z</time>
      </trkpt>
      <trkpt lat="44.53716" lon="6.03807">
        <ele>820.274224</ele>
        <time>2021-04-25T07:44:04.000Z</time>
      </trkpt>
      <trkpt lat="44.53716" lon="6.03807">
        <ele>820.274224</ele>
        <time>2021-04-25T07:44:07.000Z</time>
      </trkpt>
      <trkpt lat="44.53714" lon="6.03818">
        <ele>818.790499</ele>
        <time>2021-04-25T07:44:08.000Z</time>
      </trkpt>
      <trkpt lat="44.53714" lon="6.03818">
        <ele>818.790499</ele>
        <time>2021-04-25T07:44:11.000Z</time>
      </trkpt>
      <trkpt lat="44.53714" lon="6.03818">
        <ele>818.790499</ele>
        <time>2021-04-25T07:44:15.000Z</time>
      </trkpt>
      <trkpt lat="44.53712" lon="6.03826">
        <ele>817.697071</ele>
        <time>2021-04-25T07:44:16.000Z</time>
      </trkpt>
      <trkpt lat="44.53712" lon="6.03826">
        <ele>817.697071</ele>
        <time>2021-04-25T07:44:17.000Z</time>
      </trkpt>
      <trkpt lat="44.53712" lon="6.03826">
        <ele>817.697071</ele>
        <time>2021-04-25T07:44:21.000Z</time>
      </trkpt>
      <trkpt lat="44.53712" lon="6.03826">
        <ele>817.697071</ele>
        <time>2021-04-25T07:44:24.000Z</time>
      </trkpt>
      <trkpt lat="44.53712" lon="6.03826">
        <ele>817.697071</ele>
        <time>2021-04-25T07:44:25.000Z</time>
      </trkpt>
      <trkpt lat="44.53712" lon="6.03826">
        <ele>817.697071</ele>
        <time>2021-04-25T07:44:36.000Z</time>
      </trkpt>
      <trkpt lat="44.53712" lon="6.03826">
        <ele>817.697071</ele>
        <time>2021-04-25T07:44:40.000Z</time>
      </trkpt>
      <trkpt lat="44.53712" lon="6.03826">
        <ele>817.697071</ele>
        <time>2021-04-25T07:44:48.000Z</time>
      </trkpt>
      <trkpt lat="44.53719" lon="6.0383">
        <ele>816.286507</ele>
        <time>2021-04-25T07:44:53.000Z</time>
      </trkpt>
      <trkpt lat="44.53719" lon="6.0383">
        <ele>816.286507</ele>
        <time>2021-04-25T07:45:03.000Z</time>
      </trkpt>
      <trkpt lat="44.53726" lon="6.03837">
        <ele>814.633028</ele>
        <time>2021-04-25T07:45:07.000Z</time>
      </trkpt>
      <trkpt lat="44.53726" lon="6.03837">
        <ele>814.633028</ele>
        <time>2021-04-25T07:45:11.000Z</time>
      </trkpt>
      <trkpt lat="44.53726" lon="6.03837">
        <ele>814.633028</ele>
        <time>2021-04-25T07:45:16.000Z</time>
      </trkpt>
      <trkpt lat="44.53726" lon="6.03837">
        <ele>814.633028</ele>
        <time>2021-04-25T07:45:19.000Z</time>
      </trkpt>
      <trkpt lat="44.53733" lon="6.03846">
        <ele>812.982709</ele>
        <time>2021-04-25T07:45:20.000Z</time>
      </trkpt>
      <trkpt lat="44.53733" lon="6.03846">
        <ele>812.982709</ele>
        <time>2021-04-25T07:45:21.000Z</time>
      </trkpt>
      <trkpt lat="44.53733" lon="6.03846">
        <ele>812.982709</ele>
        <time>2021-04-25T07:45:27.000Z</time>
      </trkpt>
      <trkpt lat="44.53733" lon="6.03846">
        <ele>812.982709</ele>
        <time>2021-04-25T07:45:29.000Z</time>
      </trkpt>
      <trkpt lat="44.53733" lon="6.03846">
        <ele>812.982709</ele>
        <time>2021-04-25T07:45:32.000Z</time>
      </trkpt>
      <trkpt lat="44.53742" lon="6.03853">
        <ele>811.064709</ele>
        <time>2021-04-25T07:45:34.000Z</time>
      </trkpt>
      <trkpt lat="44.53742" lon="6.03853">
        <ele>811.064709</ele>
        <time>2021-04-25T07:45:38.000Z</time>
      </trkpt>
      <trkpt lat="44.5375" lon="6.03859">
        <ele>809.43495</ele>
        <time>2021-04-25T07:45:49.000Z</time>
      </trkpt>
      <trkpt lat="44.5375" lon="6.03859">
        <ele>809.43495</ele>
        <time>2021-04-25T07:45:51.000Z</time>
      </trkpt>
      <trkpt lat="44.5375" lon="6.03859">
        <ele>809.43495</ele>
        <time>2021-04-25T07:45:54.000Z</time>
      </trkpt>
      <trkpt lat="44.5375" lon="6.03859">
        <ele>809.43495</ele>
        <time>2021-04-25T07:45:57.000Z</time>
      </trkpt>
      <trkpt lat="44.53757" lon="6.03867">
        <ele>807.895334</ele>
        <time>2021-04-25T07:46:03.000Z</time>
      </trkpt>
      <trkpt lat="44.53757" lon="6.03867">
        <ele>807.895334</ele>
        <time>2021-04-25T07:46:04.000Z</time>
      </trkpt>
      <trkpt lat="44.53757" lon="6.03867">
        <ele>807.895334</ele>
        <time>2021-04-25T07:46:05.000Z</time>
      </trkpt>
      <trkpt lat="44.53757" lon="6.03867">
        <ele>807.895334</ele>
        <time>2021-04-25T07:46:13.000Z</time>
      </trkpt>
      <trkpt lat="44.53757" lon="6.03867">
        <ele>807.895334</ele>
        <time>2021-04-25T07:46:15.000Z</time>
      </trkpt>
      <trkpt lat="44.53757" lon="6.03867">
        <ele>807.895334</ele>
        <time>2021-04-25T07:46:18.000Z</time>
      </trkpt>
      <trkpt lat="44.5376" lon="6.03878">
        <ele>806.321202</ele>
        <time>2021-04-25T07:46:19.000Z</time>
      </trkpt>
      <trkpt lat="44.5376" lon="6.03878">
        <ele>806.321202</ele>
        <time>2021-04-25T07:46:21.000Z</time>
      </trkpt>
      <trkpt lat="44.5376" lon="6.03878">
        <ele>806.321202</ele>
        <time>2021-04-25T07:46:24.000Z</time>
      </trkpt>
      <trkpt lat="44.53766" lon="6.0388">
        <ele>805.134988</ele>
        <time>2021-04-25T07:46:27.000Z</time>
      </trkpt>
      <trkpt lat="44.53773" lon="6.03878">
        <ele>803.839287</ele>
        <time>2021-04-25T07:46:29.000Z</time>
      </trkpt>
      <trkpt lat="44.53781" lon="6.03878">
        <ele>802.384003</ele>
        <time>2021-04-25T07:46:31.000Z</time>
      </trkpt>
      <trkpt lat="44.53789" lon="6.03882">
        <ele>800.909025</ele>
        <time>2021-04-25T07:46:33.000Z</time>
      </trkpt>
      <trkpt lat="44.53789" lon="6.03882">
        <ele>800.909025</ele>
        <time>2021-04-25T07:46:34.000Z</time>
      </trkpt>
      <trkpt lat="44.53795" lon="6.03888">
        <ele>799.495492</ele>
        <time>2021-04-25T07:46:35.000Z</time>
      </trkpt>
      <trkpt lat="44.53795" lon="6.03888">
        <ele>799.495492</ele>
        <time>2021-04-25T07:46:37.000Z</time>
      </trkpt>
      <trkpt lat="44.53795" lon="6.03888">
        <ele>799.495492</ele>
        <time>2021-04-25T07:46:38.000Z</time>
      </trkpt>
      <trkpt lat="44.53799" lon="6.03902">
        <ele>797.604114</ele>
        <time>2021-04-25T07:46:39.000Z</time>
      </trkpt>
      <trkpt lat="44.53799" lon="6.03902">
        <ele>797.604114</ele>
        <time>2021-04-25T07:46:40.000Z</time>
      </trkpt>
      <trkpt lat="44.53799" lon="6.03902">
        <ele>797.604114</ele>
        <time>2021-04-25T07:46:43.000Z</time>
      </trkpt>
      <trkpt lat="44.53799" lon="6.03902">
        <ele>797.604114</ele>
        <time>2021-04-25T07:46:45.000Z</time>
      </trkpt>
      <trkpt lat="44.53799" lon="6.03902">
        <ele>797.604114</ele>
        <time>2021-04-25T07:46:51.000Z</time>
      </trkpt>
      <trkpt lat="44.53796" lon="6.03908">
        <ele>796.664285</ele>
        <time>2021-04-25T07:47:00.000Z</time>
      </trkpt>
      <trkpt lat="44.53796" lon="6.03908">
        <ele>796.664285</ele>
        <time>2021-04-25T07:47:02.000Z</time>
      </trkpt>
      <trkpt lat="44.53792" lon="6.03916">
        <ele>795.471449</ele>
        <time>2021-04-25T07:47:03.000Z</time>
      </trkpt>
      <trkpt lat="44.53792" lon="6.03916">
        <ele>795.471449</ele>
        <time>2021-04-25T07:47:04.000Z</time>
      </trkpt>
      <trkpt lat="44.53788" lon="6.03926">
        <ele>793.972271</ele>
        <time>2021-04-25T07:47:05.000Z</time>
      </trkpt>
      <trkpt lat="44.53788" lon="6.03926">
        <ele>793.972271</ele>
        <time>2021-04-25T07:47:06.000Z</time>
      </trkpt>
      <trkpt lat="44.5378" lon="6.03937">
        <ele>792.047275</ele>
        <time>2021-04-25T07:47:07.000Z</time>
      </trkpt>
      <trkpt lat="44.5378" lon="6.03937">
        <ele>792.047275</ele>
        <time>2021-04-25T07:47:08.000Z</time>
      </trkpt>
      <trkpt lat="44.53774" lon="6.0395">
        <ele>789.948188</ele>
        <time>2021-04-25T07:47:09.000Z</time>
      </trkpt>
      <trkpt lat="44.53769" lon="6.03964">
        <ele>787.845598</ele>
        <time>2021-04-25T07:47:11.000Z</time>
      </trkpt>
      <trkpt lat="44.53768" lon="6.03978">
        <ele>787.76694</ele>
        <time>2021-04-25T07:47:13.000Z</time>
      </trkpt>
      <trkpt lat="44.53764" lon="6.03991">
        <ele>788.458358</ele>
        <time>2021-04-25T07:47:16.000Z</time>
      </trkpt>
      <trkpt lat="44.53764" lon="6.03991">
        <ele>788.458358</ele>
        <time>2021-04-25T07:47:18.000Z</time>
      </trkpt>
      <trkpt lat="44.53764" lon="6.03991">
        <ele>788.458358</ele>
        <time>2021-04-25T07:47:19.000Z</time>
      </trkpt>
      <trkpt lat="44.53759" lon="6.04006">
        <ele>789.242823</ele>
        <time>2021-04-25T07:47:20.000Z</time>
      </trkpt>
      <trkpt lat="44.53757" lon="6.0402">
        <ele>789.933628</ele>
        <time>2021-04-25T07:47:24.000Z</time>
      </trkpt>
      <trkpt lat="44.53757" lon="6.0402">
        <ele>789.933628</ele>
        <time>2021-04-25T07:47:25.000Z</time>
      </trkpt>
      <trkpt lat="44.53757" lon="6.04032">
        <ele>790.54978</ele>
        <time>2021-04-25T07:47:28.000Z</time>
      </trkpt>
      <trkpt lat="44.53758" lon="6.04039">
        <ele>790.8739</ele>
        <time>2021-04-25T07:47:30.000Z</time>
      </trkpt>
      <trkpt lat="44.53759" lon="6.04045">
        <ele>791.177807</ele>
        <time>2021-04-25T07:47:32.000Z</time>
      </trkpt>
      <trkpt lat="44.53762" lon="6.04052">
        <ele>791.60685</ele>
        <time>2021-04-25T07:47:35.000Z</time>
      </trkpt>
      <trkpt lat="44.53766" lon="6.04059">
        <ele>792.027154</ele>
        <time>2021-04-25T07:47:38.000Z</time>
      </trkpt>
      <trkpt lat="44.53771" lon="6.04064">
        <ele>792.411922</ele>
        <time>2021-04-25T07:47:41.000Z</time>
      </trkpt>
      <trkpt lat="44.53771" lon="6.04064">
        <ele>792.411922</ele>
        <time>2021-04-25T07:47:42.000Z</time>
      </trkpt>
      <trkpt lat="44.53776" lon="6.04068">
        <ele>792.80727</ele>
        <time>2021-04-25T07:47:44.000Z</time>
      </trkpt>
      <trkpt lat="44.53776" lon="6.04068">
        <ele>792.80727</ele>
        <time>2021-04-25T07:47:45.000Z</time>
      </trkpt>
      <trkpt lat="44.53783" lon="6.04073">
        <ele>793.313271</ele>
        <time>2021-04-25T07:47:48.000Z</time>
      </trkpt>
      <trkpt lat="44.53783" lon="6.04073">
        <ele>793.313271</ele>
        <time>2021-04-25T07:47:51.000Z</time>
      </trkpt>
      <trkpt lat="44.5379" lon="6.04076">
        <ele>793.812898</ele>
        <time>2021-04-25T07:47:52.000Z</time>
      </trkpt>
      <trkpt lat="44.5379" lon="6.04076">
        <ele>793.812898</ele>
        <time>2021-04-25T07:47:53.000Z</time>
      </trkpt>
      <trkpt lat="44.5379" lon="6.04076">
        <ele>793.812898</ele>
        <time>2021-04-25T07:47:55.000Z</time>
      </trkpt>
      <trkpt lat="44.53796" lon="6.0408">
        <ele>794.334974</ele>
        <time>2021-04-25T07:47:56.000Z</time>
      </trkpt>
      <trkpt lat="44.53802" lon="6.04085">
        <ele>794.794401</ele>
        <time>2021-04-25T07:48:00.000Z</time>
      </trkpt>
      <trkpt lat="44.53807" lon="6.04091">
        <ele>795.238494</ele>
        <time>2021-04-25T07:48:04.000Z</time>
      </trkpt>
      <trkpt lat="44.53807" lon="6.04091">
        <ele>795.238494</ele>
        <time>2021-04-25T07:48:07.000Z</time>
      </trkpt>
      <trkpt lat="44.53812" lon="6.04099">
        <ele>795.739282</ele>
        <time>2021-04-25T07:48:08.000Z</time>
      </trkpt>
      <trkpt lat="44.53812" lon="6.04099">
        <ele>795.739282</ele>
        <time>2021-04-25T07:48:09.000Z</time>
      </trkpt>
      <trkpt lat="44.53818" lon="6.04106">
        <ele>796.256295</ele>
        <time>2021-04-25T07:48:12.000Z</time>
      </trkpt>
      <trkpt lat="44.53818" lon="6.04106">
        <ele>796.256295</ele>
        <time>2021-04-25T07:48:15.000Z</time>
      </trkpt>
      <trkpt lat="44.53821" lon="6.04116">
        <ele>796.776369</ele>
        <time>2021-04-25T07:48:16.000Z</time>
      </trkpt>
      <trkpt lat="44.53821" lon="6.04116">
        <ele>796.776369</ele>
        <time>2021-04-25T07:48:17.000Z</time>
      </trkpt>
      <trkpt lat="44.53826" lon="6.04124">
        <ele>797.298691</ele>
        <time>2021-04-25T07:48:20.000Z</time>
      </trkpt>
      <trkpt lat="44.53832" lon="6.04131">
        <ele>797.798656</ele>
        <time>2021-04-25T07:48:24.000Z</time>
      </trkpt>
      <trkpt lat="44.53837" lon="6.04136">
        <ele>798.239465</ele>
        <time>2021-04-25T07:48:28.000Z</time>
      </trkpt>
      <trkpt lat="44.53842" lon="6.04141">
        <ele>798.6882</ele>
        <time>2021-04-25T07:48:32.000Z</time>
      </trkpt>
      <trkpt lat="44.53847" lon="6.04146">
        <ele>799.106621</ele>
        <time>2021-04-25T07:48:36.000Z</time>
      </trkpt>
      <trkpt lat="44.53853" lon="6.04151">
        <ele>799.540555</ele>
        <time>2021-04-25T07:48:40.000Z</time>
      </trkpt>
      <trkpt lat="44.53858" lon="6.04157">
        <ele>799.909132</ele>
        <time>2021-04-25T07:48:44.000Z</time>
      </trkpt>
      <trkpt lat="44.53863" lon="6.04162">
        <ele>800.300325</ele>
        <time>2021-04-25T07:48:48.000Z</time>
      </trkpt>
      <trkpt lat="44.53863" lon="6.04162">
        <ele>800.300325</ele>
        <time>2021-04-25T07:48:50.000Z</time>
      </trkpt>
      <trkpt lat="44.53867" lon="6.04169">
        <ele>800.636865</ele>
        <time>2021-04-25T07:48:52.000Z</time>
      </trkpt>
      <trkpt lat="44.53867" lon="6.04169">
        <ele>800.636865</ele>
        <time>2021-04-25T07:48:54.000Z</time>
      </trkpt>
      <trkpt lat="44.53871" lon="6.04174">
        <ele>800.989229</ele>
        <time>2021-04-25T07:48:56.000Z</time>
      </trkpt>
      <trkpt lat="44.53874" lon="6.04181">
        <ele>801.273352</ele>
        <time>2021-04-25T07:48:59.000Z</time>
      </trkpt>
      <trkpt lat="44.53877" lon="6.04187">
        <ele>801.579569</ele>
        <time>2021-04-25T07:49:02.000Z</time>
      </trkpt>
      <trkpt lat="44.53877" lon="6.04187">
        <ele>801.579569</ele>
        <time>2021-04-25T07:49:05.000Z</time>
      </trkpt>
      <trkpt lat="44.5388" lon="6.04195">
        <ele>801.955882</ele>
        <time>2021-04-25T07:49:06.000Z</time>
      </trkpt>
      <trkpt lat="44.53885" lon="6.04202">
        <ele>802.357119</ele>
        <time>2021-04-25T07:49:10.000Z</time>
      </trkpt>
      <trkpt lat="44.53891" lon="6.04208">
        <ele>802.76272</ele>
        <time>2021-04-25T07:49:14.000Z</time>
      </trkpt>
      <trkpt lat="44.53897" lon="6.04212">
        <ele>803.144555</ele>
        <time>2021-04-25T07:49:18.000Z</time>
      </trkpt>
      <trkpt lat="44.53903" lon="6.04213">
        <ele>803.487589</ele>
        <time>2021-04-25T07:49:22.000Z</time>
      </trkpt>
      <trkpt lat="44.53908" lon="6.04215">
        <ele>803.78947</ele>
        <time>2021-04-25T07:49:26.000Z</time>
      </trkpt>
      <trkpt lat="44.53915" lon="6.04216">
        <ele>804.184743</ele>
        <time>2021-04-25T07:49:30.000Z</time>
      </trkpt>
      <trkpt lat="44.53915" lon="6.04216">
        <ele>804.184743</ele>
        <time>2021-04-25T07:49:31.000Z</time>
      </trkpt>
      <trkpt lat="44.53915" lon="6.04216">
        <ele>804.184743</ele>
        <time>2021-04-25T07:49:32.000Z</time>
      </trkpt>
      <trkpt lat="44.53921" lon="6.04215">
        <ele>804.533746</ele>
        <time>2021-04-25T07:49:33.000Z</time>
      </trkpt>
      <trkpt lat="44.53927" lon="6.04215">
        <ele>804.888446</ele>
        <time>2021-04-25T07:49:36.000Z</time>
      </trkpt>
      <trkpt lat="44.53936" lon="6.04217">
        <ele>805.404102</ele>
        <time>2021-04-25T07:49:40.000Z</time>
      </trkpt>
      <trkpt lat="44.53936" lon="6.04217">
        <ele>805.404102</ele>
        <time>2021-04-25T07:49:41.000Z</time>
      </trkpt>
      <trkpt lat="44.53942" lon="6.04222">
        <ele>805.820413</ele>
        <time>2021-04-25T07:49:43.000Z</time>
      </trkpt>
      <trkpt lat="44.53948" lon="6.04228">
        <ele>806.205589</ele>
        <time>2021-04-25T07:49:46.000Z</time>
      </trkpt>
      <trkpt lat="44.53953" lon="6.04234">
        <ele>806.600373</ele>
        <time>2021-04-25T07:49:49.000Z</time>
      </trkpt>
      <trkpt lat="44.53956" lon="6.04238">
        <ele>806.858632</ele>
        <time>2021-04-25T07:49:51.000Z</time>
      </trkpt>
      <trkpt lat="44.5396" lon="6.04242">
        <ele>807.119081</ele>
        <time>2021-04-25T07:49:53.000Z</time>
      </trkpt>
      <trkpt lat="44.53963" lon="6.04247">
        <ele>807.390076</ele>
        <time>2021-04-25T07:49:55.000Z</time>
      </trkpt>
      <trkpt lat="44.53963" lon="6.04247">
        <ele>807.390076</ele>
        <time>2021-04-25T07:49:56.000Z</time>
      </trkpt>
      <trkpt lat="44.53966" lon="6.04252">
        <ele>807.65611</ele>
        <time>2021-04-25T07:49:57.000Z</time>
      </trkpt>
      <trkpt lat="44.53969" lon="6.04257">
        <ele>807.928052</ele>
        <time>2021-04-25T07:49:59.000Z</time>
      </trkpt>
      <trkpt lat="44.53972" lon="6.04262">
        <ele>808.208188</ele>
        <time>2021-04-25T07:50:01.000Z</time>
      </trkpt>
      <trkpt lat="44.53975" lon="6.04268">
        <ele>808.480645</ele>
        <time>2021-04-25T07:50:03.000Z</time>
      </trkpt>
      <trkpt lat="44.53979" lon="6.04273">
        <ele>808.765397</ele>
        <time>2021-04-25T07:50:05.000Z</time>
      </trkpt>
      <trkpt lat="44.53983" lon="6.04278">
        <ele>809.064904</ele>
        <time>2021-04-25T07:50:07.000Z</time>
      </trkpt>
      <trkpt lat="44.53985" lon="6.04283">
        <ele>809.347186</ele>
        <time>2021-04-25T07:50:09.000Z</time>
      </trkpt>
      <trkpt lat="44.53985" lon="6.04283">
        <ele>809.347186</ele>
        <time>2021-04-25T07:50:10.000Z</time>
      </trkpt>
      <trkpt lat="44.53988" lon="6.04289">
        <ele>809.606344</ele>
        <time>2021-04-25T07:50:11.000Z</time>
      </trkpt>
      <trkpt lat="44.53991" lon="6.04293">
        <ele>809.827069</ele>
        <time>2021-04-25T07:50:13.000Z</time>
      </trkpt>
      <trkpt lat="44.53994" lon="6.04298">
        <ele>809.831454</ele>
        <time>2021-04-25T07:50:15.000Z</time>
      </trkpt>
      <trkpt lat="44.53997" lon="6.04303">
        <ele>809.835769</ele>
        <time>2021-04-25T07:50:17.000Z</time>
      </trkpt>
      <trkpt lat="44.54" lon="6.04308">
        <ele>809.840478</ele>
        <time>2021-04-25T07:50:19.000Z</time>
      </trkpt>
      <trkpt lat="44.54002" lon="6.04314">
        <ele>809.84496</ele>
        <time>2021-04-25T07:50:21.000Z</time>
      </trkpt>
      <trkpt lat="44.54005" lon="6.04318">
        <ele>809.849345</ele>
        <time>2021-04-25T07:50:23.000Z</time>
      </trkpt>
      <trkpt lat="44.5401" lon="6.04327">
        <ele>809.85645</ele>
        <time>2021-04-25T07:50:26.000Z</time>
      </trkpt>
      <trkpt lat="44.54013" lon="6.04332">
        <ele>809.861213</ele>
        <time>2021-04-25T07:50:28.000Z</time>
      </trkpt>
      <trkpt lat="44.54016" lon="6.04337">
        <ele>809.86593</ele>
        <time>2021-04-25T07:50:30.000Z</time>
      </trkpt>
      <trkpt lat="44.54021" lon="6.04343">
        <ele>809.871467</ele>
        <time>2021-04-25T07:50:32.000Z</time>
      </trkpt>
      <trkpt lat="44.54025" lon="6.04348">
        <ele>809.87713</ele>
        <time>2021-04-25T07:50:34.000Z</time>
      </trkpt>
      <trkpt lat="44.5403" lon="6.04352">
        <ele>809.882733</ele>
        <time>2021-04-25T07:50:36.000Z</time>
      </trkpt>
      <trkpt lat="44.54035" lon="6.04356">
        <ele>809.888641</ele>
        <time>2021-04-25T07:50:38.000Z</time>
      </trkpt>
      <trkpt lat="44.54041" lon="6.04361">
        <ele>809.895114</ele>
        <time>2021-04-25T07:50:40.000Z</time>
      </trkpt>
      <trkpt lat="44.54047" lon="6.04367">
        <ele>809.9019</ele>
        <time>2021-04-25T07:50:42.000Z</time>
      </trkpt>
      <trkpt lat="44.54053" lon="6.04373">
        <ele>809.908804</ele>
        <time>2021-04-25T07:50:44.000Z</time>
      </trkpt>
      <trkpt lat="44.54058" lon="6.04378">
        <ele>809.915196</ele>
        <time>2021-04-25T07:50:46.000Z</time>
      </trkpt>
      <trkpt lat="44.54064" lon="6.04383">
        <ele>809.921557</ele>
        <time>2021-04-25T07:50:48.000Z</time>
      </trkpt>
      <trkpt lat="44.5407" lon="6.04388">
        <ele>809.928265</ele>
        <time>2021-04-25T07:50:50.000Z</time>
      </trkpt>
      <trkpt lat="44.54076" lon="6.04392">
        <ele>809.935142</ele>
        <time>2021-04-25T07:50:52.000Z</time>
      </trkpt>
      <trkpt lat="44.54082" lon="6.04398">
        <ele>809.942104</ele>
        <time>2021-04-25T07:50:54.000Z</time>
      </trkpt>
      <trkpt lat="44.54088" lon="6.04404">
        <ele>809.949404</ele>
        <time>2021-04-25T07:50:56.000Z</time>
      </trkpt>
      <trkpt lat="44.54088" lon="6.04404">
        <ele>809.949404</ele>
        <time>2021-04-25T07:50:57.000Z</time>
      </trkpt>
      <trkpt lat="44.54094" lon="6.0441">
        <ele>809.956468</ele>
        <time>2021-04-25T07:50:58.000Z</time>
      </trkpt>
      <trkpt lat="44.541" lon="6.04416">
        <ele>809.963336</ele>
        <time>2021-04-25T07:51:00.000Z</time>
      </trkpt>
      <trkpt lat="44.54106" lon="6.04422">
        <ele>809.970714</ele>
        <time>2021-04-25T07:51:02.000Z</time>
      </trkpt>
      <trkpt lat="44.54113" lon="6.04429">
        <ele>809.978328</ele>
        <time>2021-04-25T07:51:04.000Z</time>
      </trkpt>
      <trkpt lat="44.5412" lon="6.04435">
        <ele>809.986234</ele>
        <time>2021-04-25T07:51:06.000Z</time>
      </trkpt>
      <trkpt lat="44.54126" lon="6.04441">
        <ele>809.993971</ele>
        <time>2021-04-25T07:51:08.000Z</time>
      </trkpt>
      <trkpt lat="44.54132" lon="6.04448">
        <ele>809.921301</ele>
        <time>2021-04-25T07:51:10.000Z</time>
      </trkpt>
      <trkpt lat="44.54138" lon="6.04455">
        <ele>809.583425</ele>
        <time>2021-04-25T07:51:12.000Z</time>
      </trkpt>
      <trkpt lat="44.54143" lon="6.04463">
        <ele>809.242275</ele>
        <time>2021-04-25T07:51:14.000Z</time>
      </trkpt>
      <trkpt lat="44.54147" lon="6.04474">
        <ele>808.863979</ele>
        <time>2021-04-25T07:51:16.000Z</time>
      </trkpt>
      <trkpt lat="44.5415" lon="6.04487">
        <ele>808.433779</ele>
        <time>2021-04-25T07:51:18.000Z</time>
      </trkpt>
      <trkpt lat="44.54155" lon="6.045">
        <ele>807.974699</ele>
        <time>2021-04-25T07:51:20.000Z</time>
      </trkpt>
      <trkpt lat="44.54159" lon="6.04516">
        <ele>807.459211</ele>
        <time>2021-04-25T07:51:22.000Z</time>
      </trkpt>
      <trkpt lat="44.54161" lon="6.04524">
        <ele>807.203477</ele>
        <time>2021-04-25T07:51:23.000Z</time>
      </trkpt>
      <trkpt lat="44.54162" lon="6.04532">
        <ele>806.955662</ele>
        <time>2021-04-25T07:51:24.000Z</time>
      </trkpt>
      <trkpt lat="44.54163" lon="6.04539">
        <ele>806.72824</ele>
        <time>2021-04-25T07:51:25.000Z</time>
      </trkpt>
      <trkpt lat="44.54164" lon="6.04546">
        <ele>806.508813</ele>
        <time>2021-04-25T07:51:26.000Z</time>
      </trkpt>
      <trkpt lat="44.54166" lon="6.04552">
        <ele>806.300163</ele>
        <time>2021-04-25T07:51:27.000Z</time>
      </trkpt>
      <trkpt lat="44.54168" lon="6.04558">
        <ele>806.093122</ele>
        <time>2021-04-25T07:51:28.000Z</time>
      </trkpt>
      <trkpt lat="44.5417" lon="6.04564">
        <ele>805.885642</ele>
        <time>2021-04-25T07:51:29.000Z</time>
      </trkpt>
      <trkpt lat="44.54171" lon="6.04571">
        <ele>805.668368</ele>
        <time>2021-04-25T07:51:30.000Z</time>
      </trkpt>
      <trkpt lat="44.54173" lon="6.04578">
        <ele>805.443536</ele>
        <time>2021-04-25T07:51:31.000Z</time>
      </trkpt>
      <trkpt lat="44.54174" lon="6.04584">
        <ele>805.221683</ele>
        <time>2021-04-25T07:51:32.000Z</time>
      </trkpt>
      <trkpt lat="44.54176" lon="6.04592">
        <ele>804.989081</ele>
        <time>2021-04-25T07:51:33.000Z</time>
      </trkpt>
      <trkpt lat="44.54177" lon="6.04598">
        <ele>804.764249</ele>
        <time>2021-04-25T07:51:34.000Z</time>
      </trkpt>
      <trkpt lat="44.5418" lon="6.04605">
        <ele>804.547088</ele>
        <time>2021-04-25T07:51:35.000Z</time>
      </trkpt>
      <trkpt lat="44.5418" lon="6.04605">
        <ele>804.547088</ele>
        <time>2021-04-25T07:51:36.000Z</time>
      </trkpt>
      <trkpt lat="44.54188" lon="6.04611">
        <ele>804.124284</ele>
        <time>2021-04-25T07:51:37.000Z</time>
      </trkpt>
      <trkpt lat="44.54188" lon="6.04611">
        <ele>804.124284</ele>
        <time>2021-04-25T07:51:38.000Z</time>
      </trkpt>
      <trkpt lat="44.54199" lon="6.04608">
        <ele>803.658042</ele>
        <time>2021-04-25T07:51:39.000Z</time>
      </trkpt>
      <trkpt lat="44.54209" lon="6.04605">
        <ele>803.203852</ele>
        <time>2021-04-25T07:51:41.000Z</time>
      </trkpt>
      <trkpt lat="44.54219" lon="6.04603">
        <ele>802.773099</ele>
        <time>2021-04-25T07:51:43.000Z</time>
      </trkpt>
      <trkpt lat="44.54228" lon="6.04603">
        <ele>802.344562</ele>
        <time>2021-04-25T07:51:45.000Z</time>
      </trkpt>
      <trkpt lat="44.54238" lon="6.04605">
        <ele>801.874922</ele>
        <time>2021-04-25T07:51:47.000Z</time>
      </trkpt>
      <trkpt lat="44.54245" lon="6.04608">
        <ele>801.387778</ele>
        <time>2021-04-25T07:51:49.000Z</time>
      </trkpt>
      <trkpt lat="44.54252" lon="6.04616">
        <ele>800.88594</ele>
        <time>2021-04-25T07:51:51.000Z</time>
      </trkpt>
      <trkpt lat="44.54252" lon="6.04616">
        <ele>800.88594</ele>
        <time>2021-04-25T07:51:52.000Z</time>
      </trkpt>
      <trkpt lat="44.54256" lon="6.04627">
        <ele>800.341224</ele>
        <time>2021-04-25T07:51:53.000Z</time>
      </trkpt>
      <trkpt lat="44.54257" lon="6.04642">
        <ele>799.707583</ele>
        <time>2021-04-25T07:51:55.000Z</time>
      </trkpt>
      <trkpt lat="44.54256" lon="6.04651">
        <ele>799.339938</ele>
        <time>2021-04-25T07:51:56.000Z</time>
      </trkpt>
      <trkpt lat="44.54256" lon="6.0466">
        <ele>798.954845</ele>
        <time>2021-04-25T07:51:57.000Z</time>
      </trkpt>
      <trkpt lat="44.54255" lon="6.04669">
        <ele>798.556498</ele>
        <time>2021-04-25T07:51:58.000Z</time>
      </trkpt>
      <trkpt lat="44.54255" lon="6.04679">
        <ele>798.124151</ele>
        <time>2021-04-25T07:51:59.000Z</time>
      </trkpt>
      <trkpt lat="44.54254" lon="6.0469">
        <ele>797.640291</ele>
        <time>2021-04-25T07:52:00.000Z</time>
      </trkpt>
      <trkpt lat="44.54253" lon="6.04702">
        <ele>797.122873</ele>
        <time>2021-04-25T07:52:01.000Z</time>
      </trkpt>
      <trkpt lat="44.54253" lon="6.04715">
        <ele>796.571406</ele>
        <time>2021-04-25T07:52:02.000Z</time>
      </trkpt>
      <trkpt lat="44.54252" lon="6.04729">
        <ele>795.988169</ele>
        <time>2021-04-25T07:52:03.000Z</time>
      </trkpt>
      <trkpt lat="44.54251" lon="6.04742">
        <ele>795.419263</ele>
        <time>2021-04-25T07:52:04.000Z</time>
      </trkpt>
      <trkpt lat="44.54251" lon="6.04755">
        <ele>794.876969</ele>
        <time>2021-04-25T07:52:05.000Z</time>
      </trkpt>
      <trkpt lat="44.5425" lon="6.04767">
        <ele>794.380827</ele>
        <time>2021-04-25T07:52:06.000Z</time>
      </trkpt>
      <trkpt lat="44.54249" lon="6.04777">
        <ele>793.943696</ele>
        <time>2021-04-25T07:52:07.000Z</time>
      </trkpt>
      <trkpt lat="44.54249" lon="6.04786">
        <ele>793.558091</ele>
        <time>2021-04-25T07:52:08.000Z</time>
      </trkpt>
      <trkpt lat="44.54249" lon="6.04794">
        <ele>793.195443</ele>
        <time>2021-04-25T07:52:09.000Z</time>
      </trkpt>
      <trkpt lat="44.54249" lon="6.04802">
        <ele>792.848046</ele>
        <time>2021-04-25T07:52:10.000Z</time>
      </trkpt>
      <trkpt lat="44.5425" lon="6.0481">
        <ele>792.506765</ele>
        <time>2021-04-25T07:52:11.000Z</time>
      </trkpt>
      <trkpt lat="44.54251" lon="6.04819">
        <ele>792.149475</ele>
        <time>2021-04-25T07:52:12.000Z</time>
      </trkpt>
      <trkpt lat="44.54251" lon="6.04836">
        <ele>791.415355</ele>
        <time>2021-04-25T07:52:13.000Z</time>
      </trkpt>
      <trkpt lat="44.54251" lon="6.04845">
        <ele>791.51108</ele>
        <time>2021-04-25T07:52:15.000Z</time>
      </trkpt>
      <trkpt lat="44.54251" lon="6.04853">
        <ele>791.668957</ele>
        <time>2021-04-25T07:52:16.000Z</time>
      </trkpt>
      <trkpt lat="44.54251" lon="6.04853">
        <ele>791.668957</ele>
        <time>2021-04-25T07:52:17.000Z</time>
      </trkpt>
      <trkpt lat="44.54251" lon="6.04869">
        <ele>791.966399</ele>
        <time>2021-04-25T07:52:18.000Z</time>
      </trkpt>
      <trkpt lat="44.54251" lon="6.04884">
        <ele>792.232588</ele>
        <time>2021-04-25T07:52:20.000Z</time>
      </trkpt>
      <trkpt lat="44.54253" lon="6.04894">
        <ele>792.431522</ele>
        <time>2021-04-25T07:52:22.000Z</time>
      </trkpt>
      <trkpt lat="44.54253" lon="6.04894">
        <ele>792.431522</ele>
        <time>2021-04-25T07:52:23.000Z</time>
      </trkpt>
      <trkpt lat="44.54259" lon="6.049">
        <ele>792.606542</ele>
        <time>2021-04-25T07:52:24.000Z</time>
      </trkpt>
      <trkpt lat="44.54263" lon="6.04907">
        <ele>792.777882</ele>
        <time>2021-04-25T07:52:26.000Z</time>
      </trkpt>
      <trkpt lat="44.54263" lon="6.04907">
        <ele>792.777882</ele>
        <time>2021-04-25T07:52:27.000Z</time>
      </trkpt>
      <trkpt lat="44.54268" lon="6.04914">
        <ele>792.950603</ele>
        <time>2021-04-25T07:52:28.000Z</time>
      </trkpt>
      <trkpt lat="44.54272" lon="6.0492">
        <ele>793.117462</ele>
        <time>2021-04-25T07:52:30.000Z</time>
      </trkpt>
      <trkpt lat="44.54277" lon="6.04926">
        <ele>793.279434</ele>
        <time>2021-04-25T07:52:32.000Z</time>
      </trkpt>
      <trkpt lat="44.54283" lon="6.0493">
        <ele>793.448398</ele>
        <time>2021-04-25T07:52:34.000Z</time>
      </trkpt>
      <trkpt lat="44.54283" lon="6.0493">
        <ele>793.448398</ele>
        <time>2021-04-25T07:52:35.000Z</time>
      </trkpt>
      <trkpt lat="44.54291" lon="6.04935">
        <ele>793.691079</ele>
        <time>2021-04-25T07:52:37.000Z</time>
      </trkpt>
      <trkpt lat="44.54297" lon="6.04939">
        <ele>793.838845</ele>
        <time>2021-04-25T07:52:39.000Z</time>
      </trkpt>
      <trkpt lat="44.54304" lon="6.04944">
        <ele>794.05277</ele>
        <time>2021-04-25T07:52:42.000Z</time>
      </trkpt>
      <trkpt lat="44.54304" lon="6.04944">
        <ele>794.05277</ele>
        <time>2021-04-25T07:52:44.000Z</time>
      </trkpt>
      <trkpt lat="44.54313" lon="6.04948">
        <ele>794.291602</ele>
        <time>2021-04-25T07:52:45.000Z</time>
      </trkpt>
      <trkpt lat="44.54313" lon="6.04948">
        <ele>794.291602</ele>
        <time>2021-04-25T07:52:47.000Z</time>
      </trkpt>
      <trkpt lat="44.54321" lon="6.04951">
        <ele>794.503909</ele>
        <time>2021-04-25T07:52:48.000Z</time>
      </trkpt>
      <trkpt lat="44.54321" lon="6.04951">
        <ele>794.503909</ele>
        <time>2021-04-25T07:52:49.000Z</time>
      </trkpt>
      <trkpt lat="44.54328" lon="6.04954">
        <ele>794.704471</ele>
        <time>2021-04-25T07:52:51.000Z</time>
      </trkpt>
      <trkpt lat="44.54334" lon="6.04956">
        <ele>794.857087</ele>
        <time>2021-04-25T07:52:53.000Z</time>
      </trkpt>
      <trkpt lat="44.54339" lon="6.04958">
        <ele>794.997121</ele>
        <time>2021-04-25T07:52:55.000Z</time>
      </trkpt>
      <trkpt lat="44.54345" lon="6.0496">
        <ele>795.142477</ele>
        <time>2021-04-25T07:52:57.000Z</time>
      </trkpt>
      <trkpt lat="44.5435" lon="6.04965">
        <ele>795.305961</ele>
        <time>2021-04-25T07:52:59.000Z</time>
      </trkpt>
      <trkpt lat="44.5435" lon="6.04965">
        <ele>795.305961</ele>
        <time>2021-04-25T07:53:00.000Z</time>
      </trkpt>
      <trkpt lat="44.54354" lon="6.04971">
        <ele>795.454195</ele>
        <time>2021-04-25T07:53:01.000Z</time>
      </trkpt>
      <trkpt lat="44.54357" lon="6.04978">
        <ele>795.609963</ele>
        <time>2021-04-25T07:53:03.000Z</time>
      </trkpt>
      <trkpt lat="44.54361" lon="6.04984">
        <ele>795.767351</ele>
        <time>2021-04-25T07:53:05.000Z</time>
      </trkpt>
      <trkpt lat="44.54367" lon="6.04987">
        <ele>795.921746</ele>
        <time>2021-04-25T07:53:07.000Z</time>
      </trkpt>
      <trkpt lat="44.54373" lon="6.04988">
        <ele>796.070416</ele>
        <time>2021-04-25T07:53:09.000Z</time>
      </trkpt>
      <trkpt lat="44.54379" lon="6.0499">
        <ele>796.227005</ele>
        <time>2021-04-25T07:53:11.000Z</time>
      </trkpt>
      <trkpt lat="44.54385" lon="6.04991">
        <ele>796.378222</ele>
        <time>2021-04-25T07:53:13.000Z</time>
      </trkpt>
      <trkpt lat="44.54391" lon="6.04992">
        <ele>796.534127</ele>
        <time>2021-04-25T07:53:15.000Z</time>
      </trkpt>
      <trkpt lat="44.54396" lon="6.04992">
        <ele>796.674083</ele>
        <time>2021-04-25T07:53:17.000Z</time>
      </trkpt>
      <trkpt lat="44.54402" lon="6.04993">
        <ele>796.819192</ele>
        <time>2021-04-25T07:53:19.000Z</time>
      </trkpt>
      <trkpt lat="44.54407" lon="6.04994">
        <ele>796.964825</ele>
        <time>2021-04-25T07:53:21.000Z</time>
      </trkpt>
      <trkpt lat="44.54413" lon="6.04995">
        <ele>797.115806</ele>
        <time>2021-04-25T07:53:23.000Z</time>
      </trkpt>
      <trkpt lat="44.54418" lon="6.04995">
        <ele>797.258338</ele>
        <time>2021-04-25T07:53:25.000Z</time>
      </trkpt>
      <trkpt lat="44.54424" lon="6.04996">
        <ele>797.395583</ele>
        <time>2021-04-25T07:53:27.000Z</time>
      </trkpt>
      <trkpt lat="44.54424" lon="6.04996">
        <ele>797.395583</ele>
        <time>2021-04-25T07:53:28.000Z</time>
      </trkpt>
      <trkpt lat="44.54429" lon="6.04996">
        <ele>797.532568</ele>
        <time>2021-04-25T07:53:29.000Z</time>
      </trkpt>
      <trkpt lat="44.54434" lon="6.04997">
        <ele>797.663629</ele>
        <time>2021-04-25T07:53:31.000Z</time>
      </trkpt>
      <trkpt lat="44.54439" lon="6.04998">
        <ele>797.798598</ele>
        <time>2021-04-25T07:53:33.000Z</time>
      </trkpt>
      <trkpt lat="44.54444" lon="6.04999">
        <ele>797.931405</ele>
        <time>2021-04-25T07:53:35.000Z</time>
      </trkpt>
      <trkpt lat="44.5445" lon="6.05">
        <ele>798.071519</ele>
        <time>2021-04-25T07:53:37.000Z</time>
      </trkpt>
      <trkpt lat="44.54455" lon="6.05">
        <ele>798.205883</ele>
        <time>2021-04-25T07:53:39.000Z</time>
      </trkpt>
      <trkpt lat="44.5446" lon="6.05">
        <ele>798.340853</ele>
        <time>2021-04-25T07:53:41.000Z</time>
      </trkpt>
      <trkpt lat="44.54465" lon="6.05002">
        <ele>798.472584</ele>
        <time>2021-04-25T07:53:43.000Z</time>
      </trkpt>
      <trkpt lat="44.54471" lon="6.05002">
        <ele>798.617564</ele>
        <time>2021-04-25T07:53:45.000Z</time>
      </trkpt>
      <trkpt lat="44.54477" lon="6.05002">
        <ele>798.770013</ele>
        <time>2021-04-25T07:53:47.000Z</time>
      </trkpt>
      <trkpt lat="44.54481" lon="6.05003">
        <ele>798.893441</ele>
        <time>2021-04-25T07:53:49.000Z</time>
      </trkpt>
      <trkpt lat="44.54489" lon="6.05005">
        <ele>799.094049</ele>
        <time>2021-04-25T07:53:52.000Z</time>
      </trkpt>
      <trkpt lat="44.54494" lon="6.05005">
        <ele>799.23143</ele>
        <time>2021-04-25T07:53:54.000Z</time>
      </trkpt>
      <trkpt lat="44.545" lon="6.05006">
        <ele>799.365983</ele>
        <time>2021-04-25T07:53:56.000Z</time>
      </trkpt>
      <trkpt lat="44.54505" lon="6.05006">
        <ele>799.500537</ele>
        <time>2021-04-25T07:53:58.000Z</time>
      </trkpt>
      <trkpt lat="44.5451" lon="6.05007">
        <ele>799.638078</ele>
        <time>2021-04-25T07:54:00.000Z</time>
      </trkpt>
      <trkpt lat="44.54515" lon="6.05008">
        <ele>799.776013</ele>
        <time>2021-04-25T07:54:02.000Z</time>
      </trkpt>
      <trkpt lat="44.5452" lon="6.05008">
        <ele>799.908244</ele>
        <time>2021-04-25T07:54:04.000Z</time>
      </trkpt>
      <trkpt lat="44.54526" lon="6.05009">
        <ele>800.040834</ele>
        <time>2021-04-25T07:54:06.000Z</time>
      </trkpt>
      <trkpt lat="44.54531" lon="6.0501">
        <ele>800.175803</ele>
        <time>2021-04-25T07:54:08.000Z</time>
      </trkpt>
      <trkpt lat="44.54536" lon="6.0501">
        <ele>800.310608</ele>
        <time>2021-04-25T07:54:10.000Z</time>
      </trkpt>
      <trkpt lat="44.54541" lon="6.05011">
        <ele>800.437864</ele>
        <time>2021-04-25T07:54:12.000Z</time>
      </trkpt>
      <trkpt lat="44.54546" lon="6.05012">
        <ele>800.570261</ele>
        <time>2021-04-25T07:54:14.000Z</time>
      </trkpt>
      <trkpt lat="44.54546" lon="6.05012">
        <ele>800.570261</ele>
        <time>2021-04-25T07:54:15.000Z</time>
      </trkpt>
      <trkpt lat="44.54551" lon="6.05013">
        <ele>800.71024</ele>
        <time>2021-04-25T07:54:16.000Z</time>
      </trkpt>
      <trkpt lat="44.54556" lon="6.05014">
        <ele>800.855507</ele>
        <time>2021-04-25T07:54:18.000Z</time>
      </trkpt>
      <trkpt lat="44.54561" lon="6.05014">
        <ele>801.003436</ele>
        <time>2021-04-25T07:54:20.000Z</time>
      </trkpt>
      <trkpt lat="44.54566" lon="6.05015">
        <ele>801.154287</ele>
        <time>2021-04-25T07:54:22.000Z</time>
      </trkpt>
      <trkpt lat="44.54571" lon="6.05016">
        <ele>801.30766</ele>
        <time>2021-04-25T07:54:24.000Z</time>
      </trkpt>
      <trkpt lat="44.54576" lon="6.05017">
        <ele>801.45559</ele>
        <time>2021-04-25T07:54:26.000Z</time>
      </trkpt>
      <trkpt lat="44.54581" lon="6.05017">
        <ele>801.600372</ele>
        <time>2021-04-25T07:54:28.000Z</time>
      </trkpt>
      <trkpt lat="44.54586" lon="6.05018">
        <ele>801.745155</ele>
        <time>2021-04-25T07:54:30.000Z</time>
      </trkpt>
      <trkpt lat="44.54591" lon="6.05019">
        <ele>801.887013</ele>
        <time>2021-04-25T07:54:32.000Z</time>
      </trkpt>
      <trkpt lat="44.54591" lon="6.05019">
        <ele>801.887013</ele>
        <time>2021-04-25T07:54:33.000Z</time>
      </trkpt>
      <trkpt lat="44.54596" lon="6.05019">
        <ele>802.034005</ele>
        <time>2021-04-25T07:54:34.000Z</time>
      </trkpt>
      <trkpt lat="44.54601" lon="6.05018">
        <ele>802.175352</ele>
        <time>2021-04-25T07:54:36.000Z</time>
      </trkpt>
      <trkpt lat="44.54605" lon="6.05016">
        <ele>802.316134</ele>
        <time>2021-04-25T07:54:38.000Z</time>
      </trkpt>
      <trkpt lat="44.54609" lon="6.05012">
        <ele>802.460809</ele>
        <time>2021-04-25T07:54:40.000Z</time>
      </trkpt>
      <trkpt lat="44.54613" lon="6.05004">
        <ele>802.677571</ele>
        <time>2021-04-25T07:54:43.000Z</time>
      </trkpt>
      <trkpt lat="44.54616" lon="6.04994">
        <ele>802.906562</ele>
        <time>2021-04-25T07:54:46.000Z</time>
      </trkpt>
      <trkpt lat="44.54617" lon="6.04988">
        <ele>803.036352</ele>
        <time>2021-04-25T07:54:48.000Z</time>
      </trkpt>
      <trkpt lat="44.54618" lon="6.0498">
        <ele>803.200874</ele>
        <time>2021-04-25T07:54:50.000Z</time>
      </trkpt>
      <trkpt lat="44.54619" lon="6.04973">
        <ele>803.351465</ele>
        <time>2021-04-25T07:54:52.000Z</time>
      </trkpt>
      <trkpt lat="44.54621" lon="6.04963">
        <ele>803.567602</ele>
        <time>2021-04-25T07:54:55.000Z</time>
      </trkpt>
      <trkpt lat="44.54621" lon="6.04963">
        <ele>803.567602</ele>
        <time>2021-04-25T07:54:56.000Z</time>
      </trkpt>
      <trkpt lat="44.54623" lon="6.04954">
        <ele>803.77494</ele>
        <time>2021-04-25T07:54:58.000Z</time>
      </trkpt>
      <trkpt lat="44.54625" lon="6.04943">
        <ele>803.999862</ele>
        <time>2021-04-25T07:55:01.000Z</time>
      </trkpt>
      <trkpt lat="44.54627" lon="6.04936">
        <ele>804.149866</ele>
        <time>2021-04-25T07:55:03.000Z</time>
      </trkpt>
      <trkpt lat="44.5463" lon="6.04927">
        <ele>804.375238</ele>
        <time>2021-04-25T07:55:06.000Z</time>
      </trkpt>
      <trkpt lat="44.54633" lon="6.04916">
        <ele>804.605153</ele>
        <time>2021-04-25T07:55:09.000Z</time>
      </trkpt>
      <trkpt lat="44.54634" lon="6.0491">
        <ele>804.750625</ele>
        <time>2021-04-25T07:55:11.000Z</time>
      </trkpt>
      <trkpt lat="44.54635" lon="6.04903">
        <ele>804.896097</ele>
        <time>2021-04-25T07:55:13.000Z</time>
      </trkpt>
      <trkpt lat="44.54637" lon="6.04896">
        <ele>805.043222</ele>
        <time>2021-04-25T07:55:15.000Z</time>
      </trkpt>
      <trkpt lat="44.54638" lon="6.0489">
        <ele>805.183474</ele>
        <time>2021-04-25T07:55:17.000Z</time>
      </trkpt>
      <trkpt lat="44.5464" lon="6.04884">
        <ele>805.318866</ele>
        <time>2021-04-25T07:55:19.000Z</time>
      </trkpt>
      <trkpt lat="44.54641" lon="6.04877">
        <ele>805.460865</ele>
        <time>2021-04-25T07:55:21.000Z</time>
      </trkpt>
      <trkpt lat="44.54642" lon="6.0487">
        <ele>805.611035</ele>
        <time>2021-04-25T07:55:23.000Z</time>
      </trkpt>
      <trkpt lat="44.54643" lon="6.04862">
        <ele>805.772943</ele>
        <time>2021-04-25T07:55:25.000Z</time>
      </trkpt>
      <trkpt lat="44.54643" lon="6.04862">
        <ele>805.772943</ele>
        <time>2021-04-25T07:55:26.000Z</time>
      </trkpt>
      <trkpt lat="44.54645" lon="6.04851">
        <ele>806.07489</ele>
        <time>2021-04-25T07:55:28.000Z</time>
      </trkpt>
      <trkpt lat="44.54646" lon="6.04844">
        <ele>806.340001</ele>
        <time>2021-04-25T07:55:30.000Z</time>
      </trkpt>
      <trkpt lat="44.54648" lon="6.04837">
        <ele>806.60593</ele>
        <time>2021-04-25T07:55:32.000Z</time>
      </trkpt>
      <trkpt lat="44.54649" lon="6.0483">
        <ele>806.885835</ele>
        <time>2021-04-25T07:55:34.000Z</time>
      </trkpt>
      <trkpt lat="44.54651" lon="6.04823">
        <ele>807.162892</ele>
        <time>2021-04-25T07:55:36.000Z</time>
      </trkpt>
      <trkpt lat="44.54652" lon="6.04815">
        <ele>807.457894</ele>
        <time>2021-04-25T07:55:38.000Z</time>
      </trkpt>
      <trkpt lat="44.54653" lon="6.04806">
        <ele>807.772832</ele>
        <time>2021-04-25T07:55:40.000Z</time>
      </trkpt>
      <trkpt lat="44.54653" lon="6.04798">
        <ele>808.091679</ele>
        <time>2021-04-25T07:55:42.000Z</time>
      </trkpt>
      <trkpt lat="44.54651" lon="6.04789">
        <ele>808.406135</ele>
        <time>2021-04-25T07:55:44.000Z</time>
      </trkpt>
      <trkpt lat="44.54648" lon="6.04782">
        <ele>808.712907</ele>
        <time>2021-04-25T07:55:46.000Z</time>
      </trkpt>
      <trkpt lat="44.54648" lon="6.04782">
        <ele>808.712907</ele>
        <time>2021-04-25T07:55:47.000Z</time>
      </trkpt>
      <trkpt lat="44.54647" lon="6.04772">
        <ele>809.081373</ele>
        <time>2021-04-25T07:55:49.000Z</time>
      </trkpt>
      <trkpt lat="44.54647" lon="6.04772">
        <ele>809.081373</ele>
        <time>2021-04-25T07:55:50.000Z</time>
      </trkpt>
      <trkpt lat="44.5465" lon="6.04761">
        <ele>809.501947</ele>
        <time>2021-04-25T07:55:52.000Z</time>
      </trkpt>
      <trkpt lat="44.54656" lon="6.04756">
        <ele>809.875287</ele>
        <time>2021-04-25T07:55:55.000Z</time>
      </trkpt>
      <trkpt lat="44.54656" lon="6.04756">
        <ele>809.875287</ele>
        <time>2021-04-25T07:55:57.000Z</time>
      </trkpt>
      <trkpt lat="44.54664" lon="6.04751">
        <ele>810.312176</ele>
        <time>2021-04-25T07:55:59.000Z</time>
      </trkpt>
      <trkpt lat="44.54671" lon="6.04747">
        <ele>810.685883</ele>
        <time>2021-04-25T07:56:02.000Z</time>
      </trkpt>
      <trkpt lat="44.54678" lon="6.04745">
        <ele>811.058252</ele>
        <time>2021-04-25T07:56:05.000Z</time>
      </trkpt>
      <trkpt lat="44.54684" lon="6.04742">
        <ele>811.40484</ele>
        <time>2021-04-25T07:56:08.000Z</time>
      </trkpt>
      <trkpt lat="44.54684" lon="6.04742">
        <ele>811.40484</ele>
        <time>2021-04-25T07:56:10.000Z</time>
      </trkpt>
      <trkpt lat="44.5469" lon="6.0474">
        <ele>811.728725</ele>
        <time>2021-04-25T07:56:11.000Z</time>
      </trkpt>
      <trkpt lat="44.54697" lon="6.04738">
        <ele>812.083293</ele>
        <time>2021-04-25T07:56:14.000Z</time>
      </trkpt>
      <trkpt lat="44.54706" lon="6.04736">
        <ele>812.536478</ele>
        <time>2021-04-25T07:56:17.000Z</time>
      </trkpt>
      <trkpt lat="44.54706" lon="6.04736">
        <ele>812.536478</ele>
        <time>2021-04-25T07:56:18.000Z</time>
      </trkpt>
      <trkpt lat="44.54714" lon="6.04733">
        <ele>812.979119</ele>
        <time>2021-04-25T07:56:20.000Z</time>
      </trkpt>
      <trkpt lat="44.54714" lon="6.04733">
        <ele>812.979119</ele>
        <time>2021-04-25T07:56:22.000Z</time>
      </trkpt>
      <trkpt lat="44.54722" lon="6.0473">
        <ele>813.407248</ele>
        <time>2021-04-25T07:56:23.000Z</time>
      </trkpt>
      <trkpt lat="44.54722" lon="6.0473">
        <ele>813.407248</ele>
        <time>2021-04-25T07:56:24.000Z</time>
      </trkpt>
      <trkpt lat="44.54729" lon="6.04728">
        <ele>813.768844</ele>
        <time>2021-04-25T07:56:26.000Z</time>
      </trkpt>
      <trkpt lat="44.54729" lon="6.04728">
        <ele>813.768844</ele>
        <time>2021-04-25T07:56:28.000Z</time>
      </trkpt>
      <trkpt lat="44.54737" lon="6.04727">
        <ele>814.157925</ele>
        <time>2021-04-25T07:56:29.000Z</time>
      </trkpt>
      <trkpt lat="44.54744" lon="6.04726">
        <ele>814.52934</ele>
        <time>2021-04-25T07:56:32.000Z</time>
      </trkpt>
      <trkpt lat="44.54754" lon="6.04725">
        <ele>815.040034</ele>
        <time>2021-04-25T07:56:36.000Z</time>
      </trkpt>
      <trkpt lat="44.54754" lon="6.04725">
        <ele>815.040034</ele>
        <time>2021-04-25T07:56:38.000Z</time>
      </trkpt>
      <trkpt lat="44.54762" lon="6.04722">
        <ele>815.435136</ele>
        <time>2021-04-25T07:56:40.000Z</time>
      </trkpt>
      <trkpt lat="44.54771" lon="6.0472">
        <ele>815.819283</ele>
        <time>2021-04-25T07:56:44.000Z</time>
      </trkpt>
      <trkpt lat="44.54777" lon="6.04718">
        <ele>816.087267</ele>
        <time>2021-04-25T07:56:47.000Z</time>
      </trkpt>
      <trkpt lat="44.54777" lon="6.04718">
        <ele>816.087267</ele>
        <time>2021-04-25T07:56:50.000Z</time>
      </trkpt>
      <trkpt lat="44.54785" lon="6.04716">
        <ele>816.459942</ele>
        <time>2021-04-25T07:56:51.000Z</time>
      </trkpt>
      <trkpt lat="44.54785" lon="6.04716">
        <ele>816.459942</ele>
        <time>2021-04-25T07:56:53.000Z</time>
      </trkpt>
      <trkpt lat="44.54791" lon="6.04715">
        <ele>816.726563</ele>
        <time>2021-04-25T07:56:54.000Z</time>
      </trkpt>
      <trkpt lat="44.54791" lon="6.04715">
        <ele>816.726563</ele>
        <time>2021-04-25T07:56:55.000Z</time>
      </trkpt>
      <trkpt lat="44.54791" lon="6.04715">
        <ele>816.726563</ele>
        <time>2021-04-25T07:56:56.000Z</time>
      </trkpt>
      <trkpt lat="44.54798" lon="6.04714">
        <ele>817.006067</ele>
        <time>2021-04-25T07:56:59.000Z</time>
      </trkpt>
      <trkpt lat="44.54798" lon="6.04714">
        <ele>817.006067</ele>
        <time>2021-04-25T07:57:00.000Z</time>
      </trkpt>
      <trkpt lat="44.54806" lon="6.04712">
        <ele>817.381663</ele>
        <time>2021-04-25T07:57:03.000Z</time>
      </trkpt>
      <trkpt lat="44.54813" lon="6.04711">
        <ele>817.678774</ele>
        <time>2021-04-25T07:57:06.000Z</time>
      </trkpt>
      <trkpt lat="44.54813" lon="6.04711">
        <ele>817.678774</ele>
        <time>2021-04-25T07:57:07.000Z</time>
      </trkpt>
      <trkpt lat="44.5482" lon="6.04709">
        <ele>817.97743</ele>
        <time>2021-04-25T07:57:10.000Z</time>
      </trkpt>
      <trkpt lat="44.54828" lon="6.0471">
        <ele>818.321225</ele>
        <time>2021-04-25T07:57:13.000Z</time>
      </trkpt>
      <trkpt lat="44.54828" lon="6.0471">
        <ele>818.321225</ele>
        <time>2021-04-25T07:57:15.000Z</time>
      </trkpt>
      <trkpt lat="44.54835" lon="6.04709">
        <ele>818.656986</ele>
        <time>2021-04-25T07:57:16.000Z</time>
      </trkpt>
      <trkpt lat="44.54842" lon="6.04708">
        <ele>818.962742</ele>
        <time>2021-04-25T07:57:19.000Z</time>
      </trkpt>
      <trkpt lat="44.54851" lon="6.04707">
        <ele>819.325022</ele>
        <time>2021-04-25T07:57:23.000Z</time>
      </trkpt>
      <trkpt lat="44.54858" lon="6.04706">
        <ele>819.630212</ele>
        <time>2021-04-25T07:57:26.000Z</time>
      </trkpt>
      <trkpt lat="44.54866" lon="6.04705">
        <ele>820.013866</ele>
        <time>2021-04-25T07:57:30.000Z</time>
      </trkpt>
      <trkpt lat="44.54874" lon="6.04704">
        <ele>820.332594</ele>
        <time>2021-04-25T07:57:33.000Z</time>
      </trkpt>
      <trkpt lat="44.54879" lon="6.04702">
        <ele>820.584481</ele>
        <time>2021-04-25T07:57:36.000Z</time>
      </trkpt>
      <trkpt lat="44.54879" lon="6.04702">
        <ele>820.584481</ele>
        <time>2021-04-25T07:57:37.000Z</time>
      </trkpt>
      <trkpt lat="44.54879" lon="6.04693">
        <ele>820.853904</ele>
        <time>2021-04-25T07:57:40.000Z</time>
      </trkpt>
      <trkpt lat="44.54877" lon="6.04684">
        <ele>821.159163</ele>
        <time>2021-04-25T07:57:43.000Z</time>
      </trkpt>
      <trkpt lat="44.54872" lon="6.04676">
        <ele>821.484598</ele>
        <time>2021-04-25T07:57:46.000Z</time>
      </trkpt>
      <trkpt lat="44.54868" lon="6.04671">
        <ele>821.717383</ele>
        <time>2021-04-25T07:57:48.000Z</time>
      </trkpt>
      <trkpt lat="44.54865" lon="6.04666">
        <ele>821.939682</ele>
        <time>2021-04-25T07:57:50.000Z</time>
      </trkpt>
      <trkpt lat="44.54865" lon="6.04666">
        <ele>821.939682</ele>
        <time>2021-04-25T07:57:51.000Z</time>
      </trkpt>
      <trkpt lat="44.54861" lon="6.0466">
        <ele>822.173463</ele>
        <time>2021-04-25T07:57:52.000Z</time>
      </trkpt>
      <trkpt lat="44.54857" lon="6.04656">
        <ele>822.386132</ele>
        <time>2021-04-25T07:57:54.000Z</time>
      </trkpt>
      <trkpt lat="44.54854" lon="6.0465">
        <ele>822.602404</ele>
        <time>2021-04-25T07:57:56.000Z</time>
      </trkpt>
      <trkpt lat="44.54854" lon="6.0465">
        <ele>822.602404</ele>
        <time>2021-04-25T07:57:57.000Z</time>
      </trkpt>
      <trkpt lat="44.5485" lon="6.04645">
        <ele>822.82617</ele>
        <time>2021-04-25T07:57:58.000Z</time>
      </trkpt>
      <trkpt lat="44.54847" lon="6.0464">
        <ele>823.054348</ele>
        <time>2021-04-25T07:58:00.000Z</time>
      </trkpt>
      <trkpt lat="44.54844" lon="6.04634">
        <ele>823.29093</ele>
        <time>2021-04-25T07:58:02.000Z</time>
      </trkpt>
      <trkpt lat="44.54841" lon="6.0463">
        <ele>823.539788</ele>
        <time>2021-04-25T07:58:04.000Z</time>
      </trkpt>
      <trkpt lat="44.54841" lon="6.0463">
        <ele>823.539788</ele>
        <time>2021-04-25T07:58:05.000Z</time>
      </trkpt>
      <trkpt lat="44.54837" lon="6.04625">
        <ele>823.80014</ele>
        <time>2021-04-25T07:58:06.000Z</time>
      </trkpt>
      <trkpt lat="44.54834" lon="6.04621">
        <ele>824.04525</ele>
        <time>2021-04-25T07:58:08.000Z</time>
      </trkpt>
      <trkpt lat="44.5483" lon="6.04616">
        <ele>824.303029</ele>
        <time>2021-04-25T07:58:10.000Z</time>
      </trkpt>
      <trkpt lat="44.54826" lon="6.04612">
        <ele>824.542051</ele>
        <time>2021-04-25T07:58:12.000Z</time>
      </trkpt>
      <trkpt lat="44.54823" lon="6.04607">
        <ele>824.78996</ele>
        <time>2021-04-25T07:58:14.000Z</time>
      </trkpt>
      <trkpt lat="44.5482" lon="6.04602">
        <ele>825.04676</ele>
        <time>2021-04-25T07:58:16.000Z</time>
      </trkpt>
      <trkpt lat="44.54817" lon="6.04596">
        <ele>825.304614</ele>
        <time>2021-04-25T07:58:18.000Z</time>
      </trkpt>
      <trkpt lat="44.54814" lon="6.04591">
        <ele>825.538195</ele>
        <time>2021-04-25T07:58:20.000Z</time>
      </trkpt>
      <trkpt lat="44.54812" lon="6.04586">
        <ele>825.750919</ele>
        <time>2021-04-25T07:58:22.000Z</time>
      </trkpt>
      <trkpt lat="44.54809" lon="6.04582">
        <ele>825.972621</ele>
        <time>2021-04-25T07:58:24.000Z</time>
      </trkpt>
      <trkpt lat="44.54806" lon="6.04577">
        <ele>826.188702</ele>
        <time>2021-04-25T07:58:26.000Z</time>
      </trkpt>
      <trkpt lat="44.54801" lon="6.04572">
        <ele>826.531032</ele>
        <time>2021-04-25T07:58:29.000Z</time>
      </trkpt>
      <trkpt lat="44.54798" lon="6.04568">
        <ele>826.755947</ele>
        <time>2021-04-25T07:58:31.000Z</time>
      </trkpt>
      <trkpt lat="44.54798" lon="6.04568">
        <ele>826.755947</ele>
        <time>2021-04-25T07:58:32.000Z</time>
      </trkpt>
      <trkpt lat="44.54795" lon="6.04563">
        <ele>826.97286</ele>
        <time>2021-04-25T07:58:33.000Z</time>
      </trkpt>
      <trkpt lat="44.54792" lon="6.04559">
        <ele>827.175451</ele>
        <time>2021-04-25T07:58:35.000Z</time>
      </trkpt>
      <trkpt lat="44.54789" lon="6.04556">
        <ele>827.359482</ele>
        <time>2021-04-25T07:58:37.000Z</time>
      </trkpt>
      <trkpt lat="44.54786" lon="6.04553">
        <ele>827.555899</ele>
        <time>2021-04-25T07:58:39.000Z</time>
      </trkpt>
      <trkpt lat="44.54783" lon="6.04549">
        <ele>827.761988</ele>
        <time>2021-04-25T07:58:41.000Z</time>
      </trkpt>
      <trkpt lat="44.54781" lon="6.04546">
        <ele>827.953061</ele>
        <time>2021-04-25T07:58:43.000Z</time>
      </trkpt>
      <trkpt lat="44.54778" lon="6.04542">
        <ele>828.141533</ele>
        <time>2021-04-25T07:58:45.000Z</time>
      </trkpt>
      <trkpt lat="44.54774" lon="6.04536">
        <ele>828.439458</ele>
        <time>2021-04-25T07:58:48.000Z</time>
      </trkpt>
      <trkpt lat="44.54771" lon="6.04532">
        <ele>828.650196</ele>
        <time>2021-04-25T07:58:50.000Z</time>
      </trkpt>
      <trkpt lat="44.54769" lon="6.04528">
        <ele>828.852788</ele>
        <time>2021-04-25T07:58:52.000Z</time>
      </trkpt>
      <trkpt lat="44.54766" lon="6.04522">
        <ele>829.113537</ele>
        <time>2021-04-25T07:58:55.000Z</time>
      </trkpt>
      <trkpt lat="44.54766" lon="6.04522">
        <ele>829.113537</ele>
        <time>2021-04-25T07:58:56.000Z</time>
      </trkpt>
      <trkpt lat="44.54762" lon="6.04516">
        <ele>829.383585</ele>
        <time>2021-04-25T07:58:58.000Z</time>
      </trkpt>
      <trkpt lat="44.54758" lon="6.04511">
        <ele>829.662454</ele>
        <time>2021-04-25T07:59:01.000Z</time>
      </trkpt>
      <trkpt lat="44.54754" lon="6.04506">
        <ele>829.938864</ele>
        <time>2021-04-25T07:59:04.000Z</time>
      </trkpt>
      <trkpt lat="44.5475" lon="6.04501">
        <ele>830.211443</ele>
        <time>2021-04-25T07:59:07.000Z</time>
      </trkpt>
      <trkpt lat="44.54746" lon="6.04497">
        <ele>830.482306</ele>
        <time>2021-04-25T07:59:10.000Z</time>
      </trkpt>
      <trkpt lat="44.54742" lon="6.04493">
        <ele>830.744513</ele>
        <time>2021-04-25T07:59:13.000Z</time>
      </trkpt>
      <trkpt lat="44.54742" lon="6.04493">
        <ele>830.744513</ele>
        <time>2021-04-25T07:59:14.000Z</time>
      </trkpt>
      <trkpt lat="44.54738" lon="6.04489">
        <ele>831.021358</ele>
        <time>2021-04-25T07:59:16.000Z</time>
      </trkpt>
      <trkpt lat="44.54738" lon="6.04489">
        <ele>831.021358</ele>
        <time>2021-04-25T07:59:17.000Z</time>
      </trkpt>
      <trkpt lat="44.54733" lon="6.04485">
        <ele>831.279721</ele>
        <time>2021-04-25T07:59:19.000Z</time>
      </trkpt>
      <trkpt lat="44.54729" lon="6.04482">
        <ele>831.53177</ele>
        <time>2021-04-25T07:59:22.000Z</time>
      </trkpt>
      <trkpt lat="44.54729" lon="6.04482">
        <ele>831.53177</ele>
        <time>2021-04-25T07:59:23.000Z</time>
      </trkpt>
      <trkpt lat="44.54724" lon="6.04479">
        <ele>831.793817</ele>
        <time>2021-04-25T07:59:25.000Z</time>
      </trkpt>
      <trkpt lat="44.5472" lon="6.04477">
        <ele>832.021513</ele>
        <time>2021-04-25T07:59:28.000Z</time>
      </trkpt>
      <trkpt lat="44.5472" lon="6.04477">
        <ele>832.021513</ele>
        <time>2021-04-25T07:59:30.000Z</time>
      </trkpt>
      <trkpt lat="44.54716" lon="6.04477">
        <ele>832.254169</ele>
        <time>2021-04-25T07:59:31.000Z</time>
      </trkpt>
      <trkpt lat="44.54709" lon="6.04479">
        <ele>832.294516</ele>
        <time>2021-04-25T07:59:35.000Z</time>
      </trkpt>
      <trkpt lat="44.54709" lon="6.04479">
        <ele>832.294516</ele>
        <time>2021-04-25T07:59:37.000Z</time>
      </trkpt>
      <trkpt lat="44.54703" lon="6.04481">
        <ele>832.305995</ele>
        <time>2021-04-25T07:59:38.000Z</time>
      </trkpt>
      <trkpt lat="44.54695" lon="6.04483">
        <ele>832.321977</ele>
        <time>2021-04-25T07:59:41.000Z</time>
      </trkpt>
      <trkpt lat="44.54686" lon="6.04483">
        <ele>832.337438</ele>
        <time>2021-04-25T07:59:43.000Z</time>
      </trkpt>
      <trkpt lat="44.54678" lon="6.04482">
        <ele>832.353793</ele>
        <time>2021-04-25T07:59:45.000Z</time>
      </trkpt>
      <trkpt lat="44.54668" lon="6.0448">
        <ele>832.371644</ele>
        <time>2021-04-25T07:59:47.000Z</time>
      </trkpt>
      <trkpt lat="44.54659" lon="6.04478">
        <ele>832.389842</ele>
        <time>2021-04-25T07:59:49.000Z</time>
      </trkpt>
      <trkpt lat="44.5465" lon="6.04475">
        <ele>832.406769</ele>
        <time>2021-04-25T07:59:51.000Z</time>
      </trkpt>
      <trkpt lat="44.5465" lon="6.04475">
        <ele>832.406769</ele>
        <time>2021-04-25T07:59:52.000Z</time>
      </trkpt>
      <trkpt lat="44.54642" lon="6.04471">
        <ele>832.42247</ele>
        <time>2021-04-25T07:59:53.000Z</time>
      </trkpt>
      <trkpt lat="44.54635" lon="6.04467">
        <ele>832.437069</ele>
        <time>2021-04-25T07:59:55.000Z</time>
      </trkpt>
      <trkpt lat="44.54629" lon="6.04462">
        <ele>832.450715</ele>
        <time>2021-04-25T07:59:57.000Z</time>
      </trkpt>
      <trkpt lat="44.54623" lon="6.04458">
        <ele>832.462926</ele>
        <time>2021-04-25T07:59:59.000Z</time>
      </trkpt>
      <trkpt lat="44.54617" lon="6.04454">
        <ele>832.474882</ele>
        <time>2021-04-25T08:00:01.000Z</time>
      </trkpt>
      <trkpt lat="44.54611" lon="6.0445">
        <ele>832.487066</ele>
        <time>2021-04-25T08:00:03.000Z</time>
      </trkpt>
      <trkpt lat="44.54605" lon="6.04447">
        <ele>832.499716</ele>
        <time>2021-04-25T08:00:05.000Z</time>
      </trkpt>
      <trkpt lat="44.54599" lon="6.04444">
        <ele>832.511593</ele>
        <time>2021-04-25T08:00:07.000Z</time>
      </trkpt>
      <trkpt lat="44.54593" lon="6.04441">
        <ele>832.523252</ele>
        <time>2021-04-25T08:00:09.000Z</time>
      </trkpt>
      <trkpt lat="44.54588" lon="6.04438">
        <ele>832.534905</ele>
        <time>2021-04-25T08:00:11.000Z</time>
      </trkpt>
      <trkpt lat="44.54582" lon="6.04435">
        <ele>832.546914</ele>
        <time>2021-04-25T08:00:13.000Z</time>
      </trkpt>
      <trkpt lat="44.54576" lon="6.04431">
        <ele>832.559269</ele>
        <time>2021-04-25T08:00:15.000Z</time>
      </trkpt>
      <trkpt lat="44.54569" lon="6.04427">
        <ele>832.572429</ele>
        <time>2021-04-25T08:00:17.000Z</time>
      </trkpt>
      <trkpt lat="44.54562" lon="6.04422">
        <ele>832.586945</ele>
        <time>2021-04-25T08:00:19.000Z</time>
      </trkpt>
      <trkpt lat="44.54555" lon="6.04417">
        <ele>832.602044</ele>
        <time>2021-04-25T08:00:21.000Z</time>
      </trkpt>
      <trkpt lat="44.54549" lon="6.04413">
        <ele>832.615198</ele>
        <time>2021-04-25T08:00:23.000Z</time>
      </trkpt>
      <trkpt lat="44.54543" lon="6.0441">
        <ele>832.746728</ele>
        <time>2021-04-25T08:00:25.000Z</time>
      </trkpt>
      <trkpt lat="44.54538" lon="6.04406">
        <ele>833.031972</ele>
        <time>2021-04-25T08:00:27.000Z</time>
      </trkpt>
      <trkpt lat="44.54533" lon="6.04402">
        <ele>833.327169</ele>
        <time>2021-04-25T08:00:29.000Z</time>
      </trkpt>
      <trkpt lat="44.54528" lon="6.04397">
        <ele>833.616241</ele>
        <time>2021-04-25T08:00:31.000Z</time>
      </trkpt>
      <trkpt lat="44.54523" lon="6.04392">
        <ele>833.90144</ele>
        <time>2021-04-25T08:00:33.000Z</time>
      </trkpt>
      <trkpt lat="44.54523" lon="6.04392">
        <ele>833.90144</ele>
        <time>2021-04-25T08:00:34.000Z</time>
      </trkpt>
      <trkpt lat="44.54518" lon="6.04387">
        <ele>834.182793</ele>
        <time>2021-04-25T08:00:35.000Z</time>
      </trkpt>
      <trkpt lat="44.54513" lon="6.04382">
        <ele>834.460327</ele>
        <time>2021-04-25T08:00:37.000Z</time>
      </trkpt>
      <trkpt lat="44.54509" lon="6.04378">
        <ele>834.718629</ele>
        <time>2021-04-25T08:00:39.000Z</time>
      </trkpt>
      <trkpt lat="44.54504" lon="6.04374">
        <ele>834.969328</ele>
        <time>2021-04-25T08:00:41.000Z</time>
      </trkpt>
      <trkpt lat="44.545" lon="6.0437">
        <ele>835.215745</ele>
        <time>2021-04-25T08:00:43.000Z</time>
      </trkpt>
      <trkpt lat="44.545" lon="6.0437">
        <ele>835.215745</ele>
        <time>2021-04-25T08:00:44.000Z</time>
      </trkpt>
      <trkpt lat="44.54495" lon="6.04364">
        <ele>835.533385</ele>
        <time>2021-04-25T08:00:46.000Z</time>
      </trkpt>
      <trkpt lat="44.54491" lon="6.0436">
        <ele>835.753153</ele>
        <time>2021-04-25T08:00:48.000Z</time>
      </trkpt>
      <trkpt lat="44.54488" lon="6.04355">
        <ele>835.977021</ele>
        <time>2021-04-25T08:00:50.000Z</time>
      </trkpt>
      <trkpt lat="44.54488" lon="6.04355">
        <ele>835.977021</ele>
        <time>2021-04-25T08:00:51.000Z</time>
      </trkpt>
      <trkpt lat="44.54484" lon="6.04348">
        <ele>836.288716</ele>
        <time>2021-04-25T08:00:53.000Z</time>
      </trkpt>
      <trkpt lat="44.54481" lon="6.04343">
        <ele>836.506932</ele>
        <time>2021-04-25T08:00:55.000Z</time>
      </trkpt>
      <trkpt lat="44.54478" lon="6.04338">
        <ele>836.730315</ele>
        <time>2021-04-25T08:00:57.000Z</time>
      </trkpt>
      <trkpt lat="44.54475" lon="6.04333">
        <ele>836.947839</ele>
        <time>2021-04-25T08:00:59.000Z</time>
      </trkpt>
      <trkpt lat="44.54473" lon="6.04327">
        <ele>837.165363</ele>
        <time>2021-04-25T08:01:01.000Z</time>
      </trkpt>
      <trkpt lat="44.5447" lon="6.04322">
        <ele>837.396476</ele>
        <time>2021-04-25T08:01:03.000Z</time>
      </trkpt>
      <trkpt lat="44.5447" lon="6.04322">
        <ele>837.396476</ele>
        <time>2021-04-25T08:01:04.000Z</time>
      </trkpt>
      <trkpt lat="44.54466" lon="6.04316">
        <ele>837.636319</ele>
        <time>2021-04-25T08:01:05.000Z</time>
      </trkpt>
      <trkpt lat="44.54464" lon="6.04311">
        <ele>837.864644</ele>
        <time>2021-04-25T08:01:07.000Z</time>
      </trkpt>
      <trkpt lat="44.54461" lon="6.04306">
        <ele>838.084718</ele>
        <time>2021-04-25T08:01:09.000Z</time>
      </trkpt>
      <trkpt lat="44.54458" lon="6.043">
        <ele>838.310435</ele>
        <time>2021-04-25T08:01:11.000Z</time>
      </trkpt>
      <trkpt lat="44.54455" lon="6.04295">
        <ele>838.533298</ele>
        <time>2021-04-25T08:01:13.000Z</time>
      </trkpt>
      <trkpt lat="44.54455" lon="6.04295">
        <ele>838.533298</ele>
        <time>2021-04-25T08:01:15.000Z</time>
      </trkpt>
      <trkpt lat="44.54451" lon="6.04288">
        <ele>838.839028</ele>
        <time>2021-04-25T08:01:16.000Z</time>
      </trkpt>
      <trkpt lat="44.54447" lon="6.04281">
        <ele>839.133596</ele>
        <time>2021-04-25T08:01:19.000Z</time>
      </trkpt>
      <trkpt lat="44.54445" lon="6.04277">
        <ele>839.315448</ele>
        <time>2021-04-25T08:01:21.000Z</time>
      </trkpt>
      <trkpt lat="44.54442" lon="6.04271">
        <ele>839.563038</ele>
        <time>2021-04-25T08:01:24.000Z</time>
      </trkpt>
      <trkpt lat="44.54439" lon="6.04265">
        <ele>839.813401</ele>
        <time>2021-04-25T08:01:27.000Z</time>
      </trkpt>
      <trkpt lat="44.54436" lon="6.04258">
        <ele>840.067549</ele>
        <time>2021-04-25T08:01:30.000Z</time>
      </trkpt>
      <trkpt lat="44.54434" lon="6.04252">
        <ele>840.318784</ele>
        <time>2021-04-25T08:01:33.000Z</time>
      </trkpt>
      <trkpt lat="44.5443" lon="6.04246">
        <ele>840.561254</ele>
        <time>2021-04-25T08:01:36.000Z</time>
      </trkpt>
      <trkpt lat="44.54427" lon="6.0424">
        <ele>840.809031</ele>
        <time>2021-04-25T08:01:39.000Z</time>
      </trkpt>
      <trkpt lat="44.54427" lon="6.0424">
        <ele>840.809031</ele>
        <time>2021-04-25T08:01:40.000Z</time>
      </trkpt>
      <trkpt lat="44.54425" lon="6.04234">
        <ele>841.069039</ele>
        <time>2021-04-25T08:01:42.000Z</time>
      </trkpt>
      <trkpt lat="44.54423" lon="6.04229">
        <ele>841.300776</ele>
        <time>2021-04-25T08:01:44.000Z</time>
      </trkpt>
      <trkpt lat="44.5442" lon="6.04223">
        <ele>841.704226</ele>
        <time>2021-04-25T08:01:47.000Z</time>
      </trkpt>
      <trkpt lat="44.5442" lon="6.04223">
        <ele>841.704226</ele>
        <time>2021-04-25T08:01:48.000Z</time>
      </trkpt>
      <trkpt lat="44.54417" lon="6.04219">
        <ele>841.984916</ele>
        <time>2021-04-25T08:01:49.000Z</time>
      </trkpt>
      <trkpt lat="44.54414" lon="6.04213">
        <ele>842.379904</ele>
        <time>2021-04-25T08:01:52.000Z</time>
      </trkpt>
      <trkpt lat="44.54414" lon="6.04213">
        <ele>842.379904</ele>
        <time>2021-04-25T08:01:54.000Z</time>
      </trkpt>
      <trkpt lat="44.54411" lon="6.04207">
        <ele>842.788493</ele>
        <time>2021-04-25T08:01:55.000Z</time>
      </trkpt>
      <trkpt lat="44.54408" lon="6.04201">
        <ele>843.196376</ele>
        <time>2021-04-25T08:01:58.000Z</time>
      </trkpt>
      <trkpt lat="44.54406" lon="6.04197">
        <ele>843.464266</ele>
        <time>2021-04-25T08:02:00.000Z</time>
      </trkpt>
      <trkpt lat="44.54404" lon="6.04193">
        <ele>843.736281</ele>
        <time>2021-04-25T08:02:02.000Z</time>
      </trkpt>
      <trkpt lat="44.54402" lon="6.04189">
        <ele>844.008368</ele>
        <time>2021-04-25T08:02:04.000Z</time>
      </trkpt>
      <trkpt lat="44.544" lon="6.04184">
        <ele>844.284876</ele>
        <time>2021-04-25T08:02:06.000Z</time>
      </trkpt>
      <trkpt lat="44.54397" lon="6.0418">
        <ele>844.570107</ele>
        <time>2021-04-25T08:02:08.000Z</time>
      </trkpt>
      <trkpt lat="44.54394" lon="6.04174">
        <ele>845.004267</ele>
        <time>2021-04-25T08:02:11.000Z</time>
      </trkpt>
      <trkpt lat="44.54391" lon="6.04169">
        <ele>845.311523</ele>
        <time>2021-04-25T08:02:13.000Z</time>
      </trkpt>
      <trkpt lat="44.54391" lon="6.04169">
        <ele>845.311523</ele>
        <time>2021-04-25T08:02:15.000Z</time>
      </trkpt>
      <trkpt lat="44.54389" lon="6.04163">
        <ele>845.710884</ele>
        <time>2021-04-25T08:02:16.000Z</time>
      </trkpt>
      <trkpt lat="44.54389" lon="6.04163">
        <ele>845.710884</ele>
        <time>2021-04-25T08:02:17.000Z</time>
      </trkpt>
      <trkpt lat="44.54385" lon="6.04156">
        <ele>846.145212</ele>
        <time>2021-04-25T08:02:19.000Z</time>
      </trkpt>
      <trkpt lat="44.54381" lon="6.04147">
        <ele>846.715354</ele>
        <time>2021-04-25T08:02:23.000Z</time>
      </trkpt>
      <trkpt lat="44.54379" lon="6.04143">
        <ele>846.991638</ele>
        <time>2021-04-25T08:02:25.000Z</time>
      </trkpt>
      <trkpt lat="44.54375" lon="6.04137">
        <ele>847.400896</ele>
        <time>2021-04-25T08:02:28.000Z</time>
      </trkpt>
      <trkpt lat="44.54373" lon="6.04134">
        <ele>847.674319</ele>
        <time>2021-04-25T08:02:30.000Z</time>
      </trkpt>
      <trkpt lat="44.54371" lon="6.04129">
        <ele>847.963839</ele>
        <time>2021-04-25T08:02:32.000Z</time>
      </trkpt>
      <trkpt lat="44.54369" lon="6.04125">
        <ele>848.249429</ele>
        <time>2021-04-25T08:02:34.000Z</time>
      </trkpt>
      <trkpt lat="44.54369" lon="6.04125">
        <ele>848.249429</ele>
        <time>2021-04-25T08:02:35.000Z</time>
      </trkpt>
      <trkpt lat="44.54367" lon="6.04121">
        <ele>848.525938</ele>
        <time>2021-04-25T08:02:36.000Z</time>
      </trkpt>
      <trkpt lat="44.54365" lon="6.04116">
        <ele>848.811528</ele>
        <time>2021-04-25T08:02:38.000Z</time>
      </trkpt>
      <trkpt lat="44.54363" lon="6.04111">
        <ele>849.093772</ele>
        <time>2021-04-25T08:02:40.000Z</time>
      </trkpt>
      <trkpt lat="44.54362" lon="6.04106">
        <ele>849.383064</ele>
        <time>2021-04-25T08:02:42.000Z</time>
      </trkpt>
      <trkpt lat="44.54361" lon="6.04098">
        <ele>849.836376</ele>
        <time>2021-04-25T08:02:45.000Z</time>
      </trkpt>
      <trkpt lat="44.5436" lon="6.0409">
        <ele>850.284939</ele>
        <time>2021-04-25T08:02:48.000Z</time>
      </trkpt>
      <trkpt lat="44.5436" lon="6.0409">
        <ele>850.284939</ele>
        <time>2021-04-25T08:02:50.000Z</time>
      </trkpt>
      <trkpt lat="44.54361" lon="6.04082">
        <ele>850.713127</ele>
        <time>2021-04-25T08:02:51.000Z</time>
      </trkpt>
      <trkpt lat="44.54362" lon="6.04077">
        <ele>850.99084</ele>
        <time>2021-04-25T08:02:53.000Z</time>
      </trkpt>
      <trkpt lat="44.54363" lon="6.04072">
        <ele>851.262736</ele>
        <time>2021-04-25T08:02:55.000Z</time>
      </trkpt>
      <trkpt lat="44.54363" lon="6.04072">
        <ele>851.262736</ele>
        <time>2021-04-25T08:02:56.000Z</time>
      </trkpt>
      <trkpt lat="44.54362" lon="6.04067">
        <ele>851.55064</ele>
        <time>2021-04-25T08:02:57.000Z</time>
      </trkpt>
      <trkpt lat="44.54362" lon="6.04061">
        <ele>851.842385</ele>
        <time>2021-04-25T08:02:59.000Z</time>
      </trkpt>
      <trkpt lat="44.5436" lon="6.04056">
        <ele>852.139496</ele>
        <time>2021-04-25T08:03:01.000Z</time>
      </trkpt>
      <trkpt lat="44.5436" lon="6.04056">
        <ele>852.139496</ele>
        <time>2021-04-25T08:03:02.000Z</time>
      </trkpt>
      <trkpt lat="44.54358" lon="6.04051">
        <ele>852.460528</ele>
        <time>2021-04-25T08:03:03.000Z</time>
      </trkpt>
      <trkpt lat="44.54356" lon="6.04046">
        <ele>852.754708</ele>
        <time>2021-04-25T08:03:05.000Z</time>
      </trkpt>
      <trkpt lat="44.54353" lon="6.04041">
        <ele>853.084003</ele>
        <time>2021-04-25T08:03:07.000Z</time>
      </trkpt>
      <trkpt lat="44.54352" lon="6.04036">
        <ele>853.400166</ele>
        <time>2021-04-25T08:03:09.000Z</time>
      </trkpt>
      <trkpt lat="44.54351" lon="6.0403">
        <ele>853.736178</ele>
        <time>2021-04-25T08:03:11.000Z</time>
      </trkpt>
      <trkpt lat="44.54355" lon="6.04024">
        <ele>854.183149</ele>
        <time>2021-04-25T08:03:14.000Z</time>
      </trkpt>
      <trkpt lat="44.54361" lon="6.0402">
        <ele>854.664215</ele>
        <time>2021-04-25T08:03:17.000Z</time>
      </trkpt>
      <trkpt lat="44.54367" lon="6.04016">
        <ele>854.999781</ele>
        <time>2021-04-25T08:03:20.000Z</time>
      </trkpt>
      <trkpt lat="44.54369" lon="6.0401">
        <ele>855.242136</ele>
        <time>2021-04-25T08:03:23.000Z</time>
      </trkpt>
      <trkpt lat="44.54368" lon="6.04005">
        <ele>855.436412</ele>
        <time>2021-04-25T08:03:25.000Z</time>
      </trkpt>
      <trkpt lat="44.54368" lon="6.04005">
        <ele>855.436412</ele>
        <time>2021-04-25T08:03:26.000Z</time>
      </trkpt>
      <trkpt lat="44.54367" lon="6.04">
        <ele>855.622363</ele>
        <time>2021-04-25T08:03:27.000Z</time>
      </trkpt>
      <trkpt lat="44.54364" lon="6.03995">
        <ele>855.840529</ele>
        <time>2021-04-25T08:03:30.000Z</time>
      </trkpt>
      <trkpt lat="44.54361" lon="6.0399">
        <ele>856.076183</ele>
        <time>2021-04-25T08:03:33.000Z</time>
      </trkpt>
      <trkpt lat="44.54359" lon="6.03984">
        <ele>856.297365</ele>
        <time>2021-04-25T08:03:36.000Z</time>
      </trkpt>
      <trkpt lat="44.54356" lon="6.03979">
        <ele>856.521984</ele>
        <time>2021-04-25T08:03:39.000Z</time>
      </trkpt>
      <trkpt lat="44.54355" lon="6.03975">
        <ele>856.677449</ele>
        <time>2021-04-25T08:03:41.000Z</time>
      </trkpt>
      <trkpt lat="44.54353" lon="6.0397">
        <ele>856.890035</ele>
        <time>2021-04-25T08:03:44.000Z</time>
      </trkpt>
      <trkpt lat="44.54353" lon="6.0397">
        <ele>856.890035</ele>
        <time>2021-04-25T08:03:45.000Z</time>
      </trkpt>
      <trkpt lat="44.5435" lon="6.03965">
        <ele>857.103634</ele>
        <time>2021-04-25T08:03:47.000Z</time>
      </trkpt>
      <trkpt lat="44.54349" lon="6.03961">
        <ele>857.256077</ele>
        <time>2021-04-25T08:03:49.000Z</time>
      </trkpt>
      <trkpt lat="44.54349" lon="6.03961">
        <ele>857.256077</ele>
        <time>2021-04-25T08:03:51.000Z</time>
      </trkpt>
      <trkpt lat="44.54346" lon="6.03956">
        <ele>857.479949</ele>
        <time>2021-04-25T08:03:52.000Z</time>
      </trkpt>
      <trkpt lat="44.54345" lon="6.03951">
        <ele>857.653942</ele>
        <time>2021-04-25T08:03:55.000Z</time>
      </trkpt>
      <trkpt lat="44.54343" lon="6.03948">
        <ele>857.786757</ele>
        <time>2021-04-25T08:03:57.000Z</time>
      </trkpt>
      <trkpt lat="44.54342" lon="6.03945">
        <ele>857.919572</ele>
        <time>2021-04-25T08:03:58.000Z</time>
      </trkpt>
      <trkpt lat="44.54341" lon="6.03941">
        <ele>858.046939</ele>
        <time>2021-04-25T08:04:01.000Z</time>
      </trkpt>
      <trkpt lat="44.54341" lon="6.03941">
        <ele>858.046939</ele>
        <time>2021-04-25T08:04:02.000Z</time>
      </trkpt>
      <trkpt lat="44.5434" lon="6.03938">
        <ele>858.185253</ele>
        <time>2021-04-25T08:04:03.000Z</time>
      </trkpt>
      <trkpt lat="44.54338" lon="6.03934">
        <ele>858.33214</ele>
        <time>2021-04-25T08:04:05.000Z</time>
      </trkpt>
      <trkpt lat="44.54336" lon="6.0393">
        <ele>858.499221</ele>
        <time>2021-04-25T08:04:07.000Z</time>
      </trkpt>
      <trkpt lat="44.54335" lon="6.03926">
        <ele>858.665852</ele>
        <time>2021-04-25T08:04:09.000Z</time>
      </trkpt>
      <trkpt lat="44.54333" lon="6.03922">
        <ele>858.84108</ele>
        <time>2021-04-25T08:04:11.000Z</time>
      </trkpt>
      <trkpt lat="44.54331" lon="6.03918">
        <ele>859.011215</ele>
        <time>2021-04-25T08:04:13.000Z</time>
      </trkpt>
      <trkpt lat="44.54329" lon="6.03913">
        <ele>859.189918</ele>
        <time>2021-04-25T08:04:15.000Z</time>
      </trkpt>
      <trkpt lat="44.54326" lon="6.03907">
        <ele>859.479891</ele>
        <time>2021-04-25T08:04:18.000Z</time>
      </trkpt>
      <trkpt lat="44.54324" lon="6.03901">
        <ele>859.716771</ele>
        <time>2021-04-25T08:04:20.000Z</time>
      </trkpt>
      <trkpt lat="44.54321" lon="6.03895">
        <ele>859.963747</ele>
        <time>2021-04-25T08:04:22.000Z</time>
      </trkpt>
      <trkpt lat="44.54319" lon="6.03889">
        <ele>860.204559</ele>
        <time>2021-04-25T08:04:24.000Z</time>
      </trkpt>
      <trkpt lat="44.54316" lon="6.03883">
        <ele>860.434732</ele>
        <time>2021-04-25T08:04:26.000Z</time>
      </trkpt>
      <trkpt lat="44.54314" lon="6.03877">
        <ele>860.658523</ele>
        <time>2021-04-25T08:04:28.000Z</time>
      </trkpt>
      <trkpt lat="44.54312" lon="6.03872">
        <ele>860.887676</ele>
        <time>2021-04-25T08:04:30.000Z</time>
      </trkpt>
      <trkpt lat="44.5431" lon="6.03866">
        <ele>861.10746</ele>
        <time>2021-04-25T08:04:32.000Z</time>
      </trkpt>
      <trkpt lat="44.54307" lon="6.03861">
        <ele>861.337024</ele>
        <time>2021-04-25T08:04:34.000Z</time>
      </trkpt>
      <trkpt lat="44.54304" lon="6.03856">
        <ele>861.569602</ele>
        <time>2021-04-25T08:04:36.000Z</time>
      </trkpt>
      <trkpt lat="44.54302" lon="6.0385">
        <ele>861.816579</ele>
        <time>2021-04-25T08:04:38.000Z</time>
      </trkpt>
      <trkpt lat="44.54299" lon="6.03844">
        <ele>862.054957</ele>
        <time>2021-04-25T08:04:40.000Z</time>
      </trkpt>
      <trkpt lat="44.54297" lon="6.03839">
        <ele>862.287433</ele>
        <time>2021-04-25T08:04:42.000Z</time>
      </trkpt>
      <trkpt lat="44.54294" lon="6.03833">
        <ele>862.525812</ele>
        <time>2021-04-25T08:04:44.000Z</time>
      </trkpt>
      <trkpt lat="44.54293" lon="6.0383">
        <ele>862.64919</ele>
        <time>2021-04-25T08:04:45.000Z</time>
      </trkpt>
      <trkpt lat="44.54291" lon="6.03827">
        <ele>862.7669</ele>
        <time>2021-04-25T08:04:46.000Z</time>
      </trkpt>
      <trkpt lat="44.5429" lon="6.03824">
        <ele>862.888079</ele>
        <time>2021-04-25T08:04:47.000Z</time>
      </trkpt>
      <trkpt lat="44.54288" lon="6.03819">
        <ele>863.120838</ele>
        <time>2021-04-25T08:04:49.000Z</time>
      </trkpt>
      <trkpt lat="44.54286" lon="6.03816">
        <ele>863.238548</ele>
        <time>2021-04-25T08:04:50.000Z</time>
      </trkpt>
      <trkpt lat="44.54284" lon="6.0381">
        <ele>863.460708</ele>
        <time>2021-04-25T08:04:52.000Z</time>
      </trkpt>
      <trkpt lat="44.54282" lon="6.03805">
        <ele>863.754181</ele>
        <time>2021-04-25T08:04:54.000Z</time>
      </trkpt>
      <trkpt lat="44.54282" lon="6.03805">
        <ele>863.754181</ele>
        <time>2021-04-25T08:04:55.000Z</time>
      </trkpt>
      <trkpt lat="44.54279" lon="6.03798">
        <ele>864.399702</ele>
        <time>2021-04-25T08:04:56.000Z</time>
      </trkpt>
      <trkpt lat="44.54277" lon="6.03792">
        <ele>865.025567</ele>
        <time>2021-04-25T08:04:58.000Z</time>
      </trkpt>
      <trkpt lat="44.54274" lon="6.03786">
        <ele>865.628814</ele>
        <time>2021-04-25T08:05:00.000Z</time>
      </trkpt>
      <trkpt lat="44.54272" lon="6.0378">
        <ele>866.216204</ele>
        <time>2021-04-25T08:05:02.000Z</time>
      </trkpt>
      <trkpt lat="44.54272" lon="6.0378">
        <ele>866.216204</ele>
        <time>2021-04-25T08:05:03.000Z</time>
      </trkpt>
      <trkpt lat="44.5427" lon="6.03775">
        <ele>866.723404</ele>
        <time>2021-04-25T08:05:04.000Z</time>
      </trkpt>
      <trkpt lat="44.54268" lon="6.0377">
        <ele>867.170383</ele>
        <time>2021-04-25T08:05:06.000Z</time>
      </trkpt>
      <trkpt lat="44.54266" lon="6.03763">
        <ele>867.867109</ele>
        <time>2021-04-25T08:05:09.000Z</time>
      </trkpt>
      <trkpt lat="44.54263" lon="6.03758">
        <ele>868.469194</ele>
        <time>2021-04-25T08:05:12.000Z</time>
      </trkpt>
      <trkpt lat="44.54263" lon="6.03758">
        <ele>868.469194</ele>
        <time>2021-04-25T08:05:14.000Z</time>
      </trkpt>
      <trkpt lat="44.5426" lon="6.03749">
        <ele>869.267201</ele>
        <time>2021-04-25T08:05:16.000Z</time>
      </trkpt>
      <trkpt lat="44.54258" lon="6.03743">
        <ele>869.843794</ele>
        <time>2021-04-25T08:05:19.000Z</time>
      </trkpt>
      <trkpt lat="44.54258" lon="6.03738">
        <ele>870.338689</ele>
        <time>2021-04-25T08:05:22.000Z</time>
      </trkpt>
      <trkpt lat="44.54263" lon="6.03734">
        <ele>870.954654</ele>
        <time>2021-04-25T08:05:25.000Z</time>
      </trkpt>
      <trkpt lat="44.54263" lon="6.03734">
        <ele>870.954654</ele>
        <time>2021-04-25T08:05:27.000Z</time>
      </trkpt>
      <trkpt lat="44.54268" lon="6.03733">
        <ele>871.615931</ele>
        <time>2021-04-25T08:05:28.000Z</time>
      </trkpt>
      <trkpt lat="44.54268" lon="6.03733">
        <ele>871.615931</ele>
        <time>2021-04-25T08:05:30.000Z</time>
      </trkpt>
      <trkpt lat="44.54274" lon="6.03734">
        <ele>872.335752</ele>
        <time>2021-04-25T08:05:31.000Z</time>
      </trkpt>
      <trkpt lat="44.54274" lon="6.03734">
        <ele>872.335752</ele>
        <time>2021-04-25T08:05:34.000Z</time>
      </trkpt>
      <trkpt lat="44.54281" lon="6.03738">
        <ele>873.292142</ele>
        <time>2021-04-25T08:05:35.000Z</time>
      </trkpt>
      <trkpt lat="44.54281" lon="6.03738">
        <ele>873.292142</ele>
        <time>2021-04-25T08:05:36.000Z</time>
      </trkpt>
      <trkpt lat="44.54289" lon="6.03744">
        <ele>874.352249</ele>
        <time>2021-04-25T08:05:39.000Z</time>
      </trkpt>
      <trkpt lat="44.54295" lon="6.03751">
        <ele>875.319532</ele>
        <time>2021-04-25T08:05:43.000Z</time>
      </trkpt>
      <trkpt lat="44.54301" lon="6.03756">
        <ele>876.14282</ele>
        <time>2021-04-25T08:05:46.000Z</time>
      </trkpt>
      <trkpt lat="44.54307" lon="6.0376">
        <ele>876.952485</ele>
        <time>2021-04-25T08:05:49.000Z</time>
      </trkpt>
      <trkpt lat="44.54314" lon="6.03763">
        <ele>877.86716</ele>
        <time>2021-04-25T08:05:53.000Z</time>
      </trkpt>
      <trkpt lat="44.54314" lon="6.03763">
        <ele>877.86716</ele>
        <time>2021-04-25T08:05:55.000Z</time>
      </trkpt>
      <trkpt lat="44.5432" lon="6.03762">
        <ele>878.638351</ele>
        <time>2021-04-25T08:05:57.000Z</time>
      </trkpt>
      <trkpt lat="44.5432" lon="6.03762">
        <ele>878.638351</ele>
        <time>2021-04-25T08:05:58.000Z</time>
      </trkpt>
      <trkpt lat="44.54327" lon="6.0376">
        <ele>879.4744</ele>
        <time>2021-04-25T08:06:02.000Z</time>
      </trkpt>
      <trkpt lat="44.54327" lon="6.0376">
        <ele>879.4744</ele>
        <time>2021-04-25T08:06:07.000Z</time>
      </trkpt>
      <trkpt lat="44.54334" lon="6.0376">
        <ele>880.327048</ele>
        <time>2021-04-25T08:06:09.000Z</time>
      </trkpt>
      <trkpt lat="44.54334" lon="6.0376">
        <ele>880.327048</ele>
        <time>2021-04-25T08:06:11.000Z</time>
      </trkpt>
      <trkpt lat="44.54334" lon="6.0376">
        <ele>880.327048</ele>
        <time>2021-04-25T08:06:15.000Z</time>
      </trkpt>
      <trkpt lat="44.54341" lon="6.03763">
        <ele>881.183121</ele>
        <time>2021-04-25T08:06:16.000Z</time>
      </trkpt>
      <trkpt lat="44.54341" lon="6.03763">
        <ele>881.183121</ele>
        <time>2021-04-25T08:06:21.000Z</time>
      </trkpt>
      <trkpt lat="44.54348" lon="6.03765">
        <ele>882.163614</ele>
        <time>2021-04-25T08:06:23.000Z</time>
      </trkpt>
      <trkpt lat="44.54348" lon="6.03765">
        <ele>882.163614</ele>
        <time>2021-04-25T08:06:26.000Z</time>
      </trkpt>
      <trkpt lat="44.54356" lon="6.03766">
        <ele>883.116718</ele>
        <time>2021-04-25T08:06:27.000Z</time>
      </trkpt>
      <trkpt lat="44.54356" lon="6.03766">
        <ele>883.116718</ele>
        <time>2021-04-25T08:06:32.000Z</time>
      </trkpt>
      <trkpt lat="44.54364" lon="6.03769">
        <ele>884.095096</ele>
        <time>2021-04-25T08:06:33.000Z</time>
      </trkpt>
      <trkpt lat="44.54364" lon="6.03769">
        <ele>884.095096</ele>
        <time>2021-04-25T08:06:37.000Z</time>
      </trkpt>
      <trkpt lat="44.54371" lon="6.03773">
        <ele>885.023646</ele>
        <time>2021-04-25T08:06:39.000Z</time>
      </trkpt>
      <trkpt lat="44.54371" lon="6.03773">
        <ele>885.023646</ele>
        <time>2021-04-25T08:06:42.000Z</time>
      </trkpt>
      <trkpt lat="44.54378" lon="6.03774">
        <ele>885.874034</ele>
        <time>2021-04-25T08:06:44.000Z</time>
      </trkpt>
      <trkpt lat="44.54378" lon="6.03774">
        <ele>885.874034</ele>
        <time>2021-04-25T08:06:45.000Z</time>
      </trkpt>
      <trkpt lat="44.5438" lon="6.03767">
        <ele>886.65207</ele>
        <time>2021-04-25T08:06:48.000Z</time>
      </trkpt>
      <trkpt lat="44.5438" lon="6.03767">
        <ele>886.65207</ele>
        <time>2021-04-25T08:06:51.000Z</time>
      </trkpt>
      <trkpt lat="44.54379" lon="6.03758">
        <ele>887.587584</ele>
        <time>2021-04-25T08:06:53.000Z</time>
      </trkpt>
      <trkpt lat="44.54379" lon="6.03758">
        <ele>887.587584</ele>
        <time>2021-04-25T08:06:55.000Z</time>
      </trkpt>
      <trkpt lat="44.54379" lon="6.03758">
        <ele>887.587584</ele>
        <time>2021-04-25T08:06:56.000Z</time>
      </trkpt>
      <trkpt lat="44.54377" lon="6.03749">
        <ele>888.593183</ele>
        <time>2021-04-25T08:06:58.000Z</time>
      </trkpt>
      <trkpt lat="44.54377" lon="6.03749">
        <ele>888.593183</ele>
        <time>2021-04-25T08:07:00.000Z</time>
      </trkpt>
      <trkpt lat="44.54375" lon="6.03741">
        <ele>889.466463</ele>
        <time>2021-04-25T08:07:02.000Z</time>
      </trkpt>
      <trkpt lat="44.54375" lon="6.03741">
        <ele>889.466463</ele>
        <time>2021-04-25T08:07:05.000Z</time>
      </trkpt>
      <trkpt lat="44.54375" lon="6.03741">
        <ele>889.466463</ele>
        <time>2021-04-25T08:07:09.000Z</time>
      </trkpt>
      <trkpt lat="44.54378" lon="6.03732">
        <ele>890.51739</ele>
        <time>2021-04-25T08:07:10.000Z</time>
      </trkpt>
      <trkpt lat="44.54378" lon="6.03732">
        <ele>890.51739</ele>
        <time>2021-04-25T08:07:14.000Z</time>
      </trkpt>
      <trkpt lat="44.54384" lon="6.03735">
        <ele>891.478714</ele>
        <time>2021-04-25T08:07:16.000Z</time>
      </trkpt>
      <trkpt lat="44.54389" lon="6.0374">
        <ele>892.447374</ele>
        <time>2021-04-25T08:07:23.000Z</time>
      </trkpt>
      <trkpt lat="44.54389" lon="6.0374">
        <ele>892.447374</ele>
        <time>2021-04-25T08:07:28.000Z</time>
      </trkpt>
      <trkpt lat="44.54396" lon="6.03743">
        <ele>893.493614</ele>
        <time>2021-04-25T08:07:30.000Z</time>
      </trkpt>
      <trkpt lat="44.54396" lon="6.03743">
        <ele>893.493614</ele>
        <time>2021-04-25T08:07:31.000Z</time>
      </trkpt>
      <trkpt lat="44.54396" lon="6.03743">
        <ele>893.493614</ele>
        <time>2021-04-25T08:07:35.000Z</time>
      </trkpt>
      <trkpt lat="44.54403" lon="6.03746">
        <ele>894.489491</ele>
        <time>2021-04-25T08:07:37.000Z</time>
      </trkpt>
      <trkpt lat="44.54403" lon="6.03746">
        <ele>894.489491</ele>
        <time>2021-04-25T08:07:38.000Z</time>
      </trkpt>
      <trkpt lat="44.5441" lon="6.03749">
        <ele>895.592118</ele>
        <time>2021-04-25T08:07:42.000Z</time>
      </trkpt>
      <trkpt lat="44.54416" lon="6.03754">
        <ele>896.651153</ele>
        <time>2021-04-25T08:07:48.000Z</time>
      </trkpt>
      <trkpt lat="44.54416" lon="6.03754">
        <ele>896.651153</ele>
        <time>2021-04-25T08:07:51.000Z</time>
      </trkpt>
      <trkpt lat="44.54422" lon="6.03759">
        <ele>897.632976</ele>
        <time>2021-04-25T08:07:53.000Z</time>
      </trkpt>
      <trkpt lat="44.54429" lon="6.03765">
        <ele>898.865943</ele>
        <time>2021-04-25T08:07:58.000Z</time>
      </trkpt>
      <trkpt lat="44.54429" lon="6.03765">
        <ele>898.865943</ele>
        <time>2021-04-25T08:08:01.000Z</time>
      </trkpt>
      <trkpt lat="44.54439" lon="6.0377">
        <ele>900.353456</ele>
        <time>2021-04-25T08:08:03.000Z</time>
      </trkpt>
      <trkpt lat="44.54439" lon="6.0377">
        <ele>900.353456</ele>
        <time>2021-04-25T08:08:08.000Z</time>
      </trkpt>
      <trkpt lat="44.54448" lon="6.03772">
        <ele>901.669915</ele>
        <time>2021-04-25T08:08:10.000Z</time>
      </trkpt>
      <trkpt lat="44.54448" lon="6.03772">
        <ele>901.669915</ele>
        <time>2021-04-25T08:08:11.000Z</time>
      </trkpt>
      <trkpt lat="44.54455" lon="6.03776">
        <ele>902.859811</ele>
        <time>2021-04-25T08:08:18.000Z</time>
      </trkpt>
      <trkpt lat="44.54462" lon="6.03776">
        <ele>903.809229</ele>
        <time>2021-04-25T08:08:22.000Z</time>
      </trkpt>
      <trkpt lat="44.54462" lon="6.03776">
        <ele>903.809229</ele>
        <time>2021-04-25T08:08:23.000Z</time>
      </trkpt>
      <trkpt lat="44.54468" lon="6.03779">
        <ele>904.825772</ele>
        <time>2021-04-25T08:08:26.000Z</time>
      </trkpt>
      <trkpt lat="44.54474" lon="6.03782">
        <ele>905.643055</ele>
        <time>2021-04-25T08:08:29.000Z</time>
      </trkpt>
      <trkpt lat="44.54474" lon="6.03782">
        <ele>905.643055</ele>
        <time>2021-04-25T08:08:30.000Z</time>
      </trkpt>
      <trkpt lat="44.54479" lon="6.03785">
        <ele>906.470202</ele>
        <time>2021-04-25T08:08:32.000Z</time>
      </trkpt>
      <trkpt lat="44.54484" lon="6.03788">
        <ele>907.251039</ele>
        <time>2021-04-25T08:08:35.000Z</time>
      </trkpt>
      <trkpt lat="44.54489" lon="6.0379">
        <ele>908.095535</ele>
        <time>2021-04-25T08:08:38.000Z</time>
      </trkpt>
      <trkpt lat="44.54489" lon="6.0379">
        <ele>908.095535</ele>
        <time>2021-04-25T08:08:40.000Z</time>
      </trkpt>
      <trkpt lat="44.54494" lon="6.03795">
        <ele>908.986718</ele>
        <time>2021-04-25T08:08:42.000Z</time>
      </trkpt>
      <trkpt lat="44.54501" lon="6.03797">
        <ele>909.923729</ele>
        <time>2021-04-25T08:08:47.000Z</time>
      </trkpt>
      <trkpt lat="44.54504" lon="6.03793">
        <ele>910.581495</ele>
        <time>2021-04-25T08:08:52.000Z</time>
      </trkpt>
      <trkpt lat="44.54507" lon="6.03786">
        <ele>911.328957</ele>
        <time>2021-04-25T08:08:57.000Z</time>
      </trkpt>
      <trkpt lat="44.5451" lon="6.03781">
        <ele>912.015081</ele>
        <time>2021-04-25T08:09:01.000Z</time>
      </trkpt>
      <trkpt lat="44.5451" lon="6.03781">
        <ele>912.015081</ele>
        <time>2021-04-25T08:09:03.000Z</time>
      </trkpt>
      <trkpt lat="44.54512" lon="6.03776">
        <ele>912.619413</ele>
        <time>2021-04-25T08:09:05.000Z</time>
      </trkpt>
      <trkpt lat="44.54512" lon="6.03776">
        <ele>912.619413</ele>
        <time>2021-04-25T08:09:08.000Z</time>
      </trkpt>
      <trkpt lat="44.54515" lon="6.0377">
        <ele>913.303494</ele>
        <time>2021-04-25T08:09:09.000Z</time>
      </trkpt>
      <trkpt lat="44.54516" lon="6.03764">
        <ele>913.974318</ele>
        <time>2021-04-25T08:09:13.000Z</time>
      </trkpt>
      <trkpt lat="44.54513" lon="6.03758">
        <ele>914.658399</ele>
        <time>2021-04-25T08:09:17.000Z</time>
      </trkpt>
      <trkpt lat="44.54513" lon="6.03758">
        <ele>914.658399</ele>
        <time>2021-04-25T08:09:19.000Z</time>
      </trkpt>
      <trkpt lat="44.54509" lon="6.0375">
        <ele>915.561262</ele>
        <time>2021-04-25T08:09:22.000Z</time>
      </trkpt>
      <trkpt lat="44.54509" lon="6.0375">
        <ele>915.561262</ele>
        <time>2021-04-25T08:09:25.000Z</time>
      </trkpt>
      <trkpt lat="44.54507" lon="6.03741">
        <ele>916.558189</ele>
        <time>2021-04-25T08:09:28.000Z</time>
      </trkpt>
      <trkpt lat="44.54507" lon="6.03741">
        <ele>916.558189</ele>
        <time>2021-04-25T08:09:32.000Z</time>
      </trkpt>
      <trkpt lat="44.54507" lon="6.03741">
        <ele>916.558189</ele>
        <time>2021-04-25T08:09:34.000Z</time>
      </trkpt>
      <trkpt lat="44.54505" lon="6.0373">
        <ele>917.640965</ele>
        <time>2021-04-25T08:09:35.000Z</time>
      </trkpt>
      <trkpt lat="44.54505" lon="6.0373">
        <ele>917.640965</ele>
        <time>2021-04-25T08:09:37.000Z</time>
      </trkpt>
      <trkpt lat="44.54505" lon="6.0373">
        <ele>917.640965</ele>
        <time>2021-04-25T08:09:38.000Z</time>
      </trkpt>
      <trkpt lat="44.54505" lon="6.0373">
        <ele>917.640965</ele>
        <time>2021-04-25T08:09:40.000Z</time>
      </trkpt>
      <trkpt lat="44.54504" lon="6.03717">
        <ele>918.92945</ele>
        <time>2021-04-25T08:09:43.000Z</time>
      </trkpt>
      <trkpt lat="44.54504" lon="6.03717">
        <ele>918.92945</ele>
        <time>2021-04-25T08:09:44.000Z</time>
      </trkpt>
      <trkpt lat="44.54514" lon="6.03712">
        <ele>920.379006</ele>
        <time>2021-04-25T08:09:51.000Z</time>
      </trkpt>
      <trkpt lat="44.54514" lon="6.03712">
        <ele>920.379006</ele>
        <time>2021-04-25T08:09:54.000Z</time>
      </trkpt>
      <trkpt lat="44.5452" lon="6.03715">
        <ele>921.363746</ele>
        <time>2021-04-25T08:09:59.000Z</time>
      </trkpt>
      <trkpt lat="44.5452" lon="6.03715">
        <ele>921.363746</ele>
        <time>2021-04-25T08:10:04.000Z</time>
      </trkpt>
      <trkpt lat="44.54527" lon="6.03717">
        <ele>922.373764</ele>
        <time>2021-04-25T08:10:05.000Z</time>
      </trkpt>
      <trkpt lat="44.54527" lon="6.03717">
        <ele>922.373764</ele>
        <time>2021-04-25T08:10:06.000Z</time>
      </trkpt>
      <trkpt lat="44.54535" lon="6.03717">
        <ele>923.386407</ele>
        <time>2021-04-25T08:10:12.000Z</time>
      </trkpt>
      <trkpt lat="44.54541" lon="6.03718">
        <ele>924.291378</ele>
        <time>2021-04-25T08:10:16.000Z</time>
      </trkpt>
      <trkpt lat="44.54541" lon="6.03718">
        <ele>924.291378</ele>
        <time>2021-04-25T08:10:17.000Z</time>
      </trkpt>
      <trkpt lat="44.54541" lon="6.03718">
        <ele>924.291378</ele>
        <time>2021-04-25T08:10:20.000Z</time>
      </trkpt>
      <trkpt lat="44.54548" lon="6.03716">
        <ele>925.242564</ele>
        <time>2021-04-25T08:10:21.000Z</time>
      </trkpt>
      <trkpt lat="44.54548" lon="6.03716">
        <ele>925.242564</ele>
        <time>2021-04-25T08:10:27.000Z</time>
      </trkpt>
      <trkpt lat="44.54555" lon="6.03715">
        <ele>926.262117</ele>
        <time>2021-04-25T08:10:28.000Z</time>
      </trkpt>
      <trkpt lat="44.54555" lon="6.03715">
        <ele>926.262117</ele>
        <time>2021-04-25T08:10:30.000Z</time>
      </trkpt>
      <trkpt lat="44.54555" lon="6.03715">
        <ele>926.262117</ele>
        <time>2021-04-25T08:10:32.000Z</time>
      </trkpt>
      <trkpt lat="44.54564" lon="6.03713">
        <ele>927.449098</ele>
        <time>2021-04-25T08:10:36.000Z</time>
      </trkpt>
      <trkpt lat="44.54571" lon="6.03709">
        <ele>928.567953</ele>
        <time>2021-04-25T08:10:43.000Z</time>
      </trkpt>
      <trkpt lat="44.54579" lon="6.03708">
        <ele>929.610101</ele>
        <time>2021-04-25T08:10:49.000Z</time>
      </trkpt>
      <trkpt lat="44.54579" lon="6.03708">
        <ele>929.610101</ele>
        <time>2021-04-25T08:10:53.000Z</time>
      </trkpt>
      <trkpt lat="44.54586" lon="6.0371">
        <ele>930.580745</ele>
        <time>2021-04-25T08:10:56.000Z</time>
      </trkpt>
      <trkpt lat="44.54586" lon="6.0371">
        <ele>930.580745</ele>
        <time>2021-04-25T08:11:00.000Z</time>
      </trkpt>
      <trkpt lat="44.54593" lon="6.0371">
        <ele>931.578769</ele>
        <time>2021-04-25T08:11:03.000Z</time>
      </trkpt>
      <trkpt lat="44.54593" lon="6.0371">
        <ele>931.578769</ele>
        <time>2021-04-25T08:11:04.000Z</time>
      </trkpt>
      <trkpt lat="44.54593" lon="6.0371">
        <ele>931.578769</ele>
        <time>2021-04-25T08:11:07.000Z</time>
      </trkpt>
      <trkpt lat="44.54599" lon="6.03709">
        <ele>932.495138</ele>
        <time>2021-04-25T08:11:09.000Z</time>
      </trkpt>
      <trkpt lat="44.54599" lon="6.03709">
        <ele>932.495138</ele>
        <time>2021-04-25T08:11:12.000Z</time>
      </trkpt>
      <trkpt lat="44.54605" lon="6.03709">
        <ele>933.340544</ele>
        <time>2021-04-25T08:11:14.000Z</time>
      </trkpt>
      <trkpt lat="44.54612" lon="6.03709">
        <ele>934.255209</ele>
        <time>2021-04-25T08:11:19.000Z</time>
      </trkpt>
      <trkpt lat="44.54612" lon="6.03709">
        <ele>934.255209</ele>
        <time>2021-04-25T08:11:21.000Z</time>
      </trkpt>
      <trkpt lat="44.5462" lon="6.0371">
        <ele>935.31048</ele>
        <time>2021-04-25T08:11:25.000Z</time>
      </trkpt>
      <trkpt lat="44.54628" lon="6.03712">
        <ele>936.432544</ele>
        <time>2021-04-25T08:11:31.000Z</time>
      </trkpt>
      <trkpt lat="44.54628" lon="6.03712">
        <ele>936.432544</ele>
        <time>2021-04-25T08:11:34.000Z</time>
      </trkpt>
      <trkpt lat="44.54628" lon="6.03712">
        <ele>936.432544</ele>
        <time>2021-04-25T08:11:35.000Z</time>
      </trkpt>
      <trkpt lat="44.54635" lon="6.03716">
        <ele>936.85939</ele>
        <time>2021-04-25T08:11:36.000Z</time>
      </trkpt>
      <trkpt lat="44.54635" lon="6.03716">
        <ele>936.85939</ele>
        <time>2021-04-25T08:11:38.000Z</time>
      </trkpt>
      <trkpt lat="44.54641" lon="6.0372">
        <ele>937.033664</ele>
        <time>2021-04-25T08:11:40.000Z</time>
      </trkpt>
      <trkpt lat="44.54648" lon="6.03725">
        <ele>937.22165</ele>
        <time>2021-04-25T08:11:45.000Z</time>
      </trkpt>
      <trkpt lat="44.54655" lon="6.03727">
        <ele>937.40452</ele>
        <time>2021-04-25T08:11:49.000Z</time>
      </trkpt>
      <trkpt lat="44.54655" lon="6.03727">
        <ele>937.40452</ele>
        <time>2021-04-25T08:11:52.000Z</time>
      </trkpt>
      <trkpt lat="44.54663" lon="6.03732">
        <ele>937.634343</ele>
        <time>2021-04-25T08:11:54.000Z</time>
      </trkpt>
      <trkpt lat="44.54668" lon="6.03737">
        <ele>937.790824</ele>
        <time>2021-04-25T08:11:58.000Z</time>
      </trkpt>
      <trkpt lat="44.54674" lon="6.03739">
        <ele>937.930562</ele>
        <time>2021-04-25T08:12:01.000Z</time>
      </trkpt>
      <trkpt lat="44.5468" lon="6.03743">
        <ele>938.100363</ele>
        <time>2021-04-25T08:12:05.000Z</time>
      </trkpt>
      <trkpt lat="44.54685" lon="6.03747">
        <ele>938.258644</ele>
        <time>2021-04-25T08:12:09.000Z</time>
      </trkpt>
      <trkpt lat="44.54685" lon="6.03747">
        <ele>938.258644</ele>
        <time>2021-04-25T08:12:11.000Z</time>
      </trkpt>
      <trkpt lat="44.54693" lon="6.03749">
        <ele>938.464452</ele>
        <time>2021-04-25T08:12:14.000Z</time>
      </trkpt>
      <trkpt lat="44.54701" lon="6.03752">
        <ele>938.658579</ele>
        <time>2021-04-25T08:12:19.000Z</time>
      </trkpt>
      <trkpt lat="44.54706" lon="6.03753">
        <ele>938.781153</ele>
        <time>2021-04-25T08:12:22.000Z</time>
      </trkpt>
      <trkpt lat="44.5471" lon="6.03756">
        <ele>938.902915</ele>
        <time>2021-04-25T08:12:25.000Z</time>
      </trkpt>
      <trkpt lat="44.5471" lon="6.03756">
        <ele>938.902915</ele>
        <time>2021-04-25T08:12:27.000Z</time>
      </trkpt>
      <trkpt lat="44.54715" lon="6.03759">
        <ele>939.044613</ele>
        <time>2021-04-25T08:12:28.000Z</time>
      </trkpt>
      <trkpt lat="44.54719" lon="6.03762">
        <ele>939.165061</ele>
        <time>2021-04-25T08:12:31.000Z</time>
      </trkpt>
      <trkpt lat="44.54719" lon="6.03762">
        <ele>939.165061</ele>
        <time>2021-04-25T08:12:34.000Z</time>
      </trkpt>
      <trkpt lat="44.54726" lon="6.03769">
        <ele>939.363661</ele>
        <time>2021-04-25T08:12:35.000Z</time>
      </trkpt>
      <trkpt lat="44.54729" lon="6.03774">
        <ele>939.49259</ele>
        <time>2021-04-25T08:12:37.000Z</time>
      </trkpt>
      <trkpt lat="44.54732" lon="6.03781">
        <ele>939.627296</ele>
        <time>2021-04-25T08:12:39.000Z</time>
      </trkpt>
      <trkpt lat="44.54732" lon="6.03781">
        <ele>939.627296</ele>
        <time>2021-04-25T08:12:40.000Z</time>
      </trkpt>
      <trkpt lat="44.54736" lon="6.03791">
        <ele>939.836855</ele>
        <time>2021-04-25T08:12:42.000Z</time>
      </trkpt>
      <trkpt lat="44.54736" lon="6.03791">
        <ele>939.836855</ele>
        <time>2021-04-25T08:12:43.000Z</time>
      </trkpt>
      <trkpt lat="44.54743" lon="6.03802">
        <ele>940.096282</ele>
        <time>2021-04-25T08:12:46.000Z</time>
      </trkpt>
      <trkpt lat="44.54747" lon="6.03807">
        <ele>940.240114</ele>
        <time>2021-04-25T08:12:49.000Z</time>
      </trkpt>
      <trkpt lat="44.54747" lon="6.03807">
        <ele>940.240114</ele>
        <time>2021-04-25T08:12:51.000Z</time>
      </trkpt>
      <trkpt lat="44.54747" lon="6.03807">
        <ele>940.240114</ele>
        <time>2021-04-25T08:12:52.000Z</time>
      </trkpt>
      <trkpt lat="44.54751" lon="6.03814">
        <ele>940.398086</ele>
        <time>2021-04-25T08:12:53.000Z</time>
      </trkpt>
      <trkpt lat="44.54751" lon="6.03814">
        <ele>940.398086</ele>
        <time>2021-04-25T08:12:55.000Z</time>
      </trkpt>
      <trkpt lat="44.54758" lon="6.03817">
        <ele>940.579423</ele>
        <time>2021-04-25T08:12:56.000Z</time>
      </trkpt>
      <trkpt lat="44.54766" lon="6.03822">
        <ele>940.796387</ele>
        <time>2021-04-25T08:12:59.000Z</time>
      </trkpt>
      <trkpt lat="44.54773" lon="6.03825">
        <ele>940.987279</ele>
        <time>2021-04-25T08:13:01.000Z</time>
      </trkpt>
      <trkpt lat="44.54773" lon="6.03825">
        <ele>940.987279</ele>
        <time>2021-04-25T08:13:02.000Z</time>
      </trkpt>
      <trkpt lat="44.5478" lon="6.03828">
        <ele>941.162004</ele>
        <time>2021-04-25T08:13:03.000Z</time>
      </trkpt>
      <trkpt lat="44.54786" lon="6.03824">
        <ele>941.3394</ele>
        <time>2021-04-25T08:13:06.000Z</time>
      </trkpt>
      <trkpt lat="44.54788" lon="6.03817">
        <ele>941.471512</ele>
        <time>2021-04-25T08:13:09.000Z</time>
      </trkpt>
      <trkpt lat="44.54789" lon="6.03812">
        <ele>941.568061</ele>
        <time>2021-04-25T08:13:11.000Z</time>
      </trkpt>
      <trkpt lat="44.5479" lon="6.03807">
        <ele>941.667155</ele>
        <time>2021-04-25T08:13:13.000Z</time>
      </trkpt>
      <trkpt lat="44.54791" lon="6.03803">
        <ele>941.75438</ele>
        <time>2021-04-25T08:13:15.000Z</time>
      </trkpt>
      <trkpt lat="44.54793" lon="6.03799">
        <ele>941.845521</ele>
        <time>2021-04-25T08:13:17.000Z</time>
      </trkpt>
      <trkpt lat="44.54795" lon="6.03795">
        <ele>941.934172</ele>
        <time>2021-04-25T08:13:19.000Z</time>
      </trkpt>
      <trkpt lat="44.54798" lon="6.03789">
        <ele>942.072443</ele>
        <time>2021-04-25T08:13:22.000Z</time>
      </trkpt>
      <trkpt lat="44.54798" lon="6.03789">
        <ele>942.072443</ele>
        <time>2021-04-25T08:13:23.000Z</time>
      </trkpt>
      <trkpt lat="44.54802" lon="6.03783">
        <ele>942.209589</ele>
        <time>2021-04-25T08:13:25.000Z</time>
      </trkpt>
      <trkpt lat="44.54803" lon="6.03776">
        <ele>942.342549</ele>
        <time>2021-04-25T08:13:28.000Z</time>
      </trkpt>
      <trkpt lat="44.54805" lon="6.03771">
        <ele>942.444224</ele>
        <time>2021-04-25T08:13:30.000Z</time>
      </trkpt>
      <trkpt lat="44.54806" lon="6.03766">
        <ele>942.543318</ele>
        <time>2021-04-25T08:13:32.000Z</time>
      </trkpt>
      <trkpt lat="44.54807" lon="6.03761">
        <ele>942.636106</ele>
        <time>2021-04-25T08:13:34.000Z</time>
      </trkpt>
      <trkpt lat="44.54809" lon="6.03757">
        <ele>942.729456</ele>
        <time>2021-04-25T08:13:36.000Z</time>
      </trkpt>
      <trkpt lat="44.54809" lon="6.03757">
        <ele>942.729456</ele>
        <time>2021-04-25T08:13:37.000Z</time>
      </trkpt>
      <trkpt lat="44.54812" lon="6.03753">
        <ele>942.836342</ele>
        <time>2021-04-25T08:13:38.000Z</time>
      </trkpt>
      <trkpt lat="44.54815" lon="6.03748">
        <ele>942.94381</ele>
        <time>2021-04-25T08:13:40.000Z</time>
      </trkpt>
      <trkpt lat="44.54818" lon="6.03745">
        <ele>943.052343</ele>
        <time>2021-04-25T08:13:42.000Z</time>
      </trkpt>
      <trkpt lat="44.54822" lon="6.03741">
        <ele>943.166142</ele>
        <time>2021-04-25T08:13:44.000Z</time>
      </trkpt>
      <trkpt lat="44.54826" lon="6.03739">
        <ele>943.287331</ele>
        <time>2021-04-25T08:13:46.000Z</time>
      </trkpt>
      <trkpt lat="44.5483" lon="6.03736">
        <ele>943.408893</ele>
        <time>2021-04-25T08:13:48.000Z</time>
      </trkpt>
      <trkpt lat="44.54833" lon="6.03735">
        <ele>943.471232</ele>
        <time>2021-04-25T08:13:49.000Z</time>
      </trkpt>
      <trkpt lat="44.54838" lon="6.03734">
        <ele>943.599705</ele>
        <time>2021-04-25T08:13:51.000Z</time>
      </trkpt>
      <trkpt lat="44.54842" lon="6.03733">
        <ele>943.724849</ele>
        <time>2021-04-25T08:13:53.000Z</time>
      </trkpt>
      <trkpt lat="44.54847" lon="6.03733">
        <ele>943.851829</ele>
        <time>2021-04-25T08:13:55.000Z</time>
      </trkpt>
      <trkpt lat="44.54852" lon="6.03733">
        <ele>943.981331</ele>
        <time>2021-04-25T08:13:57.000Z</time>
      </trkpt>
      <trkpt lat="44.54852" lon="6.03733">
        <ele>943.981331</ele>
        <time>2021-04-25T08:13:58.000Z</time>
      </trkpt>
      <trkpt lat="44.54857" lon="6.03733">
        <ele>944.110897</ele>
        <time>2021-04-25T08:13:59.000Z</time>
      </trkpt>
      <trkpt lat="44.54862" lon="6.03732">
        <ele>944.23777</ele>
        <time>2021-04-25T08:14:01.000Z</time>
      </trkpt>
      <trkpt lat="44.54867" lon="6.03732">
        <ele>944.362383</ele>
        <time>2021-04-25T08:14:03.000Z</time>
      </trkpt>
      <trkpt lat="44.54869" lon="6.03731">
        <ele>944.427761</ele>
        <time>2021-04-25T08:14:04.000Z</time>
      </trkpt>
      <trkpt lat="44.54872" lon="6.03731">
        <ele>944.493762</ele>
        <time>2021-04-25T08:14:05.000Z</time>
      </trkpt>
      <trkpt lat="44.54874" lon="6.0373">
        <ele>944.557626</ele>
        <time>2021-04-25T08:14:06.000Z</time>
      </trkpt>
      <trkpt lat="44.54877" lon="6.03729">
        <ele>944.616955</ele>
        <time>2021-04-25T08:14:07.000Z</time>
      </trkpt>
      <trkpt lat="44.54879" lon="6.03728">
        <ele>944.675794</ele>
        <time>2021-04-25T08:14:08.000Z</time>
      </trkpt>
      <trkpt lat="44.54881" lon="6.03727">
        <ele>944.733207</ele>
        <time>2021-04-25T08:14:09.000Z</time>
      </trkpt>
      <trkpt lat="44.54883" lon="6.03726">
        <ele>944.790621</ele>
        <time>2021-04-25T08:14:10.000Z</time>
      </trkpt>
      <trkpt lat="44.54885" lon="6.03725">
        <ele>944.845589</ele>
        <time>2021-04-25T08:14:11.000Z</time>
      </trkpt>
      <trkpt lat="44.54887" lon="6.03724">
        <ele>944.905014</ele>
        <time>2021-04-25T08:14:12.000Z</time>
      </trkpt>
      <trkpt lat="44.54891" lon="6.03721">
        <ele>945.017604</ele>
        <time>2021-04-25T08:14:14.000Z</time>
      </trkpt>
      <trkpt lat="44.54893" lon="6.0372">
        <ele>945.074972</ele>
        <time>2021-04-25T08:14:15.000Z</time>
      </trkpt>
      <trkpt lat="44.54897" lon="6.03716">
        <ele>945.194827</ele>
        <time>2021-04-25T08:14:17.000Z</time>
      </trkpt>
      <trkpt lat="44.549" lon="6.03713">
        <ele>945.308331</ele>
        <time>2021-04-25T08:14:19.000Z</time>
      </trkpt>
      <trkpt lat="44.54904" lon="6.03709">
        <ele>945.419601</ele>
        <time>2021-04-25T08:14:21.000Z</time>
      </trkpt>
      <trkpt lat="44.54907" lon="6.03705">
        <ele>945.533294</ele>
        <time>2021-04-25T08:14:23.000Z</time>
      </trkpt>
      <trkpt lat="44.54911" lon="6.03702">
        <ele>945.646745</ele>
        <time>2021-04-25T08:14:25.000Z</time>
      </trkpt>
      <trkpt lat="44.54914" lon="6.03698">
        <ele>945.759279</ele>
        <time>2021-04-25T08:14:27.000Z</time>
      </trkpt>
      <trkpt lat="44.54916" lon="6.03696">
        <ele>945.817594</ele>
        <time>2021-04-25T08:14:28.000Z</time>
      </trkpt>
      <trkpt lat="44.54918" lon="6.03694">
        <ele>945.873861</ele>
        <time>2021-04-25T08:14:29.000Z</time>
      </trkpt>
      <trkpt lat="44.54919" lon="6.03692">
        <ele>945.954979</ele>
        <time>2021-04-25T08:14:30.000Z</time>
      </trkpt>
      <trkpt lat="44.54921" lon="6.0369">
        <ele>946.085674</ele>
        <time>2021-04-25T08:14:31.000Z</time>
      </trkpt>
      <trkpt lat="44.54924" lon="6.03686">
        <ele>946.349035</ele>
        <time>2021-04-25T08:14:33.000Z</time>
      </trkpt>
      <trkpt lat="44.54928" lon="6.03682">
        <ele>946.605246</ele>
        <time>2021-04-25T08:14:35.000Z</time>
      </trkpt>
      <trkpt lat="44.54931" lon="6.03678">
        <ele>946.863436</ele>
        <time>2021-04-25T08:14:37.000Z</time>
      </trkpt>
      <trkpt lat="44.54933" lon="6.03676">
        <ele>946.99485</ele>
        <time>2021-04-25T08:14:38.000Z</time>
      </trkpt>
      <trkpt lat="44.54935" lon="6.03674">
        <ele>947.123808</ele>
        <time>2021-04-25T08:14:39.000Z</time>
      </trkpt>
      <trkpt lat="44.54937" lon="6.03673">
        <ele>947.252765</ele>
        <time>2021-04-25T08:14:40.000Z</time>
      </trkpt>
      <trkpt lat="44.54937" lon="6.03673">
        <ele>947.252765</ele>
        <time>2021-04-25T08:14:41.000Z</time>
      </trkpt>
      <trkpt lat="44.54941" lon="6.0367">
        <ele>947.509215</ele>
        <time>2021-04-25T08:14:42.000Z</time>
      </trkpt>
      <trkpt lat="44.54944" lon="6.03666">
        <ele>947.76778</ele>
        <time>2021-04-25T08:14:44.000Z</time>
      </trkpt>
      <trkpt lat="44.54948" lon="6.03664">
        <ele>948.016287</ele>
        <time>2021-04-25T08:14:46.000Z</time>
      </trkpt>
      <trkpt lat="44.54952" lon="6.03661">
        <ele>948.257713</ele>
        <time>2021-04-25T08:14:48.000Z</time>
      </trkpt>
      <trkpt lat="44.54956" lon="6.0366">
        <ele>948.487107</ele>
        <time>2021-04-25T08:14:50.000Z</time>
      </trkpt>
      <trkpt lat="44.5496" lon="6.03662">
        <ele>948.755698</ele>
        <time>2021-04-25T08:14:52.000Z</time>
      </trkpt>
      <trkpt lat="44.54965" lon="6.03668">
        <ele>949.137834</ele>
        <time>2021-04-25T08:14:54.000Z</time>
      </trkpt>
      <trkpt lat="44.54969" lon="6.0367">
        <ele>949.35864</ele>
        <time>2021-04-25T08:14:55.000Z</time>
      </trkpt>
      <trkpt lat="44.54975" lon="6.0367">
        <ele>949.733171</ele>
        <time>2021-04-25T08:14:57.000Z</time>
      </trkpt>
      <trkpt lat="44.5498" lon="6.03667">
        <ele>950.031075</ele>
        <time>2021-04-25T08:14:59.000Z</time>
      </trkpt>
      <trkpt lat="44.54984" lon="6.03663">
        <ele>950.313971</ele>
        <time>2021-04-25T08:15:01.000Z</time>
      </trkpt>
      <trkpt lat="44.54988" lon="6.0366">
        <ele>950.598377</ele>
        <time>2021-04-25T08:15:03.000Z</time>
      </trkpt>
      <trkpt lat="44.54992" lon="6.03656">
        <ele>950.887708</ele>
        <time>2021-04-25T08:15:05.000Z</time>
      </trkpt>
      <trkpt lat="44.54997" lon="6.03652">
        <ele>951.186985</ele>
        <time>2021-04-25T08:15:07.000Z</time>
      </trkpt>
      <trkpt lat="44.55001" lon="6.03648">
        <ele>951.480822</ele>
        <time>2021-04-25T08:15:09.000Z</time>
      </trkpt>
      <trkpt lat="44.55003" lon="6.03646">
        <ele>951.631539</ele>
        <time>2021-04-25T08:15:10.000Z</time>
      </trkpt>
      <trkpt lat="44.55005" lon="6.03645">
        <ele>951.777321</ele>
        <time>2021-04-25T08:15:11.000Z</time>
      </trkpt>
      <trkpt lat="44.55007" lon="6.03643">
        <ele>951.923102</ele>
        <time>2021-04-25T08:15:12.000Z</time>
      </trkpt>
      <trkpt lat="44.55009" lon="6.03641">
        <ele>952.068883</ele>
        <time>2021-04-25T08:15:13.000Z</time>
      </trkpt>
      <trkpt lat="44.55012" lon="6.03639">
        <ele>952.206364</ele>
        <time>2021-04-25T08:15:14.000Z</time>
      </trkpt>
      <trkpt lat="44.55016" lon="6.03636">
        <ele>952.494328</ele>
        <time>2021-04-25T08:15:16.000Z</time>
      </trkpt>
      <trkpt lat="44.5502" lon="6.03632">
        <ele>952.800204</ele>
        <time>2021-04-25T08:15:18.000Z</time>
      </trkpt>
      <trkpt lat="44.55025" lon="6.03628">
        <ele>953.10608</ele>
        <time>2021-04-25T08:15:20.000Z</time>
      </trkpt>
      <trkpt lat="44.55025" lon="6.03628">
        <ele>953.10608</ele>
        <time>2021-04-25T08:15:21.000Z</time>
      </trkpt>
      <trkpt lat="44.55029" lon="6.03624">
        <ele>953.397642</ele>
        <time>2021-04-25T08:15:22.000Z</time>
      </trkpt>
      <trkpt lat="44.55031" lon="6.03622">
        <ele>953.55058</ele>
        <time>2021-04-25T08:15:23.000Z</time>
      </trkpt>
      <trkpt lat="44.55035" lon="6.03619">
        <ele>953.84364</ele>
        <time>2021-04-25T08:15:25.000Z</time>
      </trkpt>
      <trkpt lat="44.5504" lon="6.03615">
        <ele>954.136701</ele>
        <time>2021-04-25T08:15:27.000Z</time>
      </trkpt>
      <trkpt lat="44.5504" lon="6.03615">
        <ele>954.136701</ele>
        <time>2021-04-25T08:15:28.000Z</time>
      </trkpt>
      <trkpt lat="44.55044" lon="6.03612">
        <ele>954.426728</ele>
        <time>2021-04-25T08:15:29.000Z</time>
      </trkpt>
      <trkpt lat="44.55049" lon="6.03608">
        <ele>954.721817</ele>
        <time>2021-04-25T08:15:31.000Z</time>
      </trkpt>
      <trkpt lat="44.55051" lon="6.03607">
        <ele>954.866387</ele>
        <time>2021-04-25T08:15:32.000Z</time>
      </trkpt>
      <trkpt lat="44.55053" lon="6.03605">
        <ele>955.009092</ele>
        <time>2021-04-25T08:15:33.000Z</time>
      </trkpt>
      <trkpt lat="44.55055" lon="6.03604">
        <ele>955.164116</ele>
        <time>2021-04-25T08:15:34.000Z</time>
      </trkpt>
      <trkpt lat="44.55058" lon="6.03602">
        <ele>955.303388</ele>
        <time>2021-04-25T08:15:35.000Z</time>
      </trkpt>
      <trkpt lat="44.5506" lon="6.03601">
        <ele>955.448054</ele>
        <time>2021-04-25T08:15:36.000Z</time>
      </trkpt>
      <trkpt lat="44.55065" lon="6.03599">
        <ele>955.746974</ele>
        <time>2021-04-25T08:15:38.000Z</time>
      </trkpt>
      <trkpt lat="44.55067" lon="6.03598">
        <ele>955.896577</ele>
        <time>2021-04-25T08:15:39.000Z</time>
      </trkpt>
      <trkpt lat="44.5507" lon="6.03597">
        <ele>956.040498</ele>
        <time>2021-04-25T08:15:40.000Z</time>
      </trkpt>
      <trkpt lat="44.55072" lon="6.03596">
        <ele>956.19108</ele>
        <time>2021-04-25T08:15:41.000Z</time>
      </trkpt>
      <trkpt lat="44.55077" lon="6.03595">
        <ele>956.474598</ele>
        <time>2021-04-25T08:15:43.000Z</time>
      </trkpt>
      <trkpt lat="44.55077" lon="6.03595">
        <ele>956.474598</ele>
        <time>2021-04-25T08:15:44.000Z</time>
      </trkpt>
      <trkpt lat="44.55082" lon="6.03594">
        <ele>956.735758</ele>
        <time>2021-04-25T08:15:45.000Z</time>
      </trkpt>
      <trkpt lat="44.55087" lon="6.03593">
        <ele>957.00612</ele>
        <time>2021-04-25T08:15:47.000Z</time>
      </trkpt>
      <trkpt lat="44.55087" lon="6.03593">
        <ele>957.00612</ele>
        <time>2021-04-25T08:15:48.000Z</time>
      </trkpt>
      <trkpt lat="44.55092" lon="6.03592">
        <ele>957.275078</ele>
        <time>2021-04-25T08:15:49.000Z</time>
      </trkpt>
      <trkpt lat="44.55098" lon="6.03592">
        <ele>957.538349</ele>
        <time>2021-04-25T08:15:51.000Z</time>
      </trkpt>
      <trkpt lat="44.55103" lon="6.03592">
        <ele>957.801749</ele>
        <time>2021-04-25T08:15:53.000Z</time>
      </trkpt>
      <trkpt lat="44.55108" lon="6.03592">
        <ele>958.065148</ele>
        <time>2021-04-25T08:15:55.000Z</time>
      </trkpt>
      <trkpt lat="44.55113" lon="6.03591">
        <ele>958.323183</ele>
        <time>2021-04-25T08:15:57.000Z</time>
      </trkpt>
      <trkpt lat="44.55118" lon="6.03591">
        <ele>958.591512</ele>
        <time>2021-04-25T08:15:59.000Z</time>
      </trkpt>
      <trkpt lat="44.55118" lon="6.03591">
        <ele>958.591512</ele>
        <time>2021-04-25T08:16:00.000Z</time>
      </trkpt>
      <trkpt lat="44.55123" lon="6.03592">
        <ele>958.859866</ele>
        <time>2021-04-25T08:16:01.000Z</time>
      </trkpt>
      <trkpt lat="44.55128" lon="6.03591">
        <ele>959.117979</ele>
        <time>2021-04-25T08:16:03.000Z</time>
      </trkpt>
      <trkpt lat="44.55133" lon="6.03591">
        <ele>959.381173</ele>
        <time>2021-04-25T08:16:05.000Z</time>
      </trkpt>
      <trkpt lat="44.55138" lon="6.03591">
        <ele>959.639417</ele>
        <time>2021-04-25T08:16:07.000Z</time>
      </trkpt>
      <trkpt lat="44.55138" lon="6.03591">
        <ele>959.639417</ele>
        <time>2021-04-25T08:16:08.000Z</time>
      </trkpt>
      <trkpt lat="44.55143" lon="6.03591">
        <ele>959.89753</ele>
        <time>2021-04-25T08:16:09.000Z</time>
      </trkpt>
      <trkpt lat="44.55148" lon="6.03591">
        <ele>960.160802</ele>
        <time>2021-04-25T08:16:11.000Z</time>
      </trkpt>
      <trkpt lat="44.55154" lon="6.0359">
        <ele>960.429533</ele>
        <time>2021-04-25T08:16:13.000Z</time>
      </trkpt>
      <trkpt lat="44.55159" lon="6.03589">
        <ele>960.699094</ele>
        <time>2021-04-25T08:16:15.000Z</time>
      </trkpt>
      <trkpt lat="44.55164" lon="6.03589">
        <ele>960.968328</ele>
        <time>2021-04-25T08:16:17.000Z</time>
      </trkpt>
      <trkpt lat="44.55169" lon="6.03588">
        <ele>961.228008</ele>
        <time>2021-04-25T08:16:19.000Z</time>
      </trkpt>
      <trkpt lat="44.55174" lon="6.03587">
        <ele>961.492816</ele>
        <time>2021-04-25T08:16:21.000Z</time>
      </trkpt>
      <trkpt lat="44.55174" lon="6.03587">
        <ele>961.492816</ele>
        <time>2021-04-25T08:16:22.000Z</time>
      </trkpt>
      <trkpt lat="44.55179" lon="6.03586">
        <ele>961.752938</ele>
        <time>2021-04-25T08:16:23.000Z</time>
      </trkpt>
      <trkpt lat="44.55184" lon="6.03585">
        <ele>962.020413</ele>
        <time>2021-04-25T08:16:25.000Z</time>
      </trkpt>
      <trkpt lat="44.55189" lon="6.03584">
        <ele>962.287255</ele>
        <time>2021-04-25T08:16:27.000Z</time>
      </trkpt>
      <trkpt lat="44.55194" lon="6.03582">
        <ele>962.556142</ele>
        <time>2021-04-25T08:16:29.000Z</time>
      </trkpt>
      <trkpt lat="44.55199" lon="6.0358">
        <ele>962.818465</ele>
        <time>2021-04-25T08:16:31.000Z</time>
      </trkpt>
      <trkpt lat="44.55204" lon="6.03579">
        <ele>963.075819</ele>
        <time>2021-04-25T08:16:33.000Z</time>
      </trkpt>
      <trkpt lat="44.55209" lon="6.03576">
        <ele>963.332671</ele>
        <time>2021-04-25T08:16:35.000Z</time>
      </trkpt>
      <trkpt lat="44.55214" lon="6.03574">
        <ele>963.59817</ele>
        <time>2021-04-25T08:16:37.000Z</time>
      </trkpt>
      <trkpt lat="44.55214" lon="6.03574">
        <ele>963.59817</ele>
        <time>2021-04-25T08:16:38.000Z</time>
      </trkpt>
      <trkpt lat="44.55219" lon="6.03571">
        <ele>963.880239</ele>
        <time>2021-04-25T08:16:39.000Z</time>
      </trkpt>
      <trkpt lat="44.55221" lon="6.03569">
        <ele>964.023591</ele>
        <time>2021-04-25T08:16:40.000Z</time>
      </trkpt>
      <trkpt lat="44.55224" lon="6.03567">
        <ele>964.166943</ele>
        <time>2021-04-25T08:16:41.000Z</time>
      </trkpt>
      <trkpt lat="44.55226" lon="6.03565">
        <ele>964.311937</ele>
        <time>2021-04-25T08:16:42.000Z</time>
      </trkpt>
      <trkpt lat="44.55228" lon="6.03563">
        <ele>964.454129</ele>
        <time>2021-04-25T08:16:43.000Z</time>
      </trkpt>
      <trkpt lat="44.55231" lon="6.03562">
        <ele>964.600838</ele>
        <time>2021-04-25T08:16:44.000Z</time>
      </trkpt>
      <trkpt lat="44.55234" lon="6.0356">
        <ele>964.753837</ele>
        <time>2021-04-25T08:16:45.000Z</time>
      </trkpt>
      <trkpt lat="44.55236" lon="6.03557">
        <ele>964.904187</ele>
        <time>2021-04-25T08:16:46.000Z</time>
      </trkpt>
      <trkpt lat="44.55238" lon="6.03555">
        <ele>965.04782</ele>
        <time>2021-04-25T08:16:47.000Z</time>
      </trkpt>
      <trkpt lat="44.55241" lon="6.03553">
        <ele>965.199892</ele>
        <time>2021-04-25T08:16:48.000Z</time>
      </trkpt>
      <trkpt lat="44.55243" lon="6.03551">
        <ele>965.354148</ele>
        <time>2021-04-25T08:16:49.000Z</time>
      </trkpt>
      <trkpt lat="44.55246" lon="6.03548">
        <ele>965.502073</ele>
        <time>2021-04-25T08:16:50.000Z</time>
      </trkpt>
      <trkpt lat="44.55248" lon="6.03546">
        <ele>965.649998</ele>
        <time>2021-04-25T08:16:51.000Z</time>
      </trkpt>
      <trkpt lat="44.5525" lon="6.03544">
        <ele>965.801894</ele>
        <time>2021-04-25T08:16:52.000Z</time>
      </trkpt>
      <trkpt lat="44.55253" lon="6.03541">
        <ele>965.94775</ele>
        <time>2021-04-25T08:16:53.000Z</time>
      </trkpt>
      <trkpt lat="44.55255" lon="6.03538">
        <ele>966.100778</ele>
        <time>2021-04-25T08:16:54.000Z</time>
      </trkpt>
      <trkpt lat="44.55257" lon="6.03536">
        <ele>966.251363</ele>
        <time>2021-04-25T08:16:55.000Z</time>
      </trkpt>
      <trkpt lat="44.55259" lon="6.03533">
        <ele>966.399557</ele>
        <time>2021-04-25T08:16:56.000Z</time>
      </trkpt>
      <trkpt lat="44.55262" lon="6.0353">
        <ele>966.556439</ele>
        <time>2021-04-25T08:16:57.000Z</time>
      </trkpt>
      <trkpt lat="44.55264" lon="6.03527">
        <ele>966.708243</ele>
        <time>2021-04-25T08:16:58.000Z</time>
      </trkpt>
      <trkpt lat="44.55266" lon="6.03524">
        <ele>966.862643</ele>
        <time>2021-04-25T08:16:59.000Z</time>
      </trkpt>
      <trkpt lat="44.55268" lon="6.03522">
        <ele>967.007283</ele>
        <time>2021-04-25T08:17:00.000Z</time>
      </trkpt>
      <trkpt lat="44.5527" lon="6.03519">
        <ele>967.155458</ele>
        <time>2021-04-25T08:17:01.000Z</time>
      </trkpt>
      <trkpt lat="44.55272" lon="6.03516">
        <ele>967.302821</ele>
        <time>2021-04-25T08:17:02.000Z</time>
      </trkpt>
      <trkpt lat="44.55273" lon="6.03513">
        <ele>967.446812</ele>
        <time>2021-04-25T08:17:03.000Z</time>
      </trkpt>
      <trkpt lat="44.55275" lon="6.03509">
        <ele>967.596496</ele>
        <time>2021-04-25T08:17:04.000Z</time>
      </trkpt>
      <trkpt lat="44.55277" lon="6.03506">
        <ele>967.743315</ele>
        <time>2021-04-25T08:17:05.000Z</time>
      </trkpt>
      <trkpt lat="44.55279" lon="6.03503">
        <ele>967.889862</ele>
        <time>2021-04-25T08:17:06.000Z</time>
      </trkpt>
      <trkpt lat="44.5528" lon="6.035">
        <ele>968.036409</ele>
        <time>2021-04-25T08:17:07.000Z</time>
      </trkpt>
      <trkpt lat="44.55282" lon="6.03497">
        <ele>968.182957</ele>
        <time>2021-04-25T08:17:08.000Z</time>
      </trkpt>
      <trkpt lat="44.55283" lon="6.03493">
        <ele>968.323965</ele>
        <time>2021-04-25T08:17:09.000Z</time>
      </trkpt>
      <trkpt lat="44.55285" lon="6.0349">
        <ele>968.476463</ele>
        <time>2021-04-25T08:17:10.000Z</time>
      </trkpt>
      <trkpt lat="44.55287" lon="6.03487">
        <ele>968.631977</ele>
        <time>2021-04-25T08:17:11.000Z</time>
      </trkpt>
      <trkpt lat="44.55289" lon="6.03483">
        <ele>968.797895</ele>
        <time>2021-04-25T08:17:12.000Z</time>
      </trkpt>
      <trkpt lat="44.55292" lon="6.03481">
        <ele>968.968716</ele>
        <time>2021-04-25T08:17:13.000Z</time>
      </trkpt>
      <trkpt lat="44.55297" lon="6.0348">
        <ele>969.262606</ele>
        <time>2021-04-25T08:17:15.000Z</time>
      </trkpt>
      <trkpt lat="44.55302" lon="6.03486">
        <ele>969.566211</ele>
        <time>2021-04-25T08:17:17.000Z</time>
      </trkpt>
      <trkpt lat="44.55303" lon="6.03494">
        <ele>969.87809</ele>
        <time>2021-04-25T08:17:19.000Z</time>
      </trkpt>
      <trkpt lat="44.55302" lon="6.03502">
        <ele>970.175453</ele>
        <time>2021-04-25T08:17:21.000Z</time>
      </trkpt>
      <trkpt lat="44.55301" lon="6.0351">
        <ele>970.447459</ele>
        <time>2021-04-25T08:17:23.000Z</time>
      </trkpt>
      <trkpt lat="44.553" lon="6.03517">
        <ele>970.710624</ele>
        <time>2021-04-25T08:17:25.000Z</time>
      </trkpt>
      <trkpt lat="44.553" lon="6.0352">
        <ele>970.840771</ele>
        <time>2021-04-25T08:17:26.000Z</time>
      </trkpt>
      <trkpt lat="44.55299" lon="6.03524">
        <ele>970.962915</ele>
        <time>2021-04-25T08:17:27.000Z</time>
      </trkpt>
      <trkpt lat="44.55299" lon="6.03527">
        <ele>971.073182</ele>
        <time>2021-04-25T08:17:28.000Z</time>
      </trkpt>
      <trkpt lat="44.55299" lon="6.03533">
        <ele>971.297207</ele>
        <time>2021-04-25T08:17:30.000Z</time>
      </trkpt>
      <trkpt lat="44.55299" lon="6.03533">
        <ele>971.297207</ele>
        <time>2021-04-25T08:17:31.000Z</time>
      </trkpt>
      <trkpt lat="44.553" lon="6.03539">
        <ele>971.520434</ele>
        <time>2021-04-25T08:17:32.000Z</time>
      </trkpt>
      <trkpt lat="44.55301" lon="6.03545">
        <ele>971.742887</ele>
        <time>2021-04-25T08:17:34.000Z</time>
      </trkpt>
      <trkpt lat="44.55302" lon="6.03551">
        <ele>971.977474</ele>
        <time>2021-04-25T08:17:36.000Z</time>
      </trkpt>
      <trkpt lat="44.55304" lon="6.03556">
        <ele>972.204182</ele>
        <time>2021-04-25T08:17:38.000Z</time>
      </trkpt>
      <trkpt lat="44.55306" lon="6.03561">
        <ele>972.428443</ele>
        <time>2021-04-25T08:17:40.000Z</time>
      </trkpt>
      <trkpt lat="44.55309" lon="6.03567">
        <ele>972.658677</ele>
        <time>2021-04-25T08:17:42.000Z</time>
      </trkpt>
      <trkpt lat="44.55312" lon="6.03571">
        <ele>972.88694</ele>
        <time>2021-04-25T08:17:44.000Z</time>
      </trkpt>
      <trkpt lat="44.55315" lon="6.03576">
        <ele>973.116742</ele>
        <time>2021-04-25T08:17:46.000Z</time>
      </trkpt>
      <trkpt lat="44.55318" lon="6.0358">
        <ele>973.350124</ele>
        <time>2021-04-25T08:17:48.000Z</time>
      </trkpt>
      <trkpt lat="44.55322" lon="6.03584">
        <ele>973.574797</ele>
        <time>2021-04-25T08:17:50.000Z</time>
      </trkpt>
      <trkpt lat="44.55325" lon="6.03588">
        <ele>973.8028</ele>
        <time>2021-04-25T08:17:52.000Z</time>
      </trkpt>
      <trkpt lat="44.55325" lon="6.03588">
        <ele>973.8028</ele>
        <time>2021-04-25T08:17:53.000Z</time>
      </trkpt>
      <trkpt lat="44.55329" lon="6.03591">
        <ele>974.033046</ele>
        <time>2021-04-25T08:17:54.000Z</time>
      </trkpt>
      <trkpt lat="44.55335" lon="6.03596">
        <ele>974.393378</ele>
        <time>2021-04-25T08:17:57.000Z</time>
      </trkpt>
      <trkpt lat="44.55341" lon="6.036">
        <ele>974.748452</ele>
        <time>2021-04-25T08:18:00.000Z</time>
      </trkpt>
      <trkpt lat="44.55341" lon="6.036">
        <ele>974.748452</ele>
        <time>2021-04-25T08:18:01.000Z</time>
      </trkpt>
      <trkpt lat="44.55347" lon="6.03605">
        <ele>974.987652</ele>
        <time>2021-04-25T08:18:03.000Z</time>
      </trkpt>
      <trkpt lat="44.55347" lon="6.03605">
        <ele>974.987652</ele>
        <time>2021-04-25T08:18:05.000Z</time>
      </trkpt>
      <trkpt lat="44.55354" lon="6.0361">
        <ele>975.074442</ele>
        <time>2021-04-25T08:18:06.000Z</time>
      </trkpt>
      <trkpt lat="44.5536" lon="6.03614">
        <ele>975.153922</ele>
        <time>2021-04-25T08:18:09.000Z</time>
      </trkpt>
      <trkpt lat="44.55367" lon="6.03618">
        <ele>975.233051</ele>
        <time>2021-04-25T08:18:12.000Z</time>
      </trkpt>
      <trkpt lat="44.55373" lon="6.03622">
        <ele>975.31456</ele>
        <time>2021-04-25T08:18:15.000Z</time>
      </trkpt>
      <trkpt lat="44.55379" lon="6.03627">
        <ele>975.395009</ele>
        <time>2021-04-25T08:18:18.000Z</time>
      </trkpt>
      <trkpt lat="44.55384" lon="6.03629">
        <ele>975.450735</ele>
        <time>2021-04-25T08:18:20.000Z</time>
      </trkpt>
      <trkpt lat="44.55384" lon="6.03629">
        <ele>975.450735</ele>
        <time>2021-04-25T08:18:21.000Z</time>
      </trkpt>
      <trkpt lat="44.55389" lon="6.03632">
        <ele>975.508563</ele>
        <time>2021-04-25T08:18:22.000Z</time>
      </trkpt>
      <trkpt lat="44.55393" lon="6.03635">
        <ele>975.56503</ele>
        <time>2021-04-25T08:18:24.000Z</time>
      </trkpt>
      <trkpt lat="44.55398" lon="6.03637">
        <ele>975.620756</ele>
        <time>2021-04-25T08:18:26.000Z</time>
      </trkpt>
      <trkpt lat="44.55403" lon="6.0364">
        <ele>975.680262</ele>
        <time>2021-04-25T08:18:28.000Z</time>
      </trkpt>
      <trkpt lat="44.55407" lon="6.03643">
        <ele>975.741134</ele>
        <time>2021-04-25T08:18:30.000Z</time>
      </trkpt>
      <trkpt lat="44.55407" lon="6.03643">
        <ele>975.741134</ele>
        <time>2021-04-25T08:18:31.000Z</time>
      </trkpt>
      <trkpt lat="44.55412" lon="6.03646">
        <ele>975.802738</ele>
        <time>2021-04-25T08:18:32.000Z</time>
      </trkpt>
      <trkpt lat="44.55418" lon="6.03649">
        <ele>975.875058</ele>
        <time>2021-04-25T08:18:34.000Z</time>
      </trkpt>
      <trkpt lat="44.55421" lon="6.03652">
        <ele>975.912216</ele>
        <time>2021-04-25T08:18:35.000Z</time>
      </trkpt>
      <trkpt lat="44.55427" lon="6.03656">
        <ele>975.991848</ele>
        <time>2021-04-25T08:18:37.000Z</time>
      </trkpt>
      <trkpt lat="44.55427" lon="6.03656">
        <ele>975.991848</ele>
        <time>2021-04-25T08:18:38.000Z</time>
      </trkpt>
      <trkpt lat="44.55434" lon="6.03661">
        <ele>976.079182</ele>
        <time>2021-04-25T08:18:39.000Z</time>
      </trkpt>
      <trkpt lat="44.55442" lon="6.03667">
        <ele>976.173912</ele>
        <time>2021-04-25T08:18:41.000Z</time>
      </trkpt>
      <trkpt lat="44.5545" lon="6.03673">
        <ele>976.279757</ele>
        <time>2021-04-25T08:18:43.000Z</time>
      </trkpt>
      <trkpt lat="44.55454" lon="6.03676">
        <ele>976.33408</ele>
        <time>2021-04-25T08:18:44.000Z</time>
      </trkpt>
      <trkpt lat="44.55459" lon="6.03679">
        <ele>976.391907</ele>
        <time>2021-04-25T08:18:45.000Z</time>
      </trkpt>
      <trkpt lat="44.55464" lon="6.03681">
        <ele>976.452903</ele>
        <time>2021-04-25T08:18:46.000Z</time>
      </trkpt>
      <trkpt lat="44.55469" lon="6.03683">
        <ele>976.509917</ele>
        <time>2021-04-25T08:18:47.000Z</time>
      </trkpt>
      <trkpt lat="44.55473" lon="6.03685">
        <ele>976.567202</ele>
        <time>2021-04-25T08:18:48.000Z</time>
      </trkpt>
      <trkpt lat="44.55478" lon="6.03686">
        <ele>976.62414</ele>
        <time>2021-04-25T08:18:49.000Z</time>
      </trkpt>
      <trkpt lat="44.55483" lon="6.03688">
        <ele>976.680317</ele>
        <time>2021-04-25T08:18:50.000Z</time>
      </trkpt>
      <trkpt lat="44.55493" lon="6.0369">
        <ele>976.789107</ele>
        <time>2021-04-25T08:18:52.000Z</time>
      </trkpt>
      <trkpt lat="44.55497" lon="6.03691">
        <ele>976.839559</ele>
        <time>2021-04-25T08:18:53.000Z</time>
      </trkpt>
      <trkpt lat="44.55503" lon="6.03694">
        <ele>976.918308</ele>
        <time>2021-04-25T08:18:55.000Z</time>
      </trkpt>
      <trkpt lat="44.55503" lon="6.03694">
        <ele>976.918308</ele>
        <time>2021-04-25T08:18:56.000Z</time>
      </trkpt>
      <trkpt lat="44.55511" lon="6.03698">
        <ele>976.946614</ele>
        <time>2021-04-25T08:18:58.000Z</time>
      </trkpt>
      <trkpt lat="44.55516" lon="6.037">
        <ele>976.61129</ele>
        <time>2021-04-25T08:19:00.000Z</time>
      </trkpt>
      <trkpt lat="44.55521" lon="6.03702">
        <ele>976.302435</ele>
        <time>2021-04-25T08:19:02.000Z</time>
      </trkpt>
      <trkpt lat="44.55526" lon="6.03705">
        <ele>975.990576</ele>
        <time>2021-04-25T08:19:04.000Z</time>
      </trkpt>
      <trkpt lat="44.55526" lon="6.03705">
        <ele>975.990576</ele>
        <time>2021-04-25T08:19:05.000Z</time>
      </trkpt>
      <trkpt lat="44.5553" lon="6.03708">
        <ele>975.698165</ele>
        <time>2021-04-25T08:19:06.000Z</time>
      </trkpt>
      <trkpt lat="44.55536" lon="6.03712">
        <ele>975.270893</ele>
        <time>2021-04-25T08:19:09.000Z</time>
      </trkpt>
      <trkpt lat="44.55536" lon="6.03712">
        <ele>975.270893</ele>
        <time>2021-04-25T08:19:10.000Z</time>
      </trkpt>
      <trkpt lat="44.55543" lon="6.03716">
        <ele>974.808933</ele>
        <time>2021-04-25T08:19:12.000Z</time>
      </trkpt>
      <trkpt lat="44.55543" lon="6.03716">
        <ele>974.808933</ele>
        <time>2021-04-25T08:19:13.000Z</time>
      </trkpt>
      <trkpt lat="44.55549" lon="6.03721">
        <ele>974.325267</ele>
        <time>2021-04-25T08:19:15.000Z</time>
      </trkpt>
      <trkpt lat="44.55556" lon="6.03727">
        <ele>973.825451</ele>
        <time>2021-04-25T08:19:18.000Z</time>
      </trkpt>
      <trkpt lat="44.55556" lon="6.03727">
        <ele>973.825451</ele>
        <time>2021-04-25T08:19:19.000Z</time>
      </trkpt>
      <trkpt lat="44.55562" lon="6.03733">
        <ele>973.35648</ele>
        <time>2021-04-25T08:19:21.000Z</time>
      </trkpt>
      <trkpt lat="44.55567" lon="6.03736">
        <ele>973.046989</ele>
        <time>2021-04-25T08:19:23.000Z</time>
      </trkpt>
      <trkpt lat="44.5557" lon="6.03739">
        <ele>972.774971</ele>
        <time>2021-04-25T08:19:25.000Z</time>
      </trkpt>
      <trkpt lat="44.55574" lon="6.03742">
        <ele>972.488583</ele>
        <time>2021-04-25T08:19:27.000Z</time>
      </trkpt>
      <trkpt lat="44.55578" lon="6.03745">
        <ele>972.199851</ele>
        <time>2021-04-25T08:19:29.000Z</time>
      </trkpt>
      <trkpt lat="44.55583" lon="6.03749">
        <ele>971.867328</ele>
        <time>2021-04-25T08:19:31.000Z</time>
      </trkpt>
      <trkpt lat="44.55588" lon="6.03752">
        <ele>971.540381</ele>
        <time>2021-04-25T08:19:33.000Z</time>
      </trkpt>
      <trkpt lat="44.55588" lon="6.03752">
        <ele>971.540381</ele>
        <time>2021-04-25T08:19:34.000Z</time>
      </trkpt>
      <trkpt lat="44.55593" lon="6.03755">
        <ele>971.200658</ele>
        <time>2021-04-25T08:19:35.000Z</time>
      </trkpt>
      <trkpt lat="44.55599" lon="6.03756">
        <ele>970.829774</ele>
        <time>2021-04-25T08:19:37.000Z</time>
      </trkpt>
      <trkpt lat="44.55602" lon="6.03757">
        <ele>970.639789</ele>
        <time>2021-04-25T08:19:38.000Z</time>
      </trkpt>
      <trkpt lat="44.55605" lon="6.03757">
        <ele>970.438104</ele>
        <time>2021-04-25T08:19:39.000Z</time>
      </trkpt>
      <trkpt lat="44.55611" lon="6.03758">
        <ele>970.065346</ele>
        <time>2021-04-25T08:19:41.000Z</time>
      </trkpt>
      <trkpt lat="44.55611" lon="6.03758">
        <ele>970.065346</ele>
        <time>2021-04-25T08:19:42.000Z</time>
      </trkpt>
      <trkpt lat="44.55614" lon="6.03764">
        <ele>969.725947</ele>
        <time>2021-04-25T08:19:43.000Z</time>
      </trkpt>
      <trkpt lat="44.55614" lon="6.03764">
        <ele>969.725947</ele>
        <time>2021-04-25T08:19:44.000Z</time>
      </trkpt>
      <trkpt lat="44.55612" lon="6.03773">
        <ele>969.300054</ele>
        <time>2021-04-25T08:19:45.000Z</time>
      </trkpt>
      <trkpt lat="44.55611" lon="6.03778">
        <ele>969.061077</ele>
        <time>2021-04-25T08:19:46.000Z</time>
      </trkpt>
      <trkpt lat="44.55608" lon="6.03787">
        <ele>968.592861</ele>
        <time>2021-04-25T08:19:48.000Z</time>
      </trkpt>
      <trkpt lat="44.55605" lon="6.03797">
        <ele>968.117354</ele>
        <time>2021-04-25T08:19:50.000Z</time>
      </trkpt>
      <trkpt lat="44.55603" lon="6.03803">
        <ele>967.855313</ele>
        <time>2021-04-25T08:19:51.000Z</time>
      </trkpt>
      <trkpt lat="44.55602" lon="6.03809">
        <ele>967.577693</ele>
        <time>2021-04-25T08:19:52.000Z</time>
      </trkpt>
      <trkpt lat="44.55602" lon="6.03809">
        <ele>967.577693</ele>
        <time>2021-04-25T08:19:53.000Z</time>
      </trkpt>
      <trkpt lat="44.55602" lon="6.03821">
        <ele>967.034901</ele>
        <time>2021-04-25T08:19:54.000Z</time>
      </trkpt>
      <trkpt lat="44.55602" lon="6.03821">
        <ele>967.034901</ele>
        <time>2021-04-25T08:19:55.000Z</time>
      </trkpt>
      <trkpt lat="44.55602" lon="6.03832">
        <ele>966.559533</ele>
        <time>2021-04-25T08:19:56.000Z</time>
      </trkpt>
      <trkpt lat="44.55602" lon="6.03832">
        <ele>966.559533</ele>
        <time>2021-04-25T08:19:57.000Z</time>
      </trkpt>
      <trkpt lat="44.55603" lon="6.03841">
        <ele>966.134528</ele>
        <time>2021-04-25T08:19:58.000Z</time>
      </trkpt>
      <trkpt lat="44.55603" lon="6.03841">
        <ele>966.134528</ele>
        <time>2021-04-25T08:19:59.000Z</time>
      </trkpt>
      <trkpt lat="44.55604" lon="6.03852">
        <ele>965.528774</ele>
        <time>2021-04-25T08:20:00.000Z</time>
      </trkpt>
      <trkpt lat="44.55604" lon="6.03852">
        <ele>965.528774</ele>
        <time>2021-04-25T08:20:01.000Z</time>
      </trkpt>
      <trkpt lat="44.55605" lon="6.03863">
        <ele>964.265667</ele>
        <time>2021-04-25T08:20:02.000Z</time>
      </trkpt>
      <trkpt lat="44.55605" lon="6.03863">
        <ele>964.265667</ele>
        <time>2021-04-25T08:20:03.000Z</time>
      </trkpt>
      <trkpt lat="44.55605" lon="6.03863">
        <ele>964.265667</ele>
        <time>2021-04-25T08:20:04.000Z</time>
      </trkpt>
      <trkpt lat="44.55608" lon="6.03879">
        <ele>962.485803</ele>
        <time>2021-04-25T08:20:05.000Z</time>
      </trkpt>
      <trkpt lat="44.55612" lon="6.03889">
        <ele>961.147004</ele>
        <time>2021-04-25T08:20:07.000Z</time>
      </trkpt>
      <trkpt lat="44.55614" lon="6.03895">
        <ele>960.412934</ele>
        <time>2021-04-25T08:20:08.000Z</time>
      </trkpt>
      <trkpt lat="44.55617" lon="6.03901">
        <ele>959.632017</ele>
        <time>2021-04-25T08:20:09.000Z</time>
      </trkpt>
      <trkpt lat="44.55617" lon="6.03901">
        <ele>959.632017</ele>
        <time>2021-04-25T08:20:10.000Z</time>
      </trkpt>
      <trkpt lat="44.5562" lon="6.03916">
        <ele>957.87815</ele>
        <time>2021-04-25T08:20:11.000Z</time>
      </trkpt>
      <trkpt lat="44.5562" lon="6.03916">
        <ele>957.87815</ele>
        <time>2021-04-25T08:20:12.000Z</time>
      </trkpt>
      <trkpt lat="44.55621" lon="6.03933">
        <ele>956.029364</ele>
        <time>2021-04-25T08:20:13.000Z</time>
      </trkpt>
      <trkpt lat="44.55621" lon="6.03949">
        <ele>954.252381</ele>
        <time>2021-04-25T08:20:15.000Z</time>
      </trkpt>
      <trkpt lat="44.55621" lon="6.03949">
        <ele>954.252381</ele>
        <time>2021-04-25T08:20:16.000Z</time>
      </trkpt>
      <trkpt lat="44.5562" lon="6.03962">
        <ele>952.731684</ele>
        <time>2021-04-25T08:20:17.000Z</time>
      </trkpt>
      <trkpt lat="44.5562" lon="6.03962">
        <ele>952.731684</ele>
        <time>2021-04-25T08:20:18.000Z</time>
      </trkpt>
      <trkpt lat="44.5562" lon="6.03975">
        <ele>951.357429</ele>
        <time>2021-04-25T08:20:19.000Z</time>
      </trkpt>
      <trkpt lat="44.5562" lon="6.03981">
        <ele>950.619905</ele>
        <time>2021-04-25T08:20:20.000Z</time>
      </trkpt>
      <trkpt lat="44.5562" lon="6.03981">
        <ele>950.619905</ele>
        <time>2021-04-25T08:20:21.000Z</time>
      </trkpt>
      <trkpt lat="44.55621" lon="6.03995">
        <ele>949.112945</ele>
        <time>2021-04-25T08:20:22.000Z</time>
      </trkpt>
      <trkpt lat="44.55625" lon="6.0401">
        <ele>947.380417</ele>
        <time>2021-04-25T08:20:24.000Z</time>
      </trkpt>
      <trkpt lat="44.55625" lon="6.0401">
        <ele>947.380417</ele>
        <time>2021-04-25T08:20:25.000Z</time>
      </trkpt>
      <trkpt lat="44.55629" lon="6.04025">
        <ele>945.563707</ele>
        <time>2021-04-25T08:20:26.000Z</time>
      </trkpt>
      <trkpt lat="44.55629" lon="6.04025">
        <ele>945.563707</ele>
        <time>2021-04-25T08:20:27.000Z</time>
      </trkpt>
      <trkpt lat="44.55633" lon="6.04039">
        <ele>943.7953</ele>
        <time>2021-04-25T08:20:28.000Z</time>
      </trkpt>
      <trkpt lat="44.55633" lon="6.04039">
        <ele>943.7953</ele>
        <time>2021-04-25T08:20:29.000Z</time>
      </trkpt>
      <trkpt lat="44.55637" lon="6.04055">
        <ele>941.926606</ele>
        <time>2021-04-25T08:20:30.000Z</time>
      </trkpt>
      <trkpt lat="44.55637" lon="6.04055">
        <ele>941.926606</ele>
        <time>2021-04-25T08:20:31.000Z</time>
      </trkpt>
      <trkpt lat="44.55643" lon="6.04071">
        <ele>939.86969</ele>
        <time>2021-04-25T08:20:32.000Z</time>
      </trkpt>
      <trkpt lat="44.55643" lon="6.04071">
        <ele>939.86969</ele>
        <time>2021-04-25T08:20:33.000Z</time>
      </trkpt>
      <trkpt lat="44.55651" lon="6.04087">
        <ele>937.776853</ele>
        <time>2021-04-25T08:20:34.000Z</time>
      </trkpt>
      <trkpt lat="44.55651" lon="6.04087">
        <ele>937.776853</ele>
        <time>2021-04-25T08:20:35.000Z</time>
      </trkpt>
      <trkpt lat="44.55659" lon="6.04101">
        <ele>936.447051</ele>
        <time>2021-04-25T08:20:36.000Z</time>
      </trkpt>
      <trkpt lat="44.55659" lon="6.04101">
        <ele>936.447051</ele>
        <time>2021-04-25T08:20:37.000Z</time>
      </trkpt>
      <trkpt lat="44.55667" lon="6.04115">
        <ele>935.234254</ele>
        <time>2021-04-25T08:20:38.000Z</time>
      </trkpt>
      <trkpt lat="44.55667" lon="6.04115">
        <ele>935.234254</ele>
        <time>2021-04-25T08:20:39.000Z</time>
      </trkpt>
      <trkpt lat="44.55675" lon="6.04128">
        <ele>934.13513</ele>
        <time>2021-04-25T08:20:40.000Z</time>
      </trkpt>
      <trkpt lat="44.55675" lon="6.04128">
        <ele>934.13513</ele>
        <time>2021-04-25T08:20:41.000Z</time>
      </trkpt>
      <trkpt lat="44.55681" lon="6.0414">
        <ele>933.147293</ele>
        <time>2021-04-25T08:20:42.000Z</time>
      </trkpt>
      <trkpt lat="44.55681" lon="6.0414">
        <ele>933.147293</ele>
        <time>2021-04-25T08:20:43.000Z</time>
      </trkpt>
      <trkpt lat="44.55687" lon="6.04153">
        <ele>932.081963</ele>
        <time>2021-04-25T08:20:44.000Z</time>
      </trkpt>
      <trkpt lat="44.5569" lon="6.04161">
        <ele>931.486413</ele>
        <time>2021-04-25T08:20:45.000Z</time>
      </trkpt>
      <trkpt lat="44.55696" lon="6.0418">
        <ele>930.115061</ele>
        <time>2021-04-25T08:20:47.000Z</time>
      </trkpt>
      <trkpt lat="44.55701" lon="6.04199">
        <ele>928.731329</ele>
        <time>2021-04-25T08:20:49.000Z</time>
      </trkpt>
      <trkpt lat="44.55707" lon="6.04216">
        <ele>927.473381</ele>
        <time>2021-04-25T08:20:51.000Z</time>
      </trkpt>
      <trkpt lat="44.55712" lon="6.04232">
        <ele>926.295197</ele>
        <time>2021-04-25T08:20:53.000Z</time>
      </trkpt>
      <trkpt lat="44.55718" lon="6.04249">
        <ele>925.009768</ele>
        <time>2021-04-25T08:20:55.000Z</time>
      </trkpt>
      <trkpt lat="44.55718" lon="6.04249">
        <ele>925.009768</ele>
        <time>2021-04-25T08:20:56.000Z</time>
      </trkpt>
      <trkpt lat="44.55725" lon="6.04267">
        <ele>923.648936</ele>
        <time>2021-04-25T08:20:57.000Z</time>
      </trkpt>
      <trkpt lat="44.55725" lon="6.04267">
        <ele>923.648936</ele>
        <time>2021-04-25T08:20:58.000Z</time>
      </trkpt>
      <trkpt lat="44.55732" lon="6.04283">
        <ele>922.397471</ele>
        <time>2021-04-25T08:20:59.000Z</time>
      </trkpt>
      <trkpt lat="44.55732" lon="6.04283">
        <ele>922.397471</ele>
        <time>2021-04-25T08:21:00.000Z</time>
      </trkpt>
      <trkpt lat="44.5574" lon="6.04296">
        <ele>921.244796</ele>
        <time>2021-04-25T08:21:01.000Z</time>
      </trkpt>
      <trkpt lat="44.5574" lon="6.04296">
        <ele>921.244796</ele>
        <time>2021-04-25T08:21:02.000Z</time>
      </trkpt>
      <trkpt lat="44.55747" lon="6.0431">
        <ele>920.276955</ele>
        <time>2021-04-25T08:21:03.000Z</time>
      </trkpt>
      <trkpt lat="44.55747" lon="6.0431">
        <ele>920.276955</ele>
        <time>2021-04-25T08:21:04.000Z</time>
      </trkpt>
      <trkpt lat="44.55756" lon="6.04323">
        <ele>919.514166</ele>
        <time>2021-04-25T08:21:05.000Z</time>
      </trkpt>
      <trkpt lat="44.55765" lon="6.04339">
        <ele>918.703261</ele>
        <time>2021-04-25T08:21:07.000Z</time>
      </trkpt>
      <trkpt lat="44.55765" lon="6.04339">
        <ele>918.703261</ele>
        <time>2021-04-25T08:21:08.000Z</time>
      </trkpt>
      <trkpt lat="44.55773" lon="6.04355">
        <ele>917.889906</ele>
        <time>2021-04-25T08:21:09.000Z</time>
      </trkpt>
      <trkpt lat="44.55773" lon="6.04355">
        <ele>917.889906</ele>
        <time>2021-04-25T08:21:10.000Z</time>
      </trkpt>
      <trkpt lat="44.55777" lon="6.04371">
        <ele>917.209307</ele>
        <time>2021-04-25T08:21:11.000Z</time>
      </trkpt>
      <trkpt lat="44.55777" lon="6.04371">
        <ele>917.209307</ele>
        <time>2021-04-25T08:21:12.000Z</time>
      </trkpt>
      <trkpt lat="44.55777" lon="6.04383">
        <ele>916.698106</ele>
        <time>2021-04-25T08:21:13.000Z</time>
      </trkpt>
      <trkpt lat="44.55777" lon="6.04383">
        <ele>916.698106</ele>
        <time>2021-04-25T08:21:14.000Z</time>
      </trkpt>
      <trkpt lat="44.5578" lon="6.04396">
        <ele>916.148695</ele>
        <time>2021-04-25T08:21:15.000Z</time>
      </trkpt>
      <trkpt lat="44.5578" lon="6.04396">
        <ele>916.148695</ele>
        <time>2021-04-25T08:21:16.000Z</time>
      </trkpt>
      <trkpt lat="44.55784" lon="6.04408">
        <ele>915.604999</ele>
        <time>2021-04-25T08:21:17.000Z</time>
      </trkpt>
      <trkpt lat="44.55784" lon="6.04408">
        <ele>915.604999</ele>
        <time>2021-04-25T08:21:18.000Z</time>
      </trkpt>
      <trkpt lat="44.55789" lon="6.04419">
        <ele>915.067621</ele>
        <time>2021-04-25T08:21:19.000Z</time>
      </trkpt>
      <trkpt lat="44.55798" lon="6.0443">
        <ele>914.384321</ele>
        <time>2021-04-25T08:21:22.000Z</time>
      </trkpt>
      <trkpt lat="44.55798" lon="6.0443">
        <ele>914.384321</ele>
        <time>2021-04-25T08:21:23.000Z</time>
      </trkpt>
      <trkpt lat="44.55798" lon="6.0443">
        <ele>914.384321</ele>
        <time>2021-04-25T08:21:24.000Z</time>
      </trkpt>
      <trkpt lat="44.55798" lon="6.0443">
        <ele>914.384321</ele>
        <time>2021-04-25T08:21:25.000Z</time>
      </trkpt>
      <trkpt lat="44.55807" lon="6.04427">
        <ele>913.823581</ele>
        <time>2021-04-25T08:21:26.000Z</time>
      </trkpt>
      <trkpt lat="44.55807" lon="6.04427">
        <ele>913.823581</ele>
        <time>2021-04-25T08:21:28.000Z</time>
      </trkpt>
      <trkpt lat="44.55818" lon="6.04424">
        <ele>913.214302</ele>
        <time>2021-04-25T08:21:32.000Z</time>
      </trkpt>
      <trkpt lat="44.55825" lon="6.04423">
        <ele>912.797387</ele>
        <time>2021-04-25T08:21:36.000Z</time>
      </trkpt>
      <trkpt lat="44.55825" lon="6.04423">
        <ele>912.797387</ele>
        <time>2021-04-25T08:21:39.000Z</time>
      </trkpt>
      <trkpt lat="44.55825" lon="6.04423">
        <ele>912.797387</ele>
        <time>2021-04-25T08:21:41.000Z</time>
      </trkpt>
      <trkpt lat="44.55835" lon="6.04422">
        <ele>912.216885</ele>
        <time>2021-04-25T08:21:42.000Z</time>
      </trkpt>
      <trkpt lat="44.55843" lon="6.04417">
        <ele>911.693781</ele>
        <time>2021-04-25T08:21:48.000Z</time>
      </trkpt>
      <trkpt lat="44.5585" lon="6.04412">
        <ele>911.283385</ele>
        <time>2021-04-25T08:21:53.000Z</time>
      </trkpt>
      <trkpt lat="44.5585" lon="6.04412">
        <ele>911.283385</ele>
        <time>2021-04-25T08:21:56.000Z</time>
      </trkpt>
      <trkpt lat="44.55855" lon="6.04406">
        <ele>910.87026</ele>
        <time>2021-04-25T08:21:57.000Z</time>
      </trkpt>
      <trkpt lat="44.55858" lon="6.04403">
        <ele>910.650416</ele>
        <time>2021-04-25T08:21:59.000Z</time>
      </trkpt>
      <trkpt lat="44.55863" lon="6.04399">
        <ele>910.362418</ele>
        <time>2021-04-25T08:22:02.000Z</time>
      </trkpt>
      <trkpt lat="44.55866" lon="6.04395">
        <ele>910.349895</ele>
        <time>2021-04-25T08:22:05.000Z</time>
      </trkpt>
      <trkpt lat="44.5587" lon="6.0439">
        <ele>910.82569</ele>
        <time>2021-04-25T08:22:08.000Z</time>
      </trkpt>
      <trkpt lat="44.55873" lon="6.04386">
        <ele>911.222307</ele>
        <time>2021-04-25T08:22:11.000Z</time>
      </trkpt>
      <trkpt lat="44.55875" lon="6.04382">
        <ele>911.553474</ele>
        <time>2021-04-25T08:22:14.000Z</time>
      </trkpt>
      <trkpt lat="44.55877" lon="6.04377">
        <ele>911.906419</ele>
        <time>2021-04-25T08:22:17.000Z</time>
      </trkpt>
      <trkpt lat="44.55877" lon="6.04377">
        <ele>911.906419</ele>
        <time>2021-04-25T08:22:18.000Z</time>
      </trkpt>
      <trkpt lat="44.55879" lon="6.04373">
        <ele>912.264189</ele>
        <time>2021-04-25T08:22:20.000Z</time>
      </trkpt>
      <trkpt lat="44.55882" lon="6.04368">
        <ele>912.680642</ele>
        <time>2021-04-25T08:22:23.000Z</time>
      </trkpt>
      <trkpt lat="44.55882" lon="6.04368">
        <ele>912.680642</ele>
        <time>2021-04-25T08:22:24.000Z</time>
      </trkpt>
      <trkpt lat="44.55884" lon="6.04362">
        <ele>913.108324</ele>
        <time>2021-04-25T08:22:26.000Z</time>
      </trkpt>
      <trkpt lat="44.55884" lon="6.04362">
        <ele>913.108324</ele>
        <time>2021-04-25T08:22:28.000Z</time>
      </trkpt>
      <trkpt lat="44.55887" lon="6.04357">
        <ele>913.50876</ele>
        <time>2021-04-25T08:22:29.000Z</time>
      </trkpt>
      <trkpt lat="44.55889" lon="6.04352">
        <ele>913.946937</ele>
        <time>2021-04-25T08:22:32.000Z</time>
      </trkpt>
      <trkpt lat="44.55889" lon="6.04352">
        <ele>913.946937</ele>
        <time>2021-04-25T08:22:34.000Z</time>
      </trkpt>
      <trkpt lat="44.55892" lon="6.04346">
        <ele>914.363461</ele>
        <time>2021-04-25T08:22:35.000Z</time>
      </trkpt>
      <trkpt lat="44.55895" lon="6.04343">
        <ele>914.733</ele>
        <time>2021-04-25T08:22:38.000Z</time>
      </trkpt>
      <trkpt lat="44.55895" lon="6.04343">
        <ele>914.733</ele>
        <time>2021-04-25T08:22:40.000Z</time>
      </trkpt>
      <trkpt lat="44.55899" lon="6.04338">
        <ele>915.176547</ele>
        <time>2021-04-25T08:22:42.000Z</time>
      </trkpt>
      <trkpt lat="44.55901" lon="6.04335">
        <ele>915.479172</ele>
        <time>2021-04-25T08:22:45.000Z</time>
      </trkpt>
      <trkpt lat="44.55901" lon="6.04335">
        <ele>915.479172</ele>
        <time>2021-04-25T08:22:47.000Z</time>
      </trkpt>
      <trkpt lat="44.55904" lon="6.04331">
        <ele>915.895905</ele>
        <time>2021-04-25T08:22:49.000Z</time>
      </trkpt>
      <trkpt lat="44.55904" lon="6.04331">
        <ele>915.895905</ele>
        <time>2021-04-25T08:22:51.000Z</time>
      </trkpt>
      <trkpt lat="44.55907" lon="6.04327">
        <ele>916.216198</ele>
        <time>2021-04-25T08:22:52.000Z</time>
      </trkpt>
      <trkpt lat="44.55909" lon="6.04323">
        <ele>916.538091</ele>
        <time>2021-04-25T08:22:55.000Z</time>
      </trkpt>
      <trkpt lat="44.55909" lon="6.04323">
        <ele>916.538091</ele>
        <time>2021-04-25T08:22:56.000Z</time>
      </trkpt>
      <trkpt lat="44.55913" lon="6.04319">
        <ele>916.950522</ele>
        <time>2021-04-25T08:22:59.000Z</time>
      </trkpt>
      <trkpt lat="44.55913" lon="6.04319">
        <ele>916.950522</ele>
        <time>2021-04-25T08:23:01.000Z</time>
      </trkpt>
      <trkpt lat="44.55916" lon="6.04316">
        <ele>917.350414</ele>
        <time>2021-04-25T08:23:02.000Z</time>
      </trkpt>
      <trkpt lat="44.55918" lon="6.04313">
        <ele>917.628108</ele>
        <time>2021-04-25T08:23:04.000Z</time>
      </trkpt>
      <trkpt lat="44.55918" lon="6.04313">
        <ele>917.628108</ele>
        <time>2021-04-25T08:23:05.000Z</time>
      </trkpt>
      <trkpt lat="44.5592" lon="6.0431">
        <ele>917.868553</ele>
        <time>2021-04-25T08:23:06.000Z</time>
      </trkpt>
      <trkpt lat="44.55923" lon="6.04304">
        <ele>918.3171</ele>
        <time>2021-04-25T08:23:09.000Z</time>
      </trkpt>
      <trkpt lat="44.55925" lon="6.04301">
        <ele>918.629231</ele>
        <time>2021-04-25T08:23:11.000Z</time>
      </trkpt>
      <trkpt lat="44.55928" lon="6.04296">
        <ele>919.046816</ele>
        <time>2021-04-25T08:23:14.000Z</time>
      </trkpt>
      <trkpt lat="44.5593" lon="6.04293">
        <ele>919.332015</ele>
        <time>2021-04-25T08:23:16.000Z</time>
      </trkpt>
      <trkpt lat="44.55932" lon="6.04289">
        <ele>919.605083</ele>
        <time>2021-04-25T08:23:18.000Z</time>
      </trkpt>
      <trkpt lat="44.55932" lon="6.04289">
        <ele>919.605083</ele>
        <time>2021-04-25T08:23:19.000Z</time>
      </trkpt>
      <trkpt lat="44.55934" lon="6.04286">
        <ele>919.890282</ele>
        <time>2021-04-25T08:23:20.000Z</time>
      </trkpt>
      <trkpt lat="44.55937" lon="6.04282">
        <ele>920.310143</ele>
        <time>2021-04-25T08:23:23.000Z</time>
      </trkpt>
      <trkpt lat="44.55939" lon="6.04279">
        <ele>920.587837</ele>
        <time>2021-04-25T08:23:25.000Z</time>
      </trkpt>
      <trkpt lat="44.55942" lon="6.04276">
        <ele>920.870836</ele>
        <time>2021-04-25T08:23:27.000Z</time>
      </trkpt>
      <trkpt lat="44.55944" lon="6.04273">
        <ele>921.160807</ele>
        <time>2021-04-25T08:23:29.000Z</time>
      </trkpt>
      <trkpt lat="44.55949" lon="6.04271">
        <ele>921.595131</ele>
        <time>2021-04-25T08:23:32.000Z</time>
      </trkpt>
      <trkpt lat="44.55954" lon="6.0427">
        <ele>922.064225</ele>
        <time>2021-04-25T08:23:35.000Z</time>
      </trkpt>
      <trkpt lat="44.55958" lon="6.0427">
        <ele>922.423107</ele>
        <time>2021-04-25T08:23:37.000Z</time>
      </trkpt>
      <trkpt lat="44.55962" lon="6.0427">
        <ele>922.791654</ele>
        <time>2021-04-25T08:23:39.000Z</time>
      </trkpt>
      <trkpt lat="44.55966" lon="6.0427">
        <ele>923.178578</ele>
        <time>2021-04-25T08:23:41.000Z</time>
      </trkpt>
      <trkpt lat="44.5597" lon="6.04271">
        <ele>923.584728</ele>
        <time>2021-04-25T08:23:43.000Z</time>
      </trkpt>
      <trkpt lat="44.55975" lon="6.04271">
        <ele>923.989606</ele>
        <time>2021-04-25T08:23:45.000Z</time>
      </trkpt>
      <trkpt lat="44.55978" lon="6.04271">
        <ele>924.348966</ele>
        <time>2021-04-25T08:23:47.000Z</time>
      </trkpt>
      <trkpt lat="44.55978" lon="6.04271">
        <ele>924.348966</ele>
        <time>2021-04-25T08:23:48.000Z</time>
      </trkpt>
      <trkpt lat="44.55984" lon="6.04268">
        <ele>924.88506</ele>
        <time>2021-04-25T08:23:50.000Z</time>
      </trkpt>
      <trkpt lat="44.55987" lon="6.04265">
        <ele>925.23821</ele>
        <time>2021-04-25T08:23:52.000Z</time>
      </trkpt>
      <trkpt lat="44.55991" lon="6.04263">
        <ele>925.610713</ele>
        <time>2021-04-25T08:23:54.000Z</time>
      </trkpt>
      <trkpt lat="44.55995" lon="6.04261">
        <ele>925.971005</ele>
        <time>2021-04-25T08:23:56.000Z</time>
      </trkpt>
      <trkpt lat="44.55997" lon="6.04259">
        <ele>926.231218</ele>
        <time>2021-04-25T08:23:58.000Z</time>
      </trkpt>
      <trkpt lat="44.55997" lon="6.04259">
        <ele>926.231218</ele>
        <time>2021-04-25T08:24:01.000Z</time>
      </trkpt>
      <trkpt lat="44.56001" lon="6.04256">
        <ele>926.675985</ele>
        <time>2021-04-25T08:24:02.000Z</time>
      </trkpt>
      <trkpt lat="44.56006" lon="6.04253">
        <ele>927.256854</ele>
        <time>2021-04-25T08:24:05.000Z</time>
      </trkpt>
      <trkpt lat="44.5601" lon="6.0425">
        <ele>927.841525</ele>
        <time>2021-04-25T08:24:08.000Z</time>
      </trkpt>
      <trkpt lat="44.5601" lon="6.0425">
        <ele>927.841525</ele>
        <time>2021-04-25T08:24:10.000Z</time>
      </trkpt>
      <trkpt lat="44.56015" lon="6.04248">
        <ele>928.422055</ele>
        <time>2021-04-25T08:24:11.000Z</time>
      </trkpt>
      <trkpt lat="44.5602" lon="6.04243">
        <ele>929.15068</ele>
        <time>2021-04-25T08:24:15.000Z</time>
      </trkpt>
      <trkpt lat="44.5602" lon="6.04243">
        <ele>929.15068</ele>
        <time>2021-04-25T08:24:17.000Z</time>
      </trkpt>
      <trkpt lat="44.56025" lon="6.04238">
        <ele>929.907598</ele>
        <time>2021-04-25T08:24:19.000Z</time>
      </trkpt>
      <trkpt lat="44.56028" lon="6.04236">
        <ele>930.364863</ele>
        <time>2021-04-25T08:24:21.000Z</time>
      </trkpt>
      <trkpt lat="44.56032" lon="6.04232">
        <ele>931.011673</ele>
        <time>2021-04-25T08:24:24.000Z</time>
      </trkpt>
      <trkpt lat="44.56035" lon="6.04229">
        <ele>931.397649</ele>
        <time>2021-04-25T08:24:26.000Z</time>
      </trkpt>
      <trkpt lat="44.56037" lon="6.04227">
        <ele>931.76859</ele>
        <time>2021-04-25T08:24:28.000Z</time>
      </trkpt>
      <trkpt lat="44.5604" lon="6.04225">
        <ele>932.160538</ele>
        <time>2021-04-25T08:24:30.000Z</time>
      </trkpt>
      <trkpt lat="44.56042" lon="6.04224">
        <ele>932.365786</ele>
        <time>2021-04-25T08:24:31.000Z</time>
      </trkpt>
      <trkpt lat="44.56044" lon="6.04224">
        <ele>932.574164</ele>
        <time>2021-04-25T08:24:32.000Z</time>
      </trkpt>
      <trkpt lat="44.56047" lon="6.04225">
        <ele>932.982148</ele>
        <time>2021-04-25T08:24:34.000Z</time>
      </trkpt>
      <trkpt lat="44.56047" lon="6.04225">
        <ele>932.982148</ele>
        <time>2021-04-25T08:24:36.000Z</time>
      </trkpt>
      <trkpt lat="44.5605" lon="6.0423">
        <ele>933.545636</ele>
        <time>2021-04-25T08:24:37.000Z</time>
      </trkpt>
      <trkpt lat="44.56051" lon="6.04234">
        <ele>933.902324</ele>
        <time>2021-04-25T08:24:39.000Z</time>
      </trkpt>
      <trkpt lat="44.56051" lon="6.04238">
        <ele>934.25222</ele>
        <time>2021-04-25T08:24:41.000Z</time>
      </trkpt>
      <trkpt lat="44.56051" lon="6.04242">
        <ele>934.62379</ele>
        <time>2021-04-25T08:24:43.000Z</time>
      </trkpt>
      <trkpt lat="44.56052" lon="6.04246">
        <ele>934.997573</ele>
        <time>2021-04-25T08:24:45.000Z</time>
      </trkpt>
      <trkpt lat="44.56054" lon="6.04252">
        <ele>935.590397</ele>
        <time>2021-04-25T08:24:49.000Z</time>
      </trkpt>
      <trkpt lat="44.56054" lon="6.04252">
        <ele>935.590397</ele>
        <time>2021-04-25T08:24:51.000Z</time>
      </trkpt>
      <trkpt lat="44.56059" lon="6.04256">
        <ele>936.188598</ele>
        <time>2021-04-25T08:24:52.000Z</time>
      </trkpt>
      <trkpt lat="44.56059" lon="6.04256">
        <ele>936.188598</ele>
        <time>2021-04-25T08:24:53.000Z</time>
      </trkpt>
      <trkpt lat="44.56064" lon="6.04256">
        <ele>936.887154</ele>
        <time>2021-04-25T08:24:56.000Z</time>
      </trkpt>
      <trkpt lat="44.56069" lon="6.04254">
        <ele>937.511559</ele>
        <time>2021-04-25T08:24:59.000Z</time>
      </trkpt>
      <trkpt lat="44.56074" lon="6.0425">
        <ele>938.199442</ele>
        <time>2021-04-25T08:25:03.000Z</time>
      </trkpt>
      <trkpt lat="44.56074" lon="6.0425">
        <ele>938.199442</ele>
        <time>2021-04-25T08:25:04.000Z</time>
      </trkpt>
      <trkpt lat="44.56075" lon="6.04243">
        <ele>938.832612</ele>
        <time>2021-04-25T08:25:06.000Z</time>
      </trkpt>
      <trkpt lat="44.56074" lon="6.04236">
        <ele>939.469343</ele>
        <time>2021-04-25T08:25:09.000Z</time>
      </trkpt>
      <trkpt lat="44.56072" lon="6.04229">
        <ele>940.119345</ele>
        <time>2021-04-25T08:25:12.000Z</time>
      </trkpt>
      <trkpt lat="44.56073" lon="6.04222">
        <ele>940.673967</ele>
        <time>2021-04-25T08:25:15.000Z</time>
      </trkpt>
      <trkpt lat="44.56074" lon="6.04219">
        <ele>941.001633</ele>
        <time>2021-04-25T08:25:17.000Z</time>
      </trkpt>
      <trkpt lat="44.56078" lon="6.04217">
        <ele>941.534391</ele>
        <time>2021-04-25T08:25:20.000Z</time>
      </trkpt>
      <trkpt lat="44.56083" lon="6.04217">
        <ele>942.110253</ele>
        <time>2021-04-25T08:25:23.000Z</time>
      </trkpt>
      <trkpt lat="44.56086" lon="6.04216">
        <ele>942.466373</ele>
        <time>2021-04-25T08:25:25.000Z</time>
      </trkpt>
      <trkpt lat="44.56086" lon="6.04216">
        <ele>942.466373</ele>
        <time>2021-04-25T08:25:26.000Z</time>
      </trkpt>
      <trkpt lat="44.56091" lon="6.04215">
        <ele>943.05944</ele>
        <time>2021-04-25T08:25:28.000Z</time>
      </trkpt>
      <trkpt lat="44.56091" lon="6.04215">
        <ele>943.05944</ele>
        <time>2021-04-25T08:25:29.000Z</time>
      </trkpt>
      <trkpt lat="44.56095" lon="6.04214">
        <ele>943.598129</ele>
        <time>2021-04-25T08:25:31.000Z</time>
      </trkpt>
      <trkpt lat="44.56099" lon="6.04212">
        <ele>944.164542</ele>
        <time>2021-04-25T08:25:34.000Z</time>
      </trkpt>
      <trkpt lat="44.56099" lon="6.04212">
        <ele>944.164542</ele>
        <time>2021-04-25T08:25:35.000Z</time>
      </trkpt>
      <trkpt lat="44.56105" lon="6.04211">
        <ele>944.820679</ele>
        <time>2021-04-25T08:25:38.000Z</time>
      </trkpt>
      <trkpt lat="44.56105" lon="6.04211">
        <ele>944.820679</ele>
        <time>2021-04-25T08:25:40.000Z</time>
      </trkpt>
      <trkpt lat="44.56109" lon="6.04209">
        <ele>945.330057</ele>
        <time>2021-04-25T08:25:41.000Z</time>
      </trkpt>
      <trkpt lat="44.56109" lon="6.04209">
        <ele>945.330057</ele>
        <time>2021-04-25T08:25:43.000Z</time>
      </trkpt>
      <trkpt lat="44.56113" lon="6.04208">
        <ele>945.841894</ele>
        <time>2021-04-25T08:25:44.000Z</time>
      </trkpt>
      <trkpt lat="44.56116" lon="6.04206">
        <ele>946.275834</ele>
        <time>2021-04-25T08:25:47.000Z</time>
      </trkpt>
      <trkpt lat="44.5612" lon="6.04205">
        <ele>946.771067</ele>
        <time>2021-04-25T08:25:50.000Z</time>
      </trkpt>
      <trkpt lat="44.56123" lon="6.04203">
        <ele>947.174145</ele>
        <time>2021-04-25T08:25:53.000Z</time>
      </trkpt>
      <trkpt lat="44.56123" lon="6.04203">
        <ele>947.174145</ele>
        <time>2021-04-25T08:25:54.000Z</time>
      </trkpt>
      <trkpt lat="44.56127" lon="6.042">
        <ele>947.718801</ele>
        <time>2021-04-25T08:25:57.000Z</time>
      </trkpt>
      <trkpt lat="44.5613" lon="6.04197">
        <ele>948.140235</ele>
        <time>2021-04-25T08:26:00.000Z</time>
      </trkpt>
      <trkpt lat="44.5613" lon="6.04197">
        <ele>948.140235</ele>
        <time>2021-04-25T08:26:02.000Z</time>
      </trkpt>
      <trkpt lat="44.56133" lon="6.04193">
        <ele>948.734149</ele>
        <time>2021-04-25T08:26:04.000Z</time>
      </trkpt>
      <trkpt lat="44.56137" lon="6.0419">
        <ele>949.278458</ele>
        <time>2021-04-25T08:26:07.000Z</time>
      </trkpt>
      <trkpt lat="44.56137" lon="6.0419">
        <ele>949.278458</ele>
        <time>2021-04-25T08:26:09.000Z</time>
      </trkpt>
      <trkpt lat="44.56139" lon="6.04187">
        <ele>949.777934</ele>
        <time>2021-04-25T08:26:10.000Z</time>
      </trkpt>
      <trkpt lat="44.56142" lon="6.04185">
        <ele>950.278687</ele>
        <time>2021-04-25T08:26:13.000Z</time>
      </trkpt>
      <trkpt lat="44.56146" lon="6.04182">
        <ele>950.886925</ele>
        <time>2021-04-25T08:26:17.000Z</time>
      </trkpt>
      <trkpt lat="44.5615" lon="6.04179">
        <ele>951.480875</ele>
        <time>2021-04-25T08:26:20.000Z</time>
      </trkpt>
      <trkpt lat="44.5615" lon="6.04179">
        <ele>951.480875</ele>
        <time>2021-04-25T08:26:22.000Z</time>
      </trkpt>
      <trkpt lat="44.56154" lon="6.04177">
        <ele>952.103856</ele>
        <time>2021-04-25T08:26:23.000Z</time>
      </trkpt>
      <trkpt lat="44.56158" lon="6.04175">
        <ele>952.712094</ele>
        <time>2021-04-25T08:26:26.000Z</time>
      </trkpt>
      <trkpt lat="44.5616" lon="6.04173">
        <ele>953.145593</ele>
        <time>2021-04-25T08:26:28.000Z</time>
      </trkpt>
      <trkpt lat="44.5616" lon="6.04173">
        <ele>953.145593</ele>
        <time>2021-04-25T08:26:29.000Z</time>
      </trkpt>
      <trkpt lat="44.56163" lon="6.0417">
        <ele>953.651643</ele>
        <time>2021-04-25T08:26:31.000Z</time>
      </trkpt>
      <trkpt lat="44.56168" lon="6.04167">
        <ele>954.335136</ele>
        <time>2021-04-25T08:26:35.000Z</time>
      </trkpt>
      <trkpt lat="44.5617" lon="6.04164">
        <ele>954.811432</ele>
        <time>2021-04-25T08:26:39.000Z</time>
      </trkpt>
      <trkpt lat="44.5617" lon="6.04164">
        <ele>954.811432</ele>
        <time>2021-04-25T08:26:41.000Z</time>
      </trkpt>
      <trkpt lat="44.56175" lon="6.04161">
        <ele>955.608849</ele>
        <time>2021-04-25T08:26:43.000Z</time>
      </trkpt>
      <trkpt lat="44.56175" lon="6.04161">
        <ele>955.608849</ele>
        <time>2021-04-25T08:26:45.000Z</time>
      </trkpt>
      <trkpt lat="44.5618" lon="6.04157">
        <ele>956.299685</ele>
        <time>2021-04-25T08:26:46.000Z</time>
      </trkpt>
      <trkpt lat="44.56184" lon="6.04155">
        <ele>957.062927</ele>
        <time>2021-04-25T08:26:49.000Z</time>
      </trkpt>
      <trkpt lat="44.56188" lon="6.04153">
        <ele>957.538318</ele>
        <time>2021-04-25T08:26:51.000Z</time>
      </trkpt>
      <trkpt lat="44.56192" lon="6.04151">
        <ele>958.147761</ele>
        <time>2021-04-25T08:26:54.000Z</time>
      </trkpt>
      <trkpt lat="44.56192" lon="6.04151">
        <ele>958.147761</ele>
        <time>2021-04-25T08:26:55.000Z</time>
      </trkpt>
      <trkpt lat="44.56192" lon="6.04151">
        <ele>958.147761</ele>
        <time>2021-04-25T08:26:57.000Z</time>
      </trkpt>
      <trkpt lat="44.56196" lon="6.04149">
        <ele>958.825232</ele>
        <time>2021-04-25T08:26:58.000Z</time>
      </trkpt>
      <trkpt lat="44.56199" lon="6.04148">
        <ele>959.236904</ele>
        <time>2021-04-25T08:27:01.000Z</time>
      </trkpt>
      <trkpt lat="44.56199" lon="6.04148">
        <ele>959.236904</ele>
        <time>2021-04-25T08:27:02.000Z</time>
      </trkpt>
      <trkpt lat="44.56201" lon="6.04146">
        <ele>959.665916</ele>
        <time>2021-04-25T08:27:04.000Z</time>
      </trkpt>
      <trkpt lat="44.56201" lon="6.04146">
        <ele>959.665916</ele>
        <time>2021-04-25T08:27:07.000Z</time>
      </trkpt>
      <trkpt lat="44.56207" lon="6.04143">
        <ele>960.495751</ele>
        <time>2021-04-25T08:27:08.000Z</time>
      </trkpt>
      <trkpt lat="44.56211" lon="6.04142">
        <ele>961.167273</ele>
        <time>2021-04-25T08:27:12.000Z</time>
      </trkpt>
      <trkpt lat="44.56215" lon="6.0414">
        <ele>961.644957</ele>
        <time>2021-04-25T08:27:15.000Z</time>
      </trkpt>
      <trkpt lat="44.56215" lon="6.0414">
        <ele>961.644957</ele>
        <time>2021-04-25T08:27:17.000Z</time>
      </trkpt>
      <trkpt lat="44.56219" lon="6.04138">
        <ele>962.261527</ele>
        <time>2021-04-25T08:27:18.000Z</time>
      </trkpt>
      <trkpt lat="44.56223" lon="6.04137">
        <ele>962.853209</ele>
        <time>2021-04-25T08:27:21.000Z</time>
      </trkpt>
      <trkpt lat="44.56228" lon="6.04135">
        <ele>963.573015</ele>
        <time>2021-04-25T08:27:25.000Z</time>
      </trkpt>
      <trkpt lat="44.56232" lon="6.04136">
        <ele>964.276586</ele>
        <time>2021-04-25T08:27:29.000Z</time>
      </trkpt>
      <trkpt lat="44.56237" lon="6.04135">
        <ele>964.908841</ele>
        <time>2021-04-25T08:27:33.000Z</time>
      </trkpt>
      <trkpt lat="44.56237" lon="6.04135">
        <ele>964.908841</ele>
        <time>2021-04-25T08:27:34.000Z</time>
      </trkpt>
      <trkpt lat="44.5624" lon="6.04135">
        <ele>965.425632</ele>
        <time>2021-04-25T08:27:36.000Z</time>
      </trkpt>
      <trkpt lat="44.56244" lon="6.04135">
        <ele>965.884913</ele>
        <time>2021-04-25T08:27:39.000Z</time>
      </trkpt>
      <trkpt lat="44.56247" lon="6.04136">
        <ele>966.406538</ele>
        <time>2021-04-25T08:27:42.000Z</time>
      </trkpt>
      <trkpt lat="44.56251" lon="6.04136">
        <ele>967.00943</ele>
        <time>2021-04-25T08:27:46.000Z</time>
      </trkpt>
      <trkpt lat="44.56251" lon="6.04136">
        <ele>967.00943</ele>
        <time>2021-04-25T08:27:47.000Z</time>
      </trkpt>
      <trkpt lat="44.56255" lon="6.04137">
        <ele>967.557217</ele>
        <time>2021-04-25T08:27:49.000Z</time>
      </trkpt>
      <trkpt lat="44.56259" lon="6.04137">
        <ele>968.146025</ele>
        <time>2021-04-25T08:27:52.000Z</time>
      </trkpt>
      <trkpt lat="44.56263" lon="6.04136">
        <ele>968.693812</ele>
        <time>2021-04-25T08:27:55.000Z</time>
      </trkpt>
      <trkpt lat="44.56263" lon="6.04136">
        <ele>968.693812</ele>
        <time>2021-04-25T08:27:56.000Z</time>
      </trkpt>
      <trkpt lat="44.56268" lon="6.04137">
        <ele>969.384627</ele>
        <time>2021-04-25T08:27:59.000Z</time>
      </trkpt>
      <trkpt lat="44.56268" lon="6.04137">
        <ele>969.384627</ele>
        <time>2021-04-25T08:28:00.000Z</time>
      </trkpt>
      <trkpt lat="44.56272" lon="6.04137">
        <ele>969.988213</ele>
        <time>2021-04-25T08:28:02.000Z</time>
      </trkpt>
      <trkpt lat="44.56276" lon="6.04137">
        <ele>970.536</ele>
        <time>2021-04-25T08:28:05.000Z</time>
      </trkpt>
      <trkpt lat="44.56276" lon="6.04137">
        <ele>970.536</ele>
        <time>2021-04-25T08:28:07.000Z</time>
      </trkpt>
      <trkpt lat="44.56281" lon="6.04136">
        <ele>971.244015</ele>
        <time>2021-04-25T08:28:11.000Z</time>
      </trkpt>
      <trkpt lat="44.56281" lon="6.04136">
        <ele>971.244015</ele>
        <time>2021-04-25T08:28:12.000Z</time>
      </trkpt>
      <trkpt lat="44.56281" lon="6.04136">
        <ele>971.244015</ele>
        <time>2021-04-25T08:28:14.000Z</time>
      </trkpt>
      <trkpt lat="44.56285" lon="6.04136">
        <ele>971.861935</ele>
        <time>2021-04-25T08:28:15.000Z</time>
      </trkpt>
      <trkpt lat="44.56285" lon="6.04136">
        <ele>971.861935</ele>
        <time>2021-04-25T08:28:18.000Z</time>
      </trkpt>
      <trkpt lat="44.5629" lon="6.04136">
        <ele>972.551159</ele>
        <time>2021-04-25T08:28:20.000Z</time>
      </trkpt>
      <trkpt lat="44.5629" lon="6.04136">
        <ele>972.551159</ele>
        <time>2021-04-25T08:28:22.000Z</time>
      </trkpt>
      <trkpt lat="44.56295" lon="6.04136">
        <ele>973.211454</ele>
        <time>2021-04-25T08:28:24.000Z</time>
      </trkpt>
      <trkpt lat="44.56297" lon="6.04135">
        <ele>973.575474</ele>
        <time>2021-04-25T08:28:26.000Z</time>
      </trkpt>
      <trkpt lat="44.56301" lon="6.04135">
        <ele>974.121253</ele>
        <time>2021-04-25T08:28:29.000Z</time>
      </trkpt>
      <trkpt lat="44.56301" lon="6.04135">
        <ele>974.121253</ele>
        <time>2021-04-25T08:28:31.000Z</time>
      </trkpt>
      <trkpt lat="44.56305" lon="6.04136">
        <ele>974.68919</ele>
        <time>2021-04-25T08:28:32.000Z</time>
      </trkpt>
      <trkpt lat="44.56305" lon="6.04136">
        <ele>974.68919</ele>
        <time>2021-04-25T08:28:33.000Z</time>
      </trkpt>
      <trkpt lat="44.56309" lon="6.04137">
        <ele>975.127196</ele>
        <time>2021-04-25T08:28:35.000Z</time>
      </trkpt>
      <trkpt lat="44.56309" lon="6.04137">
        <ele>975.127196</ele>
        <time>2021-04-25T08:28:37.000Z</time>
      </trkpt>
      <trkpt lat="44.56314" lon="6.04137">
        <ele>975.651706</ele>
        <time>2021-04-25T08:28:40.000Z</time>
      </trkpt>
      <trkpt lat="44.56318" lon="6.04135">
        <ele>976.132145</ele>
        <time>2021-04-25T08:28:44.000Z</time>
      </trkpt>
      <trkpt lat="44.56318" lon="6.04135">
        <ele>976.132145</ele>
        <time>2021-04-25T08:28:47.000Z</time>
      </trkpt>
      <trkpt lat="44.56322" lon="6.04135">
        <ele>976.612734</ele>
        <time>2021-04-25T08:28:48.000Z</time>
      </trkpt>
      <trkpt lat="44.56322" lon="6.04135">
        <ele>976.612734</ele>
        <time>2021-04-25T08:28:50.000Z</time>
      </trkpt>
      <trkpt lat="44.56326" lon="6.04135">
        <ele>976.995099</ele>
        <time>2021-04-25T08:28:51.000Z</time>
      </trkpt>
      <trkpt lat="44.56329" lon="6.04135">
        <ele>977.290006</ele>
        <time>2021-04-25T08:28:53.000Z</time>
      </trkpt>
      <trkpt lat="44.56329" lon="6.04135">
        <ele>977.290006</ele>
        <time>2021-04-25T08:28:56.000Z</time>
      </trkpt>
      <trkpt lat="44.56334" lon="6.04135">
        <ele>977.879871</ele>
        <time>2021-04-25T08:28:57.000Z</time>
      </trkpt>
      <trkpt lat="44.56338" lon="6.04136">
        <ele>978.320153</ele>
        <time>2021-04-25T08:29:00.000Z</time>
      </trkpt>
      <trkpt lat="44.56342" lon="6.04136">
        <ele>978.735207</ele>
        <time>2021-04-25T08:29:03.000Z</time>
      </trkpt>
      <trkpt lat="44.56344" lon="6.04136">
        <ele>979.011028</ele>
        <time>2021-04-25T08:29:05.000Z</time>
      </trkpt>
      <trkpt lat="44.56347" lon="6.04135">
        <ele>979.351052</ele>
        <time>2021-04-25T08:29:07.000Z</time>
      </trkpt>
      <trkpt lat="44.5635" lon="6.04135">
        <ele>979.656882</ele>
        <time>2021-04-25T08:29:09.000Z</time>
      </trkpt>
      <trkpt lat="44.56353" lon="6.04135">
        <ele>979.941824</ele>
        <time>2021-04-25T08:29:11.000Z</time>
      </trkpt>
      <trkpt lat="44.56357" lon="6.04134">
        <ele>980.358044</ele>
        <time>2021-04-25T08:29:14.000Z</time>
      </trkpt>
      <trkpt lat="44.56359" lon="6.04135">
        <ele>980.655506</ele>
        <time>2021-04-25T08:29:16.000Z</time>
      </trkpt>
      <trkpt lat="44.56362" lon="6.04135">
        <ele>980.950824</ele>
        <time>2021-04-25T08:29:18.000Z</time>
      </trkpt>
      <trkpt lat="44.56365" lon="6.04135">
        <ele>981.267958</ele>
        <time>2021-04-25T08:29:20.000Z</time>
      </trkpt>
      <trkpt lat="44.56368" lon="6.04135">
        <ele>981.552368</ele>
        <time>2021-04-25T08:29:22.000Z</time>
      </trkpt>
      <trkpt lat="44.5637" lon="6.04134">
        <ele>981.870646</ele>
        <time>2021-04-25T08:29:24.000Z</time>
      </trkpt>
      <trkpt lat="44.56373" lon="6.04134">
        <ele>982.177365</ele>
        <time>2021-04-25T08:29:26.000Z</time>
      </trkpt>
      <trkpt lat="44.56376" lon="6.04134">
        <ele>982.494212</ele>
        <time>2021-04-25T08:29:28.000Z</time>
      </trkpt>
      <trkpt lat="44.56379" lon="6.04135">
        <ele>982.801622</ele>
        <time>2021-04-25T08:29:30.000Z</time>
      </trkpt>
      <trkpt lat="44.56381" lon="6.04134">
        <ele>983.020625</ele>
        <time>2021-04-25T08:29:32.000Z</time>
      </trkpt>
      <trkpt lat="44.56384" lon="6.04134">
        <ele>983.331268</ele>
        <time>2021-04-25T08:29:35.000Z</time>
      </trkpt>
      <trkpt lat="44.56386" lon="6.04133">
        <ele>983.621996</ele>
        <time>2021-04-25T08:29:37.000Z</time>
      </trkpt>
      <trkpt lat="44.56389" lon="6.04132">
        <ele>983.931369</ele>
        <time>2021-04-25T08:29:39.000Z</time>
      </trkpt>
      <trkpt lat="44.56393" lon="6.04131">
        <ele>984.346149</ele>
        <time>2021-04-25T08:29:42.000Z</time>
      </trkpt>
      <trkpt lat="44.56397" lon="6.04129">
        <ele>984.779477</ele>
        <time>2021-04-25T08:29:45.000Z</time>
      </trkpt>
      <trkpt lat="44.56397" lon="6.04129">
        <ele>984.779477</ele>
        <time>2021-04-25T08:29:47.000Z</time>
      </trkpt>
      <trkpt lat="44.564" lon="6.04128">
        <ele>985.186618</ele>
        <time>2021-04-25T08:29:48.000Z</time>
      </trkpt>
      <trkpt lat="44.56405" lon="6.04126">
        <ele>985.690059</ele>
        <time>2021-04-25T08:29:51.000Z</time>
      </trkpt>
      <trkpt lat="44.56405" lon="6.04126">
        <ele>985.690059</ele>
        <time>2021-04-25T08:29:53.000Z</time>
      </trkpt>
      <trkpt lat="44.56409" lon="6.04124">
        <ele>986.164155</ele>
        <time>2021-04-25T08:29:54.000Z</time>
      </trkpt>
      <trkpt lat="44.56413" lon="6.04123">
        <ele>986.683714</ele>
        <time>2021-04-25T08:29:57.000Z</time>
      </trkpt>
      <trkpt lat="44.56418" lon="6.04121">
        <ele>987.162574</ele>
        <time>2021-04-25T08:30:00.000Z</time>
      </trkpt>
      <trkpt lat="44.56418" lon="6.04121">
        <ele>987.162574</ele>
        <time>2021-04-25T08:30:01.000Z</time>
      </trkpt>
      <trkpt lat="44.56422" lon="6.04119">
        <ele>987.687085</ele>
        <time>2021-04-25T08:30:03.000Z</time>
      </trkpt>
      <trkpt lat="44.56426" lon="6.04116">
        <ele>988.155857</ele>
        <time>2021-04-25T08:30:06.000Z</time>
      </trkpt>
      <trkpt lat="44.5643" lon="6.04113">
        <ele>988.621063</ele>
        <time>2021-04-25T08:30:09.000Z</time>
      </trkpt>
      <trkpt lat="44.56433" lon="6.04109">
        <ele>989.082388</ele>
        <time>2021-04-25T08:30:12.000Z</time>
      </trkpt>
      <trkpt lat="44.56433" lon="6.04109">
        <ele>989.082388</ele>
        <time>2021-04-25T08:30:14.000Z</time>
      </trkpt>
      <trkpt lat="44.56436" lon="6.04106">
        <ele>989.529515</ele>
        <time>2021-04-25T08:30:15.000Z</time>
      </trkpt>
      <trkpt lat="44.56439" lon="6.04102">
        <ele>990.008041</ele>
        <time>2021-04-25T08:30:18.000Z</time>
      </trkpt>
      <trkpt lat="44.56442" lon="6.04098">
        <ele>990.476379</ele>
        <time>2021-04-25T08:30:21.000Z</time>
      </trkpt>
      <trkpt lat="44.56442" lon="6.04098">
        <ele>990.476379</ele>
        <time>2021-04-25T08:30:23.000Z</time>
      </trkpt>
      <trkpt lat="44.56445" lon="6.04093">
        <ele>990.953141</ele>
        <time>2021-04-25T08:30:24.000Z</time>
      </trkpt>
      <trkpt lat="44.56448" lon="6.04087">
        <ele>991.468376</ele>
        <time>2021-04-25T08:30:27.000Z</time>
      </trkpt>
      <trkpt lat="44.56451" lon="6.04081">
        <ele>992.045181</ele>
        <time>2021-04-25T08:30:30.000Z</time>
      </trkpt>
      <trkpt lat="44.56451" lon="6.04081">
        <ele>992.045181</ele>
        <time>2021-04-25T08:30:31.000Z</time>
      </trkpt>
      <trkpt lat="44.56454" lon="6.04076">
        <ele>992.590243</ele>
        <time>2021-04-25T08:30:33.000Z</time>
      </trkpt>
      <trkpt lat="44.56457" lon="6.04073">
        <ele>992.957208</ele>
        <time>2021-04-25T08:30:35.000Z</time>
      </trkpt>
      <trkpt lat="44.56459" lon="6.04071">
        <ele>993.298206</ele>
        <time>2021-04-25T08:30:37.000Z</time>
      </trkpt>
      <trkpt lat="44.56464" lon="6.04069">
        <ele>993.775644</ele>
        <time>2021-04-25T08:30:40.000Z</time>
      </trkpt>
      <trkpt lat="44.56466" lon="6.04069">
        <ele>994.050474</ele>
        <time>2021-04-25T08:30:42.000Z</time>
      </trkpt>
      <trkpt lat="44.56469" lon="6.04069">
        <ele>994.341198</ele>
        <time>2021-04-25T08:30:44.000Z</time>
      </trkpt>
      <trkpt lat="44.56469" lon="6.04069">
        <ele>994.341198</ele>
        <time>2021-04-25T08:30:45.000Z</time>
      </trkpt>
      <trkpt lat="44.56471" lon="6.04069">
        <ele>994.658006</ele>
        <time>2021-04-25T08:30:46.000Z</time>
      </trkpt>
      <trkpt lat="44.56475" lon="6.04069">
        <ele>995.173592</ele>
        <time>2021-04-25T08:30:49.000Z</time>
      </trkpt>
      <trkpt lat="44.56478" lon="6.04069">
        <ele>995.543321</ele>
        <time>2021-04-25T08:30:51.000Z</time>
      </trkpt>
      <trkpt lat="44.56478" lon="6.04069">
        <ele>995.543321</ele>
        <time>2021-04-25T08:30:53.000Z</time>
      </trkpt>
      <trkpt lat="44.56482" lon="6.04069">
        <ele>996.099726</ele>
        <time>2021-04-25T08:30:54.000Z</time>
      </trkpt>
      <trkpt lat="44.56485" lon="6.04069">
        <ele>996.563266</ele>
        <time>2021-04-25T08:30:57.000Z</time>
      </trkpt>
      <trkpt lat="44.5649" lon="6.04067">
        <ele>997.227355</ele>
        <time>2021-04-25T08:31:01.000Z</time>
      </trkpt>
      <trkpt lat="44.5649" lon="6.04067">
        <ele>997.227355</ele>
        <time>2021-04-25T08:31:02.000Z</time>
      </trkpt>
      <trkpt lat="44.56495" lon="6.04067">
        <ele>997.877513</ele>
        <time>2021-04-25T08:31:04.000Z</time>
      </trkpt>
      <trkpt lat="44.56499" lon="6.04066">
        <ele>998.370342</ele>
        <time>2021-04-25T08:31:07.000Z</time>
      </trkpt>
      <trkpt lat="44.56503" lon="6.04065">
        <ele>998.884494</ele>
        <time>2021-04-25T08:31:10.000Z</time>
      </trkpt>
      <trkpt lat="44.56503" lon="6.04065">
        <ele>998.884494</ele>
        <time>2021-04-25T08:31:11.000Z</time>
      </trkpt>
      <trkpt lat="44.56507" lon="6.04064">
        <ele>999.413625</ele>
        <time>2021-04-25T08:31:13.000Z</time>
      </trkpt>
      <trkpt lat="44.56511" lon="6.04062">
        <ele>999.940663</ele>
        <time>2021-04-25T08:31:16.000Z</time>
      </trkpt>
      <trkpt lat="44.56511" lon="6.04062">
        <ele>999.940663</ele>
        <time>2021-04-25T08:31:17.000Z</time>
      </trkpt>
      <trkpt lat="44.56513" lon="6.04061">
        <ele>1000.296524</ele>
        <time>2021-04-25T08:31:18.000Z</time>
      </trkpt>
      <trkpt lat="44.56516" lon="6.0406">
        <ele>1000.652385</ele>
        <time>2021-04-25T08:31:20.000Z</time>
      </trkpt>
      <trkpt lat="44.56516" lon="6.0406">
        <ele>1000.652385</ele>
        <time>2021-04-25T08:31:21.000Z</time>
      </trkpt>
      <trkpt lat="44.56518" lon="6.04059">
        <ele>1001.010846</ele>
        <time>2021-04-25T08:31:22.000Z</time>
      </trkpt>
      <trkpt lat="44.56521" lon="6.04058">
        <ele>1001.406461</ele>
        <time>2021-04-25T08:31:24.000Z</time>
      </trkpt>
      <trkpt lat="44.56524" lon="6.04057">
        <ele>1001.767748</ele>
        <time>2021-04-25T08:31:26.000Z</time>
      </trkpt>
      <trkpt lat="44.56526" lon="6.04055">
        <ele>1002.123052</ele>
        <time>2021-04-25T08:31:28.000Z</time>
      </trkpt>
      <trkpt lat="44.56529" lon="6.04054">
        <ele>1002.49065</ele>
        <time>2021-04-25T08:31:30.000Z</time>
      </trkpt>
      <trkpt lat="44.56531" lon="6.04052">
        <ele>1002.82543</ele>
        <time>2021-04-25T08:31:32.000Z</time>
      </trkpt>
      <trkpt lat="44.56531" lon="6.04052">
        <ele>1002.82543</ele>
        <time>2021-04-25T08:31:33.000Z</time>
      </trkpt>
      <trkpt lat="44.56533" lon="6.04051">
        <ele>1003.156938</ele>
        <time>2021-04-25T08:31:34.000Z</time>
      </trkpt>
      <trkpt lat="44.56536" lon="6.04049">
        <ele>1003.472032</ele>
        <time>2021-04-25T08:31:36.000Z</time>
      </trkpt>
      <trkpt lat="44.56538" lon="6.04048">
        <ele>1003.783069</ele>
        <time>2021-04-25T08:31:38.000Z</time>
      </trkpt>
      <trkpt lat="44.5654" lon="6.04046">
        <ele>1004.110145</ele>
        <time>2021-04-25T08:31:40.000Z</time>
      </trkpt>
      <trkpt lat="44.56542" lon="6.04045">
        <ele>1004.425558</ele>
        <time>2021-04-25T08:31:42.000Z</time>
      </trkpt>
      <trkpt lat="44.56544" lon="6.04042">
        <ele>1004.787749</ele>
        <time>2021-04-25T08:31:44.000Z</time>
      </trkpt>
      <trkpt lat="44.56547" lon="6.0404">
        <ele>1005.16053</ele>
        <time>2021-04-25T08:31:46.000Z</time>
      </trkpt>
      <trkpt lat="44.56547" lon="6.0404">
        <ele>1005.16053</ele>
        <time>2021-04-25T08:31:47.000Z</time>
      </trkpt>
      <trkpt lat="44.56549" lon="6.04038">
        <ele>1005.571255</ele>
        <time>2021-04-25T08:31:48.000Z</time>
      </trkpt>
      <trkpt lat="44.56551" lon="6.04036">
        <ele>1005.928405</ele>
        <time>2021-04-25T08:31:50.000Z</time>
      </trkpt>
      <trkpt lat="44.56553" lon="6.04034">
        <ele>1006.2634</ele>
        <time>2021-04-25T08:31:52.000Z</time>
      </trkpt>
      <trkpt lat="44.56556" lon="6.04031">
        <ele>1006.625591</ele>
        <time>2021-04-25T08:31:54.000Z</time>
      </trkpt>
      <trkpt lat="44.56558" lon="6.04029">
        <ele>1006.961012</ele>
        <time>2021-04-25T08:31:56.000Z</time>
      </trkpt>
      <trkpt lat="44.56558" lon="6.04029">
        <ele>1006.961012</ele>
        <time>2021-04-25T08:31:57.000Z</time>
      </trkpt>
      <trkpt lat="44.5656" lon="6.04027">
        <ele>1007.292209</ele>
        <time>2021-04-25T08:31:58.000Z</time>
      </trkpt>
      <trkpt lat="44.56562" lon="6.04025">
        <ele>1007.638116</ele>
        <time>2021-04-25T08:32:00.000Z</time>
      </trkpt>
      <trkpt lat="44.56564" lon="6.04022">
        <ele>1007.991638</ele>
        <time>2021-04-25T08:32:02.000Z</time>
      </trkpt>
      <trkpt lat="44.56566" lon="6.0402">
        <ele>1008.322835</ele>
        <time>2021-04-25T08:32:04.000Z</time>
      </trkpt>
      <trkpt lat="44.56568" lon="6.04018">
        <ele>1008.668741</ele>
        <time>2021-04-25T08:32:06.000Z</time>
      </trkpt>
      <trkpt lat="44.56568" lon="6.04018">
        <ele>1008.668741</ele>
        <time>2021-04-25T08:32:07.000Z</time>
      </trkpt>
      <trkpt lat="44.5657" lon="6.04015">
        <ele>1009.020354</ele>
        <time>2021-04-25T08:32:08.000Z</time>
      </trkpt>
      <trkpt lat="44.56572" lon="6.04013">
        <ele>1009.377828</ele>
        <time>2021-04-25T08:32:10.000Z</time>
      </trkpt>
      <trkpt lat="44.56574" lon="6.04011">
        <ele>1009.73135</ele>
        <time>2021-04-25T08:32:12.000Z</time>
      </trkpt>
      <trkpt lat="44.56576" lon="6.04008">
        <ele>1010.094836</ele>
        <time>2021-04-25T08:32:14.000Z</time>
      </trkpt>
      <trkpt lat="44.56578" lon="6.04006">
        <ele>1010.440742</ele>
        <time>2021-04-25T08:32:16.000Z</time>
      </trkpt>
      <trkpt lat="44.56578" lon="6.04006">
        <ele>1010.440742</ele>
        <time>2021-04-25T08:32:17.000Z</time>
      </trkpt>
      <trkpt lat="44.5658" lon="6.04004">
        <ele>1010.745972</ele>
        <time>2021-04-25T08:32:18.000Z</time>
      </trkpt>
      <trkpt lat="44.56581" lon="6.04001">
        <ele>1011.039218</ele>
        <time>2021-04-25T08:32:20.000Z</time>
      </trkpt>
      <trkpt lat="44.56583" lon="6.03999">
        <ele>1011.339468</ele>
        <time>2021-04-25T08:32:22.000Z</time>
      </trkpt>
      <trkpt lat="44.56583" lon="6.03999">
        <ele>1011.339468</ele>
        <time>2021-04-25T08:32:24.000Z</time>
      </trkpt>
      <trkpt lat="44.56586" lon="6.03996">
        <ele>1011.827545</ele>
        <time>2021-04-25T08:32:25.000Z</time>
      </trkpt>
      <trkpt lat="44.56589" lon="6.03993">
        <ele>1012.298296</ele>
        <time>2021-04-25T08:32:28.000Z</time>
      </trkpt>
      <trkpt lat="44.56591" lon="6.03991">
        <ele>1012.654868</ele>
        <time>2021-04-25T08:32:30.000Z</time>
      </trkpt>
      <trkpt lat="44.56593" lon="6.03989">
        <ele>1013.017058</ele>
        <time>2021-04-25T08:32:32.000Z</time>
      </trkpt>
      <trkpt lat="44.56595" lon="6.03987">
        <ele>1013.354472</ele>
        <time>2021-04-25T08:32:34.000Z</time>
      </trkpt>
      <trkpt lat="44.56597" lon="6.03985">
        <ele>1013.66242</ele>
        <time>2021-04-25T08:32:36.000Z</time>
      </trkpt>
      <trkpt lat="44.56597" lon="6.03985">
        <ele>1013.66242</ele>
        <time>2021-04-25T08:32:37.000Z</time>
      </trkpt>
      <trkpt lat="44.56599" lon="6.03982">
        <ele>1013.95808</ele>
        <time>2021-04-25T08:32:38.000Z</time>
      </trkpt>
      <trkpt lat="44.566" lon="6.0398">
        <ele>1014.283096</ele>
        <time>2021-04-25T08:32:40.000Z</time>
      </trkpt>
      <trkpt lat="44.56602" lon="6.03977">
        <ele>1014.639999</ele>
        <time>2021-04-25T08:32:42.000Z</time>
      </trkpt>
      <trkpt lat="44.56604" lon="6.03975">
        <ele>1014.959229</ele>
        <time>2021-04-25T08:32:44.000Z</time>
      </trkpt>
      <trkpt lat="44.56604" lon="6.03975">
        <ele>1014.959229</ele>
        <time>2021-04-25T08:32:45.000Z</time>
      </trkpt>
      <trkpt lat="44.56606" lon="6.03972">
        <ele>1015.2981</ele>
        <time>2021-04-25T08:32:46.000Z</time>
      </trkpt>
      <trkpt lat="44.56608" lon="6.03969">
        <ele>1015.752854</ele>
        <time>2021-04-25T08:32:49.000Z</time>
      </trkpt>
      <trkpt lat="44.5661" lon="6.03965">
        <ele>1016.21283</ele>
        <time>2021-04-25T08:32:52.000Z</time>
      </trkpt>
      <trkpt lat="44.5661" lon="6.03965">
        <ele>1016.21283</ele>
        <time>2021-04-25T08:32:53.000Z</time>
      </trkpt>
      <trkpt lat="44.56612" lon="6.0396">
        <ele>1016.688684</ele>
        <time>2021-04-25T08:32:55.000Z</time>
      </trkpt>
      <trkpt lat="44.56612" lon="6.0396">
        <ele>1016.688684</ele>
        <time>2021-04-25T08:32:57.000Z</time>
      </trkpt>
      <trkpt lat="44.56614" lon="6.03957">
        <ele>1017.152355</ele>
        <time>2021-04-25T08:32:58.000Z</time>
      </trkpt>
      <trkpt lat="44.56616" lon="6.03953">
        <ele>1017.596666</ele>
        <time>2021-04-25T08:33:01.000Z</time>
      </trkpt>
      <trkpt lat="44.56616" lon="6.03953">
        <ele>1017.596666</ele>
        <time>2021-04-25T08:33:02.000Z</time>
      </trkpt>
      <trkpt lat="44.56618" lon="6.03949">
        <ele>1018.057214</ele>
        <time>2021-04-25T08:33:04.000Z</time>
      </trkpt>
      <trkpt lat="44.5662" lon="6.03946">
        <ele>1018.421159</ele>
        <time>2021-04-25T08:33:06.000Z</time>
      </trkpt>
      <trkpt lat="44.56621" lon="6.03944">
        <ele>1018.768585</ele>
        <time>2021-04-25T08:33:08.000Z</time>
      </trkpt>
      <trkpt lat="44.56623" lon="6.03941">
        <ele>1019.158471</ele>
        <time>2021-04-25T08:33:10.000Z</time>
      </trkpt>
      <trkpt lat="44.56623" lon="6.03941">
        <ele>1019.158471</ele>
        <time>2021-04-25T08:33:11.000Z</time>
      </trkpt>
      <trkpt lat="44.56624" lon="6.03938">
        <ele>1019.530835</ele>
        <time>2021-04-25T08:33:12.000Z</time>
      </trkpt>
      <trkpt lat="44.56626" lon="6.03935">
        <ele>1019.8858</ele>
        <time>2021-04-25T08:33:14.000Z</time>
      </trkpt>
      <trkpt lat="44.56626" lon="6.03935">
        <ele>1019.8858</ele>
        <time>2021-04-25T08:33:16.000Z</time>
      </trkpt>
      <trkpt lat="44.56628" lon="6.03932">
        <ele>1020.362722</ele>
        <time>2021-04-25T08:33:17.000Z</time>
      </trkpt>
      <trkpt lat="44.56629" lon="6.0393">
        <ele>1020.665751</ele>
        <time>2021-04-25T08:33:19.000Z</time>
      </trkpt>
      <trkpt lat="44.5663" lon="6.03927">
        <ele>1020.96878</ele>
        <time>2021-04-25T08:33:21.000Z</time>
      </trkpt>
      <trkpt lat="44.56631" lon="6.03925">
        <ele>1021.26324</ele>
        <time>2021-04-25T08:33:23.000Z</time>
      </trkpt>
      <trkpt lat="44.56633" lon="6.03923">
        <ele>1021.583712</ele>
        <time>2021-04-25T08:33:25.000Z</time>
      </trkpt>
      <trkpt lat="44.56634" lon="6.0392">
        <ele>1021.925412</ele>
        <time>2021-04-25T08:33:27.000Z</time>
      </trkpt>
      <trkpt lat="44.56634" lon="6.0392">
        <ele>1021.925412</ele>
        <time>2021-04-25T08:33:28.000Z</time>
      </trkpt>
      <trkpt lat="44.56636" lon="6.03918">
        <ele>1022.277696</ele>
        <time>2021-04-25T08:33:29.000Z</time>
      </trkpt>
      <trkpt lat="44.56637" lon="6.03916">
        <ele>1022.593789</ele>
        <time>2021-04-25T08:33:31.000Z</time>
      </trkpt>
      <trkpt lat="44.56639" lon="6.03914">
        <ele>1022.911503</ele>
        <time>2021-04-25T08:33:33.000Z</time>
      </trkpt>
      <trkpt lat="44.56639" lon="6.03914">
        <ele>1022.911503</ele>
        <time>2021-04-25T08:33:34.000Z</time>
      </trkpt>
      <trkpt lat="44.56641" lon="6.03912">
        <ele>1023.254023</ele>
        <time>2021-04-25T08:33:35.000Z</time>
      </trkpt>
      <trkpt lat="44.56643" lon="6.0391">
        <ele>1023.5902</ele>
        <time>2021-04-25T08:33:37.000Z</time>
      </trkpt>
      <trkpt lat="44.56645" lon="6.0391">
        <ele>1023.965617</ele>
        <time>2021-04-25T08:33:39.000Z</time>
      </trkpt>
      <trkpt lat="44.56648" lon="6.0391">
        <ele>1024.311402</ele>
        <time>2021-04-25T08:33:41.000Z</time>
      </trkpt>
      <trkpt lat="44.56648" lon="6.0391">
        <ele>1024.311402</ele>
        <time>2021-04-25T08:33:43.000Z</time>
      </trkpt>
      <trkpt lat="44.56651" lon="6.0391">
        <ele>1024.833712</ele>
        <time>2021-04-25T08:33:44.000Z</time>
      </trkpt>
      <trkpt lat="44.56654" lon="6.0391">
        <ele>1025.206713</ele>
        <time>2021-04-25T08:33:46.000Z</time>
      </trkpt>
      <trkpt lat="44.56656" lon="6.0391">
        <ele>1025.564952</ele>
        <time>2021-04-25T08:33:48.000Z</time>
      </trkpt>
      <trkpt lat="44.5666" lon="6.03911">
        <ele>1026.102494</ele>
        <time>2021-04-25T08:33:51.000Z</time>
      </trkpt>
      <trkpt lat="44.56662" lon="6.03911">
        <ele>1026.448279</ele>
        <time>2021-04-25T08:33:53.000Z</time>
      </trkpt>
      <trkpt lat="44.56662" lon="6.03911">
        <ele>1026.448279</ele>
        <time>2021-04-25T08:33:54.000Z</time>
      </trkpt>
      <trkpt lat="44.56664" lon="6.03912">
        <ele>1026.811995</ele>
        <time>2021-04-25T08:33:55.000Z</time>
      </trkpt>
      <trkpt lat="44.56667" lon="6.03912">
        <ele>1027.186357</ele>
        <time>2021-04-25T08:33:57.000Z</time>
      </trkpt>
      <trkpt lat="44.56671" lon="6.03914">
        <ele>1027.802291</ele>
        <time>2021-04-25T08:34:00.000Z</time>
      </trkpt>
      <trkpt lat="44.56671" lon="6.03914">
        <ele>1027.802291</ele>
        <time>2021-04-25T08:34:01.000Z</time>
      </trkpt>
      <trkpt lat="44.56673" lon="6.03915">
        <ele>1028.225856</ele>
        <time>2021-04-25T08:34:02.000Z</time>
      </trkpt>
      <trkpt lat="44.56676" lon="6.03917">
        <ele>1028.624037</ele>
        <time>2021-04-25T08:34:04.000Z</time>
      </trkpt>
      <trkpt lat="44.56679" lon="6.0392">
        <ele>1029.204149</ele>
        <time>2021-04-25T08:34:07.000Z</time>
      </trkpt>
      <trkpt lat="44.5668" lon="6.03923">
        <ele>1029.577452</ele>
        <time>2021-04-25T08:34:09.000Z</time>
      </trkpt>
      <trkpt lat="44.56682" lon="6.03926">
        <ele>1029.950755</ele>
        <time>2021-04-25T08:34:11.000Z</time>
      </trkpt>
      <trkpt lat="44.56682" lon="6.03926">
        <ele>1029.950755</ele>
        <time>2021-04-25T08:34:14.000Z</time>
      </trkpt>
      <trkpt lat="44.56683" lon="6.03932">
        <ele>1030.650562</ele>
        <time>2021-04-25T08:34:16.000Z</time>
      </trkpt>
      <trkpt lat="44.56683" lon="6.03932">
        <ele>1030.650562</ele>
        <time>2021-04-25T08:34:18.000Z</time>
      </trkpt>
      <trkpt lat="44.56686" lon="6.0394">
        <ele>1031.54036</ele>
        <time>2021-04-25T08:34:21.000Z</time>
      </trkpt>
      <trkpt lat="44.56686" lon="6.0394">
        <ele>1031.54036</ele>
        <time>2021-04-25T08:34:23.000Z</time>
      </trkpt>
      <trkpt lat="44.56686" lon="6.0394">
        <ele>1031.54036</ele>
        <time>2021-04-25T08:34:25.000Z</time>
      </trkpt>
      <trkpt lat="44.56687" lon="6.03947">
        <ele>1032.375125</ele>
        <time>2021-04-25T08:34:26.000Z</time>
      </trkpt>
      <trkpt lat="44.56687" lon="6.03947">
        <ele>1032.375125</ele>
        <time>2021-04-25T08:34:28.000Z</time>
      </trkpt>
      <trkpt lat="44.56688" lon="6.03956">
        <ele>1033.316261</ele>
        <time>2021-04-25T08:34:31.000Z</time>
      </trkpt>
      <trkpt lat="44.56688" lon="6.03956">
        <ele>1033.316261</ele>
        <time>2021-04-25T08:34:32.000Z</time>
      </trkpt>
      <trkpt lat="44.56691" lon="6.03971">
        <ele>1034.999149</ele>
        <time>2021-04-25T08:34:43.000Z</time>
      </trkpt>
      <trkpt lat="44.56691" lon="6.03971">
        <ele>1034.999149</ele>
        <time>2021-04-25T08:34:47.000Z</time>
      </trkpt>
      <trkpt lat="44.56694" lon="6.03986">
        <ele>1036.68246</ele>
        <time>2021-04-25T08:34:51.000Z</time>
      </trkpt>
      <trkpt lat="44.56694" lon="6.03986">
        <ele>1036.68246</ele>
        <time>2021-04-25T08:34:59.000Z</time>
      </trkpt>
      <trkpt lat="44.56696" lon="6.04001">
        <ele>1038.241924</ele>
        <time>2021-04-25T08:35:00.000Z</time>
      </trkpt>
      <trkpt lat="44.56696" lon="6.04001">
        <ele>1038.241924</ele>
        <time>2021-04-25T08:35:03.000Z</time>
      </trkpt>
      <trkpt lat="44.56697" lon="6.04014">
        <ele>1039.597137</ele>
        <time>2021-04-25T08:35:07.000Z</time>
      </trkpt>
      <trkpt lat="44.56697" lon="6.04014">
        <ele>1039.597137</ele>
        <time>2021-04-25T08:35:10.000Z</time>
      </trkpt>
      <trkpt lat="44.56697" lon="6.04014">
        <ele>1039.597137</ele>
        <time>2021-04-25T08:35:12.000Z</time>
      </trkpt>
      <trkpt lat="44.56697" lon="6.04026">
        <ele>1040.949143</ele>
        <time>2021-04-25T08:35:14.000Z</time>
      </trkpt>
      <trkpt lat="44.56697" lon="6.04026">
        <ele>1040.949143</ele>
        <time>2021-04-25T08:35:17.000Z</time>
      </trkpt>
      <trkpt lat="44.56696" lon="6.04035">
        <ele>1041.866318</ele>
        <time>2021-04-25T08:35:18.000Z</time>
      </trkpt>
      <trkpt lat="44.56696" lon="6.04035">
        <ele>1041.866318</ele>
        <time>2021-04-25T08:35:19.000Z</time>
      </trkpt>
      <trkpt lat="44.56698" lon="6.04043">
        <ele>1042.769636</ele>
        <time>2021-04-25T08:35:23.000Z</time>
      </trkpt>
      <trkpt lat="44.56698" lon="6.04043">
        <ele>1042.769636</ele>
        <time>2021-04-25T08:35:27.000Z</time>
      </trkpt>
      <trkpt lat="44.56698" lon="6.04051">
        <ele>1043.619996</ele>
        <time>2021-04-25T08:35:28.000Z</time>
      </trkpt>
      <trkpt lat="44.56698" lon="6.04059">
        <ele>1044.427975</ele>
        <time>2021-04-25T08:35:33.000Z</time>
      </trkpt>
      <trkpt lat="44.56697" lon="6.04066">
        <ele>1044.954898</ele>
        <time>2021-04-25T08:35:38.000Z</time>
      </trkpt>
      <trkpt lat="44.56697" lon="6.04066">
        <ele>1044.954898</ele>
        <time>2021-04-25T08:35:40.000Z</time>
      </trkpt>
      <trkpt lat="44.56699" lon="6.04077">
        <ele>1045.363087</ele>
        <time>2021-04-25T08:35:45.000Z</time>
      </trkpt>
      <trkpt lat="44.56702" lon="6.04082">
        <ele>1045.608765</ele>
        <time>2021-04-25T08:35:49.000Z</time>
      </trkpt>
      <trkpt lat="44.56702" lon="6.04082">
        <ele>1045.608765</ele>
        <time>2021-04-25T08:35:50.000Z</time>
      </trkpt>
      <trkpt lat="44.56705" lon="6.04088">
        <ele>1045.878658</ele>
        <time>2021-04-25T08:35:53.000Z</time>
      </trkpt>
      <trkpt lat="44.56709" lon="6.04091">
        <ele>1046.143751</ele>
        <time>2021-04-25T08:35:56.000Z</time>
      </trkpt>
      <trkpt lat="44.56709" lon="6.04091">
        <ele>1046.143751</ele>
        <time>2021-04-25T08:35:57.000Z</time>
      </trkpt>
      <trkpt lat="44.56715" lon="6.04093">
        <ele>1046.463775</ele>
        <time>2021-04-25T08:35:59.000Z</time>
      </trkpt>
      <trkpt lat="44.56721" lon="6.04097">
        <ele>1046.765173</ele>
        <time>2021-04-25T08:36:02.000Z</time>
      </trkpt>
      <trkpt lat="44.56726" lon="6.041">
        <ele>1047.078438</ele>
        <time>2021-04-25T08:36:05.000Z</time>
      </trkpt>
      <trkpt lat="44.56731" lon="6.04102">
        <ele>1047.339022</ele>
        <time>2021-04-25T08:36:08.000Z</time>
      </trkpt>
      <trkpt lat="44.56731" lon="6.04102">
        <ele>1047.339022</ele>
        <time>2021-04-25T08:36:09.000Z</time>
      </trkpt>
      <trkpt lat="44.56731" lon="6.04102">
        <ele>1047.339022</ele>
        <time>2021-04-25T08:36:10.000Z</time>
      </trkpt>
      <trkpt lat="44.56736" lon="6.04107">
        <ele>1047.659885</ele>
        <time>2021-04-25T08:36:12.000Z</time>
      </trkpt>
      <trkpt lat="44.56736" lon="6.04107">
        <ele>1047.659885</ele>
        <time>2021-04-25T08:36:14.000Z</time>
      </trkpt>
      <trkpt lat="44.56741" lon="6.04111">
        <ele>1047.967048</ele>
        <time>2021-04-25T08:36:16.000Z</time>
      </trkpt>
      <trkpt lat="44.56741" lon="6.04111">
        <ele>1047.967048</ele>
        <time>2021-04-25T08:36:19.000Z</time>
      </trkpt>
      <trkpt lat="44.56747" lon="6.04115">
        <ele>1048.320844</ele>
        <time>2021-04-25T08:36:20.000Z</time>
      </trkpt>
      <trkpt lat="44.56747" lon="6.04115">
        <ele>1048.320844</ele>
        <time>2021-04-25T08:36:23.000Z</time>
      </trkpt>
      <trkpt lat="44.56753" lon="6.04119">
        <ele>1048.672722</ele>
        <time>2021-04-25T08:36:24.000Z</time>
      </trkpt>
      <trkpt lat="44.56758" lon="6.04122">
        <ele>1048.952059</ele>
        <time>2021-04-25T08:36:27.000Z</time>
      </trkpt>
      <trkpt lat="44.56758" lon="6.04122">
        <ele>1048.952059</ele>
        <time>2021-04-25T08:36:28.000Z</time>
      </trkpt>
      <trkpt lat="44.56764" lon="6.04127">
        <ele>1049.302469</ele>
        <time>2021-04-25T08:36:31.000Z</time>
      </trkpt>
      <trkpt lat="44.56764" lon="6.04127">
        <ele>1049.302469</ele>
        <time>2021-04-25T08:36:32.000Z</time>
      </trkpt>
      <trkpt lat="44.56764" lon="6.04127">
        <ele>1049.302469</ele>
        <time>2021-04-25T08:36:33.000Z</time>
      </trkpt>
      <trkpt lat="44.56769" lon="6.0413">
        <ele>1049.568641</ele>
        <time>2021-04-25T08:36:34.000Z</time>
      </trkpt>
      <trkpt lat="44.56773" lon="6.04134">
        <ele>1049.847016</ele>
        <time>2021-04-25T08:36:37.000Z</time>
      </trkpt>
      <trkpt lat="44.56778" lon="6.04137">
        <ele>1050.110659</ele>
        <time>2021-04-25T08:36:40.000Z</time>
      </trkpt>
      <trkpt lat="44.56783" lon="6.04139">
        <ele>1050.391484</ele>
        <time>2021-04-25T08:36:43.000Z</time>
      </trkpt>
      <trkpt lat="44.56787" lon="6.04144">
        <ele>1050.682726</ele>
        <time>2021-04-25T08:36:46.000Z</time>
      </trkpt>
      <trkpt lat="44.56787" lon="6.04144">
        <ele>1050.682726</ele>
        <time>2021-04-25T08:36:47.000Z</time>
      </trkpt>
      <trkpt lat="44.56792" lon="6.04149">
        <ele>1050.983336</ele>
        <time>2021-04-25T08:36:50.000Z</time>
      </trkpt>
      <trkpt lat="44.56795" lon="6.04153">
        <ele>1051.208794</ele>
        <time>2021-04-25T08:36:53.000Z</time>
      </trkpt>
      <trkpt lat="44.56799" lon="6.04158">
        <ele>1051.485082</ele>
        <time>2021-04-25T08:36:57.000Z</time>
      </trkpt>
      <trkpt lat="44.56799" lon="6.04158">
        <ele>1051.485082</ele>
        <time>2021-04-25T08:36:58.000Z</time>
      </trkpt>
      <trkpt lat="44.56803" lon="6.04162">
        <ele>1051.72847</ele>
        <time>2021-04-25T08:37:00.000Z</time>
      </trkpt>
      <trkpt lat="44.56807" lon="6.04165">
        <ele>1051.976473</ele>
        <time>2021-04-25T08:37:03.000Z</time>
      </trkpt>
      <trkpt lat="44.56811" lon="6.04168">
        <ele>1052.214469</ele>
        <time>2021-04-25T08:37:06.000Z</time>
      </trkpt>
      <trkpt lat="44.56811" lon="6.04168">
        <ele>1052.214469</ele>
        <time>2021-04-25T08:37:09.000Z</time>
      </trkpt>
      <trkpt lat="44.56815" lon="6.04173">
        <ele>1052.5012</ele>
        <time>2021-04-25T08:37:10.000Z</time>
      </trkpt>
      <trkpt lat="44.56815" lon="6.04173">
        <ele>1052.5012</ele>
        <time>2021-04-25T08:37:13.000Z</time>
      </trkpt>
      <trkpt lat="44.56819" lon="6.04179">
        <ele>1052.826049</ele>
        <time>2021-04-25T08:37:14.000Z</time>
      </trkpt>
      <trkpt lat="44.56819" lon="6.04179">
        <ele>1052.826049</ele>
        <time>2021-04-25T08:37:16.000Z</time>
      </trkpt>
      <trkpt lat="44.56826" lon="6.04188">
        <ele>1053.296887</ele>
        <time>2021-04-25T08:37:18.000Z</time>
      </trkpt>
      <trkpt lat="44.56832" lon="6.04198">
        <ele>1053.777463</ele>
        <time>2021-04-25T08:37:22.000Z</time>
      </trkpt>
      <trkpt lat="44.56835" lon="6.04205">
        <ele>1054.104994</ele>
        <time>2021-04-25T08:37:25.000Z</time>
      </trkpt>
      <trkpt lat="44.56839" lon="6.0421">
        <ele>1054.270756</ele>
        <time>2021-04-25T08:37:28.000Z</time>
      </trkpt>
      <trkpt lat="44.56842" lon="6.04215">
        <ele>1054.350715</ele>
        <time>2021-04-25T08:37:31.000Z</time>
      </trkpt>
      <trkpt lat="44.56845" lon="6.04219">
        <ele>1054.411934</ele>
        <time>2021-04-25T08:37:33.000Z</time>
      </trkpt>
      <trkpt lat="44.56848" lon="6.04223">
        <ele>1054.482497</ele>
        <time>2021-04-25T08:37:35.000Z</time>
      </trkpt>
      <trkpt lat="44.56851" lon="6.04227">
        <ele>1054.549539</ele>
        <time>2021-04-25T08:37:37.000Z</time>
      </trkpt>
      <trkpt lat="44.56851" lon="6.04227">
        <ele>1054.549539</ele>
        <time>2021-04-25T08:37:38.000Z</time>
      </trkpt>
      <trkpt lat="44.56855" lon="6.04231">
        <ele>1054.614693</ele>
        <time>2021-04-25T08:37:39.000Z</time>
      </trkpt>
      <trkpt lat="44.56859" lon="6.04237">
        <ele>1054.717605</ele>
        <time>2021-04-25T08:37:42.000Z</time>
      </trkpt>
      <trkpt lat="44.56863" lon="6.04241">
        <ele>1054.789374</ele>
        <time>2021-04-25T08:37:44.000Z</time>
      </trkpt>
      <trkpt lat="44.56866" lon="6.04245">
        <ele>1054.85952</ele>
        <time>2021-04-25T08:37:46.000Z</time>
      </trkpt>
      <trkpt lat="44.56872" lon="6.04253">
        <ele>1054.992411</ele>
        <time>2021-04-25T08:37:50.000Z</time>
      </trkpt>
      <trkpt lat="44.56879" lon="6.04261">
        <ele>1055.131784</ele>
        <time>2021-04-25T08:37:54.000Z</time>
      </trkpt>
      <trkpt lat="44.56884" lon="6.04267">
        <ele>1055.239364</ele>
        <time>2021-04-25T08:37:57.000Z</time>
      </trkpt>
      <trkpt lat="44.56887" lon="6.04272">
        <ele>1055.319264</ele>
        <time>2021-04-25T08:37:59.000Z</time>
      </trkpt>
      <trkpt lat="44.56891" lon="6.04276">
        <ele>1055.396176</ele>
        <time>2021-04-25T08:38:01.000Z</time>
      </trkpt>
      <trkpt lat="44.56895" lon="6.04282">
        <ele>1055.483889</ele>
        <time>2021-04-25T08:38:04.000Z</time>
      </trkpt>
      <trkpt lat="44.56895" lon="6.04282">
        <ele>1055.483889</ele>
        <time>2021-04-25T08:38:06.000Z</time>
      </trkpt>
      <trkpt lat="44.569" lon="6.04288">
        <ele>1055.588985</ele>
        <time>2021-04-25T08:38:07.000Z</time>
      </trkpt>
      <trkpt lat="44.56906" lon="6.04294">
        <ele>1055.704974</ele>
        <time>2021-04-25T08:38:10.000Z</time>
      </trkpt>
      <trkpt lat="44.56912" lon="6.04299">
        <ele>1055.824536</ele>
        <time>2021-04-25T08:38:13.000Z</time>
      </trkpt>
      <trkpt lat="44.56918" lon="6.04304">
        <ele>1055.930803</ele>
        <time>2021-04-25T08:38:16.000Z</time>
      </trkpt>
      <trkpt lat="44.56918" lon="6.04304">
        <ele>1055.930803</ele>
        <time>2021-04-25T08:38:18.000Z</time>
      </trkpt>
      <trkpt lat="44.56924" lon="6.04308">
        <ele>1056.038316</ele>
        <time>2021-04-25T08:38:19.000Z</time>
      </trkpt>
      <trkpt lat="44.56924" lon="6.04308">
        <ele>1056.038316</ele>
        <time>2021-04-25T08:38:20.000Z</time>
      </trkpt>
      <trkpt lat="44.56929" lon="6.04312">
        <ele>1056.129903</ele>
        <time>2021-04-25T08:38:21.000Z</time>
      </trkpt>
      <trkpt lat="44.56934" lon="6.04318">
        <ele>1056.236119</ele>
        <time>2021-04-25T08:38:24.000Z</time>
      </trkpt>
      <trkpt lat="44.56938" lon="6.04322">
        <ele>1056.310168</ele>
        <time>2021-04-25T08:38:26.000Z</time>
      </trkpt>
      <trkpt lat="44.56938" lon="6.04322">
        <ele>1056.310168</ele>
        <time>2021-04-25T08:38:27.000Z</time>
      </trkpt>
      <trkpt lat="44.56942" lon="6.04325">
        <ele>1056.381608</ele>
        <time>2021-04-25T08:38:28.000Z</time>
      </trkpt>
      <trkpt lat="44.56947" lon="6.04331">
        <ele>1056.487247</ele>
        <time>2021-04-25T08:38:31.000Z</time>
      </trkpt>
      <trkpt lat="44.56947" lon="6.04331">
        <ele>1056.487247</ele>
        <time>2021-04-25T08:38:33.000Z</time>
      </trkpt>
      <trkpt lat="44.56951" lon="6.04337">
        <ele>1056.587883</ele>
        <time>2021-04-25T08:38:34.000Z</time>
      </trkpt>
      <trkpt lat="44.56956" lon="6.04343">
        <ele>1056.68245</ele>
        <time>2021-04-25T08:38:37.000Z</time>
      </trkpt>
      <trkpt lat="44.5696" lon="6.04347">
        <ele>1056.767455</ele>
        <time>2021-04-25T08:38:40.000Z</time>
      </trkpt>
      <trkpt lat="44.56965" lon="6.04353">
        <ele>1056.871568</ele>
        <time>2021-04-25T08:38:43.000Z</time>
      </trkpt>
      <trkpt lat="44.56969" lon="6.04358">
        <ele>1056.95348</ele>
        <time>2021-04-25T08:38:45.000Z</time>
      </trkpt>
      <trkpt lat="44.56974" lon="6.04362">
        <ele>1057.047368</ele>
        <time>2021-04-25T08:38:48.000Z</time>
      </trkpt>
      <trkpt lat="44.56974" lon="6.04362">
        <ele>1057.047368</ele>
        <time>2021-04-25T08:38:50.000Z</time>
      </trkpt>
      <trkpt lat="44.56979" lon="6.04366">
        <ele>1057.196771</ele>
        <time>2021-04-25T08:38:51.000Z</time>
      </trkpt>
      <trkpt lat="44.56984" lon="6.04369">
        <ele>1057.42394</ele>
        <time>2021-04-25T08:38:54.000Z</time>
      </trkpt>
      <trkpt lat="44.5699" lon="6.04373">
        <ele>1057.701609</ele>
        <time>2021-04-25T08:38:57.000Z</time>
      </trkpt>
      <trkpt lat="44.56996" lon="6.04375">
        <ele>1057.953822</ele>
        <time>2021-04-25T08:39:00.000Z</time>
      </trkpt>
      <trkpt lat="44.57003" lon="6.04378">
        <ele>1058.22553</ele>
        <time>2021-04-25T08:39:03.000Z</time>
      </trkpt>
      <trkpt lat="44.57008" lon="6.0438">
        <ele>1058.426748</ele>
        <time>2021-04-25T08:39:05.000Z</time>
      </trkpt>
      <trkpt lat="44.57012" lon="6.04383">
        <ele>1058.628311</ele>
        <time>2021-04-25T08:39:07.000Z</time>
      </trkpt>
      <trkpt lat="44.57017" lon="6.04385">
        <ele>1058.837356</ele>
        <time>2021-04-25T08:39:09.000Z</time>
      </trkpt>
      <trkpt lat="44.57022" lon="6.04389">
        <ele>1059.057063</ele>
        <time>2021-04-25T08:39:11.000Z</time>
      </trkpt>
      <trkpt lat="44.57027" lon="6.04392">
        <ele>1059.266995</ele>
        <time>2021-04-25T08:39:13.000Z</time>
      </trkpt>
      <trkpt lat="44.57031" lon="6.04395">
        <ele>1059.473591</ele>
        <time>2021-04-25T08:39:15.000Z</time>
      </trkpt>
      <trkpt lat="44.57035" lon="6.04399">
        <ele>1059.678771</ele>
        <time>2021-04-25T08:39:17.000Z</time>
      </trkpt>
      <trkpt lat="44.57039" lon="6.04403">
        <ele>1059.877712</ele>
        <time>2021-04-25T08:39:19.000Z</time>
      </trkpt>
      <trkpt lat="44.57044" lon="6.04406">
        <ele>1060.076329</ele>
        <time>2021-04-25T08:39:21.000Z</time>
      </trkpt>
      <trkpt lat="44.57048" lon="6.0441">
        <ele>1060.283678</ele>
        <time>2021-04-25T08:39:23.000Z</time>
      </trkpt>
      <trkpt lat="44.57052" lon="6.04414">
        <ele>1060.493065</ele>
        <time>2021-04-25T08:39:25.000Z</time>
      </trkpt>
      <trkpt lat="44.57057" lon="6.04418">
        <ele>1060.700026</ele>
        <time>2021-04-25T08:39:27.000Z</time>
      </trkpt>
      <trkpt lat="44.57061" lon="6.04421">
        <ele>1060.90887</ele>
        <time>2021-04-25T08:39:29.000Z</time>
      </trkpt>
      <trkpt lat="44.57061" lon="6.04421">
        <ele>1060.90887</ele>
        <time>2021-04-25T08:39:30.000Z</time>
      </trkpt>
      <trkpt lat="44.57065" lon="6.04425">
        <ele>1061.112447</ele>
        <time>2021-04-25T08:39:31.000Z</time>
      </trkpt>
      <trkpt lat="44.5707" lon="6.04429">
        <ele>1061.319407</ele>
        <time>2021-04-25T08:39:33.000Z</time>
      </trkpt>
      <trkpt lat="44.57074" lon="6.04433">
        <ele>1061.523299</ele>
        <time>2021-04-25T08:39:35.000Z</time>
      </trkpt>
      <trkpt lat="44.57078" lon="6.04437">
        <ele>1061.727191</ele>
        <time>2021-04-25T08:39:37.000Z</time>
      </trkpt>
      <trkpt lat="44.57083" lon="6.0444">
        <ele>1061.932603</ele>
        <time>2021-04-25T08:39:39.000Z</time>
      </trkpt>
      <trkpt lat="44.57085" lon="6.04442">
        <ele>1062.035193</ele>
        <time>2021-04-25T08:39:40.000Z</time>
      </trkpt>
      <trkpt lat="44.57085" lon="6.04442">
        <ele>1062.035193</ele>
        <time>2021-04-25T08:39:41.000Z</time>
      </trkpt>
      <trkpt lat="44.57089" lon="6.04446">
        <ele>1062.230694</ele>
        <time>2021-04-25T08:39:42.000Z</time>
      </trkpt>
      <trkpt lat="44.57091" lon="6.04448">
        <ele>1062.332216</ele>
        <time>2021-04-25T08:39:43.000Z</time>
      </trkpt>
      <trkpt lat="44.57093" lon="6.0445">
        <ele>1062.428259</ele>
        <time>2021-04-25T08:39:44.000Z</time>
      </trkpt>
      <trkpt lat="44.57097" lon="6.04453">
        <ele>1062.623677</ele>
        <time>2021-04-25T08:39:46.000Z</time>
      </trkpt>
      <trkpt lat="44.57099" lon="6.04454">
        <ele>1062.721327</ele>
        <time>2021-04-25T08:39:47.000Z</time>
      </trkpt>
      <trkpt lat="44.57102" lon="6.04456">
        <ele>1062.81658</ele>
        <time>2021-04-25T08:39:48.000Z</time>
      </trkpt>
      <trkpt lat="44.57106" lon="6.04459">
        <ele>1063.011998</ele>
        <time>2021-04-25T08:39:50.000Z</time>
      </trkpt>
      <trkpt lat="44.5711" lon="6.04461">
        <ele>1063.198745</ele>
        <time>2021-04-25T08:39:52.000Z</time>
      </trkpt>
      <trkpt lat="44.5711" lon="6.04461">
        <ele>1063.198745</ele>
        <time>2021-04-25T08:39:53.000Z</time>
      </trkpt>
      <trkpt lat="44.57115" lon="6.04465">
        <ele>1063.402674</ele>
        <time>2021-04-25T08:39:54.000Z</time>
      </trkpt>
      <trkpt lat="44.57119" lon="6.04468">
        <ele>1063.599423</ele>
        <time>2021-04-25T08:39:56.000Z</time>
      </trkpt>
      <trkpt lat="44.57122" lon="6.0447">
        <ele>1063.732684</ele>
        <time>2021-04-25T08:39:59.000Z</time>
      </trkpt>
      <trkpt lat="44.57126" lon="6.04473">
        <ele>1063.927261</ele>
        <time>2021-04-25T08:40:01.000Z</time>
      </trkpt>
      <trkpt lat="44.5713" lon="6.04476">
        <ele>1064.115226</ele>
        <time>2021-04-25T08:40:03.000Z</time>
      </trkpt>
      <trkpt lat="44.57135" lon="6.04479">
        <ele>1064.317869</ele>
        <time>2021-04-25T08:40:05.000Z</time>
      </trkpt>
      <trkpt lat="44.57139" lon="6.04483">
        <ele>1064.36068</ele>
        <time>2021-04-25T08:40:07.000Z</time>
      </trkpt>
      <trkpt lat="44.57144" lon="6.04487">
        <ele>1064.347236</ele>
        <time>2021-04-25T08:40:09.000Z</time>
      </trkpt>
      <trkpt lat="44.57147" lon="6.0449">
        <ele>1064.334561</ele>
        <time>2021-04-25T08:40:11.000Z</time>
      </trkpt>
      <trkpt lat="44.57147" lon="6.0449">
        <ele>1064.334561</ele>
        <time>2021-04-25T08:40:12.000Z</time>
      </trkpt>
      <trkpt lat="44.57151" lon="6.04494">
        <ele>1064.321558</ele>
        <time>2021-04-25T08:40:13.000Z</time>
      </trkpt>
      <trkpt lat="44.57155" lon="6.04498">
        <ele>1064.308447</ele>
        <time>2021-04-25T08:40:15.000Z</time>
      </trkpt>
      <trkpt lat="44.5716" lon="6.04502">
        <ele>1064.295037</ele>
        <time>2021-04-25T08:40:17.000Z</time>
      </trkpt>
      <trkpt lat="44.57164" lon="6.04505">
        <ele>1064.282352</ele>
        <time>2021-04-25T08:40:19.000Z</time>
      </trkpt>
      <trkpt lat="44.57168" lon="6.04509">
        <ele>1064.269441</ele>
        <time>2021-04-25T08:40:21.000Z</time>
      </trkpt>
      <trkpt lat="44.57168" lon="6.04509">
        <ele>1064.269441</ele>
        <time>2021-04-25T08:40:22.000Z</time>
      </trkpt>
      <trkpt lat="44.57172" lon="6.04512">
        <ele>1064.256357</ele>
        <time>2021-04-25T08:40:23.000Z</time>
      </trkpt>
      <trkpt lat="44.57176" lon="6.04516">
        <ele>1064.243643</ele>
        <time>2021-04-25T08:40:25.000Z</time>
      </trkpt>
      <trkpt lat="44.57181" lon="6.0452">
        <ele>1064.230093</ele>
        <time>2021-04-25T08:40:27.000Z</time>
      </trkpt>
      <trkpt lat="44.57185" lon="6.04524">
        <ele>1064.215338</ele>
        <time>2021-04-25T08:40:29.000Z</time>
      </trkpt>
      <trkpt lat="44.57189" lon="6.04528">
        <ele>1064.202115</ele>
        <time>2021-04-25T08:40:31.000Z</time>
      </trkpt>
      <trkpt lat="44.57193" lon="6.04533">
        <ele>1064.188989</ele>
        <time>2021-04-25T08:40:33.000Z</time>
      </trkpt>
      <trkpt lat="44.57196" lon="6.04538">
        <ele>1064.175313</ele>
        <time>2021-04-25T08:40:35.000Z</time>
      </trkpt>
      <trkpt lat="44.57198" lon="6.04544">
        <ele>1064.162391</ele>
        <time>2021-04-25T08:40:37.000Z</time>
      </trkpt>
      <trkpt lat="44.57201" lon="6.0455">
        <ele>1064.149304</ele>
        <time>2021-04-25T08:40:39.000Z</time>
      </trkpt>
      <trkpt lat="44.57203" lon="6.04556">
        <ele>1064.136679</ele>
        <time>2021-04-25T08:40:41.000Z</time>
      </trkpt>
      <trkpt lat="44.57206" lon="6.04563">
        <ele>1064.121733</ele>
        <time>2021-04-25T08:40:43.000Z</time>
      </trkpt>
      <trkpt lat="44.57206" lon="6.04563">
        <ele>1064.121733</ele>
        <time>2021-04-25T08:40:44.000Z</time>
      </trkpt>
      <trkpt lat="44.57208" lon="6.04572">
        <ele>1064.103438</ele>
        <time>2021-04-25T08:40:45.000Z</time>
      </trkpt>
      <trkpt lat="44.57211" lon="6.04581">
        <ele>1064.083508</ele>
        <time>2021-04-25T08:40:47.000Z</time>
      </trkpt>
      <trkpt lat="44.57214" lon="6.04586">
        <ele>1064.072956</ele>
        <time>2021-04-25T08:40:48.000Z</time>
      </trkpt>
      <trkpt lat="44.57216" lon="6.04591">
        <ele>1064.061954</ele>
        <time>2021-04-25T08:40:49.000Z</time>
      </trkpt>
      <trkpt lat="44.57218" lon="6.04596">
        <ele>1064.05018</ele>
        <time>2021-04-25T08:40:50.000Z</time>
      </trkpt>
      <trkpt lat="44.57221" lon="6.04601">
        <ele>1064.038562</ele>
        <time>2021-04-25T08:40:51.000Z</time>
      </trkpt>
      <trkpt lat="44.57223" lon="6.04606">
        <ele>1064.02663</ele>
        <time>2021-04-25T08:40:52.000Z</time>
      </trkpt>
      <trkpt lat="44.57225" lon="6.04611">
        <ele>1064.015391</ele>
        <time>2021-04-25T08:40:53.000Z</time>
      </trkpt>
      <trkpt lat="44.57228" lon="6.04616">
        <ele>1064.00346</ele>
        <time>2021-04-25T08:40:54.000Z</time>
      </trkpt>
      <trkpt lat="44.57231" lon="6.04622">
        <ele>1063.990418</ele>
        <time>2021-04-25T08:40:55.000Z</time>
      </trkpt>
      <trkpt lat="44.57237" lon="6.04631">
        <ele>1063.966875</ele>
        <time>2021-04-25T08:40:57.000Z</time>
      </trkpt>
      <trkpt lat="44.57242" lon="6.04637">
        <ele>1063.94926</ele>
        <time>2021-04-25T08:40:59.000Z</time>
      </trkpt>
      <trkpt lat="44.57246" lon="6.04644">
        <ele>1063.932389</ele>
        <time>2021-04-25T08:41:01.000Z</time>
      </trkpt>
      <trkpt lat="44.57246" lon="6.04644">
        <ele>1063.932389</ele>
        <time>2021-04-25T08:41:02.000Z</time>
      </trkpt>
      <trkpt lat="44.57251" lon="6.0465">
        <ele>1063.914324</ele>
        <time>2021-04-25T08:41:03.000Z</time>
      </trkpt>
      <trkpt lat="44.57256" lon="6.04655">
        <ele>1063.898039</ele>
        <time>2021-04-25T08:41:05.000Z</time>
      </trkpt>
      <trkpt lat="44.5726" lon="6.04659">
        <ele>1063.777666</ele>
        <time>2021-04-25T08:41:07.000Z</time>
      </trkpt>
      <trkpt lat="44.5726" lon="6.04659">
        <ele>1063.777666</ele>
        <time>2021-04-25T08:41:09.000Z</time>
      </trkpt>
      <trkpt lat="44.57265" lon="6.04663">
        <ele>1063.540896</ele>
        <time>2021-04-25T08:41:11.000Z</time>
      </trkpt>
      <trkpt lat="44.57265" lon="6.04663">
        <ele>1063.540896</ele>
        <time>2021-04-25T08:41:12.000Z</time>
      </trkpt>
      <trkpt lat="44.57265" lon="6.04663">
        <ele>1063.540896</ele>
        <time>2021-04-25T08:41:13.000Z</time>
      </trkpt>
      <trkpt lat="44.57265" lon="6.04663">
        <ele>1063.540896</ele>
        <time>2021-04-25T08:41:53.000Z</time>
      </trkpt>
      <trkpt lat="44.57265" lon="6.04663">
        <ele>1063.540896</ele>
        <time>2021-04-25T08:41:54.000Z</time>
      </trkpt>
      <trkpt lat="44.57272" lon="6.04664">
        <ele>1063.236808</ele>
        <time>2021-04-25T08:41:58.000Z</time>
      </trkpt>
      <trkpt lat="44.57272" lon="6.04664">
        <ele>1063.236808</ele>
        <time>2021-04-25T08:42:00.000Z</time>
      </trkpt>
      <trkpt lat="44.57281" lon="6.04668">
        <ele>1062.845317</ele>
        <time>2021-04-25T08:42:01.000Z</time>
      </trkpt>
      <trkpt lat="44.57288" lon="6.04672">
        <ele>1062.520196</ele>
        <time>2021-04-25T08:42:03.000Z</time>
      </trkpt>
      <trkpt lat="44.57288" lon="6.04672">
        <ele>1062.520196</ele>
        <time>2021-04-25T08:42:04.000Z</time>
      </trkpt>
      <trkpt lat="44.57296" lon="6.04676">
        <ele>1062.14103</ele>
        <time>2021-04-25T08:42:05.000Z</time>
      </trkpt>
      <trkpt lat="44.57303" lon="6.0468">
        <ele>1061.810831</ele>
        <time>2021-04-25T08:42:07.000Z</time>
      </trkpt>
      <trkpt lat="44.57303" lon="6.0468">
        <ele>1061.810831</ele>
        <time>2021-04-25T08:42:08.000Z</time>
      </trkpt>
      <trkpt lat="44.57311" lon="6.04687">
        <ele>1061.417792</ele>
        <time>2021-04-25T08:42:10.000Z</time>
      </trkpt>
      <trkpt lat="44.57311" lon="6.04687">
        <ele>1061.417792</ele>
        <time>2021-04-25T08:42:12.000Z</time>
      </trkpt>
      <trkpt lat="44.57316" lon="6.047">
        <ele>1060.959204</ele>
        <time>2021-04-25T08:42:13.000Z</time>
      </trkpt>
      <trkpt lat="44.57325" lon="6.0471">
        <ele>1060.456226</ele>
        <time>2021-04-25T08:42:16.000Z</time>
      </trkpt>
      <trkpt lat="44.57325" lon="6.0471">
        <ele>1060.456226</ele>
        <time>2021-04-25T08:42:17.000Z</time>
      </trkpt>
      <trkpt lat="44.57336" lon="6.04717">
        <ele>1059.938602</ele>
        <time>2021-04-25T08:42:19.000Z</time>
      </trkpt>
      <trkpt lat="44.57336" lon="6.04717">
        <ele>1059.938602</ele>
        <time>2021-04-25T08:42:23.000Z</time>
      </trkpt>
      <trkpt lat="44.57348" lon="6.0472">
        <ele>1059.44595</ele>
        <time>2021-04-25T08:42:24.000Z</time>
      </trkpt>
      <trkpt lat="44.57348" lon="6.0472">
        <ele>1059.44595</ele>
        <time>2021-04-25T08:42:27.000Z</time>
      </trkpt>
      <trkpt lat="44.57357" lon="6.04713">
        <ele>1058.983023</ele>
        <time>2021-04-25T08:42:28.000Z</time>
      </trkpt>
      <trkpt lat="44.57357" lon="6.04713">
        <ele>1058.983023</ele>
        <time>2021-04-25T08:42:29.000Z</time>
      </trkpt>
      <trkpt lat="44.57367" lon="6.0471">
        <ele>1058.563409</ele>
        <time>2021-04-25T08:42:31.000Z</time>
      </trkpt>
      <trkpt lat="44.57367" lon="6.0471">
        <ele>1058.563409</ele>
        <time>2021-04-25T08:42:33.000Z</time>
      </trkpt>
      <trkpt lat="44.57377" lon="6.04704">
        <ele>1058.08713</ele>
        <time>2021-04-25T08:42:35.000Z</time>
      </trkpt>
      <trkpt lat="44.57377" lon="6.04704">
        <ele>1058.08713</ele>
        <time>2021-04-25T08:42:37.000Z</time>
      </trkpt>
      <trkpt lat="44.57377" lon="6.04704">
        <ele>1058.08713</ele>
        <time>2021-04-25T08:42:38.000Z</time>
      </trkpt>
      <trkpt lat="44.57386" lon="6.04713">
        <ele>1057.605963</ele>
        <time>2021-04-25T08:42:41.000Z</time>
      </trkpt>
      <trkpt lat="44.57386" lon="6.04713">
        <ele>1057.605963</ele>
        <time>2021-04-25T08:42:44.000Z</time>
      </trkpt>
      <trkpt lat="44.57386" lon="6.04713">
        <ele>1057.605963</ele>
        <time>2021-04-25T08:42:49.000Z</time>
      </trkpt>
      <trkpt lat="44.57394" lon="6.04723">
        <ele>1057.153107</ele>
        <time>2021-04-25T08:42:50.000Z</time>
      </trkpt>
      <trkpt lat="44.57394" lon="6.04723">
        <ele>1057.153107</ele>
        <time>2021-04-25T08:42:51.000Z</time>
      </trkpt>
      <trkpt lat="44.57394" lon="6.04723">
        <ele>1057.153107</ele>
        <time>2021-04-25T08:42:52.000Z</time>
      </trkpt>
      <trkpt lat="44.57403" lon="6.04731">
        <ele>1056.713822</ele>
        <time>2021-04-25T08:43:07.000Z</time>
      </trkpt>
      <trkpt lat="44.57403" lon="6.04731">
        <ele>1056.713822</ele>
        <time>2021-04-25T08:43:16.000Z</time>
      </trkpt>
      <trkpt lat="44.57404" lon="6.04744">
        <ele>1056.285645</ele>
        <time>2021-04-25T08:43:17.000Z</time>
      </trkpt>
      <trkpt lat="44.57404" lon="6.04744">
        <ele>1056.285645</ele>
        <time>2021-04-25T08:43:18.000Z</time>
      </trkpt>
      <trkpt lat="44.57404" lon="6.04744">
        <ele>1056.285645</ele>
        <time>2021-04-25T08:43:20.000Z</time>
      </trkpt>
      <trkpt lat="44.57399" lon="6.04759">
        <ele>1056.452726</ele>
        <time>2021-04-25T08:43:22.000Z</time>
      </trkpt>
      <trkpt lat="44.57399" lon="6.04759">
        <ele>1056.452726</ele>
        <time>2021-04-25T08:43:23.000Z</time>
      </trkpt>
      <trkpt lat="44.57404" lon="6.0477">
        <ele>1056.780813</ele>
        <time>2021-04-25T08:43:42.000Z</time>
      </trkpt>
      <trkpt lat="44.57404" lon="6.0477">
        <ele>1056.780813</ele>
        <time>2021-04-25T08:43:55.000Z</time>
      </trkpt>
      <trkpt lat="44.57405" lon="6.04782">
        <ele>1057.086496</ele>
        <time>2021-04-25T08:44:01.000Z</time>
      </trkpt>
      <trkpt lat="44.57405" lon="6.04782">
        <ele>1057.086496</ele>
        <time>2021-04-25T08:44:03.000Z</time>
      </trkpt>
      <trkpt lat="44.57407" lon="6.04797">
        <ele>1057.47511</ele>
        <time>2021-04-25T08:44:08.000Z</time>
      </trkpt>
      <trkpt lat="44.57407" lon="6.04797">
        <ele>1057.47511</ele>
        <time>2021-04-25T08:44:11.000Z</time>
      </trkpt>
      <trkpt lat="44.5741" lon="6.04808">
        <ele>1057.77856</ele>
        <time>2021-04-25T08:44:14.000Z</time>
      </trkpt>
      <trkpt lat="44.5741" lon="6.04808">
        <ele>1057.77856</ele>
        <time>2021-04-25T08:44:17.000Z</time>
      </trkpt>
      <trkpt lat="44.5741" lon="6.04808">
        <ele>1057.77856</ele>
        <time>2021-04-25T08:44:20.000Z</time>
      </trkpt>
      <trkpt lat="44.57414" lon="6.0482">
        <ele>1058.134589</ele>
        <time>2021-04-25T08:44:22.000Z</time>
      </trkpt>
      <trkpt lat="44.57414" lon="6.0482">
        <ele>1058.134589</ele>
        <time>2021-04-25T08:44:25.000Z</time>
      </trkpt>
      <trkpt lat="44.57414" lon="6.0482">
        <ele>1058.134589</ele>
        <time>2021-04-25T08:44:27.000Z</time>
      </trkpt>
      <trkpt lat="44.57413" lon="6.04835">
        <ele>1058.520477</ele>
        <time>2021-04-25T08:44:29.000Z</time>
      </trkpt>
      <trkpt lat="44.57414" lon="6.04845">
        <ele>1058.788162</ele>
        <time>2021-04-25T08:44:38.000Z</time>
      </trkpt>
      <trkpt lat="44.57415" lon="6.04856">
        <ele>1059.060419</ele>
        <time>2021-04-25T08:44:47.000Z</time>
      </trkpt>
      <trkpt lat="44.57411" lon="6.04863">
        <ele>1059.290105</ele>
        <time>2021-04-25T08:44:53.000Z</time>
      </trkpt>
      <trkpt lat="44.5741" lon="6.04871">
        <ele>1059.502198</ele>
        <time>2021-04-25T08:45:03.000Z</time>
      </trkpt>
      <trkpt lat="44.5741" lon="6.04871">
        <ele>1059.502198</ele>
        <time>2021-04-25T08:45:35.000Z</time>
      </trkpt>
      <trkpt lat="44.5741" lon="6.04871">
        <ele>1059.502198</ele>
        <time>2021-04-25T08:45:38.000Z</time>
      </trkpt>
      <trkpt lat="44.57417" lon="6.04874">
        <ele>1059.753234</ele>
        <time>2021-04-25T08:45:39.000Z</time>
      </trkpt>
      <trkpt lat="44.57423" lon="6.0487">
        <ele>1060.002313</ele>
        <time>2021-04-25T08:45:45.000Z</time>
      </trkpt>
      <trkpt lat="44.57429" lon="6.04864">
        <ele>1060.272896</ele>
        <time>2021-04-25T08:45:53.000Z</time>
      </trkpt>
      <trkpt lat="44.57429" lon="6.04864">
        <ele>1060.272896</ele>
        <time>2021-04-25T08:45:56.000Z</time>
      </trkpt>
      <trkpt lat="44.57436" lon="6.04861">
        <ele>1060.542186</ele>
        <time>2021-04-25T08:45:59.000Z</time>
      </trkpt>
      <trkpt lat="44.57444" lon="6.04861">
        <ele>1060.836551</ele>
        <time>2021-04-25T08:46:07.000Z</time>
      </trkpt>
      <trkpt lat="44.57444" lon="6.04861">
        <ele>1060.836551</ele>
        <time>2021-04-25T08:46:08.000Z</time>
      </trkpt>
      <trkpt lat="44.57444" lon="6.04861">
        <ele>1060.836551</ele>
        <time>2021-04-25T08:46:10.000Z</time>
      </trkpt>
      <trkpt lat="44.57452" lon="6.04861">
        <ele>1061.119849</ele>
        <time>2021-04-25T08:46:12.000Z</time>
      </trkpt>
      <trkpt lat="44.5746" lon="6.04859">
        <ele>1061.414528</ele>
        <time>2021-04-25T08:46:16.000Z</time>
      </trkpt>
      <trkpt lat="44.57468" lon="6.04857">
        <ele>1061.71219</ele>
        <time>2021-04-25T08:46:19.000Z</time>
      </trkpt>
      <trkpt lat="44.57476" lon="6.04854">
        <ele>1062.005751</ele>
        <time>2021-04-25T08:46:22.000Z</time>
      </trkpt>
      <trkpt lat="44.57476" lon="6.04854">
        <ele>1062.005751</ele>
        <time>2021-04-25T08:46:24.000Z</time>
      </trkpt>
      <trkpt lat="44.57482" lon="6.04851">
        <ele>1062.246569</ele>
        <time>2021-04-25T08:46:25.000Z</time>
      </trkpt>
      <trkpt lat="44.57482" lon="6.04851">
        <ele>1062.246569</ele>
        <time>2021-04-25T08:46:26.000Z</time>
      </trkpt>
      <trkpt lat="44.57482" lon="6.04851">
        <ele>1062.246569</ele>
        <time>2021-04-25T08:46:27.000Z</time>
      </trkpt>
      <trkpt lat="44.5749" lon="6.04843">
        <ele>1062.595862</ele>
        <time>2021-04-25T08:46:29.000Z</time>
      </trkpt>
      <trkpt lat="44.5749" lon="6.04843">
        <ele>1062.595862</ele>
        <time>2021-04-25T08:46:30.000Z</time>
      </trkpt>
      <trkpt lat="44.5749" lon="6.04843">
        <ele>1062.595862</ele>
        <time>2021-04-25T08:46:31.000Z</time>
      </trkpt>
      <trkpt lat="44.5749" lon="6.04843">
        <ele>1062.595862</ele>
        <time>2021-04-25T08:46:32.000Z</time>
      </trkpt>
      <trkpt lat="44.57497" lon="6.04836">
        <ele>1062.798836</ele>
        <time>2021-04-25T08:46:33.000Z</time>
      </trkpt>
      <trkpt lat="44.57497" lon="6.04836">
        <ele>1062.798836</ele>
        <time>2021-04-25T08:46:35.000Z</time>
      </trkpt>
      <trkpt lat="44.57506" lon="6.04823">
        <ele>1063.030602</ele>
        <time>2021-04-25T08:46:38.000Z</time>
      </trkpt>
      <trkpt lat="44.57506" lon="6.04823">
        <ele>1063.030602</ele>
        <time>2021-04-25T08:46:39.000Z</time>
      </trkpt>
      <trkpt lat="44.57506" lon="6.04823">
        <ele>1063.030602</ele>
        <time>2021-04-25T08:46:40.000Z</time>
      </trkpt>
      <trkpt lat="44.57514" lon="6.04816">
        <ele>1063.202224</ele>
        <time>2021-04-25T08:46:42.000Z</time>
      </trkpt>
      <trkpt lat="44.57514" lon="6.04816">
        <ele>1063.202224</ele>
        <time>2021-04-25T08:46:44.000Z</time>
      </trkpt>
      <trkpt lat="44.57514" lon="6.04816">
        <ele>1063.202224</ele>
        <time>2021-04-25T08:46:45.000Z</time>
      </trkpt>
      <trkpt lat="44.57514" lon="6.04816">
        <ele>1063.202224</ele>
        <time>2021-04-25T08:46:48.000Z</time>
      </trkpt>
      <trkpt lat="44.57519" lon="6.04829">
        <ele>1063.386582</ele>
        <time>2021-04-25T08:46:49.000Z</time>
      </trkpt>
      <trkpt lat="44.57519" lon="6.04829">
        <ele>1063.386582</ele>
        <time>2021-04-25T08:46:51.000Z</time>
      </trkpt>
      <trkpt lat="44.57522" lon="6.04846">
        <ele>1063.610668</ele>
        <time>2021-04-25T08:46:54.000Z</time>
      </trkpt>
      <trkpt lat="44.57522" lon="6.04846">
        <ele>1063.610668</ele>
        <time>2021-04-25T08:46:55.000Z</time>
      </trkpt>
      <trkpt lat="44.57527" lon="6.04858">
        <ele>1063.795001</ele>
        <time>2021-04-25T08:46:56.000Z</time>
      </trkpt>
      <trkpt lat="44.57535" lon="6.04868">
        <ele>1063.980724</ele>
        <time>2021-04-25T08:46:58.000Z</time>
      </trkpt>
      <trkpt lat="44.57543" lon="6.04876">
        <ele>1064.166085</ele>
        <time>2021-04-25T08:47:02.000Z</time>
      </trkpt>
      <trkpt lat="44.57543" lon="6.04876">
        <ele>1064.166085</ele>
        <time>2021-04-25T08:47:03.000Z</time>
      </trkpt>
      <trkpt lat="44.57543" lon="6.04876">
        <ele>1064.166085</ele>
        <time>2021-04-25T08:47:09.000Z</time>
      </trkpt>
      <trkpt lat="44.57553" lon="6.0487">
        <ele>1064.357223</ele>
        <time>2021-04-25T08:47:10.000Z</time>
      </trkpt>
      <trkpt lat="44.57553" lon="6.0487">
        <ele>1064.357223</ele>
        <time>2021-04-25T08:47:13.000Z</time>
      </trkpt>
      <trkpt lat="44.57553" lon="6.0487">
        <ele>1064.357223</ele>
        <time>2021-04-25T08:47:15.000Z</time>
      </trkpt>
      <trkpt lat="44.57553" lon="6.0487">
        <ele>1064.357223</ele>
        <time>2021-04-25T08:47:17.000Z</time>
      </trkpt>
      <trkpt lat="44.57554" lon="6.04885">
        <ele>1064.546598</ele>
        <time>2021-04-25T08:47:18.000Z</time>
      </trkpt>
      <trkpt lat="44.57554" lon="6.04885">
        <ele>1064.546598</ele>
        <time>2021-04-25T08:47:19.000Z</time>
      </trkpt>
      <trkpt lat="44.57548" lon="6.04899">
        <ele>1064.748313</ele>
        <time>2021-04-25T08:47:21.000Z</time>
      </trkpt>
      <trkpt lat="44.57548" lon="6.04899">
        <ele>1064.748313</ele>
        <time>2021-04-25T08:47:22.000Z</time>
      </trkpt>
      <trkpt lat="44.57548" lon="6.04899">
        <ele>1064.748313</ele>
        <time>2021-04-25T08:47:24.000Z</time>
      </trkpt>
      <trkpt lat="44.57547" lon="6.04913">
        <ele>1064.92811</ele>
        <time>2021-04-25T08:47:25.000Z</time>
      </trkpt>
      <trkpt lat="44.57547" lon="6.04913">
        <ele>1064.92811</ele>
        <time>2021-04-25T08:47:28.000Z</time>
      </trkpt>
      <trkpt lat="44.57547" lon="6.04913">
        <ele>1064.92811</ele>
        <time>2021-04-25T08:47:30.000Z</time>
      </trkpt>
      <trkpt lat="44.57552" lon="6.04929">
        <ele>1065.143234</ele>
        <time>2021-04-25T08:47:31.000Z</time>
      </trkpt>
      <trkpt lat="44.57552" lon="6.04929">
        <ele>1065.143234</ele>
        <time>2021-04-25T08:47:33.000Z</time>
      </trkpt>
      <trkpt lat="44.57554" lon="6.04943">
        <ele>1065.32549</ele>
        <time>2021-04-25T08:47:34.000Z</time>
      </trkpt>
      <trkpt lat="44.57554" lon="6.04943">
        <ele>1065.32549</ele>
        <time>2021-04-25T08:47:36.000Z</time>
      </trkpt>
      <trkpt lat="44.57556" lon="6.04958">
        <ele>1065.53062</ele>
        <time>2021-04-25T08:47:38.000Z</time>
      </trkpt>
      <trkpt lat="44.57556" lon="6.04958">
        <ele>1065.53062</ele>
        <time>2021-04-25T08:47:39.000Z</time>
      </trkpt>
      <trkpt lat="44.57556" lon="6.04958">
        <ele>1065.53062</ele>
        <time>2021-04-25T08:47:40.000Z</time>
      </trkpt>
      <trkpt lat="44.57556" lon="6.04958">
        <ele>1065.53062</ele>
        <time>2021-04-25T08:47:41.000Z</time>
      </trkpt>
      <trkpt lat="44.57561" lon="6.04971">
        <ele>1065.706522</ele>
        <time>2021-04-25T08:47:42.000Z</time>
      </trkpt>
      <trkpt lat="44.57561" lon="6.04971">
        <ele>1065.706522</ele>
        <time>2021-04-25T08:47:43.000Z</time>
      </trkpt>
      <trkpt lat="44.5757" lon="6.04979">
        <ele>1065.868112</ele>
        <time>2021-04-25T08:47:47.000Z</time>
      </trkpt>
      <trkpt lat="44.5757" lon="6.04994">
        <ele>1065.273758</ele>
        <time>2021-04-25T08:47:51.000Z</time>
      </trkpt>
      <trkpt lat="44.5757" lon="6.05011">
        <ele>1064.558923</ele>
        <time>2021-04-25T08:47:55.000Z</time>
      </trkpt>
      <trkpt lat="44.57564" lon="6.05027">
        <ele>1063.827652</ele>
        <time>2021-04-25T08:47:59.000Z</time>
      </trkpt>
      <trkpt lat="44.57558" lon="6.05039">
        <ele>1063.251851</ele>
        <time>2021-04-25T08:48:02.000Z</time>
      </trkpt>
      <trkpt lat="44.57553" lon="6.05052">
        <ele>1062.653306</ele>
        <time>2021-04-25T08:48:05.000Z</time>
      </trkpt>
      <trkpt lat="44.57553" lon="6.05064">
        <ele>1062.164336</ele>
        <time>2021-04-25T08:48:07.000Z</time>
      </trkpt>
      <trkpt lat="44.57557" lon="6.05075">
        <ele>1061.661125</ele>
        <time>2021-04-25T08:48:09.000Z</time>
      </trkpt>
      <trkpt lat="44.57565" lon="6.05086">
        <ele>1061.046168</ele>
        <time>2021-04-25T08:48:12.000Z</time>
      </trkpt>
      <trkpt lat="44.57565" lon="6.05086">
        <ele>1061.046168</ele>
        <time>2021-04-25T08:48:14.000Z</time>
      </trkpt>
      <trkpt lat="44.57572" lon="6.05098">
        <ele>1060.409924</ele>
        <time>2021-04-25T08:48:15.000Z</time>
      </trkpt>
      <trkpt lat="44.57579" lon="6.05108">
        <ele>1059.835692</ele>
        <time>2021-04-25T08:48:17.000Z</time>
      </trkpt>
      <trkpt lat="44.57586" lon="6.05116">
        <ele>1059.350878</ele>
        <time>2021-04-25T08:48:19.000Z</time>
      </trkpt>
      <trkpt lat="44.57593" lon="6.05123">
        <ele>1058.854295</ele>
        <time>2021-04-25T08:48:21.000Z</time>
      </trkpt>
      <trkpt lat="44.576" lon="6.05132">
        <ele>1058.310844</ele>
        <time>2021-04-25T08:48:24.000Z</time>
      </trkpt>
      <trkpt lat="44.57607" lon="6.05138">
        <ele>1057.879219</ele>
        <time>2021-04-25T08:48:27.000Z</time>
      </trkpt>
      <trkpt lat="44.57612" lon="6.05141">
        <ele>1057.538496</ele>
        <time>2021-04-25T08:48:29.000Z</time>
      </trkpt>
      <trkpt lat="44.57618" lon="6.05146">
        <ele>1057.169174</ele>
        <time>2021-04-25T08:48:31.000Z</time>
      </trkpt>
      <trkpt lat="44.57624" lon="6.05152">
        <ele>1056.755943</ele>
        <time>2021-04-25T08:48:33.000Z</time>
      </trkpt>
      <trkpt lat="44.5763" lon="6.05159">
        <ele>1056.315358</ele>
        <time>2021-04-25T08:48:35.000Z</time>
      </trkpt>
      <trkpt lat="44.57636" lon="6.05168">
        <ele>1055.813638</ele>
        <time>2021-04-25T08:48:37.000Z</time>
      </trkpt>
      <trkpt lat="44.57642" lon="6.05177">
        <ele>1055.727439</ele>
        <time>2021-04-25T08:48:39.000Z</time>
      </trkpt>
      <trkpt lat="44.57648" lon="6.05187">
        <ele>1055.781864</ele>
        <time>2021-04-25T08:48:41.000Z</time>
      </trkpt>
      <trkpt lat="44.57648" lon="6.05187">
        <ele>1055.781864</ele>
        <time>2021-04-25T08:48:42.000Z</time>
      </trkpt>
      <trkpt lat="44.57654" lon="6.05196">
        <ele>1055.832367</ele>
        <time>2021-04-25T08:48:43.000Z</time>
      </trkpt>
      <trkpt lat="44.57654" lon="6.05196">
        <ele>1055.832367</ele>
        <time>2021-04-25T08:48:44.000Z</time>
      </trkpt>
      <trkpt lat="44.57658" lon="6.05204">
        <ele>1055.874285</ele>
        <time>2021-04-25T08:48:45.000Z</time>
      </trkpt>
      <trkpt lat="44.57662" lon="6.05219">
        <ele>1055.939897</ele>
        <time>2021-04-25T08:48:48.000Z</time>
      </trkpt>
      <trkpt lat="44.57662" lon="6.05219">
        <ele>1055.939897</ele>
        <time>2021-04-25T08:48:49.000Z</time>
      </trkpt>
      <trkpt lat="44.57668" lon="6.05226">
        <ele>1055.986918</ele>
        <time>2021-04-25T08:48:50.000Z</time>
      </trkpt>
      <trkpt lat="44.57676" lon="6.0523">
        <ele>1056.032994</ele>
        <time>2021-04-25T08:48:52.000Z</time>
      </trkpt>
      <trkpt lat="44.57683" lon="6.05234">
        <ele>1056.078714</ele>
        <time>2021-04-25T08:48:54.000Z</time>
      </trkpt>
      <trkpt lat="44.57689" lon="6.0524">
        <ele>1056.123974</ele>
        <time>2021-04-25T08:48:56.000Z</time>
      </trkpt>
      <trkpt lat="44.57689" lon="6.0524">
        <ele>1056.123974</ele>
        <time>2021-04-25T08:48:57.000Z</time>
      </trkpt>
      <trkpt lat="44.57695" lon="6.05247">
        <ele>1056.16477</ele>
        <time>2021-04-25T08:48:58.000Z</time>
      </trkpt>
      <trkpt lat="44.577" lon="6.05252">
        <ele>1056.202415</ele>
        <time>2021-04-25T08:49:00.000Z</time>
      </trkpt>
      <trkpt lat="44.57707" lon="6.05258">
        <ele>1056.250367</ele>
        <time>2021-04-25T08:49:03.000Z</time>
      </trkpt>
      <trkpt lat="44.57707" lon="6.05258">
        <ele>1056.250367</ele>
        <time>2021-04-25T08:49:04.000Z</time>
      </trkpt>
      <trkpt lat="44.57714" lon="6.05265">
        <ele>1056.30063</ele>
        <time>2021-04-25T08:49:06.000Z</time>
      </trkpt>
      <trkpt lat="44.57714" lon="6.05265">
        <ele>1056.30063</ele>
        <time>2021-04-25T08:49:07.000Z</time>
      </trkpt>
      <trkpt lat="44.57714" lon="6.05265">
        <ele>1056.30063</ele>
        <time>2021-04-25T08:49:09.000Z</time>
      </trkpt>
      <trkpt lat="44.57724" lon="6.05274">
        <ele>1056.368884</ele>
        <time>2021-04-25T08:49:10.000Z</time>
      </trkpt>
      <trkpt lat="44.57733" lon="6.05281">
        <ele>1056.42837</ele>
        <time>2021-04-25T08:49:13.000Z</time>
      </trkpt>
      <trkpt lat="44.57733" lon="6.05281">
        <ele>1056.42837</ele>
        <time>2021-04-25T08:49:15.000Z</time>
      </trkpt>
      <trkpt lat="44.57739" lon="6.05288">
        <ele>1056.472887</ele>
        <time>2021-04-25T08:49:16.000Z</time>
      </trkpt>
      <trkpt lat="44.57746" lon="6.05299">
        <ele>1056.5356</ele>
        <time>2021-04-25T08:49:19.000Z</time>
      </trkpt>
      <trkpt lat="44.57746" lon="6.05299">
        <ele>1056.5356</ele>
        <time>2021-04-25T08:49:20.000Z</time>
      </trkpt>
      <trkpt lat="44.57751" lon="6.05309">
        <ele>1056.587095</ele>
        <time>2021-04-25T08:49:21.000Z</time>
      </trkpt>
      <trkpt lat="44.57758" lon="6.05322">
        <ele>1056.653617</ele>
        <time>2021-04-25T08:49:24.000Z</time>
      </trkpt>
      <trkpt lat="44.57763" lon="6.05335">
        <ele>1056.718167</ele>
        <time>2021-04-25T08:49:27.000Z</time>
      </trkpt>
      <trkpt lat="44.57768" lon="6.05345">
        <ele>1056.875294</ele>
        <time>2021-04-25T08:49:29.000Z</time>
      </trkpt>
      <trkpt lat="44.57773" lon="6.05356">
        <ele>1057.123296</ele>
        <time>2021-04-25T08:49:32.000Z</time>
      </trkpt>
      <trkpt lat="44.5778" lon="6.05366">
        <ele>1057.37995</ele>
        <time>2021-04-25T08:49:35.000Z</time>
      </trkpt>
      <trkpt lat="44.57788" lon="6.0537">
        <ele>1057.600581</ele>
        <time>2021-04-25T08:49:37.000Z</time>
      </trkpt>
      <trkpt lat="44.57796" lon="6.05373">
        <ele>1057.81079</ele>
        <time>2021-04-25T08:49:39.000Z</time>
      </trkpt>
      <trkpt lat="44.57796" lon="6.05373">
        <ele>1057.81079</ele>
        <time>2021-04-25T08:49:40.000Z</time>
      </trkpt>
      <trkpt lat="44.57805" lon="6.05376">
        <ele>1058.057998</ele>
        <time>2021-04-25T08:49:42.000Z</time>
      </trkpt>
      <trkpt lat="44.57815" lon="6.05384">
        <ele>1058.346275</ele>
        <time>2021-04-25T08:49:45.000Z</time>
      </trkpt>
      <trkpt lat="44.57821" lon="6.05391">
        <ele>1058.554093</ele>
        <time>2021-04-25T08:49:47.000Z</time>
      </trkpt>
      <trkpt lat="44.57821" lon="6.05391">
        <ele>1058.554093</ele>
        <time>2021-04-25T08:49:48.000Z</time>
      </trkpt>
      <trkpt lat="44.57829" lon="6.05399">
        <ele>1058.81103</ele>
        <time>2021-04-25T08:49:50.000Z</time>
      </trkpt>
      <trkpt lat="44.57835" lon="6.05407">
        <ele>1059.026704</ele>
        <time>2021-04-25T08:49:53.000Z</time>
      </trkpt>
      <trkpt lat="44.57835" lon="6.05407">
        <ele>1059.026704</ele>
        <time>2021-04-25T08:49:54.000Z</time>
      </trkpt>
      <trkpt lat="44.57835" lon="6.05407">
        <ele>1059.026704</ele>
        <time>2021-04-25T08:49:55.000Z</time>
      </trkpt>
      <trkpt lat="44.57841" lon="6.05414">
        <ele>1059.231187</ele>
        <time>2021-04-25T08:49:56.000Z</time>
      </trkpt>
      <trkpt lat="44.57849" lon="6.05423">
        <ele>1059.491579</ele>
        <time>2021-04-25T08:49:59.000Z</time>
      </trkpt>
      <trkpt lat="44.57849" lon="6.05423">
        <ele>1059.491579</ele>
        <time>2021-04-25T08:50:00.000Z</time>
      </trkpt>
      <trkpt lat="44.57857" lon="6.05433">
        <ele>1059.753242</ele>
        <time>2021-04-25T08:50:02.000Z</time>
      </trkpt>
      <trkpt lat="44.57863" lon="6.05441">
        <ele>1059.992276</ele>
        <time>2021-04-25T08:50:05.000Z</time>
      </trkpt>
      <trkpt lat="44.57869" lon="6.05449">
        <ele>1060.19794</ele>
        <time>2021-04-25T08:50:08.000Z</time>
      </trkpt>
      <trkpt lat="44.57875" lon="6.05457">
        <ele>1060.405591</ele>
        <time>2021-04-25T08:50:11.000Z</time>
      </trkpt>
      <trkpt lat="44.57875" lon="6.05457">
        <ele>1060.405591</ele>
        <time>2021-04-25T08:50:12.000Z</time>
      </trkpt>
      <trkpt lat="44.57884" lon="6.05467">
        <ele>1060.70497</ele>
        <time>2021-04-25T08:50:15.000Z</time>
      </trkpt>
      <trkpt lat="44.57893" lon="6.05473">
        <ele>1060.951441</ele>
        <time>2021-04-25T08:50:19.000Z</time>
      </trkpt>
      <trkpt lat="44.57902" lon="6.05477">
        <ele>1061.195886</ele>
        <time>2021-04-25T08:50:23.000Z</time>
      </trkpt>
      <trkpt lat="44.5791" lon="6.05479">
        <ele>1061.425772</ele>
        <time>2021-04-25T08:50:26.000Z</time>
      </trkpt>
      <trkpt lat="44.57918" lon="6.05481">
        <ele>1062.117957</ele>
        <time>2021-04-25T08:50:29.000Z</time>
      </trkpt>
      <trkpt lat="44.57925" lon="6.05482">
        <ele>1062.693962</ele>
        <time>2021-04-25T08:50:32.000Z</time>
      </trkpt>
      <trkpt lat="44.57925" lon="6.05482">
        <ele>1062.693962</ele>
        <time>2021-04-25T08:50:34.000Z</time>
      </trkpt>
      <trkpt lat="44.57925" lon="6.05482">
        <ele>1062.693962</ele>
        <time>2021-04-25T08:50:36.000Z</time>
      </trkpt>
      <trkpt lat="44.57934" lon="6.05482">
        <ele>1063.462535</ele>
        <time>2021-04-25T08:50:38.000Z</time>
      </trkpt>
      <trkpt lat="44.57942" lon="6.05482">
        <ele>1064.123735</ele>
        <time>2021-04-25T08:50:42.000Z</time>
      </trkpt>
      <trkpt lat="44.57942" lon="6.05482">
        <ele>1064.123735</ele>
        <time>2021-04-25T08:50:43.000Z</time>
      </trkpt>
      <trkpt lat="44.57942" lon="6.05482">
        <ele>1064.123735</ele>
        <time>2021-04-25T08:50:46.000Z</time>
      </trkpt>
      <trkpt lat="44.57951" lon="6.05479">
        <ele>1064.908363</ele>
        <time>2021-04-25T08:50:48.000Z</time>
      </trkpt>
      <trkpt lat="44.57951" lon="6.05479">
        <ele>1064.908363</ele>
        <time>2021-04-25T08:50:50.000Z</time>
      </trkpt>
      <trkpt lat="44.57952" lon="6.05467">
        <ele>1065.627505</ele>
        <time>2021-04-25T08:50:53.000Z</time>
      </trkpt>
      <trkpt lat="44.57952" lon="6.05467">
        <ele>1065.627505</ele>
        <time>2021-04-25T08:50:55.000Z</time>
      </trkpt>
      <trkpt lat="44.57952" lon="6.05467">
        <ele>1065.627505</ele>
        <time>2021-04-25T08:50:56.000Z</time>
      </trkpt>
      <trkpt lat="44.57948" lon="6.05455">
        <ele>1066.376586</ele>
        <time>2021-04-25T08:50:57.000Z</time>
      </trkpt>
      <trkpt lat="44.57945" lon="6.05444">
        <ele>1067.117954</ele>
        <time>2021-04-25T08:51:01.000Z</time>
      </trkpt>
      <trkpt lat="44.57945" lon="6.05444">
        <ele>1067.117954</ele>
        <time>2021-04-25T08:51:02.000Z</time>
      </trkpt>
      <trkpt lat="44.5795" lon="6.0543">
        <ele>1068.023855</ele>
        <time>2021-04-25T08:51:06.000Z</time>
      </trkpt>
      <trkpt lat="44.5795" lon="6.0543">
        <ele>1068.023855</ele>
        <time>2021-04-25T08:51:07.000Z</time>
      </trkpt>
      <trkpt lat="44.5795" lon="6.0543">
        <ele>1068.023855</ele>
        <time>2021-04-25T08:51:09.000Z</time>
      </trkpt>
      <trkpt lat="44.57961" lon="6.05428">
        <ele>1068.918196</ele>
        <time>2021-04-25T08:51:11.000Z</time>
      </trkpt>
      <trkpt lat="44.57961" lon="6.05428">
        <ele>1068.918196</ele>
        <time>2021-04-25T08:51:12.000Z</time>
      </trkpt>
      <trkpt lat="44.57961" lon="6.05428">
        <ele>1068.918196</ele>
        <time>2021-04-25T08:51:15.000Z</time>
      </trkpt>
      <trkpt lat="44.57969" lon="6.05435">
        <ele>1069.732373</ele>
        <time>2021-04-25T08:51:16.000Z</time>
      </trkpt>
      <trkpt lat="44.57971" lon="6.05445">
        <ele>1070.38447</ele>
        <time>2021-04-25T08:51:20.000Z</time>
      </trkpt>
      <trkpt lat="44.57971" lon="6.05445">
        <ele>1070.38447</ele>
        <time>2021-04-25T08:51:21.000Z</time>
      </trkpt>
      <trkpt lat="44.57973" lon="6.05453">
        <ele>1070.888971</ele>
        <time>2021-04-25T08:51:23.000Z</time>
      </trkpt>
      <trkpt lat="44.57977" lon="6.05463">
        <ele>1071.519902</ele>
        <time>2021-04-25T08:51:28.000Z</time>
      </trkpt>
      <trkpt lat="44.57982" lon="6.05471">
        <ele>1072.161635</ele>
        <time>2021-04-25T08:51:31.000Z</time>
      </trkpt>
      <trkpt lat="44.57988" lon="6.05469">
        <ele>1072.606156</ele>
        <time>2021-04-25T08:51:35.000Z</time>
      </trkpt>
      <trkpt lat="44.57985" lon="6.0546">
        <ele>1073.19447</ele>
        <time>2021-04-25T08:51:39.000Z</time>
      </trkpt>
      <trkpt lat="44.57985" lon="6.0546">
        <ele>1073.19447</ele>
        <time>2021-04-25T08:51:40.000Z</time>
      </trkpt>
      <trkpt lat="44.57985" lon="6.0546">
        <ele>1073.19447</ele>
        <time>2021-04-25T08:51:42.000Z</time>
      </trkpt>
      <trkpt lat="44.57985" lon="6.0546">
        <ele>1073.19447</ele>
        <time>2021-04-25T08:51:44.000Z</time>
      </trkpt>
      <trkpt lat="44.5798" lon="6.05447">
        <ele>1074.074282</ele>
        <time>2021-04-25T08:51:45.000Z</time>
      </trkpt>
      <trkpt lat="44.5798" lon="6.05447">
        <ele>1074.074282</ele>
        <time>2021-04-25T08:51:48.000Z</time>
      </trkpt>
      <trkpt lat="44.57982" lon="6.05434">
        <ele>1074.851142</ele>
        <time>2021-04-25T08:51:51.000Z</time>
      </trkpt>
      <trkpt lat="44.57984" lon="6.05423">
        <ele>1075.527009</ele>
        <time>2021-04-25T08:51:56.000Z</time>
      </trkpt>
      <trkpt lat="44.57984" lon="6.05423">
        <ele>1075.527009</ele>
        <time>2021-04-25T08:51:58.000Z</time>
      </trkpt>
      <trkpt lat="44.57984" lon="6.0541">
        <ele>1076.313407</ele>
        <time>2021-04-25T08:52:01.000Z</time>
      </trkpt>
      <trkpt lat="44.57984" lon="6.0541">
        <ele>1076.313407</ele>
        <time>2021-04-25T08:52:04.000Z</time>
      </trkpt>
      <trkpt lat="44.57979" lon="6.054">
        <ele>1076.933183</ele>
        <time>2021-04-25T08:52:06.000Z</time>
      </trkpt>
      <trkpt lat="44.57979" lon="6.054">
        <ele>1076.933183</ele>
        <time>2021-04-25T08:52:07.000Z</time>
      </trkpt>
      <trkpt lat="44.57979" lon="6.054">
        <ele>1076.933183</ele>
        <time>2021-04-25T08:52:10.000Z</time>
      </trkpt>
      <trkpt lat="44.57974" lon="6.05391">
        <ele>1077.527565</ele>
        <time>2021-04-25T08:52:11.000Z</time>
      </trkpt>
      <trkpt lat="44.57974" lon="6.05391">
        <ele>1077.527565</ele>
        <time>2021-04-25T08:52:13.000Z</time>
      </trkpt>
      <trkpt lat="44.57974" lon="6.05391">
        <ele>1077.527565</ele>
        <time>2021-04-25T08:52:14.000Z</time>
      </trkpt>
      <trkpt lat="44.57968" lon="6.05379">
        <ele>1078.267364</ele>
        <time>2021-04-25T08:52:16.000Z</time>
      </trkpt>
      <trkpt lat="44.57962" lon="6.05368">
        <ele>1078.99667</ele>
        <time>2021-04-25T08:52:22.000Z</time>
      </trkpt>
      <trkpt lat="44.57962" lon="6.05368">
        <ele>1078.99667</ele>
        <time>2021-04-25T08:52:24.000Z</time>
      </trkpt>
      <trkpt lat="44.57962" lon="6.05368">
        <ele>1078.99667</ele>
        <time>2021-04-25T08:52:25.000Z</time>
      </trkpt>
      <trkpt lat="44.57962" lon="6.05357">
        <ele>1079.557966</ele>
        <time>2021-04-25T08:52:26.000Z</time>
      </trkpt>
      <trkpt lat="44.57965" lon="6.05351">
        <ele>1079.954387</ele>
        <time>2021-04-25T08:52:29.000Z</time>
      </trkpt>
      <trkpt lat="44.57965" lon="6.05351">
        <ele>1079.954387</ele>
        <time>2021-04-25T08:52:30.000Z</time>
      </trkpt>
      <trkpt lat="44.57965" lon="6.05351">
        <ele>1079.954387</ele>
        <time>2021-04-25T08:52:31.000Z</time>
      </trkpt>
      <trkpt lat="44.57972" lon="6.0535">
        <ele>1080.456796</ele>
        <time>2021-04-25T08:52:32.000Z</time>
      </trkpt>
      <trkpt lat="44.57972" lon="6.0535">
        <ele>1080.456796</ele>
        <time>2021-04-25T08:52:33.000Z</time>
      </trkpt>
      <trkpt lat="44.5798" lon="6.05354">
        <ele>1081.012799</ele>
        <time>2021-04-25T08:52:37.000Z</time>
      </trkpt>
      <trkpt lat="44.57986" lon="6.05357">
        <ele>1081.515103</ele>
        <time>2021-04-25T08:52:41.000Z</time>
      </trkpt>
      <trkpt lat="44.57986" lon="6.05357">
        <ele>1081.515103</ele>
        <time>2021-04-25T08:52:44.000Z</time>
      </trkpt>
      <trkpt lat="44.57993" lon="6.05359">
        <ele>1082.004829</ele>
        <time>2021-04-25T08:52:46.000Z</time>
      </trkpt>
      <trkpt lat="44.57993" lon="6.05359">
        <ele>1082.004829</ele>
        <time>2021-04-25T08:52:47.000Z</time>
      </trkpt>
      <trkpt lat="44.57993" lon="6.05359">
        <ele>1082.004829</ele>
        <time>2021-04-25T08:52:49.000Z</time>
      </trkpt>
      <trkpt lat="44.58" lon="6.05363">
        <ele>1082.549173</ele>
        <time>2021-04-25T08:52:50.000Z</time>
      </trkpt>
      <trkpt lat="44.58" lon="6.05363">
        <ele>1082.549173</ele>
        <time>2021-04-25T08:52:51.000Z</time>
      </trkpt>
      <trkpt lat="44.58007" lon="6.05368">
        <ele>1083.116519</ele>
        <time>2021-04-25T08:52:53.000Z</time>
      </trkpt>
      <trkpt lat="44.58007" lon="6.05368">
        <ele>1083.116519</ele>
        <time>2021-04-25T08:52:54.000Z</time>
      </trkpt>
      <trkpt lat="44.58013" lon="6.05373">
        <ele>1083.632476</ele>
        <time>2021-04-25T08:52:56.000Z</time>
      </trkpt>
      <trkpt lat="44.58021" lon="6.05379">
        <ele>1084.252172</ele>
        <time>2021-04-25T08:53:00.000Z</time>
      </trkpt>
      <trkpt lat="44.58028" lon="6.05385">
        <ele>1084.838652</ele>
        <time>2021-04-25T08:53:04.000Z</time>
      </trkpt>
      <trkpt lat="44.58033" lon="6.05391">
        <ele>1085.328845</ele>
        <time>2021-04-25T08:53:07.000Z</time>
      </trkpt>
      <trkpt lat="44.58037" lon="6.05399">
        <ele>1085.840198</ele>
        <time>2021-04-25T08:53:11.000Z</time>
      </trkpt>
      <trkpt lat="44.58037" lon="6.05399">
        <ele>1085.840198</ele>
        <time>2021-04-25T08:53:13.000Z</time>
      </trkpt>
      <trkpt lat="44.58038" lon="6.05412">
        <ele>1086.478388</ele>
        <time>2021-04-25T08:53:15.000Z</time>
      </trkpt>
      <trkpt lat="44.58038" lon="6.05412">
        <ele>1086.478388</ele>
        <time>2021-04-25T08:53:18.000Z</time>
      </trkpt>
      <trkpt lat="44.58038" lon="6.05422">
        <ele>1087.010269</ele>
        <time>2021-04-25T08:53:19.000Z</time>
      </trkpt>
      <trkpt lat="44.58042" lon="6.05429">
        <ele>1087.485144</ele>
        <time>2021-04-25T08:53:23.000Z</time>
      </trkpt>
      <trkpt lat="44.58042" lon="6.05429">
        <ele>1087.485144</ele>
        <time>2021-04-25T08:53:24.000Z</time>
      </trkpt>
      <trkpt lat="44.58042" lon="6.05429">
        <ele>1087.485144</ele>
        <time>2021-04-25T08:53:26.000Z</time>
      </trkpt>
      <trkpt lat="44.58048" lon="6.05434">
        <ele>1087.976111</ele>
        <time>2021-04-25T08:53:27.000Z</time>
      </trkpt>
      <trkpt lat="44.58048" lon="6.05434">
        <ele>1087.976111</ele>
        <time>2021-04-25T08:53:29.000Z</time>
      </trkpt>
      <trkpt lat="44.58057" lon="6.05437">
        <ele>1088.601533</ele>
        <time>2021-04-25T08:53:32.000Z</time>
      </trkpt>
      <trkpt lat="44.58065" lon="6.0544">
        <ele>1089.273771</ele>
        <time>2021-04-25T08:53:37.000Z</time>
      </trkpt>
      <trkpt lat="44.58065" lon="6.0544">
        <ele>1089.273771</ele>
        <time>2021-04-25T08:53:39.000Z</time>
      </trkpt>
      <trkpt lat="44.58072" lon="6.05442">
        <ele>1090.017863</ele>
        <time>2021-04-25T08:53:40.000Z</time>
      </trkpt>
      <trkpt lat="44.58079" lon="6.05445">
        <ele>1090.786049</ele>
        <time>2021-04-25T08:53:43.000Z</time>
      </trkpt>
      <trkpt lat="44.58085" lon="6.05449">
        <ele>1091.477912</ele>
        <time>2021-04-25T08:53:46.000Z</time>
      </trkpt>
      <trkpt lat="44.58091" lon="6.05451">
        <ele>1092.105698</ele>
        <time>2021-04-25T08:53:49.000Z</time>
      </trkpt>
      <trkpt lat="44.58095" lon="6.05453">
        <ele>1092.561005</ele>
        <time>2021-04-25T08:53:51.000Z</time>
      </trkpt>
      <trkpt lat="44.581" lon="6.05455">
        <ele>1093.030567</ele>
        <time>2021-04-25T08:53:53.000Z</time>
      </trkpt>
      <trkpt lat="44.581" lon="6.05455">
        <ele>1093.030567</ele>
        <time>2021-04-25T08:53:54.000Z</time>
      </trkpt>
      <trkpt lat="44.58104" lon="6.05457">
        <ele>1093.492534</ele>
        <time>2021-04-25T08:53:55.000Z</time>
      </trkpt>
      <trkpt lat="44.58108" lon="6.05458">
        <ele>1093.949951</ele>
        <time>2021-04-25T08:53:57.000Z</time>
      </trkpt>
      <trkpt lat="44.58112" lon="6.0546">
        <ele>1094.399686</ele>
        <time>2021-04-25T08:53:59.000Z</time>
      </trkpt>
      <trkpt lat="44.58116" lon="6.05462">
        <ele>1094.864088</ele>
        <time>2021-04-25T08:54:01.000Z</time>
      </trkpt>
      <trkpt lat="44.58121" lon="6.05464">
        <ele>1095.316203</ele>
        <time>2021-04-25T08:54:03.000Z</time>
      </trkpt>
      <trkpt lat="44.58125" lon="6.05467">
        <ele>1095.766447</ele>
        <time>2021-04-25T08:54:05.000Z</time>
      </trkpt>
      <trkpt lat="44.58129" lon="6.05469">
        <ele>1096.247615</ele>
        <time>2021-04-25T08:54:07.000Z</time>
      </trkpt>
      <trkpt lat="44.58129" lon="6.05469">
        <ele>1096.247615</ele>
        <time>2021-04-25T08:54:09.000Z</time>
      </trkpt>
      <trkpt lat="44.58134" lon="6.05473">
        <ele>1096.886128</ele>
        <time>2021-04-25T08:54:10.000Z</time>
      </trkpt>
      <trkpt lat="44.58139" lon="6.05477">
        <ele>1097.507348</ele>
        <time>2021-04-25T08:54:13.000Z</time>
      </trkpt>
      <trkpt lat="44.58144" lon="6.05481">
        <ele>1098.099577</ele>
        <time>2021-04-25T08:54:16.000Z</time>
      </trkpt>
      <trkpt lat="44.58144" lon="6.05481">
        <ele>1098.099577</ele>
        <time>2021-04-25T08:54:19.000Z</time>
      </trkpt>
      <trkpt lat="44.58152" lon="6.05488">
        <ele>1099.016768</ele>
        <time>2021-04-25T08:54:20.000Z</time>
      </trkpt>
      <trkpt lat="44.58152" lon="6.05488">
        <ele>1099.016768</ele>
        <time>2021-04-25T08:54:23.000Z</time>
      </trkpt>
      <trkpt lat="44.58159" lon="6.05495">
        <ele>1099.924804</ele>
        <time>2021-04-25T08:54:24.000Z</time>
      </trkpt>
      <trkpt lat="44.58159" lon="6.05495">
        <ele>1099.924804</ele>
        <time>2021-04-25T08:54:26.000Z</time>
      </trkpt>
      <trkpt lat="44.58165" lon="6.055">
        <ele>1100.667171</ele>
        <time>2021-04-25T08:54:28.000Z</time>
      </trkpt>
      <trkpt lat="44.58165" lon="6.055">
        <ele>1100.667171</ele>
        <time>2021-04-25T08:54:31.000Z</time>
      </trkpt>
      <trkpt lat="44.58165" lon="6.055">
        <ele>1100.667171</ele>
        <time>2021-04-25T08:54:33.000Z</time>
      </trkpt>
      <trkpt lat="44.58172" lon="6.05507">
        <ele>1101.596441</ele>
        <time>2021-04-25T08:54:34.000Z</time>
      </trkpt>
      <trkpt lat="44.58172" lon="6.05507">
        <ele>1101.596441</ele>
        <time>2021-04-25T08:54:38.000Z</time>
      </trkpt>
      <trkpt lat="44.58172" lon="6.05507">
        <ele>1101.596441</ele>
        <time>2021-04-25T08:54:43.000Z</time>
      </trkpt>
      <trkpt lat="44.58174" lon="6.05493">
        <ele>1102.665975</ele>
        <time>2021-04-25T08:54:44.000Z</time>
      </trkpt>
      <trkpt lat="44.58174" lon="6.05493">
        <ele>1102.665975</ele>
        <time>2021-04-25T08:54:47.000Z</time>
      </trkpt>
      <trkpt lat="44.58174" lon="6.05493">
        <ele>1102.665975</ele>
        <time>2021-04-25T08:54:48.000Z</time>
      </trkpt>
      <trkpt lat="44.58171" lon="6.05481">
        <ele>1103.630542</ele>
        <time>2021-04-25T08:54:49.000Z</time>
      </trkpt>
      <trkpt lat="44.58171" lon="6.05481">
        <ele>1103.630542</ele>
        <time>2021-04-25T08:54:52.000Z</time>
      </trkpt>
      <trkpt lat="44.58165" lon="6.05468">
        <ele>1104.785511</ele>
        <time>2021-04-25T08:54:54.000Z</time>
      </trkpt>
      <trkpt lat="44.58165" lon="6.05468">
        <ele>1104.785511</ele>
        <time>2021-04-25T08:54:55.000Z</time>
      </trkpt>
      <trkpt lat="44.58165" lon="6.05468">
        <ele>1104.785511</ele>
        <time>2021-04-25T08:54:56.000Z</time>
      </trkpt>
      <trkpt lat="44.58165" lon="6.05468">
        <ele>1104.785511</ele>
        <time>2021-04-25T08:54:58.000Z</time>
      </trkpt>
      <trkpt lat="44.58159" lon="6.05454">
        <ele>1105.906164</ele>
        <time>2021-04-25T08:54:59.000Z</time>
      </trkpt>
      <trkpt lat="44.58159" lon="6.05454">
        <ele>1105.906164</ele>
        <time>2021-04-25T08:55:02.000Z</time>
      </trkpt>
      <trkpt lat="44.58159" lon="6.05454">
        <ele>1105.906164</ele>
        <time>2021-04-25T08:55:04.000Z</time>
      </trkpt>
      <trkpt lat="44.58158" lon="6.05439">
        <ele>1107.097514</ele>
        <time>2021-04-25T08:55:05.000Z</time>
      </trkpt>
      <trkpt lat="44.58158" lon="6.05425">
        <ele>1108.029878</ele>
        <time>2021-04-25T08:55:11.000Z</time>
      </trkpt>
      <trkpt lat="44.58154" lon="6.05415">
        <ele>1108.731566</ele>
        <time>2021-04-25T08:55:16.000Z</time>
      </trkpt>
      <trkpt lat="44.58154" lon="6.05415">
        <ele>1108.731566</ele>
        <time>2021-04-25T08:55:19.000Z</time>
      </trkpt>
      <trkpt lat="44.5815" lon="6.05403">
        <ele>1109.493161</ele>
        <time>2021-04-25T08:55:21.000Z</time>
      </trkpt>
      <trkpt lat="44.5815" lon="6.05403">
        <ele>1109.493161</ele>
        <time>2021-04-25T08:55:22.000Z</time>
      </trkpt>
      <trkpt lat="44.5815" lon="6.05403">
        <ele>1109.493161</ele>
        <time>2021-04-25T08:55:24.000Z</time>
      </trkpt>
      <trkpt lat="44.5815" lon="6.05403">
        <ele>1109.493161</ele>
        <time>2021-04-25T08:55:25.000Z</time>
      </trkpt>
      <trkpt lat="44.5815" lon="6.05403">
        <ele>1109.493161</ele>
        <time>2021-04-25T08:55:26.000Z</time>
      </trkpt>
      <trkpt lat="44.58144" lon="6.05391">
        <ele>1110.356461</ele>
        <time>2021-04-25T08:55:27.000Z</time>
      </trkpt>
      <trkpt lat="44.58144" lon="6.05391">
        <ele>1110.356461</ele>
        <time>2021-04-25T08:55:28.000Z</time>
      </trkpt>
      <trkpt lat="44.58141" lon="6.05379">
        <ele>1111.104748</ele>
        <time>2021-04-25T08:55:33.000Z</time>
      </trkpt>
      <trkpt lat="44.58141" lon="6.05379">
        <ele>1111.104748</ele>
        <time>2021-04-25T08:55:35.000Z</time>
      </trkpt>
      <trkpt lat="44.58137" lon="6.05367">
        <ele>1111.938172</ele>
        <time>2021-04-25T08:55:38.000Z</time>
      </trkpt>
      <trkpt lat="44.58137" lon="6.05367">
        <ele>1111.938172</ele>
        <time>2021-04-25T08:55:42.000Z</time>
      </trkpt>
      <trkpt lat="44.58137" lon="6.05367">
        <ele>1111.938172</ele>
        <time>2021-04-25T08:55:43.000Z</time>
      </trkpt>
      <trkpt lat="44.58131" lon="6.05357">
        <ele>1112.67586</ele>
        <time>2021-04-25T08:55:44.000Z</time>
      </trkpt>
      <trkpt lat="44.58126" lon="6.05348">
        <ele>1113.369664</ele>
        <time>2021-04-25T08:55:49.000Z</time>
      </trkpt>
      <trkpt lat="44.58123" lon="6.05338">
        <ele>1114.002707</ele>
        <time>2021-04-25T08:55:54.000Z</time>
      </trkpt>
      <trkpt lat="44.58123" lon="6.05338">
        <ele>1114.002707</ele>
        <time>2021-04-25T08:55:55.000Z</time>
      </trkpt>
      <trkpt lat="44.58119" lon="6.05328">
        <ele>1114.656427</ele>
        <time>2021-04-25T08:55:58.000Z</time>
      </trkpt>
      <trkpt lat="44.58119" lon="6.05328">
        <ele>1114.656427</ele>
        <time>2021-04-25T08:55:59.000Z</time>
      </trkpt>
      <trkpt lat="44.58119" lon="6.05328">
        <ele>1114.656427</ele>
        <time>2021-04-25T08:56:02.000Z</time>
      </trkpt>
      <trkpt lat="44.58122" lon="6.05319">
        <ele>1115.26766</ele>
        <time>2021-04-25T08:56:04.000Z</time>
      </trkpt>
      <trkpt lat="44.58122" lon="6.05319">
        <ele>1115.26766</ele>
        <time>2021-04-25T08:56:07.000Z</time>
      </trkpt>
      <trkpt lat="44.58129" lon="6.05316">
        <ele>1115.879979</ele>
        <time>2021-04-25T08:56:10.000Z</time>
      </trkpt>
      <trkpt lat="44.58129" lon="6.05316">
        <ele>1115.879979</ele>
        <time>2021-04-25T08:56:14.000Z</time>
      </trkpt>
      <trkpt lat="44.58139" lon="6.0532">
        <ele>1116.732471</ele>
        <time>2021-04-25T08:56:15.000Z</time>
      </trkpt>
      <trkpt lat="44.58139" lon="6.0532">
        <ele>1116.732471</ele>
        <time>2021-04-25T08:56:22.000Z</time>
      </trkpt>
      <trkpt lat="44.58147" lon="6.05332">
        <ele>1117.727477</ele>
        <time>2021-04-25T08:56:23.000Z</time>
      </trkpt>
      <trkpt lat="44.58147" lon="6.05332">
        <ele>1117.727477</ele>
        <time>2021-04-25T08:56:24.000Z</time>
      </trkpt>
      <trkpt lat="44.58147" lon="6.05332">
        <ele>1117.727477</ele>
        <time>2021-04-25T08:56:25.000Z</time>
      </trkpt>
      <trkpt lat="44.58155" lon="6.05344">
        <ele>1118.65382</ele>
        <time>2021-04-25T08:56:28.000Z</time>
      </trkpt>
      <trkpt lat="44.58155" lon="6.05344">
        <ele>1118.65382</ele>
        <time>2021-04-25T08:56:29.000Z</time>
      </trkpt>
      <trkpt lat="44.58155" lon="6.05344">
        <ele>1118.65382</ele>
        <time>2021-04-25T08:56:30.000Z</time>
      </trkpt>
      <trkpt lat="44.58155" lon="6.05344">
        <ele>1118.65382</ele>
        <time>2021-04-25T08:56:31.000Z</time>
      </trkpt>
      <trkpt lat="44.58161" lon="6.05352">
        <ele>1119.348539</ele>
        <time>2021-04-25T08:56:34.000Z</time>
      </trkpt>
      <trkpt lat="44.58167" lon="6.05359">
        <ele>1120.011183</ele>
        <time>2021-04-25T08:56:38.000Z</time>
      </trkpt>
      <trkpt lat="44.58175" lon="6.05366">
        <ele>1120.759095</ele>
        <time>2021-04-25T08:56:44.000Z</time>
      </trkpt>
      <trkpt lat="44.58182" lon="6.05372">
        <ele>1121.463494</ele>
        <time>2021-04-25T08:56:50.000Z</time>
      </trkpt>
      <trkpt lat="44.58189" lon="6.05377">
        <ele>1122.152845</ele>
        <time>2021-04-25T08:56:55.000Z</time>
      </trkpt>
      <trkpt lat="44.58189" lon="6.05377">
        <ele>1122.152845</ele>
        <time>2021-04-25T08:56:56.000Z</time>
      </trkpt>
      <trkpt lat="44.58197" lon="6.05385">
        <ele>1122.920776</ele>
        <time>2021-04-25T08:57:01.000Z</time>
      </trkpt>
      <trkpt lat="44.58203" lon="6.0539">
        <ele>1123.479206</ele>
        <time>2021-04-25T08:57:04.000Z</time>
      </trkpt>
      <trkpt lat="44.58208" lon="6.05396">
        <ele>1124.040779</ele>
        <time>2021-04-25T08:57:08.000Z</time>
      </trkpt>
      <trkpt lat="44.58208" lon="6.05396">
        <ele>1124.040779</ele>
        <time>2021-04-25T08:57:10.000Z</time>
      </trkpt>
      <trkpt lat="44.58214" lon="6.05402">
        <ele>1124.609097</ele>
        <time>2021-04-25T08:57:13.000Z</time>
      </trkpt>
      <trkpt lat="44.58214" lon="6.05402">
        <ele>1124.609097</ele>
        <time>2021-04-25T08:57:16.000Z</time>
      </trkpt>
      <trkpt lat="44.58223" lon="6.05409">
        <ele>1125.423971</ele>
        <time>2021-04-25T08:57:18.000Z</time>
      </trkpt>
      <trkpt lat="44.58231" lon="6.05417">
        <ele>1126.169555</ele>
        <time>2021-04-25T08:57:25.000Z</time>
      </trkpt>
      <trkpt lat="44.58238" lon="6.05424">
        <ele>1126.879649</ele>
        <time>2021-04-25T08:57:30.000Z</time>
      </trkpt>
      <trkpt lat="44.58245" lon="6.05431">
        <ele>1127.580118</ele>
        <time>2021-04-25T08:57:34.000Z</time>
      </trkpt>
      <trkpt lat="44.58245" lon="6.05431">
        <ele>1127.580118</ele>
        <time>2021-04-25T08:57:37.000Z</time>
      </trkpt>
      <trkpt lat="44.58245" lon="6.05431">
        <ele>1127.580118</ele>
        <time>2021-04-25T08:57:38.000Z</time>
      </trkpt>
      <trkpt lat="44.58245" lon="6.05431">
        <ele>1127.580118</ele>
        <time>2021-04-25T08:57:39.000Z</time>
      </trkpt>
      <trkpt lat="44.58251" lon="6.05438">
        <ele>1128.244517</ele>
        <time>2021-04-25T08:57:40.000Z</time>
      </trkpt>
      <trkpt lat="44.58258" lon="6.05446">
        <ele>1128.947561</ele>
        <time>2021-04-25T08:57:45.000Z</time>
      </trkpt>
      <trkpt lat="44.58258" lon="6.05446">
        <ele>1128.947561</ele>
        <time>2021-04-25T08:57:46.000Z</time>
      </trkpt>
      <trkpt lat="44.58264" lon="6.05455">
        <ele>1129.636943</ele>
        <time>2021-04-25T08:57:49.000Z</time>
      </trkpt>
      <trkpt lat="44.58264" lon="6.05455">
        <ele>1129.636943</ele>
        <time>2021-04-25T08:57:52.000Z</time>
      </trkpt>
      <trkpt lat="44.5827" lon="6.05462">
        <ele>1130.271807</ele>
        <time>2021-04-25T08:57:54.000Z</time>
      </trkpt>
      <trkpt lat="44.5827" lon="6.05462">
        <ele>1130.271807</ele>
        <time>2021-04-25T08:57:55.000Z</time>
      </trkpt>
      <trkpt lat="44.5827" lon="6.05462">
        <ele>1130.271807</ele>
        <time>2021-04-25T08:57:57.000Z</time>
      </trkpt>
      <trkpt lat="44.58274" lon="6.05474">
        <ele>1131.043222</ele>
        <time>2021-04-25T08:57:59.000Z</time>
      </trkpt>
      <trkpt lat="44.58274" lon="6.05474">
        <ele>1131.043222</ele>
        <time>2021-04-25T08:58:02.000Z</time>
      </trkpt>
      <trkpt lat="44.58278" lon="6.05482">
        <ele>1131.583335</ele>
        <time>2021-04-25T08:58:03.000Z</time>
      </trkpt>
      <trkpt lat="44.58278" lon="6.05482">
        <ele>1131.583335</ele>
        <time>2021-04-25T08:58:05.000Z</time>
      </trkpt>
      <trkpt lat="44.58283" lon="6.0549">
        <ele>1132.179298</ele>
        <time>2021-04-25T08:58:09.000Z</time>
      </trkpt>
      <trkpt lat="44.58283" lon="6.0549">
        <ele>1132.179298</ele>
        <time>2021-04-25T08:58:10.000Z</time>
      </trkpt>
      <trkpt lat="44.58288" lon="6.05499">
        <ele>1132.857092</ele>
        <time>2021-04-25T08:58:13.000Z</time>
      </trkpt>
      <trkpt lat="44.58293" lon="6.05509">
        <ele>1133.564717</ele>
        <time>2021-04-25T08:58:18.000Z</time>
      </trkpt>
      <trkpt lat="44.58293" lon="6.05509">
        <ele>1133.564717</ele>
        <time>2021-04-25T08:58:19.000Z</time>
      </trkpt>
      <trkpt lat="44.58299" lon="6.05519">
        <ele>1134.274679</ele>
        <time>2021-04-25T08:58:22.000Z</time>
      </trkpt>
      <trkpt lat="44.58304" lon="6.05527">
        <ele>1134.909185</ele>
        <time>2021-04-25T08:58:26.000Z</time>
      </trkpt>
      <trkpt lat="44.58309" lon="6.05535">
        <ele>1135.510272</ele>
        <time>2021-04-25T08:58:30.000Z</time>
      </trkpt>
      <trkpt lat="44.58309" lon="6.05535">
        <ele>1135.510272</ele>
        <time>2021-04-25T08:58:32.000Z</time>
      </trkpt>
      <trkpt lat="44.58313" lon="6.05545">
        <ele>1136.152734</ele>
        <time>2021-04-25T08:58:35.000Z</time>
      </trkpt>
      <trkpt lat="44.58313" lon="6.05545">
        <ele>1136.152734</ele>
        <time>2021-04-25T08:58:38.000Z</time>
      </trkpt>
      <trkpt lat="44.58318" lon="6.05554">
        <ele>1136.776559</ele>
        <time>2021-04-25T08:58:39.000Z</time>
      </trkpt>
      <trkpt lat="44.58318" lon="6.05554">
        <ele>1136.776559</ele>
        <time>2021-04-25T08:58:43.000Z</time>
      </trkpt>
      <trkpt lat="44.58324" lon="6.05562">
        <ele>1137.380195</ele>
        <time>2021-04-25T08:58:44.000Z</time>
      </trkpt>
      <trkpt lat="44.58329" lon="6.05571">
        <ele>1137.84724</ele>
        <time>2021-04-25T08:58:49.000Z</time>
      </trkpt>
      <trkpt lat="44.58329" lon="6.05571">
        <ele>1137.84724</ele>
        <time>2021-04-25T08:58:51.000Z</time>
      </trkpt>
      <trkpt lat="44.58335" lon="6.0558">
        <ele>1138.363944</ele>
        <time>2021-04-25T08:58:52.000Z</time>
      </trkpt>
      <trkpt lat="44.58342" lon="6.05587">
        <ele>1138.854755</ele>
        <time>2021-04-25T08:58:55.000Z</time>
      </trkpt>
      <trkpt lat="44.58348" lon="6.05594">
        <ele>1139.296421</ele>
        <time>2021-04-25T08:58:58.000Z</time>
      </trkpt>
      <trkpt lat="44.58354" lon="6.05601">
        <ele>1139.747058</ele>
        <time>2021-04-25T08:59:01.000Z</time>
      </trkpt>
      <trkpt lat="44.58354" lon="6.05601">
        <ele>1139.747058</ele>
        <time>2021-04-25T08:59:02.000Z</time>
      </trkpt>
      <trkpt lat="44.58361" lon="6.05608">
        <ele>1140.24651</ele>
        <time>2021-04-25T08:59:05.000Z</time>
      </trkpt>
      <trkpt lat="44.58361" lon="6.05608">
        <ele>1140.24651</ele>
        <time>2021-04-25T08:59:07.000Z</time>
      </trkpt>
      <trkpt lat="44.58361" lon="6.05608">
        <ele>1140.24651</ele>
        <time>2021-04-25T08:59:08.000Z</time>
      </trkpt>
      <trkpt lat="44.58368" lon="6.05614">
        <ele>1140.710927</ele>
        <time>2021-04-25T08:59:09.000Z</time>
      </trkpt>
      <trkpt lat="44.58368" lon="6.05614">
        <ele>1140.710927</ele>
        <time>2021-04-25T08:59:11.000Z</time>
      </trkpt>
      <trkpt lat="44.58374" lon="6.05622">
        <ele>1141.196354</ele>
        <time>2021-04-25T08:59:15.000Z</time>
      </trkpt>
      <trkpt lat="44.58374" lon="6.05622">
        <ele>1141.196354</ele>
        <time>2021-04-25T08:59:18.000Z</time>
      </trkpt>
      <trkpt lat="44.58383" lon="6.05628">
        <ele>1141.767025</ele>
        <time>2021-04-25T08:59:20.000Z</time>
      </trkpt>
      <trkpt lat="44.5839" lon="6.05635">
        <ele>1142.250303</ele>
        <time>2021-04-25T08:59:24.000Z</time>
      </trkpt>
      <trkpt lat="44.5839" lon="6.05635">
        <ele>1142.250303</ele>
        <time>2021-04-25T08:59:26.000Z</time>
      </trkpt>
      <trkpt lat="44.5839" lon="6.05635">
        <ele>1142.250303</ele>
        <time>2021-04-25T08:59:28.000Z</time>
      </trkpt>
      <trkpt lat="44.5839" lon="6.05635">
        <ele>1142.250303</ele>
        <time>2021-04-25T08:59:29.000Z</time>
      </trkpt>
      <trkpt lat="44.5839" lon="6.05635">
        <ele>1142.250303</ele>
        <time>2021-04-25T08:59:31.000Z</time>
      </trkpt>
      <trkpt lat="44.5839" lon="6.05635">
        <ele>1142.250303</ele>
        <time>2021-04-25T08:59:37.000Z</time>
      </trkpt>
      <trkpt lat="44.58385" lon="6.05623">
        <ele>1142.802272</ele>
        <time>2021-04-25T08:59:38.000Z</time>
      </trkpt>
      <trkpt lat="44.58385" lon="6.05623">
        <ele>1142.802272</ele>
        <time>2021-04-25T08:59:39.000Z</time>
      </trkpt>
      <trkpt lat="44.58385" lon="6.05623">
        <ele>1142.802272</ele>
        <time>2021-04-25T08:59:40.000Z</time>
      </trkpt>
      <trkpt lat="44.58379" lon="6.05616">
        <ele>1143.247156</ele>
        <time>2021-04-25T08:59:44.000Z</time>
      </trkpt>
      <trkpt lat="44.58379" lon="6.05616">
        <ele>1143.247156</ele>
        <time>2021-04-25T08:59:46.000Z</time>
      </trkpt>
      <trkpt lat="44.58374" lon="6.05608">
        <ele>1143.664318</ele>
        <time>2021-04-25T08:59:50.000Z</time>
      </trkpt>
      <trkpt lat="44.58368" lon="6.05601">
        <ele>1144.129006</ele>
        <time>2021-04-25T08:59:55.000Z</time>
      </trkpt>
      <trkpt lat="44.58362" lon="6.05594">
        <ele>1144.603128</ele>
        <time>2021-04-25T08:59:59.000Z</time>
      </trkpt>
      <trkpt lat="44.58354" lon="6.05584">
        <ele>1145.169279</ele>
        <time>2021-04-25T09:00:03.000Z</time>
      </trkpt>
      <trkpt lat="44.58354" lon="6.05584">
        <ele>1145.169279</ele>
        <time>2021-04-25T09:00:04.000Z</time>
      </trkpt>
      <trkpt lat="44.58348" lon="6.05575">
        <ele>1145.688116</ele>
        <time>2021-04-25T09:00:07.000Z</time>
      </trkpt>
      <trkpt lat="44.58348" lon="6.05575">
        <ele>1145.688116</ele>
        <time>2021-04-25T09:00:08.000Z</time>
      </trkpt>
      <trkpt lat="44.58348" lon="6.05575">
        <ele>1145.688116</ele>
        <time>2021-04-25T09:00:09.000Z</time>
      </trkpt>
      <trkpt lat="44.58348" lon="6.05575">
        <ele>1145.688116</ele>
        <time>2021-04-25T09:00:10.000Z</time>
      </trkpt>
      <trkpt lat="44.58341" lon="6.05564">
        <ele>1146.274882</ele>
        <time>2021-04-25T09:00:12.000Z</time>
      </trkpt>
      <trkpt lat="44.58341" lon="6.05564">
        <ele>1146.274882</ele>
        <time>2021-04-25T09:00:13.000Z</time>
      </trkpt>
      <trkpt lat="44.58336" lon="6.0555">
        <ele>1146.934302</ele>
        <time>2021-04-25T09:00:17.000Z</time>
      </trkpt>
      <trkpt lat="44.58336" lon="6.0555">
        <ele>1146.934302</ele>
        <time>2021-04-25T09:00:19.000Z</time>
      </trkpt>
      <trkpt lat="44.58336" lon="6.0555">
        <ele>1146.934302</ele>
        <time>2021-04-25T09:00:20.000Z</time>
      </trkpt>
      <trkpt lat="44.58336" lon="6.0555">
        <ele>1146.934302</ele>
        <time>2021-04-25T09:00:21.000Z</time>
      </trkpt>
      <trkpt lat="44.58331" lon="6.05538">
        <ele>1147.519963</ele>
        <time>2021-04-25T09:00:22.000Z</time>
      </trkpt>
      <trkpt lat="44.58326" lon="6.05525">
        <ele>1147.678059</ele>
        <time>2021-04-25T09:00:26.000Z</time>
      </trkpt>
      <trkpt lat="44.58326" lon="6.05525">
        <ele>1147.678059</ele>
        <time>2021-04-25T09:00:27.000Z</time>
      </trkpt>
      <trkpt lat="44.58322" lon="6.05514">
        <ele>1147.815146</ele>
        <time>2021-04-25T09:00:30.000Z</time>
      </trkpt>
      <trkpt lat="44.58317" lon="6.05506">
        <ele>1147.920136</ele>
        <time>2021-04-25T09:00:33.000Z</time>
      </trkpt>
      <trkpt lat="44.58317" lon="6.05506">
        <ele>1147.920136</ele>
        <time>2021-04-25T09:00:34.000Z</time>
      </trkpt>
      <trkpt lat="44.58314" lon="6.05495">
        <ele>1148.03791</ele>
        <time>2021-04-25T09:00:36.000Z</time>
      </trkpt>
      <trkpt lat="44.58311" lon="6.05485">
        <ele>1148.142544</ele>
        <time>2021-04-25T09:00:39.000Z</time>
      </trkpt>
      <trkpt lat="44.58311" lon="6.05485">
        <ele>1148.142544</ele>
        <time>2021-04-25T09:00:40.000Z</time>
      </trkpt>
      <trkpt lat="44.58307" lon="6.05475">
        <ele>1148.27001</ele>
        <time>2021-04-25T09:00:42.000Z</time>
      </trkpt>
      <trkpt lat="44.58303" lon="6.05464">
        <ele>1148.392</ele>
        <time>2021-04-25T09:00:45.000Z</time>
      </trkpt>
      <trkpt lat="44.58298" lon="6.05451">
        <ele>1148.544039</ele>
        <time>2021-04-25T09:00:49.000Z</time>
      </trkpt>
      <trkpt lat="44.58294" lon="6.05438">
        <ele>1148.685221</ele>
        <time>2021-04-25T09:00:54.000Z</time>
      </trkpt>
      <trkpt lat="44.58294" lon="6.05438">
        <ele>1148.685221</ele>
        <time>2021-04-25T09:00:55.000Z</time>
      </trkpt>
      <trkpt lat="44.5829" lon="6.05424">
        <ele>1148.841087</ele>
        <time>2021-04-25T09:00:58.000Z</time>
      </trkpt>
      <trkpt lat="44.5829" lon="6.05424">
        <ele>1148.841087</ele>
        <time>2021-04-25T09:00:59.000Z</time>
      </trkpt>
      <trkpt lat="44.58281" lon="6.05414">
        <ele>1149.002354</ele>
        <time>2021-04-25T09:01:02.000Z</time>
      </trkpt>
      <trkpt lat="44.58281" lon="6.05414">
        <ele>1149.002354</ele>
        <time>2021-04-25T09:01:05.000Z</time>
      </trkpt>
      <trkpt lat="44.58271" lon="6.05403">
        <ele>1149.194593</ele>
        <time>2021-04-25T09:01:06.000Z</time>
      </trkpt>
      <trkpt lat="44.58263" lon="6.05393">
        <ele>1149.344251</ele>
        <time>2021-04-25T09:01:09.000Z</time>
      </trkpt>
      <trkpt lat="44.58255" lon="6.05383">
        <ele>1149.491062</ele>
        <time>2021-04-25T09:01:12.000Z</time>
      </trkpt>
      <trkpt lat="44.58255" lon="6.05383">
        <ele>1149.491062</ele>
        <time>2021-04-25T09:01:14.000Z</time>
      </trkpt>
      <trkpt lat="44.58248" lon="6.05373">
        <ele>1149.641646</ele>
        <time>2021-04-25T09:01:15.000Z</time>
      </trkpt>
      <trkpt lat="44.58241" lon="6.05361">
        <ele>1149.802883</ele>
        <time>2021-04-25T09:01:18.000Z</time>
      </trkpt>
      <trkpt lat="44.58241" lon="6.05361">
        <ele>1149.802883</ele>
        <time>2021-04-25T09:01:19.000Z</time>
      </trkpt>
      <trkpt lat="44.58233" lon="6.05348">
        <ele>1149.97677</ele>
        <time>2021-04-25T09:01:21.000Z</time>
      </trkpt>
      <trkpt lat="44.58224" lon="6.05335">
        <ele>1150.159362</ele>
        <time>2021-04-25T09:01:24.000Z</time>
      </trkpt>
      <trkpt lat="44.58216" lon="6.05324">
        <ele>1150.304458</ele>
        <time>2021-04-25T09:01:27.000Z</time>
      </trkpt>
      <trkpt lat="44.58216" lon="6.05324">
        <ele>1150.304458</ele>
        <time>2021-04-25T09:01:28.000Z</time>
      </trkpt>
      <trkpt lat="44.5821" lon="6.05313">
        <ele>1150.438298</ele>
        <time>2021-04-25T09:01:30.000Z</time>
      </trkpt>
      <trkpt lat="44.58133" lon="6.05183">
        <ele>1146.8</ele>
      </trkpt>
      <trkpt lat="44.58101" lon="6.05142">
        <ele>1146.5</ele>
      </trkpt>
      <trkpt lat="44.58066" lon="6.05112">
        <ele>1143.5</ele>
      </trkpt>
      <trkpt lat="44.58042" lon="6.05064">
        <ele>1147.7</ele>
      </trkpt>
      <trkpt lat="44.58014" lon="6.05047">
        <ele>1143.2</ele>
      </trkpt>
      <trkpt lat="44.57986" lon="6.0499">
        <ele>1145.1</ele>
      </trkpt>
      <trkpt lat="44.57962" lon="6.04953">
        <ele>1145.4</ele>
      </trkpt>
      <trkpt lat="44.5794" lon="6.04928">
        <ele>1142.6</ele>
      </trkpt>
      <trkpt lat="44.57901" lon="6.04833">
        <ele>1148.3</ele>
      </trkpt>
      <trkpt lat="44.57855" lon="6.04785">
        <ele>1149.2</ele>
      </trkpt>
      <trkpt lat="44.5781" lon="6.04758">
        <ele>1143.3</ele>
      </trkpt>
      <trkpt lat="44.57791" lon="6.04706">
        <ele>1153</ele>
      </trkpt>
      <trkpt lat="44.57703" lon="6.0468">
        <ele>1139.8</ele>
      </trkpt>
      <trkpt lat="44.57684" lon="6.04599">
        <ele>1147.1</ele>
      </trkpt>
      <trkpt lat="44.57656" lon="6.04574">
        <ele>1145.1</ele>
      </trkpt>
      <trkpt lat="44.57631" lon="6.04555">
        <ele>1143.7</ele>
      </trkpt>
      <trkpt lat="44.57618" lon="6.04531">
        <ele>1144.9</ele>
      </trkpt>
      <trkpt lat="44.57566" lon="6.04451">
        <ele>1142.5</ele>
      </trkpt>
      <trkpt lat="44.57535" lon="6.04407">
        <ele>1140.8</ele>
      </trkpt>
      <trkpt lat="44.57513" lon="6.0433">
        <ele>1147.6</ele>
      </trkpt>
      <trkpt lat="44.57496" lon="6.04269">
        <ele>1148.6</ele>
      </trkpt>
      <trkpt lat="44.57471" lon="6.04224">
        <ele>1144.9</ele>
      </trkpt>
      <trkpt lat="44.57444" lon="6.04185">
        <ele>1140.4</ele>
      </trkpt>
      <trkpt lat="44.57421" lon="6.04135">
        <ele>1139.6</ele>
      </trkpt>
      <trkpt lat="44.57399" lon="6.04078">
        <ele>1142.1</ele>
      </trkpt>
      <trkpt lat="44.57374" lon="6.04022">
        <ele>1142.9</ele>
      </trkpt>
      <trkpt lat="44.57357" lon="6.03978">
        <ele>1144.4</ele>
      </trkpt>
      <trkpt lat="44.57333" lon="6.03941">
        <ele>1143.3</ele>
      </trkpt>
      <trkpt lat="44.57308" lon="6.03916">
        <ele>1141</ele>
      </trkpt>
      <trkpt lat="44.57287" lon="6.03883">
        <ele>1141.8</ele>
      </trkpt>
      <trkpt lat="44.57253" lon="6.03848">
        <ele>1139.4</ele>
      </trkpt>
      <trkpt lat="44.57227" lon="6.03822">
        <ele>1135.2</ele>
      </trkpt>
      <trkpt lat="44.57207" lon="6.03804">
        <ele>1129.7</ele>
      </trkpt>
      <trkpt lat="44.57199" lon="6.0379">
        <ele>1127</ele>
      </trkpt>
      <trkpt lat="44.57206" lon="6.03771">
        <ele>1128.4</ele>
      </trkpt>
      <trkpt lat="44.57235" lon="6.03753">
        <ele>1136.5</ele>
      </trkpt>
      <trkpt lat="44.5726" lon="6.03713">
        <ele>1141.8</ele>
      </trkpt>
      <trkpt lat="44.57302" lon="6.03702">
        <ele>1153.8</ele>
      </trkpt>
      <trkpt lat="44.57313" lon="6.0369">
        <ele>1156.2</ele>
      </trkpt>
      <trkpt lat="44.5729" lon="6.03666">
        <ele>1148.1</ele>
      </trkpt>
      <trkpt lat="44.57269" lon="6.03627">
        <ele>1146.2</ele>
      </trkpt>
      <trkpt lat="44.57244" lon="6.03608">
        <ele>1141</ele>
      </trkpt>
      <trkpt lat="44.57235" lon="6.036">
        <ele>1140.1</ele>
      </trkpt>
      <trkpt lat="44.57213" lon="6.03528">
        <ele>1149.2</ele>
      </trkpt>
      <trkpt lat="44.57185" lon="6.03522">
        <ele>1149.5</ele>
      </trkpt>
      <trkpt lat="44.57174" lon="6.03525">
        <ele>1148.3</ele>
      </trkpt>
      <trkpt lat="44.57156" lon="6.03543">
        <ele>1141.9</ele>
      </trkpt>
      <trkpt lat="44.57129" lon="6.03563">
        <ele>1135.5</ele>
      </trkpt>
      <trkpt lat="44.57095" lon="6.03566">
        <ele>1134.5</ele>
      </trkpt>
      <trkpt lat="44.57066" lon="6.03556">
        <ele>1133.4</ele>
      </trkpt>
      <trkpt lat="44.57037" lon="6.03492">
        <ele>1142</ele>
      </trkpt>
      <trkpt lat="44.57015" lon="6.03443">
        <ele>1146.7</ele>
      </trkpt>
      <trkpt lat="44.56986" lon="6.03423">
        <ele>1142.6</ele>
      </trkpt>
      <trkpt lat="44.56954" lon="6.03386">
        <ele>1143.1</ele>
      </trkpt>
      <trkpt lat="44.56917" lon="6.03339">
        <ele>1145.6</ele>
      </trkpt>
      <trkpt lat="44.56887" lon="6.0332">
        <ele>1142.6</ele>
      </trkpt>
      <trkpt lat="44.5686" lon="6.03281">
        <ele>1142</ele>
      </trkpt>
      <trkpt lat="44.5684" lon="6.03253">
        <ele>1139.7</ele>
      </trkpt>
      <trkpt lat="44.56836" lon="6.03219">
        <ele>1145.1</ele>
      </trkpt>
      <trkpt lat="44.56824" lon="6.03189">
        <ele>1147.8</ele>
      </trkpt>
      <trkpt lat="44.56778" lon="6.03137">
        <ele>1148</ele>
      </trkpt>
      <trkpt lat="44.56704" lon="6.03068">
        <ele>1148.5</ele>
      </trkpt>
      <trkpt lat="44.56683" lon="6.03031">
        <ele>1151.9</ele>
      </trkpt>
      <trkpt lat="44.5665" lon="6.03025">
        <ele>1146</ele>
      </trkpt>
      <trkpt lat="44.56647" lon="6.03011">
        <ele>1149</ele>
      </trkpt>
      <trkpt lat="44.56624" lon="6.03018">
        <ele>1143.5</ele>
      </trkpt>
      <trkpt lat="44.56555" lon="6.02936">
        <ele>1149.9</ele>
      </trkpt>
      <trkpt lat="44.56547" lon="6.02912">
        <ele>1154.1</ele>
      </trkpt>
      <trkpt lat="44.56507" lon="6.0291">
        <ele>1146.3</ele>
      </trkpt>
      <trkpt lat="44.56468" lon="6.02895">
        <ele>1143.2</ele>
      </trkpt>
      <trkpt lat="44.56362" lon="6.02783">
        <ele>1145.5</ele>
      </trkpt>
      <trkpt lat="44.56326" lon="6.02743">
        <ele>1142.6</ele>
      </trkpt>
      <trkpt lat="44.56309" lon="6.02695">
        <ele>1145.1</ele>
      </trkpt>
      <trkpt lat="44.56302" lon="6.02658">
        <ele>1149.5</ele>
      </trkpt>
      <trkpt lat="44.56281" lon="6.02626">
        <ele>1149.8</ele>
      </trkpt>
      <trkpt lat="44.56253" lon="6.02633">
        <ele>1141.3</ele>
      </trkpt>
      <trkpt lat="44.56229" lon="6.02627">
        <ele>1136.8</ele>
      </trkpt>
      <trkpt lat="44.56201" lon="6.02581">
        <ele>1137.2</ele>
      </trkpt>
      <trkpt lat="44.56151" lon="6.02473">
        <ele>1139.3</ele>
      </trkpt>
      <trkpt lat="44.56074" lon="6.02312">
        <ele>1136</ele>
      </trkpt>
      <trkpt lat="44.56036" lon="6.02204">
        <ele>1136.9</ele>
      </trkpt>
      <trkpt lat="44.56015" lon="6.02118">
        <ele>1135.9</ele>
      </trkpt>
      <trkpt lat="44.56004" lon="6.02024">
        <ele>1135.6</ele>
      </trkpt>
      <trkpt lat="44.55997" lon="6.01945">
        <ele>1136.3</ele>
      </trkpt>
      <trkpt lat="44.55983" lon="6.01873">
        <ele>1135.2</ele>
      </trkpt>
      <trkpt lat="44.55985" lon="6.01825">
        <ele>1136.9</ele>
      </trkpt>
      <trkpt lat="44.55986" lon="6.01796">
        <ele>1137.5</ele>
      </trkpt>
      <trkpt lat="44.55975" lon="6.01774">
        <ele>1135.6</ele>
      </trkpt>
      <trkpt lat="44.5597" lon="6.01694">
        <ele>1134.7</ele>
      </trkpt>
      <trkpt lat="44.55975" lon="6.01626">
        <ele>1136.6</ele>
      </trkpt>
      <trkpt lat="44.55962" lon="6.01506">
        <ele>1137.5</ele>
      </trkpt>
      <trkpt lat="44.55943" lon="6.0141">
        <ele>1139.7</ele>
      </trkpt>
      <trkpt lat="44.55918" lon="6.01349">
        <ele>1138.4</ele>
      </trkpt>
      <trkpt lat="44.55899" lon="6.01329">
        <ele>1136.7</ele>
      </trkpt>
      <trkpt lat="44.55873" lon="6.01348">
        <ele>1132.7</ele>
      </trkpt>
      <trkpt lat="44.55812" lon="6.01345">
        <ele>1125.2</ele>
      </trkpt>
      <trkpt lat="44.5573" lon="6.01345">
        <ele>1116.7</ele>
      </trkpt>
      <trkpt lat="44.55632" lon="6.01367">
        <ele>1108.6</ele>
      </trkpt>
      <trkpt lat="44.55569" lon="6.01383">
        <ele>1104.4</ele>
      </trkpt>
      <trkpt lat="44.55429" lon="6.01414">
        <ele>1098.5</ele>
      </trkpt>
      <trkpt lat="44.55368" lon="6.01391">
        <ele>1095.3</ele>
      </trkpt>
      <trkpt lat="44.55311" lon="6.01374">
        <ele>1093.3</ele>
      </trkpt>
      <trkpt lat="44.55252" lon="6.01355">
        <ele>1092.3</ele>
      </trkpt>
      <trkpt lat="44.55157" lon="6.01318">
        <ele>1087</ele>
      </trkpt>
      <trkpt lat="44.55074" lon="6.01309">
        <ele>1080.9</ele>
      </trkpt>
      <trkpt lat="44.55058" lon="6.01441">
        <ele>1078.2</ele>
      </trkpt>
      <trkpt lat="44.55023" lon="6.01539">
        <ele>1076.2</ele>
      </trkpt>
      <trkpt lat="44.5501" lon="6.01626">
        <ele>1074.4</ele>
      </trkpt>
      <trkpt lat="44.55013" lon="6.01665">
        <ele>1073.1</ele>
      </trkpt>
      <trkpt lat="44.5503" lon="6.01682">
        <ele>1071</ele>
      </trkpt>
      <trkpt lat="44.55057" lon="6.01683">
        <ele>1070.9</ele>
      </trkpt>
      <trkpt lat="44.55064" lon="6.0169">
        <ele>1070.1</ele>
      </trkpt>
      <trkpt lat="44.55018" lon="6.01707">
        <ele>1067.4</ele>
      </trkpt>
      <trkpt lat="44.54981" lon="6.01724">
        <ele>1066.2</ele>
      </trkpt>
      <trkpt lat="44.54885" lon="6.01876">
        <ele>1055</ele>
      </trkpt>
      <trkpt lat="44.54857" lon="6.0197">
        <ele>1046.9</ele>
      </trkpt>
      <trkpt lat="44.54824" lon="6.01997">
        <ele>1043.3</ele>
      </trkpt>
      <trkpt lat="44.54789" lon="6.02163">
        <ele>1033.5</ele>
      </trkpt>
      <trkpt lat="44.54699" lon="6.02177">
        <ele>1028.6</ele>
      </trkpt>
      <trkpt lat="44.54673" lon="6.02173">
        <ele>1029.5</ele>
      </trkpt>
      <trkpt lat="44.54614" lon="6.02183">
        <ele>1026.5</ele>
      </trkpt>
      <trkpt lat="44.54552" lon="6.02198">
        <ele>1020</ele>
      </trkpt>
      <trkpt lat="44.54466" lon="6.02198">
        <ele>1012.6</ele>
      </trkpt>
      <trkpt lat="44.54436" lon="6.02186">
        <ele>1010.7</ele>
      </trkpt>
      <trkpt lat="44.544" lon="6.02136">
        <ele>1016.7</ele>
      </trkpt>
      <trkpt lat="44.54356" lon="6.02116">
        <ele>1014.8</ele>
      </trkpt>
      <trkpt lat="44.54327" lon="6.02122">
        <ele>1009.8</ele>
      </trkpt>
      <trkpt lat="44.54282" lon="6.02115">
        <ele>1005.8</ele>
      </trkpt>
      <trkpt lat="44.54252" lon="6.02094">
        <ele>1003.7</ele>
      </trkpt>
      <trkpt lat="44.54208" lon="6.02068">
        <ele>999.7</ele>
      </trkpt>
      <trkpt lat="44.54118" lon="6.01936">
        <ele>990</ele>
      </trkpt>
      <trkpt lat="44.54111" lon="6.01673">
        <ele>982.6</ele>
      </trkpt>
      <trkpt lat="44.54105" lon="6.01475">
        <ele>973.1</ele>
      </trkpt>
      <trkpt lat="44.54168" lon="6.01314">
        <ele>972.7</ele>
      </trkpt>
      <trkpt lat="44.54121" lon="6.01285">
        <ele>968.5</ele>
      </trkpt>
      <trkpt lat="44.54093" lon="6.01271">
        <ele>966.2</ele>
      </trkpt>
      <trkpt lat="44.54057" lon="6.01287">
        <ele>964.5</ele>
      </trkpt>
      <trkpt lat="44.5401" lon="6.01352">
        <ele>962.1</ele>
      </trkpt>
      <trkpt lat="44.53947" lon="6.0138">
        <ele>961.6</ele>
      </trkpt>
      <trkpt lat="44.53878" lon="6.01393">
        <ele>960.9</ele>
      </trkpt>
      <trkpt lat="44.53802" lon="6.01362">
        <ele>957.9</ele>
      </trkpt>
      <trkpt lat="44.53746" lon="6.0136">
        <ele>956.9</ele>
      </trkpt>
      <trkpt lat="44.5365" lon="6.01355">
        <ele>955.6</ele>
      </trkpt>
      <trkpt lat="44.53616" lon="6.01326">
        <ele>955</ele>
      </trkpt>
      <trkpt lat="44.53602" lon="6.01251">
        <ele>954.8</ele>
      </trkpt>
      <trkpt lat="44.53603" lon="6.01159">
        <ele>955.8</ele>
      </trkpt>
      <trkpt lat="44.53581" lon="6.01069">
        <ele>957.1</ele>
      </trkpt>
      <trkpt lat="44.53538" lon="6.01032">
        <ele>955.8</ele>
      </trkpt>
      <trkpt lat="44.53529" lon="6.00998">
        <ele>956</ele>
      </trkpt>
      <trkpt lat="44.53496" lon="6.00957">
        <ele>954.8</ele>
      </trkpt>
      <trkpt lat="44.53463" lon="6.00911">
        <ele>954.4</ele>
      </trkpt>
      <trkpt lat="44.53438" lon="6.00897">
        <ele>954.9</ele>
      </trkpt>
      <trkpt lat="44.53497" lon="6.00842">
        <ele>957.7</ele>
      </trkpt>
      <trkpt lat="44.53568" lon="6.0079">
        <ele>959.2</ele>
      </trkpt>
      <trkpt lat="44.53624" lon="6.00678">
        <ele>963.1</ele>
      </trkpt>
      <trkpt lat="44.53668" lon="6.0056">
        <ele>966.8</ele>
      </trkpt>
      <trkpt lat="44.53681" lon="6.00549">
        <ele>967.1</ele>
      </trkpt>
      <trkpt lat="44.53676" lon="6.00491">
        <ele>968.7</ele>
      </trkpt>
      <trkpt lat="44.53693" lon="6.00467">
        <ele>968.1</ele>
      </trkpt>
      <trkpt lat="44.53646" lon="6.00396">
        <ele>969.3</ele>
      </trkpt>
      <trkpt lat="44.53595" lon="6.00276">
        <ele>973.8</ele>
      </trkpt>
      <trkpt lat="44.5355" lon="6.00246">
        <ele>978.8</ele>
      </trkpt>
      <trkpt lat="44.53542" lon="6.00191">
        <ele>981.6</ele>
      </trkpt>
      <trkpt lat="44.53505" lon="6.00156">
        <ele>984.4</ele>
      </trkpt>
      <trkpt lat="44.53472" lon="6.0011">
        <ele>988.7</ele>
      </trkpt>
      <trkpt lat="44.53429" lon="6.00041">
        <ele>996</ele>
      </trkpt>
      <trkpt lat="44.53377" lon="5.9998">
        <ele>1005.9</ele>
      </trkpt>
      <trkpt lat="44.53389" lon="5.99916">
        <ele>1006</ele>
      </trkpt>
      <trkpt lat="44.53391" lon="5.9987">
        <ele>1009</ele>
      </trkpt>
      <trkpt lat="44.53389" lon="5.99845">
        <ele>1011.1</ele>
      </trkpt>
      <trkpt lat="44.53393" lon="5.99795">
        <ele>1013.9</ele>
      </trkpt>
      <trkpt lat="44.53372" lon="5.99796">
        <ele>1015.3</ele>
      </trkpt>
      <trkpt lat="44.53363" lon="5.99879">
        <ele>1013</ele>
      </trkpt>
      <trkpt lat="44.53332" lon="5.99928">
        <ele>1017.7</ele>
      </trkpt>
      <trkpt lat="44.53278" lon="5.99915">
        <ele>1023.9</ele>
      </trkpt>
      <trkpt lat="44.532" lon="5.99875">
        <ele>1028.8</ele>
      </trkpt>
      <trkpt lat="44.53142" lon="5.99858">
        <ele>1032.3</ele>
      </trkpt>
      <trkpt lat="44.53031" lon="5.99921">
        <ele>1039.6</ele>
      </trkpt>
      <trkpt lat="44.53006" lon="5.99943">
        <ele>1040.9</ele>
      </trkpt>
      <trkpt lat="44.52959" lon="5.99959">
        <ele>1044.9</ele>
      </trkpt>
      <trkpt lat="44.52926" lon="5.99993">
        <ele>1047.3</ele>
      </trkpt>
      <trkpt lat="44.52872" lon="6.00051">
        <ele>1048.7</ele>
      </trkpt>
      <trkpt lat="44.52836" lon="6.00105">
        <ele>1048.5</ele>
      </trkpt>
      <trkpt lat="44.5282" lon="6.00167">
        <ele>1045.8</ele>
      </trkpt>
      <trkpt lat="44.52809" lon="6.00211">
        <ele>1045.2</ele>
      </trkpt>
      <trkpt lat="44.52774" lon="6.00259">
        <ele>1045.9</ele>
      </trkpt>
      <trkpt lat="44.52741" lon="6.003">
        <ele>1042.1</ele>
      </trkpt>
      <trkpt lat="44.52692" lon="6.00313">
        <ele>1038.8</ele>
      </trkpt>
      <trkpt lat="44.52642" lon="6.00318">
        <ele>1035.5</ele>
      </trkpt>
      <trkpt lat="44.52618" lon="6.00317">
        <ele>1034</ele>
      </trkpt>
      <trkpt lat="44.52559" lon="6.00267">
        <ele>1034.8</ele>
      </trkpt>
      <trkpt lat="44.52514" lon="6.00263">
        <ele>1032.8</ele>
      </trkpt>
      <trkpt lat="44.52478" lon="6.0027">
        <ele>1028.9</ele>
      </trkpt>
      <trkpt lat="44.52435" lon="6.00253">
        <ele>1028</ele>
      </trkpt>
      <trkpt lat="44.52381" lon="6.00223">
        <ele>1024.7</ele>
      </trkpt>
      <trkpt lat="44.52314" lon="6.00154">
        <ele>1025.2</ele>
      </trkpt>
      <trkpt lat="44.52275" lon="6.00105">
        <ele>1024.5</ele>
      </trkpt>
      <trkpt lat="44.52241" lon="6.0014">
        <ele>1021.6</ele>
      </trkpt>
      <trkpt lat="44.52189" lon="6.00153">
        <ele>1019.3</ele>
      </trkpt>
      <trkpt lat="44.52153" lon="6.00197">
        <ele>1013.9</ele>
      </trkpt>
      <trkpt lat="44.52223" lon="6.00274">
        <ele>1006.3</ele>
      </trkpt>
      <trkpt lat="44.52262" lon="6.00334">
        <ele>998.8</ele>
      </trkpt>
      <trkpt lat="44.5231" lon="6.00378">
        <ele>997.3</ele>
      </trkpt>
      <trkpt lat="44.52382" lon="6.00487">
        <ele>988.9</ele>
      </trkpt>
      <trkpt lat="44.52408" lon="6.00536">
        <ele>985.5</ele>
      </trkpt>
      <trkpt lat="44.52335" lon="6.00638">
        <ele>974.1</ele>
      </trkpt>
      <trkpt lat="44.52284" lon="6.00754">
        <ele>967.8</ele>
      </trkpt>
      <trkpt lat="44.52269" lon="6.0077">
        <ele>967.1</ele>
      </trkpt>
      <trkpt lat="44.52189" lon="6.00795">
        <ele>967.6</ele>
      </trkpt>
      <trkpt lat="44.52138" lon="6.00868">
        <ele>968.6</ele>
      </trkpt>
      <trkpt lat="44.52104" lon="6.00931">
        <ele>971.3</ele>
      </trkpt>
      <trkpt lat="44.52041" lon="6.00999">
        <ele>976.9</ele>
      </trkpt>
      <trkpt lat="44.51975" lon="6.01042">
        <ele>977.9</ele>
      </trkpt>
      <trkpt lat="44.51912" lon="6.01062">
        <ele>975.4</ele>
      </trkpt>
      <trkpt lat="44.5188" lon="6.01059">
        <ele>974.8</ele>
      </trkpt>
      <trkpt lat="44.5187" lon="6.01081">
        <ele>976.3</ele>
      </trkpt>
      <trkpt lat="44.51861" lon="6.01144">
        <ele>980</ele>
      </trkpt>
      <trkpt lat="44.51872" lon="6.01182">
        <ele>982.9</ele>
      </trkpt>
      <trkpt lat="44.51875" lon="6.01229">
        <ele>986.1</ele>
      </trkpt>
      <trkpt lat="44.51855" lon="6.01339">
        <ele>991.4</ele>
      </trkpt>
      <trkpt lat="44.51843" lon="6.01373">
        <ele>992.2</ele>
      </trkpt>
      <trkpt lat="44.51829" lon="6.01423">
        <ele>993</ele>
      </trkpt>
      <trkpt lat="44.51817" lon="6.01478">
        <ele>991.2</ele>
      </trkpt>
      <trkpt lat="44.51809" lon="6.01526">
        <ele>989.2</ele>
      </trkpt>
      <trkpt lat="44.51795" lon="6.01553">
        <ele>986.8</ele>
      </trkpt>
      <trkpt lat="44.51772" lon="6.01568">
        <ele>983.2</ele>
      </trkpt>
      <trkpt lat="44.51763" lon="6.01543">
        <ele>983.1</ele>
      </trkpt>
      <trkpt lat="44.51756" lon="6.01551">
        <ele>981.7</ele>
      </trkpt>
    </trkseg>
  </trk>
</gpx>